<?xml version="1.0" encoding="UTF-8" standalone="no" ?>
<gpx xmlns="http://www.topografix.com/GPX/1/1" xmlns:xsi="http://www.w3.org/2001/XMLSchema-instance" xsi:schemaLocation="http://www.topografix.com/GPX/1/1 http://www.topografix.com/GPX/1/1/gpx.xsd" version="1.1" creator="VisuGPX - https://www.visugpx.com">
  <metadata>
    <name>Vallée de la Gourgues à Caylus</name>
  </metadata>
  <trk>
    <name><![CDATA[Vallée de la Gourgues à Caylus_1]]></name>
    <trkseg>
      <trkpt lat="44.23173" lon="1.76648">
        <ele>306.5</ele>
        <time>2021-03-27T12:23:44Z</time>
      </trkpt>
      <trkpt lat="44.23173" lon="1.76648">
        <ele>306.5</ele>
        <time>2021-03-27T12:23:44Z</time>
      </trkpt>
      <trkpt lat="44.23172" lon="1.76649">
        <ele>306.5</ele>
        <time>2021-03-27T12:23:45Z</time>
      </trkpt>
      <trkpt lat="44.23171" lon="1.7665">
        <ele>306.5</ele>
        <time>2021-03-27T12:23:46Z</time>
      </trkpt>
      <trkpt lat="44.2317" lon="1.7665">
        <ele>306.5</ele>
        <time>2021-03-27T12:23:47Z</time>
      </trkpt>
      <trkpt lat="44.23165" lon="1.76653">
        <ele>306.6</ele>
        <time>2021-03-27T12:23:59Z</time>
      </trkpt>
      <trkpt lat="44.23168" lon="1.76659">
        <ele>306.6</ele>
        <time>2021-03-27T12:32:46Z</time>
      </trkpt>
      <trkpt lat="44.23171" lon="1.7666">
        <ele>306.7</ele>
        <time>2021-03-27T12:32:49Z</time>
      </trkpt>
      <trkpt lat="44.23169" lon="1.76666">
        <ele>306.7</ele>
        <time>2021-03-27T12:32:53Z</time>
      </trkpt>
      <trkpt lat="44.23171" lon="1.76665">
        <ele>306.7</ele>
        <time>2021-03-27T12:32:58Z</time>
      </trkpt>
      <trkpt lat="44.2317" lon="1.76668">
        <ele>306.8</ele>
        <time>2021-03-27T12:33:00Z</time>
      </trkpt>
      <trkpt lat="44.23167" lon="1.76671">
        <ele>306.8</ele>
        <time>2021-03-27T12:33:07Z</time>
      </trkpt>
      <trkpt lat="44.23168" lon="1.76671">
        <ele>306.8</ele>
        <time>2021-03-27T12:33:08Z</time>
      </trkpt>
      <trkpt lat="44.23171" lon="1.76674">
        <ele>306.9</ele>
        <time>2021-03-27T12:33:11Z</time>
      </trkpt>
      <trkpt lat="44.23168" lon="1.7668">
        <ele>306.9</ele>
        <time>2021-03-27T12:33:15Z</time>
      </trkpt>
      <trkpt lat="44.23167" lon="1.76679">
        <ele>307</ele>
        <time>2021-03-27T12:33:16Z</time>
      </trkpt>
      <trkpt lat="44.23168" lon="1.76672">
        <ele>307</ele>
        <time>2021-03-27T12:33:21Z</time>
      </trkpt>
      <trkpt lat="44.2317" lon="1.76666">
        <ele>307.1</ele>
        <time>2021-03-27T12:33:25Z</time>
      </trkpt>
      <trkpt lat="44.23171" lon="1.76663">
        <ele>307.2</ele>
        <time>2021-03-27T12:33:27Z</time>
      </trkpt>
      <trkpt lat="44.23169" lon="1.76659">
        <ele>307.2</ele>
        <time>2021-03-27T12:33:30Z</time>
      </trkpt>
      <trkpt lat="44.23167" lon="1.76651">
        <ele>307.3</ele>
        <time>2021-03-27T12:33:34Z</time>
      </trkpt>
      <trkpt lat="44.23167" lon="1.76644">
        <ele>307.4</ele>
        <time>2021-03-27T12:33:37Z</time>
      </trkpt>
      <trkpt lat="44.23167" lon="1.76637">
        <ele>307.5</ele>
        <time>2021-03-27T12:33:40Z</time>
      </trkpt>
      <trkpt lat="44.23169" lon="1.7663">
        <ele>307.6</ele>
        <time>2021-03-27T12:33:43Z</time>
      </trkpt>
      <trkpt lat="44.23171" lon="1.76622">
        <ele>307.7</ele>
        <time>2021-03-27T12:33:46Z</time>
      </trkpt>
      <trkpt lat="44.23175" lon="1.76616">
        <ele>307.8</ele>
        <time>2021-03-27T12:33:49Z</time>
      </trkpt>
      <trkpt lat="44.23179" lon="1.76611">
        <ele>307.5</ele>
        <time>2021-03-27T12:33:51Z</time>
      </trkpt>
      <trkpt lat="44.23182" lon="1.76607">
        <ele>307.1</ele>
        <time>2021-03-27T12:33:53Z</time>
      </trkpt>
      <trkpt lat="44.23184" lon="1.76598">
        <ele>307.3</ele>
        <time>2021-03-27T12:33:56Z</time>
      </trkpt>
      <trkpt lat="44.23184" lon="1.76592">
        <ele>307.5</ele>
        <time>2021-03-27T12:33:58Z</time>
      </trkpt>
      <trkpt lat="44.23184" lon="1.76585">
        <ele>307.7</ele>
        <time>2021-03-27T12:34:00Z</time>
      </trkpt>
      <trkpt lat="44.23183" lon="1.76578">
        <ele>307.9</ele>
        <time>2021-03-27T12:34:02Z</time>
      </trkpt>
      <trkpt lat="44.23183" lon="1.76572">
        <ele>308</ele>
        <time>2021-03-27T12:34:04Z</time>
      </trkpt>
      <trkpt lat="44.23182" lon="1.76565">
        <ele>308.2</ele>
        <time>2021-03-27T12:34:06Z</time>
      </trkpt>
      <trkpt lat="44.23181" lon="1.76557">
        <ele>308.4</ele>
        <time>2021-03-27T12:34:08Z</time>
      </trkpt>
      <trkpt lat="44.23181" lon="1.76551">
        <ele>308.6</ele>
        <time>2021-03-27T12:34:10Z</time>
      </trkpt>
      <trkpt lat="44.2318" lon="1.76544">
        <ele>308.7</ele>
        <time>2021-03-27T12:34:12Z</time>
      </trkpt>
      <trkpt lat="44.23179" lon="1.76537">
        <ele>308.8</ele>
        <time>2021-03-27T12:34:14Z</time>
      </trkpt>
      <trkpt lat="44.23178" lon="1.7653">
        <ele>309</ele>
        <time>2021-03-27T12:34:16Z</time>
      </trkpt>
      <trkpt lat="44.23177" lon="1.76523">
        <ele>309.1</ele>
        <time>2021-03-27T12:34:18Z</time>
      </trkpt>
      <trkpt lat="44.23176" lon="1.76516">
        <ele>309.2</ele>
        <time>2021-03-27T12:34:20Z</time>
      </trkpt>
      <trkpt lat="44.23175" lon="1.76509">
        <ele>309.3</ele>
        <time>2021-03-27T12:34:22Z</time>
      </trkpt>
      <trkpt lat="44.23175" lon="1.76503">
        <ele>309.3</ele>
        <time>2021-03-27T12:34:24Z</time>
      </trkpt>
      <trkpt lat="44.23174" lon="1.76496">
        <ele>309.4</ele>
        <time>2021-03-27T12:34:26Z</time>
      </trkpt>
      <trkpt lat="44.23172" lon="1.76489">
        <ele>309.5</ele>
        <time>2021-03-27T12:34:28Z</time>
      </trkpt>
      <trkpt lat="44.2317" lon="1.76482">
        <ele>309.5</ele>
        <time>2021-03-27T12:34:30Z</time>
      </trkpt>
      <trkpt lat="44.23169" lon="1.76475">
        <ele>309.6</ele>
        <time>2021-03-27T12:34:32Z</time>
      </trkpt>
      <trkpt lat="44.23167" lon="1.76468">
        <ele>309.7</ele>
        <time>2021-03-27T12:34:34Z</time>
      </trkpt>
      <trkpt lat="44.23166" lon="1.7646">
        <ele>309.8</ele>
        <time>2021-03-27T12:34:36Z</time>
      </trkpt>
      <trkpt lat="44.23164" lon="1.76454">
        <ele>309.8</ele>
        <time>2021-03-27T12:34:38Z</time>
      </trkpt>
      <trkpt lat="44.23162" lon="1.76447">
        <ele>309.9</ele>
        <time>2021-03-27T12:34:40Z</time>
      </trkpt>
      <trkpt lat="44.23161" lon="1.7644">
        <ele>309.9</ele>
        <time>2021-03-27T12:34:42Z</time>
      </trkpt>
      <trkpt lat="44.23159" lon="1.76433">
        <ele>310</ele>
        <time>2021-03-27T12:34:44Z</time>
      </trkpt>
      <trkpt lat="44.23157" lon="1.76426">
        <ele>310.1</ele>
        <time>2021-03-27T12:34:46Z</time>
      </trkpt>
      <trkpt lat="44.23155" lon="1.76418">
        <ele>310.1</ele>
        <time>2021-03-27T12:34:48Z</time>
      </trkpt>
      <trkpt lat="44.23153" lon="1.76411">
        <ele>310.1</ele>
        <time>2021-03-27T12:34:50Z</time>
      </trkpt>
      <trkpt lat="44.23151" lon="1.76403">
        <ele>310.1</ele>
        <time>2021-03-27T12:34:52Z</time>
      </trkpt>
      <trkpt lat="44.23149" lon="1.76395">
        <ele>310</ele>
        <time>2021-03-27T12:34:54Z</time>
      </trkpt>
      <trkpt lat="44.23146" lon="1.76387">
        <ele>310</ele>
        <time>2021-03-27T12:34:56Z</time>
      </trkpt>
      <trkpt lat="44.23143" lon="1.76378">
        <ele>310</ele>
        <time>2021-03-27T12:34:58Z</time>
      </trkpt>
      <trkpt lat="44.2314" lon="1.7637">
        <ele>309.9</ele>
        <time>2021-03-27T12:35:00Z</time>
      </trkpt>
      <trkpt lat="44.23138" lon="1.76363">
        <ele>309.9</ele>
        <time>2021-03-27T12:35:02Z</time>
      </trkpt>
      <trkpt lat="44.23134" lon="1.76357">
        <ele>309.9</ele>
        <time>2021-03-27T12:35:04Z</time>
      </trkpt>
      <trkpt lat="44.23129" lon="1.76355">
        <ele>309.9</ele>
        <time>2021-03-27T12:35:06Z</time>
      </trkpt>
      <trkpt lat="44.23124" lon="1.76357">
        <ele>309.9</ele>
        <time>2021-03-27T12:35:08Z</time>
      </trkpt>
      <trkpt lat="44.23118" lon="1.76358">
        <ele>309.9</ele>
        <time>2021-03-27T12:35:10Z</time>
      </trkpt>
      <trkpt lat="44.23112" lon="1.76359">
        <ele>309.9</ele>
        <time>2021-03-27T12:35:12Z</time>
      </trkpt>
      <trkpt lat="44.23104" lon="1.76361">
        <ele>309.9</ele>
        <time>2021-03-27T12:35:14Z</time>
      </trkpt>
      <trkpt lat="44.23098" lon="1.76362">
        <ele>309.8</ele>
        <time>2021-03-27T12:35:16Z</time>
      </trkpt>
      <trkpt lat="44.2309" lon="1.76363">
        <ele>309.7</ele>
        <time>2021-03-27T12:35:18Z</time>
      </trkpt>
      <trkpt lat="44.23083" lon="1.76364">
        <ele>309.6</ele>
        <time>2021-03-27T12:35:20Z</time>
      </trkpt>
      <trkpt lat="44.23076" lon="1.76365">
        <ele>309.5</ele>
        <time>2021-03-27T12:35:22Z</time>
      </trkpt>
      <trkpt lat="44.23068" lon="1.76366">
        <ele>309.4</ele>
        <time>2021-03-27T12:35:24Z</time>
      </trkpt>
      <trkpt lat="44.2306" lon="1.76366">
        <ele>309.4</ele>
        <time>2021-03-27T12:35:26Z</time>
      </trkpt>
      <trkpt lat="44.23051" lon="1.76366">
        <ele>309.2</ele>
        <time>2021-03-27T12:35:28Z</time>
      </trkpt>
      <trkpt lat="44.23042" lon="1.76366">
        <ele>309</ele>
        <time>2021-03-27T12:35:30Z</time>
      </trkpt>
      <trkpt lat="44.23038" lon="1.76366">
        <ele>308.9</ele>
        <time>2021-03-27T12:35:31Z</time>
      </trkpt>
      <trkpt lat="44.23033" lon="1.76365">
        <ele>308.8</ele>
        <time>2021-03-27T12:35:32Z</time>
      </trkpt>
      <trkpt lat="44.23028" lon="1.76365">
        <ele>308.7</ele>
        <time>2021-03-27T12:35:33Z</time>
      </trkpt>
      <trkpt lat="44.23024" lon="1.76365">
        <ele>308.5</ele>
        <time>2021-03-27T12:35:34Z</time>
      </trkpt>
      <trkpt lat="44.23019" lon="1.76364">
        <ele>308.4</ele>
        <time>2021-03-27T12:35:35Z</time>
      </trkpt>
      <trkpt lat="44.23014" lon="1.76364">
        <ele>308.3</ele>
        <time>2021-03-27T12:35:36Z</time>
      </trkpt>
      <trkpt lat="44.23009" lon="1.76363">
        <ele>308.2</ele>
        <time>2021-03-27T12:35:37Z</time>
      </trkpt>
      <trkpt lat="44.23004" lon="1.76363">
        <ele>308.1</ele>
        <time>2021-03-27T12:35:38Z</time>
      </trkpt>
      <trkpt lat="44.22999" lon="1.76363">
        <ele>308</ele>
        <time>2021-03-27T12:35:39Z</time>
      </trkpt>
      <trkpt lat="44.22994" lon="1.76363">
        <ele>307.9</ele>
        <time>2021-03-27T12:35:40Z</time>
      </trkpt>
      <trkpt lat="44.22989" lon="1.76363">
        <ele>307.9</ele>
        <time>2021-03-27T12:35:41Z</time>
      </trkpt>
      <trkpt lat="44.22984" lon="1.76364">
        <ele>307.8</ele>
        <time>2021-03-27T12:35:42Z</time>
      </trkpt>
      <trkpt lat="44.2298" lon="1.76366">
        <ele>307.6</ele>
        <time>2021-03-27T12:35:43Z</time>
      </trkpt>
      <trkpt lat="44.22975" lon="1.76368">
        <ele>307.5</ele>
        <time>2021-03-27T12:35:44Z</time>
      </trkpt>
      <trkpt lat="44.2297" lon="1.7637">
        <ele>307.4</ele>
        <time>2021-03-27T12:35:45Z</time>
      </trkpt>
      <trkpt lat="44.22966" lon="1.76373">
        <ele>307.2</ele>
        <time>2021-03-27T12:35:46Z</time>
      </trkpt>
      <trkpt lat="44.22961" lon="1.76375">
        <ele>307</ele>
        <time>2021-03-27T12:35:47Z</time>
      </trkpt>
      <trkpt lat="44.22957" lon="1.76378">
        <ele>306.9</ele>
        <time>2021-03-27T12:35:48Z</time>
      </trkpt>
      <trkpt lat="44.22952" lon="1.76381">
        <ele>306.7</ele>
        <time>2021-03-27T12:35:49Z</time>
      </trkpt>
      <trkpt lat="44.22947" lon="1.76384">
        <ele>306.5</ele>
        <time>2021-03-27T12:35:50Z</time>
      </trkpt>
      <trkpt lat="44.22942" lon="1.76386">
        <ele>306.4</ele>
        <time>2021-03-27T12:35:51Z</time>
      </trkpt>
      <trkpt lat="44.22937" lon="1.76388">
        <ele>306.3</ele>
        <time>2021-03-27T12:35:52Z</time>
      </trkpt>
      <trkpt lat="44.22932" lon="1.7639">
        <ele>306.3</ele>
        <time>2021-03-27T12:35:53Z</time>
      </trkpt>
      <trkpt lat="44.22927" lon="1.76391">
        <ele>306.2</ele>
        <time>2021-03-27T12:35:54Z</time>
      </trkpt>
      <trkpt lat="44.22921" lon="1.76392">
        <ele>306.2</ele>
        <time>2021-03-27T12:35:55Z</time>
      </trkpt>
      <trkpt lat="44.22916" lon="1.76392">
        <ele>306.2</ele>
        <time>2021-03-27T12:35:56Z</time>
      </trkpt>
      <trkpt lat="44.2291" lon="1.76393">
        <ele>306.2</ele>
        <time>2021-03-27T12:35:57Z</time>
      </trkpt>
      <trkpt lat="44.22905" lon="1.76393">
        <ele>306.2</ele>
        <time>2021-03-27T12:35:58Z</time>
      </trkpt>
      <trkpt lat="44.229" lon="1.76393">
        <ele>306.2</ele>
        <time>2021-03-27T12:35:59Z</time>
      </trkpt>
      <trkpt lat="44.22894" lon="1.76393">
        <ele>306.2</ele>
        <time>2021-03-27T12:36:00Z</time>
      </trkpt>
      <trkpt lat="44.22889" lon="1.76393">
        <ele>306.2</ele>
        <time>2021-03-27T12:36:01Z</time>
      </trkpt>
      <trkpt lat="44.22884" lon="1.76393">
        <ele>306.2</ele>
        <time>2021-03-27T12:36:02Z</time>
      </trkpt>
      <trkpt lat="44.22879" lon="1.76393">
        <ele>306.2</ele>
        <time>2021-03-27T12:36:03Z</time>
      </trkpt>
      <trkpt lat="44.22874" lon="1.76393">
        <ele>306.2</ele>
        <time>2021-03-27T12:36:04Z</time>
      </trkpt>
      <trkpt lat="44.22869" lon="1.76394">
        <ele>306.1</ele>
        <time>2021-03-27T12:36:05Z</time>
      </trkpt>
      <trkpt lat="44.22864" lon="1.76395">
        <ele>306.1</ele>
        <time>2021-03-27T12:36:06Z</time>
      </trkpt>
      <trkpt lat="44.2286" lon="1.76397">
        <ele>306.1</ele>
        <time>2021-03-27T12:36:07Z</time>
      </trkpt>
      <trkpt lat="44.22855" lon="1.76399">
        <ele>306.1</ele>
        <time>2021-03-27T12:36:08Z</time>
      </trkpt>
      <trkpt lat="44.2285" lon="1.76401">
        <ele>306.1</ele>
        <time>2021-03-27T12:36:09Z</time>
      </trkpt>
      <trkpt lat="44.22845" lon="1.76404">
        <ele>306.1</ele>
        <time>2021-03-27T12:36:10Z</time>
      </trkpt>
      <trkpt lat="44.22841" lon="1.76407">
        <ele>306</ele>
        <time>2021-03-27T12:36:11Z</time>
      </trkpt>
      <trkpt lat="44.22836" lon="1.76409">
        <ele>306</ele>
        <time>2021-03-27T12:36:12Z</time>
      </trkpt>
      <trkpt lat="44.22831" lon="1.76411">
        <ele>305.9</ele>
        <time>2021-03-27T12:36:13Z</time>
      </trkpt>
      <trkpt lat="44.22826" lon="1.76413">
        <ele>305.9</ele>
        <time>2021-03-27T12:36:14Z</time>
      </trkpt>
      <trkpt lat="44.22822" lon="1.76416">
        <ele>305.8</ele>
        <time>2021-03-27T12:36:15Z</time>
      </trkpt>
      <trkpt lat="44.22817" lon="1.76418">
        <ele>305.7</ele>
        <time>2021-03-27T12:36:16Z</time>
      </trkpt>
      <trkpt lat="44.22812" lon="1.7642">
        <ele>305.6</ele>
        <time>2021-03-27T12:36:17Z</time>
      </trkpt>
      <trkpt lat="44.22807" lon="1.76422">
        <ele>305.5</ele>
        <time>2021-03-27T12:36:18Z</time>
      </trkpt>
      <trkpt lat="44.22803" lon="1.76423">
        <ele>305.3</ele>
        <time>2021-03-27T12:36:19Z</time>
      </trkpt>
      <trkpt lat="44.22798" lon="1.76423">
        <ele>305.2</ele>
        <time>2021-03-27T12:36:20Z</time>
      </trkpt>
      <trkpt lat="44.22793" lon="1.76424">
        <ele>305</ele>
        <time>2021-03-27T12:36:21Z</time>
      </trkpt>
      <trkpt lat="44.22789" lon="1.76424">
        <ele>304.8</ele>
        <time>2021-03-27T12:36:22Z</time>
      </trkpt>
      <trkpt lat="44.22784" lon="1.76424">
        <ele>304.7</ele>
        <time>2021-03-27T12:36:23Z</time>
      </trkpt>
      <trkpt lat="44.22775" lon="1.76424">
        <ele>304.4</ele>
        <time>2021-03-27T12:36:25Z</time>
      </trkpt>
      <trkpt lat="44.2277" lon="1.76423">
        <ele>304.2</ele>
        <time>2021-03-27T12:36:26Z</time>
      </trkpt>
      <trkpt lat="44.22765" lon="1.76421">
        <ele>304</ele>
        <time>2021-03-27T12:36:27Z</time>
      </trkpt>
      <trkpt lat="44.22761" lon="1.76418">
        <ele>303.8</ele>
        <time>2021-03-27T12:36:28Z</time>
      </trkpt>
      <trkpt lat="44.22756" lon="1.76415">
        <ele>303.6</ele>
        <time>2021-03-27T12:36:29Z</time>
      </trkpt>
      <trkpt lat="44.22751" lon="1.76412">
        <ele>303.4</ele>
        <time>2021-03-27T12:36:30Z</time>
      </trkpt>
      <trkpt lat="44.22747" lon="1.76408">
        <ele>303</ele>
        <time>2021-03-27T12:36:31Z</time>
      </trkpt>
      <trkpt lat="44.22742" lon="1.76405">
        <ele>302.6</ele>
        <time>2021-03-27T12:36:32Z</time>
      </trkpt>
      <trkpt lat="44.22737" lon="1.76401">
        <ele>302.2</ele>
        <time>2021-03-27T12:36:33Z</time>
      </trkpt>
      <trkpt lat="44.22732" lon="1.76398">
        <ele>301.6</ele>
        <time>2021-03-27T12:36:34Z</time>
      </trkpt>
      <trkpt lat="44.22726" lon="1.76394">
        <ele>301.1</ele>
        <time>2021-03-27T12:36:35Z</time>
      </trkpt>
      <trkpt lat="44.22719" lon="1.76391">
        <ele>300.4</ele>
        <time>2021-03-27T12:36:36Z</time>
      </trkpt>
      <trkpt lat="44.22712" lon="1.76388">
        <ele>299.7</ele>
        <time>2021-03-27T12:36:37Z</time>
      </trkpt>
      <trkpt lat="44.22704" lon="1.76386">
        <ele>299</ele>
        <time>2021-03-27T12:36:38Z</time>
      </trkpt>
      <trkpt lat="44.22695" lon="1.76385">
        <ele>298.5</ele>
        <time>2021-03-27T12:36:39Z</time>
      </trkpt>
      <trkpt lat="44.22687" lon="1.76386">
        <ele>298.1</ele>
        <time>2021-03-27T12:36:40Z</time>
      </trkpt>
      <trkpt lat="44.22679" lon="1.76388">
        <ele>297.9</ele>
        <time>2021-03-27T12:36:41Z</time>
      </trkpt>
      <trkpt lat="44.22671" lon="1.76389">
        <ele>297.9</ele>
        <time>2021-03-27T12:36:42Z</time>
      </trkpt>
      <trkpt lat="44.22663" lon="1.76389">
        <ele>298</ele>
        <time>2021-03-27T12:36:43Z</time>
      </trkpt>
      <trkpt lat="44.22656" lon="1.76389">
        <ele>298.1</ele>
        <time>2021-03-27T12:36:44Z</time>
      </trkpt>
      <trkpt lat="44.2265" lon="1.7639">
        <ele>298.6</ele>
        <time>2021-03-27T12:36:45Z</time>
      </trkpt>
      <trkpt lat="44.22646" lon="1.76393">
        <ele>299.1</ele>
        <time>2021-03-27T12:36:46Z</time>
      </trkpt>
      <trkpt lat="44.22641" lon="1.76398">
        <ele>299.9</ele>
        <time>2021-03-27T12:36:48Z</time>
      </trkpt>
      <trkpt lat="44.22637" lon="1.76401">
        <ele>300.5</ele>
        <time>2021-03-27T12:36:50Z</time>
      </trkpt>
      <trkpt lat="44.2263" lon="1.76402">
        <ele>301.3</ele>
        <time>2021-03-27T12:36:53Z</time>
      </trkpt>
      <trkpt lat="44.22625" lon="1.76405">
        <ele>301.9</ele>
        <time>2021-03-27T12:36:55Z</time>
      </trkpt>
      <trkpt lat="44.22621" lon="1.76407">
        <ele>302.5</ele>
        <time>2021-03-27T12:36:57Z</time>
      </trkpt>
      <trkpt lat="44.22616" lon="1.76408">
        <ele>303</ele>
        <time>2021-03-27T12:36:59Z</time>
      </trkpt>
      <trkpt lat="44.22612" lon="1.7641">
        <ele>303.5</ele>
        <time>2021-03-27T12:37:01Z</time>
      </trkpt>
      <trkpt lat="44.22607" lon="1.76412">
        <ele>303.9</ele>
        <time>2021-03-27T12:37:03Z</time>
      </trkpt>
      <trkpt lat="44.22602" lon="1.76413">
        <ele>304.4</ele>
        <time>2021-03-27T12:37:05Z</time>
      </trkpt>
      <trkpt lat="44.22597" lon="1.76414">
        <ele>304.7</ele>
        <time>2021-03-27T12:37:07Z</time>
      </trkpt>
      <trkpt lat="44.22592" lon="1.76414">
        <ele>305.1</ele>
        <time>2021-03-27T12:37:09Z</time>
      </trkpt>
      <trkpt lat="44.22587" lon="1.76414">
        <ele>305.4</ele>
        <time>2021-03-27T12:37:11Z</time>
      </trkpt>
      <trkpt lat="44.22582" lon="1.76415">
        <ele>305.7</ele>
        <time>2021-03-27T12:37:13Z</time>
      </trkpt>
      <trkpt lat="44.22577" lon="1.76414">
        <ele>306</ele>
        <time>2021-03-27T12:37:15Z</time>
      </trkpt>
      <trkpt lat="44.22572" lon="1.76414">
        <ele>306.3</ele>
        <time>2021-03-27T12:37:17Z</time>
      </trkpt>
      <trkpt lat="44.22567" lon="1.76414">
        <ele>306.6</ele>
        <time>2021-03-27T12:37:19Z</time>
      </trkpt>
      <trkpt lat="44.22562" lon="1.76413">
        <ele>306.9</ele>
        <time>2021-03-27T12:37:21Z</time>
      </trkpt>
      <trkpt lat="44.22557" lon="1.76413">
        <ele>307.2</ele>
        <time>2021-03-27T12:37:23Z</time>
      </trkpt>
      <trkpt lat="44.22552" lon="1.76412">
        <ele>307.6</ele>
        <time>2021-03-27T12:37:25Z</time>
      </trkpt>
      <trkpt lat="44.22547" lon="1.76412">
        <ele>308</ele>
        <time>2021-03-27T12:37:27Z</time>
      </trkpt>
      <trkpt lat="44.22542" lon="1.76412">
        <ele>308.4</ele>
        <time>2021-03-27T12:37:29Z</time>
      </trkpt>
      <trkpt lat="44.22537" lon="1.76412">
        <ele>308.9</ele>
        <time>2021-03-27T12:37:31Z</time>
      </trkpt>
      <trkpt lat="44.22532" lon="1.76412">
        <ele>309.3</ele>
        <time>2021-03-27T12:37:33Z</time>
      </trkpt>
      <trkpt lat="44.22526" lon="1.76413">
        <ele>309.9</ele>
        <time>2021-03-27T12:37:36Z</time>
      </trkpt>
      <trkpt lat="44.22521" lon="1.76414">
        <ele>310.3</ele>
        <time>2021-03-27T12:37:38Z</time>
      </trkpt>
      <trkpt lat="44.22516" lon="1.76415">
        <ele>310.6</ele>
        <time>2021-03-27T12:37:40Z</time>
      </trkpt>
      <trkpt lat="44.22511" lon="1.76416">
        <ele>310.9</ele>
        <time>2021-03-27T12:37:42Z</time>
      </trkpt>
      <trkpt lat="44.22505" lon="1.76418">
        <ele>311.3</ele>
        <time>2021-03-27T12:37:45Z</time>
      </trkpt>
      <trkpt lat="44.225" lon="1.76418">
        <ele>311.6</ele>
        <time>2021-03-27T12:37:47Z</time>
      </trkpt>
      <trkpt lat="44.22496" lon="1.76419">
        <ele>312</ele>
        <time>2021-03-27T12:37:49Z</time>
      </trkpt>
      <trkpt lat="44.22491" lon="1.76419">
        <ele>312.3</ele>
        <time>2021-03-27T12:37:51Z</time>
      </trkpt>
      <trkpt lat="44.22485" lon="1.7642">
        <ele>312.8</ele>
        <time>2021-03-27T12:37:54Z</time>
      </trkpt>
      <trkpt lat="44.22478" lon="1.76419">
        <ele>313.2</ele>
        <time>2021-03-27T12:37:57Z</time>
      </trkpt>
      <trkpt lat="44.22472" lon="1.7642">
        <ele>313.5</ele>
        <time>2021-03-27T12:38:00Z</time>
      </trkpt>
      <trkpt lat="44.22466" lon="1.76421">
        <ele>314</ele>
        <time>2021-03-27T12:38:03Z</time>
      </trkpt>
      <trkpt lat="44.2246" lon="1.76422">
        <ele>314.3</ele>
        <time>2021-03-27T12:38:05Z</time>
      </trkpt>
      <trkpt lat="44.22455" lon="1.76424">
        <ele>314.7</ele>
        <time>2021-03-27T12:38:07Z</time>
      </trkpt>
      <trkpt lat="44.22449" lon="1.76425">
        <ele>315</ele>
        <time>2021-03-27T12:38:09Z</time>
      </trkpt>
      <trkpt lat="44.22444" lon="1.76427">
        <ele>315.3</ele>
        <time>2021-03-27T12:38:11Z</time>
      </trkpt>
      <trkpt lat="44.2244" lon="1.76428">
        <ele>315.6</ele>
        <time>2021-03-27T12:38:13Z</time>
      </trkpt>
      <trkpt lat="44.22435" lon="1.76429">
        <ele>315.8</ele>
        <time>2021-03-27T12:38:15Z</time>
      </trkpt>
      <trkpt lat="44.2243" lon="1.7643">
        <ele>316.1</ele>
        <time>2021-03-27T12:38:17Z</time>
      </trkpt>
      <trkpt lat="44.22426" lon="1.76432">
        <ele>316.4</ele>
        <time>2021-03-27T12:38:19Z</time>
      </trkpt>
      <trkpt lat="44.22421" lon="1.76433">
        <ele>316.7</ele>
        <time>2021-03-27T12:38:21Z</time>
      </trkpt>
      <trkpt lat="44.22417" lon="1.76435">
        <ele>317.1</ele>
        <time>2021-03-27T12:38:23Z</time>
      </trkpt>
      <trkpt lat="44.22412" lon="1.76437">
        <ele>317.4</ele>
        <time>2021-03-27T12:38:25Z</time>
      </trkpt>
      <trkpt lat="44.22407" lon="1.76439">
        <ele>317.8</ele>
        <time>2021-03-27T12:38:27Z</time>
      </trkpt>
      <trkpt lat="44.22402" lon="1.76441">
        <ele>318.1</ele>
        <time>2021-03-27T12:38:29Z</time>
      </trkpt>
      <trkpt lat="44.22398" lon="1.76443">
        <ele>318.4</ele>
        <time>2021-03-27T12:38:31Z</time>
      </trkpt>
      <trkpt lat="44.22393" lon="1.76446">
        <ele>318.8</ele>
        <time>2021-03-27T12:38:33Z</time>
      </trkpt>
      <trkpt lat="44.22389" lon="1.76447">
        <ele>319.1</ele>
        <time>2021-03-27T12:38:35Z</time>
      </trkpt>
      <trkpt lat="44.22384" lon="1.76449">
        <ele>319.4</ele>
        <time>2021-03-27T12:38:37Z</time>
      </trkpt>
      <trkpt lat="44.22379" lon="1.76451">
        <ele>319.7</ele>
        <time>2021-03-27T12:38:39Z</time>
      </trkpt>
      <trkpt lat="44.22375" lon="1.76453">
        <ele>320</ele>
        <time>2021-03-27T12:38:41Z</time>
      </trkpt>
      <trkpt lat="44.2237" lon="1.76455">
        <ele>320.4</ele>
        <time>2021-03-27T12:38:43Z</time>
      </trkpt>
      <trkpt lat="44.22366" lon="1.76458">
        <ele>320.7</ele>
        <time>2021-03-27T12:38:45Z</time>
      </trkpt>
      <trkpt lat="44.22361" lon="1.7646">
        <ele>321.1</ele>
        <time>2021-03-27T12:38:47Z</time>
      </trkpt>
      <trkpt lat="44.22356" lon="1.76462">
        <ele>321.4</ele>
        <time>2021-03-27T12:38:49Z</time>
      </trkpt>
      <trkpt lat="44.22351" lon="1.76463">
        <ele>321.8</ele>
        <time>2021-03-27T12:38:51Z</time>
      </trkpt>
      <trkpt lat="44.22346" lon="1.76464">
        <ele>322.1</ele>
        <time>2021-03-27T12:38:53Z</time>
      </trkpt>
      <trkpt lat="44.22341" lon="1.76465">
        <ele>322.4</ele>
        <time>2021-03-27T12:38:55Z</time>
      </trkpt>
      <trkpt lat="44.22335" lon="1.76465">
        <ele>322.9</ele>
        <time>2021-03-27T12:38:58Z</time>
      </trkpt>
      <trkpt lat="44.2233" lon="1.76466">
        <ele>323.2</ele>
        <time>2021-03-27T12:39:00Z</time>
      </trkpt>
      <trkpt lat="44.22326" lon="1.76466">
        <ele>323.5</ele>
        <time>2021-03-27T12:39:02Z</time>
      </trkpt>
      <trkpt lat="44.22319" lon="1.76467">
        <ele>324</ele>
        <time>2021-03-27T12:39:05Z</time>
      </trkpt>
      <trkpt lat="44.22313" lon="1.76469">
        <ele>324.5</ele>
        <time>2021-03-27T12:39:08Z</time>
      </trkpt>
      <trkpt lat="44.22309" lon="1.76471">
        <ele>324.9</ele>
        <time>2021-03-27T12:39:10Z</time>
      </trkpt>
      <trkpt lat="44.22303" lon="1.76473">
        <ele>325.3</ele>
        <time>2021-03-27T12:39:13Z</time>
      </trkpt>
      <trkpt lat="44.22296" lon="1.76476">
        <ele>325.8</ele>
        <time>2021-03-27T12:39:16Z</time>
      </trkpt>
      <trkpt lat="44.22292" lon="1.76478">
        <ele>326.1</ele>
        <time>2021-03-27T12:39:18Z</time>
      </trkpt>
      <trkpt lat="44.22286" lon="1.76481">
        <ele>326.5</ele>
        <time>2021-03-27T12:39:21Z</time>
      </trkpt>
      <trkpt lat="44.2228" lon="1.76484">
        <ele>327</ele>
        <time>2021-03-27T12:39:24Z</time>
      </trkpt>
      <trkpt lat="44.22274" lon="1.76486">
        <ele>327.5</ele>
        <time>2021-03-27T12:39:27Z</time>
      </trkpt>
      <trkpt lat="44.22268" lon="1.76487">
        <ele>328</ele>
        <time>2021-03-27T12:39:30Z</time>
      </trkpt>
      <trkpt lat="44.22262" lon="1.76489">
        <ele>328.4</ele>
        <time>2021-03-27T12:39:33Z</time>
      </trkpt>
      <trkpt lat="44.22256" lon="1.7649">
        <ele>328.9</ele>
        <time>2021-03-27T12:39:36Z</time>
      </trkpt>
      <trkpt lat="44.2225" lon="1.76492">
        <ele>329.4</ele>
        <time>2021-03-27T12:39:39Z</time>
      </trkpt>
      <trkpt lat="44.22246" lon="1.76493">
        <ele>329.8</ele>
        <time>2021-03-27T12:39:41Z</time>
      </trkpt>
      <trkpt lat="44.2224" lon="1.76496">
        <ele>330.2</ele>
        <time>2021-03-27T12:39:44Z</time>
      </trkpt>
      <trkpt lat="44.22233" lon="1.76498">
        <ele>330.7</ele>
        <time>2021-03-27T12:39:47Z</time>
      </trkpt>
      <trkpt lat="44.22227" lon="1.765">
        <ele>331.2</ele>
        <time>2021-03-27T12:39:50Z</time>
      </trkpt>
      <trkpt lat="44.22223" lon="1.76501">
        <ele>331.5</ele>
        <time>2021-03-27T12:39:52Z</time>
      </trkpt>
      <trkpt lat="44.22217" lon="1.76504">
        <ele>332</ele>
        <time>2021-03-27T12:39:55Z</time>
      </trkpt>
      <trkpt lat="44.22212" lon="1.76506">
        <ele>332.3</ele>
        <time>2021-03-27T12:39:57Z</time>
      </trkpt>
      <trkpt lat="44.22207" lon="1.76507">
        <ele>332.6</ele>
        <time>2021-03-27T12:39:59Z</time>
      </trkpt>
      <trkpt lat="44.22202" lon="1.76508">
        <ele>332.8</ele>
        <time>2021-03-27T12:40:01Z</time>
      </trkpt>
      <trkpt lat="44.22198" lon="1.76509">
        <ele>333.1</ele>
        <time>2021-03-27T12:40:03Z</time>
      </trkpt>
      <trkpt lat="44.22193" lon="1.76509">
        <ele>333.4</ele>
        <time>2021-03-27T12:40:05Z</time>
      </trkpt>
      <trkpt lat="44.22188" lon="1.76509">
        <ele>333.6</ele>
        <time>2021-03-27T12:40:07Z</time>
      </trkpt>
      <trkpt lat="44.22184" lon="1.76508">
        <ele>333.8</ele>
        <time>2021-03-27T12:40:09Z</time>
      </trkpt>
      <trkpt lat="44.22179" lon="1.76508">
        <ele>334.1</ele>
        <time>2021-03-27T12:40:11Z</time>
      </trkpt>
      <trkpt lat="44.22175" lon="1.76507">
        <ele>334.3</ele>
        <time>2021-03-27T12:40:13Z</time>
      </trkpt>
      <trkpt lat="44.2217" lon="1.76507">
        <ele>334.5</ele>
        <time>2021-03-27T12:40:15Z</time>
      </trkpt>
      <trkpt lat="44.22165" lon="1.76506">
        <ele>334.7</ele>
        <time>2021-03-27T12:40:17Z</time>
      </trkpt>
      <trkpt lat="44.2216" lon="1.76506">
        <ele>335</ele>
        <time>2021-03-27T12:40:19Z</time>
      </trkpt>
      <trkpt lat="44.22155" lon="1.76506">
        <ele>335.2</ele>
        <time>2021-03-27T12:40:21Z</time>
      </trkpt>
      <trkpt lat="44.2215" lon="1.76505">
        <ele>335.4</ele>
        <time>2021-03-27T12:40:23Z</time>
      </trkpt>
      <trkpt lat="44.22146" lon="1.76505">
        <ele>335.7</ele>
        <time>2021-03-27T12:40:25Z</time>
      </trkpt>
      <trkpt lat="44.22141" lon="1.76505">
        <ele>335.9</ele>
        <time>2021-03-27T12:40:27Z</time>
      </trkpt>
      <trkpt lat="44.22135" lon="1.76505">
        <ele>336.1</ele>
        <time>2021-03-27T12:40:29Z</time>
      </trkpt>
      <trkpt lat="44.2213" lon="1.76505">
        <ele>336.3</ele>
        <time>2021-03-27T12:40:31Z</time>
      </trkpt>
      <trkpt lat="44.22124" lon="1.76505">
        <ele>336.5</ele>
        <time>2021-03-27T12:40:33Z</time>
      </trkpt>
      <trkpt lat="44.22118" lon="1.76506">
        <ele>336.6</ele>
        <time>2021-03-27T12:40:35Z</time>
      </trkpt>
      <trkpt lat="44.22112" lon="1.76506">
        <ele>336.8</ele>
        <time>2021-03-27T12:40:37Z</time>
      </trkpt>
      <trkpt lat="44.22107" lon="1.76507">
        <ele>336.9</ele>
        <time>2021-03-27T12:40:39Z</time>
      </trkpt>
      <trkpt lat="44.22101" lon="1.76507">
        <ele>337.1</ele>
        <time>2021-03-27T12:40:41Z</time>
      </trkpt>
      <trkpt lat="44.22095" lon="1.76507">
        <ele>337.2</ele>
        <time>2021-03-27T12:40:43Z</time>
      </trkpt>
      <trkpt lat="44.22088" lon="1.76507">
        <ele>337.2</ele>
        <time>2021-03-27T12:40:45Z</time>
      </trkpt>
      <trkpt lat="44.22082" lon="1.76506">
        <ele>337.2</ele>
        <time>2021-03-27T12:40:47Z</time>
      </trkpt>
      <trkpt lat="44.22076" lon="1.76506">
        <ele>337.1</ele>
        <time>2021-03-27T12:40:49Z</time>
      </trkpt>
      <trkpt lat="44.22069" lon="1.76506">
        <ele>336.9</ele>
        <time>2021-03-27T12:40:51Z</time>
      </trkpt>
      <trkpt lat="44.22061" lon="1.76506">
        <ele>336.7</ele>
        <time>2021-03-27T12:40:53Z</time>
      </trkpt>
      <trkpt lat="44.22053" lon="1.76507">
        <ele>336.4</ele>
        <time>2021-03-27T12:40:55Z</time>
      </trkpt>
      <trkpt lat="44.22045" lon="1.76507">
        <ele>336.1</ele>
        <time>2021-03-27T12:40:57Z</time>
      </trkpt>
      <trkpt lat="44.2204" lon="1.76506">
        <ele>335.9</ele>
        <time>2021-03-27T12:40:58Z</time>
      </trkpt>
      <trkpt lat="44.22036" lon="1.76505">
        <ele>335.7</ele>
        <time>2021-03-27T12:40:59Z</time>
      </trkpt>
      <trkpt lat="44.22031" lon="1.76503">
        <ele>335.3</ele>
        <time>2021-03-27T12:41:00Z</time>
      </trkpt>
      <trkpt lat="44.22027" lon="1.765">
        <ele>335</ele>
        <time>2021-03-27T12:41:01Z</time>
      </trkpt>
      <trkpt lat="44.22022" lon="1.76496">
        <ele>334.6</ele>
        <time>2021-03-27T12:41:02Z</time>
      </trkpt>
      <trkpt lat="44.22017" lon="1.76492">
        <ele>334.3</ele>
        <time>2021-03-27T12:41:03Z</time>
      </trkpt>
      <trkpt lat="44.22012" lon="1.76488">
        <ele>333.9</ele>
        <time>2021-03-27T12:41:04Z</time>
      </trkpt>
      <trkpt lat="44.22006" lon="1.76483">
        <ele>333.5</ele>
        <time>2021-03-27T12:41:05Z</time>
      </trkpt>
      <trkpt lat="44.22001" lon="1.76479">
        <ele>333.2</ele>
        <time>2021-03-27T12:41:06Z</time>
      </trkpt>
      <trkpt lat="44.21995" lon="1.76474">
        <ele>332.8</ele>
        <time>2021-03-27T12:41:07Z</time>
      </trkpt>
      <trkpt lat="44.21989" lon="1.76469">
        <ele>332.4</ele>
        <time>2021-03-27T12:41:08Z</time>
      </trkpt>
      <trkpt lat="44.21983" lon="1.76465">
        <ele>332</ele>
        <time>2021-03-27T12:41:09Z</time>
      </trkpt>
      <trkpt lat="44.21976" lon="1.76459">
        <ele>331.7</ele>
        <time>2021-03-27T12:41:10Z</time>
      </trkpt>
      <trkpt lat="44.2197" lon="1.76454">
        <ele>331.3</ele>
        <time>2021-03-27T12:41:11Z</time>
      </trkpt>
      <trkpt lat="44.21963" lon="1.76449">
        <ele>331.1</ele>
        <time>2021-03-27T12:41:12Z</time>
      </trkpt>
      <trkpt lat="44.21957" lon="1.76444">
        <ele>330.8</ele>
        <time>2021-03-27T12:41:13Z</time>
      </trkpt>
      <trkpt lat="44.2195" lon="1.76439">
        <ele>330.5</ele>
        <time>2021-03-27T12:41:14Z</time>
      </trkpt>
      <trkpt lat="44.21944" lon="1.76434">
        <ele>330.2</ele>
        <time>2021-03-27T12:41:15Z</time>
      </trkpt>
      <trkpt lat="44.21939" lon="1.76428">
        <ele>330</ele>
        <time>2021-03-27T12:41:16Z</time>
      </trkpt>
      <trkpt lat="44.21933" lon="1.76422">
        <ele>329.9</ele>
        <time>2021-03-27T12:41:17Z</time>
      </trkpt>
      <trkpt lat="44.21927" lon="1.76416">
        <ele>329.7</ele>
        <time>2021-03-27T12:41:18Z</time>
      </trkpt>
      <trkpt lat="44.21922" lon="1.76409">
        <ele>329.5</ele>
        <time>2021-03-27T12:41:19Z</time>
      </trkpt>
      <trkpt lat="44.21916" lon="1.76403">
        <ele>329.4</ele>
        <time>2021-03-27T12:41:20Z</time>
      </trkpt>
      <trkpt lat="44.2191" lon="1.76397">
        <ele>329.3</ele>
        <time>2021-03-27T12:41:21Z</time>
      </trkpt>
      <trkpt lat="44.21905" lon="1.76391">
        <ele>329.2</ele>
        <time>2021-03-27T12:41:22Z</time>
      </trkpt>
      <trkpt lat="44.21899" lon="1.76386">
        <ele>329.1</ele>
        <time>2021-03-27T12:41:23Z</time>
      </trkpt>
      <trkpt lat="44.21894" lon="1.7638">
        <ele>329</ele>
        <time>2021-03-27T12:41:24Z</time>
      </trkpt>
      <trkpt lat="44.21889" lon="1.76375">
        <ele>328.9</ele>
        <time>2021-03-27T12:41:25Z</time>
      </trkpt>
      <trkpt lat="44.21884" lon="1.76369">
        <ele>328.8</ele>
        <time>2021-03-27T12:41:26Z</time>
      </trkpt>
      <trkpt lat="44.21879" lon="1.76364">
        <ele>328.7</ele>
        <time>2021-03-27T12:41:27Z</time>
      </trkpt>
      <trkpt lat="44.21874" lon="1.76359">
        <ele>328.7</ele>
        <time>2021-03-27T12:41:28Z</time>
      </trkpt>
      <trkpt lat="44.21869" lon="1.76354">
        <ele>328.6</ele>
        <time>2021-03-27T12:41:29Z</time>
      </trkpt>
      <trkpt lat="44.21865" lon="1.76349">
        <ele>328.5</ele>
        <time>2021-03-27T12:41:30Z</time>
      </trkpt>
      <trkpt lat="44.2186" lon="1.76344">
        <ele>328.4</ele>
        <time>2021-03-27T12:41:31Z</time>
      </trkpt>
      <trkpt lat="44.21856" lon="1.7634">
        <ele>328.3</ele>
        <time>2021-03-27T12:41:32Z</time>
      </trkpt>
      <trkpt lat="44.21852" lon="1.76335">
        <ele>328.2</ele>
        <time>2021-03-27T12:41:33Z</time>
      </trkpt>
      <trkpt lat="44.21847" lon="1.7633">
        <ele>328</ele>
        <time>2021-03-27T12:41:34Z</time>
      </trkpt>
      <trkpt lat="44.21843" lon="1.76326">
        <ele>327.9</ele>
        <time>2021-03-27T12:41:35Z</time>
      </trkpt>
      <trkpt lat="44.21838" lon="1.76321">
        <ele>327.7</ele>
        <time>2021-03-27T12:41:36Z</time>
      </trkpt>
      <trkpt lat="44.21834" lon="1.76316">
        <ele>327.5</ele>
        <time>2021-03-27T12:41:37Z</time>
      </trkpt>
      <trkpt lat="44.2183" lon="1.76311">
        <ele>327.3</ele>
        <time>2021-03-27T12:41:38Z</time>
      </trkpt>
      <trkpt lat="44.21825" lon="1.76307">
        <ele>327.2</ele>
        <time>2021-03-27T12:41:39Z</time>
      </trkpt>
      <trkpt lat="44.21821" lon="1.76302">
        <ele>326.9</ele>
        <time>2021-03-27T12:41:40Z</time>
      </trkpt>
      <trkpt lat="44.21816" lon="1.76297">
        <ele>326.7</ele>
        <time>2021-03-27T12:41:41Z</time>
      </trkpt>
      <trkpt lat="44.21812" lon="1.76291">
        <ele>326.5</ele>
        <time>2021-03-27T12:41:42Z</time>
      </trkpt>
      <trkpt lat="44.21807" lon="1.76286">
        <ele>326.2</ele>
        <time>2021-03-27T12:41:43Z</time>
      </trkpt>
      <trkpt lat="44.21803" lon="1.76279">
        <ele>326</ele>
        <time>2021-03-27T12:41:44Z</time>
      </trkpt>
      <trkpt lat="44.218" lon="1.76272">
        <ele>325.8</ele>
        <time>2021-03-27T12:41:45Z</time>
      </trkpt>
      <trkpt lat="44.21796" lon="1.76265">
        <ele>325.6</ele>
        <time>2021-03-27T12:41:46Z</time>
      </trkpt>
      <trkpt lat="44.21793" lon="1.76258">
        <ele>325.3</ele>
        <time>2021-03-27T12:41:47Z</time>
      </trkpt>
      <trkpt lat="44.21789" lon="1.7625">
        <ele>325.1</ele>
        <time>2021-03-27T12:41:48Z</time>
      </trkpt>
      <trkpt lat="44.21786" lon="1.76242">
        <ele>324.7</ele>
        <time>2021-03-27T12:41:49Z</time>
      </trkpt>
      <trkpt lat="44.21782" lon="1.76235">
        <ele>324.3</ele>
        <time>2021-03-27T12:41:50Z</time>
      </trkpt>
      <trkpt lat="44.21778" lon="1.76227">
        <ele>323.9</ele>
        <time>2021-03-27T12:41:51Z</time>
      </trkpt>
      <trkpt lat="44.21774" lon="1.7622">
        <ele>323.6</ele>
        <time>2021-03-27T12:41:52Z</time>
      </trkpt>
      <trkpt lat="44.2177" lon="1.76212">
        <ele>323.3</ele>
        <time>2021-03-27T12:41:53Z</time>
      </trkpt>
      <trkpt lat="44.21765" lon="1.76204">
        <ele>323</ele>
        <time>2021-03-27T12:41:54Z</time>
      </trkpt>
      <trkpt lat="44.21761" lon="1.76196">
        <ele>322.8</ele>
        <time>2021-03-27T12:41:55Z</time>
      </trkpt>
      <trkpt lat="44.21757" lon="1.76188">
        <ele>322.4</ele>
        <time>2021-03-27T12:41:56Z</time>
      </trkpt>
      <trkpt lat="44.21753" lon="1.7618">
        <ele>322.1</ele>
        <time>2021-03-27T12:41:57Z</time>
      </trkpt>
      <trkpt lat="44.21749" lon="1.76172">
        <ele>321.8</ele>
        <time>2021-03-27T12:41:58Z</time>
      </trkpt>
      <trkpt lat="44.21745" lon="1.76164">
        <ele>321.4</ele>
        <time>2021-03-27T12:41:59Z</time>
      </trkpt>
      <trkpt lat="44.2174" lon="1.76156">
        <ele>321.1</ele>
        <time>2021-03-27T12:42:00Z</time>
      </trkpt>
      <trkpt lat="44.21736" lon="1.76148">
        <ele>320.7</ele>
        <time>2021-03-27T12:42:01Z</time>
      </trkpt>
      <trkpt lat="44.21732" lon="1.7614">
        <ele>320.3</ele>
        <time>2021-03-27T12:42:02Z</time>
      </trkpt>
      <trkpt lat="44.21727" lon="1.76131">
        <ele>319.8</ele>
        <time>2021-03-27T12:42:03Z</time>
      </trkpt>
      <trkpt lat="44.21724" lon="1.76122">
        <ele>319.4</ele>
        <time>2021-03-27T12:42:04Z</time>
      </trkpt>
      <trkpt lat="44.2172" lon="1.76113">
        <ele>318.9</ele>
        <time>2021-03-27T12:42:05Z</time>
      </trkpt>
      <trkpt lat="44.21716" lon="1.76103">
        <ele>318.3</ele>
        <time>2021-03-27T12:42:06Z</time>
      </trkpt>
      <trkpt lat="44.21712" lon="1.76094">
        <ele>317.7</ele>
        <time>2021-03-27T12:42:07Z</time>
      </trkpt>
      <trkpt lat="44.21707" lon="1.76085">
        <ele>317.1</ele>
        <time>2021-03-27T12:42:08Z</time>
      </trkpt>
      <trkpt lat="44.21702" lon="1.76076">
        <ele>316.4</ele>
        <time>2021-03-27T12:42:09Z</time>
      </trkpt>
      <trkpt lat="44.21696" lon="1.76068">
        <ele>315.8</ele>
        <time>2021-03-27T12:42:10Z</time>
      </trkpt>
      <trkpt lat="44.2169" lon="1.76059">
        <ele>315.2</ele>
        <time>2021-03-27T12:42:11Z</time>
      </trkpt>
      <trkpt lat="44.21684" lon="1.7605">
        <ele>314.5</ele>
        <time>2021-03-27T12:42:12Z</time>
      </trkpt>
      <trkpt lat="44.21677" lon="1.76043">
        <ele>314</ele>
        <time>2021-03-27T12:42:13Z</time>
      </trkpt>
      <trkpt lat="44.21669" lon="1.76037">
        <ele>313.5</ele>
        <time>2021-03-27T12:42:14Z</time>
      </trkpt>
      <trkpt lat="44.21661" lon="1.76033">
        <ele>313</ele>
        <time>2021-03-27T12:42:15Z</time>
      </trkpt>
      <trkpt lat="44.21653" lon="1.7603">
        <ele>312.4</ele>
        <time>2021-03-27T12:42:16Z</time>
      </trkpt>
      <trkpt lat="44.21644" lon="1.76028">
        <ele>311.9</ele>
        <time>2021-03-27T12:42:17Z</time>
      </trkpt>
      <trkpt lat="44.21636" lon="1.76025">
        <ele>311.3</ele>
        <time>2021-03-27T12:42:18Z</time>
      </trkpt>
      <trkpt lat="44.21628" lon="1.7602">
        <ele>310.8</ele>
        <time>2021-03-27T12:42:19Z</time>
      </trkpt>
      <trkpt lat="44.2162" lon="1.76014">
        <ele>310.4</ele>
        <time>2021-03-27T12:42:20Z</time>
      </trkpt>
      <trkpt lat="44.21613" lon="1.76009">
        <ele>310</ele>
        <time>2021-03-27T12:42:21Z</time>
      </trkpt>
      <trkpt lat="44.21606" lon="1.76003">
        <ele>309.5</ele>
        <time>2021-03-27T12:42:22Z</time>
      </trkpt>
      <trkpt lat="44.21598" lon="1.75998">
        <ele>309</ele>
        <time>2021-03-27T12:42:23Z</time>
      </trkpt>
      <trkpt lat="44.21591" lon="1.75992">
        <ele>308.5</ele>
        <time>2021-03-27T12:42:24Z</time>
      </trkpt>
      <trkpt lat="44.21583" lon="1.75987">
        <ele>308</ele>
        <time>2021-03-27T12:42:25Z</time>
      </trkpt>
      <trkpt lat="44.21576" lon="1.75981">
        <ele>307.5</ele>
        <time>2021-03-27T12:42:26Z</time>
      </trkpt>
      <trkpt lat="44.21568" lon="1.75975">
        <ele>306.9</ele>
        <time>2021-03-27T12:42:27Z</time>
      </trkpt>
      <trkpt lat="44.21561" lon="1.7597">
        <ele>306.4</ele>
        <time>2021-03-27T12:42:28Z</time>
      </trkpt>
      <trkpt lat="44.21553" lon="1.75965">
        <ele>305.8</ele>
        <time>2021-03-27T12:42:29Z</time>
      </trkpt>
      <trkpt lat="44.21545" lon="1.7596">
        <ele>305.3</ele>
        <time>2021-03-27T12:42:30Z</time>
      </trkpt>
      <trkpt lat="44.21537" lon="1.75955">
        <ele>304.8</ele>
        <time>2021-03-27T12:42:31Z</time>
      </trkpt>
      <trkpt lat="44.21529" lon="1.75949">
        <ele>304.1</ele>
        <time>2021-03-27T12:42:32Z</time>
      </trkpt>
      <trkpt lat="44.21522" lon="1.75943">
        <ele>303.5</ele>
        <time>2021-03-27T12:42:33Z</time>
      </trkpt>
      <trkpt lat="44.21515" lon="1.75936">
        <ele>302.9</ele>
        <time>2021-03-27T12:42:34Z</time>
      </trkpt>
      <trkpt lat="44.21509" lon="1.75928">
        <ele>302.4</ele>
        <time>2021-03-27T12:42:35Z</time>
      </trkpt>
      <trkpt lat="44.21502" lon="1.75921">
        <ele>301.9</ele>
        <time>2021-03-27T12:42:36Z</time>
      </trkpt>
      <trkpt lat="44.21495" lon="1.75915">
        <ele>301.5</ele>
        <time>2021-03-27T12:42:37Z</time>
      </trkpt>
      <trkpt lat="44.21487" lon="1.7591">
        <ele>301</ele>
        <time>2021-03-27T12:42:38Z</time>
      </trkpt>
      <trkpt lat="44.21479" lon="1.75906">
        <ele>300.5</ele>
        <time>2021-03-27T12:42:39Z</time>
      </trkpt>
      <trkpt lat="44.21471" lon="1.75901">
        <ele>300</ele>
        <time>2021-03-27T12:42:40Z</time>
      </trkpt>
      <trkpt lat="44.21462" lon="1.75897">
        <ele>299.4</ele>
        <time>2021-03-27T12:42:41Z</time>
      </trkpt>
      <trkpt lat="44.21454" lon="1.75893">
        <ele>298.9</ele>
        <time>2021-03-27T12:42:42Z</time>
      </trkpt>
      <trkpt lat="44.21445" lon="1.7589">
        <ele>298.3</ele>
        <time>2021-03-27T12:42:43Z</time>
      </trkpt>
      <trkpt lat="44.21436" lon="1.75888">
        <ele>297.7</ele>
        <time>2021-03-27T12:42:44Z</time>
      </trkpt>
      <trkpt lat="44.21427" lon="1.75885">
        <ele>297</ele>
        <time>2021-03-27T12:42:45Z</time>
      </trkpt>
      <trkpt lat="44.21418" lon="1.75882">
        <ele>296.4</ele>
        <time>2021-03-27T12:42:46Z</time>
      </trkpt>
      <trkpt lat="44.21409" lon="1.75879">
        <ele>295.8</ele>
        <time>2021-03-27T12:42:47Z</time>
      </trkpt>
      <trkpt lat="44.214" lon="1.75875">
        <ele>295.8</ele>
        <time>2021-03-27T12:42:48Z</time>
      </trkpt>
      <trkpt lat="44.21392" lon="1.75872">
        <ele>295.8</ele>
        <time>2021-03-27T12:42:49Z</time>
      </trkpt>
      <trkpt lat="44.21383" lon="1.75868">
        <ele>295.7</ele>
        <time>2021-03-27T12:42:50Z</time>
      </trkpt>
      <trkpt lat="44.21376" lon="1.75864">
        <ele>295.8</ele>
        <time>2021-03-27T12:42:51Z</time>
      </trkpt>
      <trkpt lat="44.21368" lon="1.75861">
        <ele>295.9</ele>
        <time>2021-03-27T12:42:52Z</time>
      </trkpt>
      <trkpt lat="44.21361" lon="1.75859">
        <ele>296.1</ele>
        <time>2021-03-27T12:42:53Z</time>
      </trkpt>
      <trkpt lat="44.21353" lon="1.75858">
        <ele>296.4</ele>
        <time>2021-03-27T12:42:54Z</time>
      </trkpt>
      <trkpt lat="44.21346" lon="1.75857">
        <ele>296.7</ele>
        <time>2021-03-27T12:42:55Z</time>
      </trkpt>
      <trkpt lat="44.21339" lon="1.75855">
        <ele>296.9</ele>
        <time>2021-03-27T12:42:56Z</time>
      </trkpt>
      <trkpt lat="44.21332" lon="1.75854">
        <ele>297.2</ele>
        <time>2021-03-27T12:42:57Z</time>
      </trkpt>
      <trkpt lat="44.21325" lon="1.75853">
        <ele>297.4</ele>
        <time>2021-03-27T12:42:58Z</time>
      </trkpt>
      <trkpt lat="44.21318" lon="1.75853">
        <ele>297.7</ele>
        <time>2021-03-27T12:42:59Z</time>
      </trkpt>
      <trkpt lat="44.21312" lon="1.75853">
        <ele>297.9</ele>
        <time>2021-03-27T12:43:00Z</time>
      </trkpt>
      <trkpt lat="44.21306" lon="1.75854">
        <ele>298</ele>
        <time>2021-03-27T12:43:01Z</time>
      </trkpt>
      <trkpt lat="44.213" lon="1.75854">
        <ele>298.2</ele>
        <time>2021-03-27T12:43:02Z</time>
      </trkpt>
      <trkpt lat="44.21294" lon="1.75854">
        <ele>298.4</ele>
        <time>2021-03-27T12:43:03Z</time>
      </trkpt>
      <trkpt lat="44.21288" lon="1.75854">
        <ele>298.6</ele>
        <time>2021-03-27T12:43:04Z</time>
      </trkpt>
      <trkpt lat="44.21283" lon="1.75854">
        <ele>298.8</ele>
        <time>2021-03-27T12:43:05Z</time>
      </trkpt>
      <trkpt lat="44.21278" lon="1.75854">
        <ele>298.9</ele>
        <time>2021-03-27T12:43:06Z</time>
      </trkpt>
      <trkpt lat="44.21273" lon="1.75854">
        <ele>299.1</ele>
        <time>2021-03-27T12:43:07Z</time>
      </trkpt>
      <trkpt lat="44.21268" lon="1.75855">
        <ele>299.3</ele>
        <time>2021-03-27T12:43:08Z</time>
      </trkpt>
      <trkpt lat="44.21263" lon="1.75856">
        <ele>299.4</ele>
        <time>2021-03-27T12:43:09Z</time>
      </trkpt>
      <trkpt lat="44.21258" lon="1.75857">
        <ele>299.6</ele>
        <time>2021-03-27T12:43:10Z</time>
      </trkpt>
      <trkpt lat="44.21254" lon="1.75859">
        <ele>299.7</ele>
        <time>2021-03-27T12:43:11Z</time>
      </trkpt>
      <trkpt lat="44.21249" lon="1.7586">
        <ele>299.9</ele>
        <time>2021-03-27T12:43:12Z</time>
      </trkpt>
      <trkpt lat="44.21245" lon="1.7586">
        <ele>300</ele>
        <time>2021-03-27T12:43:13Z</time>
      </trkpt>
      <trkpt lat="44.2124" lon="1.75861">
        <ele>300.2</ele>
        <time>2021-03-27T12:43:14Z</time>
      </trkpt>
      <trkpt lat="44.21231" lon="1.75863">
        <ele>300.4</ele>
        <time>2021-03-27T12:43:16Z</time>
      </trkpt>
      <trkpt lat="44.21223" lon="1.75865">
        <ele>300.7</ele>
        <time>2021-03-27T12:43:18Z</time>
      </trkpt>
      <trkpt lat="44.21218" lon="1.75866">
        <ele>300.8</ele>
        <time>2021-03-27T12:43:19Z</time>
      </trkpt>
      <trkpt lat="44.21209" lon="1.75867">
        <ele>300.9</ele>
        <time>2021-03-27T12:43:21Z</time>
      </trkpt>
      <trkpt lat="44.21205" lon="1.75868">
        <ele>301</ele>
        <time>2021-03-27T12:43:22Z</time>
      </trkpt>
      <trkpt lat="44.212" lon="1.75868">
        <ele>301.1</ele>
        <time>2021-03-27T12:43:23Z</time>
      </trkpt>
      <trkpt lat="44.21196" lon="1.75869">
        <ele>301.2</ele>
        <time>2021-03-27T12:43:24Z</time>
      </trkpt>
      <trkpt lat="44.21191" lon="1.75869">
        <ele>301.3</ele>
        <time>2021-03-27T12:43:25Z</time>
      </trkpt>
      <trkpt lat="44.21187" lon="1.7587">
        <ele>301.4</ele>
        <time>2021-03-27T12:43:26Z</time>
      </trkpt>
      <trkpt lat="44.21182" lon="1.7587">
        <ele>301.5</ele>
        <time>2021-03-27T12:43:27Z</time>
      </trkpt>
      <trkpt lat="44.21177" lon="1.7587">
        <ele>301.5</ele>
        <time>2021-03-27T12:43:28Z</time>
      </trkpt>
      <trkpt lat="44.21173" lon="1.7587">
        <ele>301.6</ele>
        <time>2021-03-27T12:43:29Z</time>
      </trkpt>
      <trkpt lat="44.21168" lon="1.75869">
        <ele>301.7</ele>
        <time>2021-03-27T12:43:30Z</time>
      </trkpt>
      <trkpt lat="44.21164" lon="1.75868">
        <ele>301.8</ele>
        <time>2021-03-27T12:43:31Z</time>
      </trkpt>
      <trkpt lat="44.21159" lon="1.75867">
        <ele>301.8</ele>
        <time>2021-03-27T12:43:32Z</time>
      </trkpt>
      <trkpt lat="44.21155" lon="1.75866">
        <ele>301.9</ele>
        <time>2021-03-27T12:43:33Z</time>
      </trkpt>
      <trkpt lat="44.2115" lon="1.75864">
        <ele>302</ele>
        <time>2021-03-27T12:43:34Z</time>
      </trkpt>
      <trkpt lat="44.21146" lon="1.75863">
        <ele>302.1</ele>
        <time>2021-03-27T12:43:35Z</time>
      </trkpt>
      <trkpt lat="44.21141" lon="1.75861">
        <ele>302.2</ele>
        <time>2021-03-27T12:43:36Z</time>
      </trkpt>
      <trkpt lat="44.21137" lon="1.75859">
        <ele>302.3</ele>
        <time>2021-03-27T12:43:37Z</time>
      </trkpt>
      <trkpt lat="44.21133" lon="1.75857">
        <ele>302.4</ele>
        <time>2021-03-27T12:43:38Z</time>
      </trkpt>
      <trkpt lat="44.21128" lon="1.75854">
        <ele>302.5</ele>
        <time>2021-03-27T12:43:39Z</time>
      </trkpt>
      <trkpt lat="44.21124" lon="1.75851">
        <ele>302.6</ele>
        <time>2021-03-27T12:43:40Z</time>
      </trkpt>
      <trkpt lat="44.2112" lon="1.75849">
        <ele>302.7</ele>
        <time>2021-03-27T12:43:41Z</time>
      </trkpt>
      <trkpt lat="44.21116" lon="1.75846">
        <ele>302.8</ele>
        <time>2021-03-27T12:43:42Z</time>
      </trkpt>
      <trkpt lat="44.21107" lon="1.75842">
        <ele>303</ele>
        <time>2021-03-27T12:43:44Z</time>
      </trkpt>
      <trkpt lat="44.21099" lon="1.75837">
        <ele>303.3</ele>
        <time>2021-03-27T12:43:46Z</time>
      </trkpt>
      <trkpt lat="44.2109" lon="1.75833">
        <ele>303.6</ele>
        <time>2021-03-27T12:43:48Z</time>
      </trkpt>
      <trkpt lat="44.21082" lon="1.75828">
        <ele>303.8</ele>
        <time>2021-03-27T12:43:50Z</time>
      </trkpt>
      <trkpt lat="44.21075" lon="1.75822">
        <ele>304</ele>
        <time>2021-03-27T12:43:52Z</time>
      </trkpt>
      <trkpt lat="44.21069" lon="1.75815">
        <ele>304</ele>
        <time>2021-03-27T12:43:54Z</time>
      </trkpt>
      <trkpt lat="44.21063" lon="1.75806">
        <ele>304</ele>
        <time>2021-03-27T12:43:56Z</time>
      </trkpt>
      <trkpt lat="44.21057" lon="1.75797">
        <ele>303.8</ele>
        <time>2021-03-27T12:43:58Z</time>
      </trkpt>
      <trkpt lat="44.21055" lon="1.75791">
        <ele>303.6</ele>
        <time>2021-03-27T12:43:59Z</time>
      </trkpt>
      <trkpt lat="44.21052" lon="1.75786">
        <ele>303.5</ele>
        <time>2021-03-27T12:44:00Z</time>
      </trkpt>
      <trkpt lat="44.21049" lon="1.7578">
        <ele>303.2</ele>
        <time>2021-03-27T12:44:01Z</time>
      </trkpt>
      <trkpt lat="44.21046" lon="1.75774">
        <ele>302.9</ele>
        <time>2021-03-27T12:44:02Z</time>
      </trkpt>
      <trkpt lat="44.21042" lon="1.75769">
        <ele>302.6</ele>
        <time>2021-03-27T12:44:03Z</time>
      </trkpt>
      <trkpt lat="44.21038" lon="1.75763">
        <ele>302.3</ele>
        <time>2021-03-27T12:44:04Z</time>
      </trkpt>
      <trkpt lat="44.21034" lon="1.75758">
        <ele>302</ele>
        <time>2021-03-27T12:44:05Z</time>
      </trkpt>
      <trkpt lat="44.21029" lon="1.75753">
        <ele>301.6</ele>
        <time>2021-03-27T12:44:06Z</time>
      </trkpt>
      <trkpt lat="44.21024" lon="1.75748">
        <ele>301.3</ele>
        <time>2021-03-27T12:44:07Z</time>
      </trkpt>
      <trkpt lat="44.21019" lon="1.75743">
        <ele>301</ele>
        <time>2021-03-27T12:44:08Z</time>
      </trkpt>
      <trkpt lat="44.21013" lon="1.75738">
        <ele>300.7</ele>
        <time>2021-03-27T12:44:09Z</time>
      </trkpt>
      <trkpt lat="44.21008" lon="1.75734">
        <ele>300.4</ele>
        <time>2021-03-27T12:44:10Z</time>
      </trkpt>
      <trkpt lat="44.21002" lon="1.75729">
        <ele>300.1</ele>
        <time>2021-03-27T12:44:11Z</time>
      </trkpt>
      <trkpt lat="44.20996" lon="1.75724">
        <ele>299.8</ele>
        <time>2021-03-27T12:44:12Z</time>
      </trkpt>
      <trkpt lat="44.20991" lon="1.75719">
        <ele>299.6</ele>
        <time>2021-03-27T12:44:13Z</time>
      </trkpt>
      <trkpt lat="44.20985" lon="1.75715">
        <ele>299.4</ele>
        <time>2021-03-27T12:44:14Z</time>
      </trkpt>
      <trkpt lat="44.2098" lon="1.7571">
        <ele>299.2</ele>
        <time>2021-03-27T12:44:15Z</time>
      </trkpt>
      <trkpt lat="44.20974" lon="1.75706">
        <ele>299</ele>
        <time>2021-03-27T12:44:16Z</time>
      </trkpt>
      <trkpt lat="44.20969" lon="1.75702">
        <ele>298.9</ele>
        <time>2021-03-27T12:44:17Z</time>
      </trkpt>
      <trkpt lat="44.20963" lon="1.75698">
        <ele>298.8</ele>
        <time>2021-03-27T12:44:18Z</time>
      </trkpt>
      <trkpt lat="44.20957" lon="1.75694">
        <ele>298.7</ele>
        <time>2021-03-27T12:44:19Z</time>
      </trkpt>
      <trkpt lat="44.20952" lon="1.7569">
        <ele>298.6</ele>
        <time>2021-03-27T12:44:20Z</time>
      </trkpt>
      <trkpt lat="44.20946" lon="1.75687">
        <ele>298.7</ele>
        <time>2021-03-27T12:44:21Z</time>
      </trkpt>
      <trkpt lat="44.20941" lon="1.75683">
        <ele>298.7</ele>
        <time>2021-03-27T12:44:22Z</time>
      </trkpt>
      <trkpt lat="44.20935" lon="1.75679">
        <ele>298.7</ele>
        <time>2021-03-27T12:44:23Z</time>
      </trkpt>
      <trkpt lat="44.2093" lon="1.75676">
        <ele>298.8</ele>
        <time>2021-03-27T12:44:24Z</time>
      </trkpt>
      <trkpt lat="44.20925" lon="1.75672">
        <ele>298.8</ele>
        <time>2021-03-27T12:44:25Z</time>
      </trkpt>
      <trkpt lat="44.2092" lon="1.75668">
        <ele>298.9</ele>
        <time>2021-03-27T12:44:26Z</time>
      </trkpt>
      <trkpt lat="44.20915" lon="1.75665">
        <ele>298.9</ele>
        <time>2021-03-27T12:44:27Z</time>
      </trkpt>
      <trkpt lat="44.2091" lon="1.75661">
        <ele>298.9</ele>
        <time>2021-03-27T12:44:28Z</time>
      </trkpt>
      <trkpt lat="44.20905" lon="1.75658">
        <ele>298.9</ele>
        <time>2021-03-27T12:44:29Z</time>
      </trkpt>
      <trkpt lat="44.209" lon="1.75654">
        <ele>298.9</ele>
        <time>2021-03-27T12:44:30Z</time>
      </trkpt>
      <trkpt lat="44.20895" lon="1.7565">
        <ele>298.9</ele>
        <time>2021-03-27T12:44:31Z</time>
      </trkpt>
      <trkpt lat="44.2089" lon="1.75647">
        <ele>298.8</ele>
        <time>2021-03-27T12:44:32Z</time>
      </trkpt>
      <trkpt lat="44.20885" lon="1.75643">
        <ele>298.8</ele>
        <time>2021-03-27T12:44:33Z</time>
      </trkpt>
      <trkpt lat="44.2088" lon="1.7564">
        <ele>298.9</ele>
        <time>2021-03-27T12:44:34Z</time>
      </trkpt>
      <trkpt lat="44.20875" lon="1.75636">
        <ele>298.9</ele>
        <time>2021-03-27T12:44:35Z</time>
      </trkpt>
      <trkpt lat="44.2087" lon="1.75633">
        <ele>298.9</ele>
        <time>2021-03-27T12:44:36Z</time>
      </trkpt>
      <trkpt lat="44.20865" lon="1.7563">
        <ele>299</ele>
        <time>2021-03-27T12:44:37Z</time>
      </trkpt>
      <trkpt lat="44.20859" lon="1.75628">
        <ele>299</ele>
        <time>2021-03-27T12:44:38Z</time>
      </trkpt>
      <trkpt lat="44.20854" lon="1.75626">
        <ele>299.1</ele>
        <time>2021-03-27T12:44:39Z</time>
      </trkpt>
      <trkpt lat="44.20849" lon="1.75625">
        <ele>299.1</ele>
        <time>2021-03-27T12:44:40Z</time>
      </trkpt>
      <trkpt lat="44.20843" lon="1.75624">
        <ele>299.1</ele>
        <time>2021-03-27T12:44:41Z</time>
      </trkpt>
      <trkpt lat="44.20838" lon="1.75623">
        <ele>299.1</ele>
        <time>2021-03-27T12:44:42Z</time>
      </trkpt>
      <trkpt lat="44.20833" lon="1.75622">
        <ele>299.2</ele>
        <time>2021-03-27T12:44:43Z</time>
      </trkpt>
      <trkpt lat="44.20827" lon="1.75622">
        <ele>299.2</ele>
        <time>2021-03-27T12:44:44Z</time>
      </trkpt>
      <trkpt lat="44.20821" lon="1.75622">
        <ele>299.2</ele>
        <time>2021-03-27T12:44:45Z</time>
      </trkpt>
      <trkpt lat="44.20816" lon="1.75622">
        <ele>299.3</ele>
        <time>2021-03-27T12:44:46Z</time>
      </trkpt>
      <trkpt lat="44.2081" lon="1.75623">
        <ele>299.4</ele>
        <time>2021-03-27T12:44:47Z</time>
      </trkpt>
      <trkpt lat="44.20805" lon="1.75624">
        <ele>299.6</ele>
        <time>2021-03-27T12:44:48Z</time>
      </trkpt>
      <trkpt lat="44.208" lon="1.75625">
        <ele>299.8</ele>
        <time>2021-03-27T12:44:49Z</time>
      </trkpt>
      <trkpt lat="44.20795" lon="1.75627">
        <ele>300</ele>
        <time>2021-03-27T12:44:50Z</time>
      </trkpt>
      <trkpt lat="44.20791" lon="1.75628">
        <ele>300.2</ele>
        <time>2021-03-27T12:44:51Z</time>
      </trkpt>
      <trkpt lat="44.20786" lon="1.75629">
        <ele>300.4</ele>
        <time>2021-03-27T12:44:52Z</time>
      </trkpt>
      <trkpt lat="44.20778" lon="1.7563">
        <ele>300.9</ele>
        <time>2021-03-27T12:44:54Z</time>
      </trkpt>
      <trkpt lat="44.2077" lon="1.7563">
        <ele>301.3</ele>
        <time>2021-03-27T12:44:56Z</time>
      </trkpt>
      <trkpt lat="44.20763" lon="1.75629">
        <ele>301.7</ele>
        <time>2021-03-27T12:44:58Z</time>
      </trkpt>
      <trkpt lat="44.20756" lon="1.75628">
        <ele>302.1</ele>
        <time>2021-03-27T12:45:00Z</time>
      </trkpt>
      <trkpt lat="44.2075" lon="1.75627">
        <ele>302.4</ele>
        <time>2021-03-27T12:45:02Z</time>
      </trkpt>
      <trkpt lat="44.20743" lon="1.75627">
        <ele>302.7</ele>
        <time>2021-03-27T12:45:04Z</time>
      </trkpt>
      <trkpt lat="44.20737" lon="1.75627">
        <ele>303</ele>
        <time>2021-03-27T12:45:06Z</time>
      </trkpt>
      <trkpt lat="44.2073" lon="1.75628">
        <ele>303.3</ele>
        <time>2021-03-27T12:45:08Z</time>
      </trkpt>
      <trkpt lat="44.20723" lon="1.75628">
        <ele>303.5</ele>
        <time>2021-03-27T12:45:10Z</time>
      </trkpt>
      <trkpt lat="44.20717" lon="1.75626">
        <ele>303.8</ele>
        <time>2021-03-27T12:45:12Z</time>
      </trkpt>
      <trkpt lat="44.20712" lon="1.75623">
        <ele>304.1</ele>
        <time>2021-03-27T12:45:14Z</time>
      </trkpt>
      <trkpt lat="44.20706" lon="1.7562">
        <ele>304.5</ele>
        <time>2021-03-27T12:45:16Z</time>
      </trkpt>
      <trkpt lat="44.20701" lon="1.75618">
        <ele>304.8</ele>
        <time>2021-03-27T12:45:18Z</time>
      </trkpt>
      <trkpt lat="44.20695" lon="1.75615">
        <ele>305.1</ele>
        <time>2021-03-27T12:45:20Z</time>
      </trkpt>
      <trkpt lat="44.20689" lon="1.75612">
        <ele>305.4</ele>
        <time>2021-03-27T12:45:22Z</time>
      </trkpt>
      <trkpt lat="44.20683" lon="1.7561">
        <ele>305.7</ele>
        <time>2021-03-27T12:45:24Z</time>
      </trkpt>
      <trkpt lat="44.20678" lon="1.75608">
        <ele>306</ele>
        <time>2021-03-27T12:45:26Z</time>
      </trkpt>
      <trkpt lat="44.20672" lon="1.75605">
        <ele>306.3</ele>
        <time>2021-03-27T12:45:28Z</time>
      </trkpt>
      <trkpt lat="44.20666" lon="1.75603">
        <ele>306.6</ele>
        <time>2021-03-27T12:45:30Z</time>
      </trkpt>
      <trkpt lat="44.2066" lon="1.756">
        <ele>306.9</ele>
        <time>2021-03-27T12:45:32Z</time>
      </trkpt>
      <trkpt lat="44.20655" lon="1.75598">
        <ele>307.2</ele>
        <time>2021-03-27T12:45:34Z</time>
      </trkpt>
      <trkpt lat="44.20649" lon="1.75596">
        <ele>307.5</ele>
        <time>2021-03-27T12:45:36Z</time>
      </trkpt>
      <trkpt lat="44.20643" lon="1.75594">
        <ele>307.8</ele>
        <time>2021-03-27T12:45:38Z</time>
      </trkpt>
      <trkpt lat="44.20637" lon="1.75591">
        <ele>308</ele>
        <time>2021-03-27T12:45:40Z</time>
      </trkpt>
      <trkpt lat="44.20631" lon="1.75589">
        <ele>308.3</ele>
        <time>2021-03-27T12:45:42Z</time>
      </trkpt>
      <trkpt lat="44.20625" lon="1.75586">
        <ele>308.6</ele>
        <time>2021-03-27T12:45:44Z</time>
      </trkpt>
      <trkpt lat="44.2062" lon="1.75584">
        <ele>308.8</ele>
        <time>2021-03-27T12:45:46Z</time>
      </trkpt>
      <trkpt lat="44.20614" lon="1.75582">
        <ele>309</ele>
        <time>2021-03-27T12:45:48Z</time>
      </trkpt>
      <trkpt lat="44.20608" lon="1.75579">
        <ele>309.2</ele>
        <time>2021-03-27T12:45:50Z</time>
      </trkpt>
      <trkpt lat="44.20602" lon="1.75577">
        <ele>309.4</ele>
        <time>2021-03-27T12:45:52Z</time>
      </trkpt>
      <trkpt lat="44.20596" lon="1.75575">
        <ele>309.5</ele>
        <time>2021-03-27T12:45:54Z</time>
      </trkpt>
      <trkpt lat="44.2059" lon="1.75573">
        <ele>309.7</ele>
        <time>2021-03-27T12:45:56Z</time>
      </trkpt>
      <trkpt lat="44.20584" lon="1.7557">
        <ele>309.7</ele>
        <time>2021-03-27T12:45:58Z</time>
      </trkpt>
      <trkpt lat="44.20577" lon="1.75567">
        <ele>309.7</ele>
        <time>2021-03-27T12:46:00Z</time>
      </trkpt>
      <trkpt lat="44.2057" lon="1.75565">
        <ele>309.6</ele>
        <time>2021-03-27T12:46:02Z</time>
      </trkpt>
      <trkpt lat="44.20563" lon="1.75562">
        <ele>309.5</ele>
        <time>2021-03-27T12:46:04Z</time>
      </trkpt>
      <trkpt lat="44.20556" lon="1.75559">
        <ele>309.3</ele>
        <time>2021-03-27T12:46:06Z</time>
      </trkpt>
      <trkpt lat="44.20548" lon="1.75555">
        <ele>309.1</ele>
        <time>2021-03-27T12:46:08Z</time>
      </trkpt>
      <trkpt lat="44.2054" lon="1.7555">
        <ele>308.9</ele>
        <time>2021-03-27T12:46:10Z</time>
      </trkpt>
      <trkpt lat="44.20533" lon="1.75545">
        <ele>308.6</ele>
        <time>2021-03-27T12:46:12Z</time>
      </trkpt>
      <trkpt lat="44.20526" lon="1.75539">
        <ele>308.3</ele>
        <time>2021-03-27T12:46:14Z</time>
      </trkpt>
      <trkpt lat="44.20518" lon="1.75533">
        <ele>308</ele>
        <time>2021-03-27T12:46:16Z</time>
      </trkpt>
      <trkpt lat="44.20514" lon="1.7553">
        <ele>307.8</ele>
        <time>2021-03-27T12:46:17Z</time>
      </trkpt>
      <trkpt lat="44.20509" lon="1.75526">
        <ele>307.6</ele>
        <time>2021-03-27T12:46:18Z</time>
      </trkpt>
      <trkpt lat="44.20505" lon="1.75523">
        <ele>307.5</ele>
        <time>2021-03-27T12:46:19Z</time>
      </trkpt>
      <trkpt lat="44.20501" lon="1.7552">
        <ele>307.3</ele>
        <time>2021-03-27T12:46:20Z</time>
      </trkpt>
      <trkpt lat="44.20496" lon="1.75517">
        <ele>307.2</ele>
        <time>2021-03-27T12:46:21Z</time>
      </trkpt>
      <trkpt lat="44.20492" lon="1.75514">
        <ele>307</ele>
        <time>2021-03-27T12:46:22Z</time>
      </trkpt>
      <trkpt lat="44.20487" lon="1.7551">
        <ele>306.9</ele>
        <time>2021-03-27T12:46:23Z</time>
      </trkpt>
      <trkpt lat="44.20483" lon="1.75507">
        <ele>306.8</ele>
        <time>2021-03-27T12:46:24Z</time>
      </trkpt>
      <trkpt lat="44.20478" lon="1.75504">
        <ele>306.6</ele>
        <time>2021-03-27T12:46:25Z</time>
      </trkpt>
      <trkpt lat="44.20474" lon="1.75501">
        <ele>306.5</ele>
        <time>2021-03-27T12:46:26Z</time>
      </trkpt>
      <trkpt lat="44.20469" lon="1.75497">
        <ele>306.3</ele>
        <time>2021-03-27T12:46:27Z</time>
      </trkpt>
      <trkpt lat="44.20465" lon="1.75494">
        <ele>306.2</ele>
        <time>2021-03-27T12:46:28Z</time>
      </trkpt>
      <trkpt lat="44.2046" lon="1.75491">
        <ele>306.1</ele>
        <time>2021-03-27T12:46:29Z</time>
      </trkpt>
      <trkpt lat="44.20455" lon="1.75487">
        <ele>305.9</ele>
        <time>2021-03-27T12:46:30Z</time>
      </trkpt>
      <trkpt lat="44.2045" lon="1.75484">
        <ele>305.7</ele>
        <time>2021-03-27T12:46:31Z</time>
      </trkpt>
      <trkpt lat="44.20446" lon="1.7548">
        <ele>305.6</ele>
        <time>2021-03-27T12:46:32Z</time>
      </trkpt>
      <trkpt lat="44.20441" lon="1.75476">
        <ele>305.4</ele>
        <time>2021-03-27T12:46:33Z</time>
      </trkpt>
      <trkpt lat="44.20436" lon="1.75472">
        <ele>305.2</ele>
        <time>2021-03-27T12:46:34Z</time>
      </trkpt>
      <trkpt lat="44.20431" lon="1.75468">
        <ele>305.1</ele>
        <time>2021-03-27T12:46:35Z</time>
      </trkpt>
      <trkpt lat="44.20426" lon="1.75464">
        <ele>305</ele>
        <time>2021-03-27T12:46:36Z</time>
      </trkpt>
      <trkpt lat="44.20421" lon="1.7546">
        <ele>304.9</ele>
        <time>2021-03-27T12:46:37Z</time>
      </trkpt>
      <trkpt lat="44.20416" lon="1.75457">
        <ele>304.9</ele>
        <time>2021-03-27T12:46:38Z</time>
      </trkpt>
      <trkpt lat="44.20412" lon="1.75454">
        <ele>304.9</ele>
        <time>2021-03-27T12:46:39Z</time>
      </trkpt>
      <trkpt lat="44.20407" lon="1.75451">
        <ele>304.8</ele>
        <time>2021-03-27T12:46:40Z</time>
      </trkpt>
      <trkpt lat="44.20402" lon="1.75449">
        <ele>304.8</ele>
        <time>2021-03-27T12:46:41Z</time>
      </trkpt>
      <trkpt lat="44.20397" lon="1.75447">
        <ele>304.8</ele>
        <time>2021-03-27T12:46:42Z</time>
      </trkpt>
      <trkpt lat="44.20393" lon="1.75444">
        <ele>304.7</ele>
        <time>2021-03-27T12:46:43Z</time>
      </trkpt>
      <trkpt lat="44.20388" lon="1.75442">
        <ele>304.7</ele>
        <time>2021-03-27T12:46:44Z</time>
      </trkpt>
      <trkpt lat="44.20384" lon="1.75439">
        <ele>304.7</ele>
        <time>2021-03-27T12:46:45Z</time>
      </trkpt>
      <trkpt lat="44.20379" lon="1.75437">
        <ele>304.6</ele>
        <time>2021-03-27T12:46:46Z</time>
      </trkpt>
      <trkpt lat="44.20374" lon="1.75435">
        <ele>304.6</ele>
        <time>2021-03-27T12:46:47Z</time>
      </trkpt>
      <trkpt lat="44.2037" lon="1.75433">
        <ele>304.6</ele>
        <time>2021-03-27T12:46:48Z</time>
      </trkpt>
      <trkpt lat="44.20365" lon="1.7543">
        <ele>304.6</ele>
        <time>2021-03-27T12:46:49Z</time>
      </trkpt>
      <trkpt lat="44.20361" lon="1.75428">
        <ele>304.6</ele>
        <time>2021-03-27T12:46:50Z</time>
      </trkpt>
      <trkpt lat="44.20356" lon="1.75425">
        <ele>304.6</ele>
        <time>2021-03-27T12:46:51Z</time>
      </trkpt>
      <trkpt lat="44.20352" lon="1.75422">
        <ele>304.6</ele>
        <time>2021-03-27T12:46:52Z</time>
      </trkpt>
      <trkpt lat="44.20348" lon="1.7542">
        <ele>304.6</ele>
        <time>2021-03-27T12:46:53Z</time>
      </trkpt>
      <trkpt lat="44.20343" lon="1.75417">
        <ele>304.6</ele>
        <time>2021-03-27T12:46:54Z</time>
      </trkpt>
      <trkpt lat="44.20338" lon="1.75415">
        <ele>304.5</ele>
        <time>2021-03-27T12:46:55Z</time>
      </trkpt>
      <trkpt lat="44.20334" lon="1.75413">
        <ele>304.5</ele>
        <time>2021-03-27T12:46:56Z</time>
      </trkpt>
      <trkpt lat="44.20329" lon="1.75411">
        <ele>304.5</ele>
        <time>2021-03-27T12:46:57Z</time>
      </trkpt>
      <trkpt lat="44.20324" lon="1.75408">
        <ele>304.4</ele>
        <time>2021-03-27T12:46:58Z</time>
      </trkpt>
      <trkpt lat="44.2032" lon="1.75406">
        <ele>304.4</ele>
        <time>2021-03-27T12:46:59Z</time>
      </trkpt>
      <trkpt lat="44.20315" lon="1.75403">
        <ele>304.4</ele>
        <time>2021-03-27T12:47:00Z</time>
      </trkpt>
      <trkpt lat="44.20311" lon="1.75401">
        <ele>304.4</ele>
        <time>2021-03-27T12:47:01Z</time>
      </trkpt>
      <trkpt lat="44.20306" lon="1.75398">
        <ele>304.4</ele>
        <time>2021-03-27T12:47:02Z</time>
      </trkpt>
      <trkpt lat="44.20302" lon="1.75396">
        <ele>304.3</ele>
        <time>2021-03-27T12:47:03Z</time>
      </trkpt>
      <trkpt lat="44.20297" lon="1.75393">
        <ele>304.3</ele>
        <time>2021-03-27T12:47:04Z</time>
      </trkpt>
      <trkpt lat="44.20293" lon="1.7539">
        <ele>304.3</ele>
        <time>2021-03-27T12:47:05Z</time>
      </trkpt>
      <trkpt lat="44.20288" lon="1.75388">
        <ele>304.3</ele>
        <time>2021-03-27T12:47:06Z</time>
      </trkpt>
      <trkpt lat="44.20284" lon="1.75385">
        <ele>304.3</ele>
        <time>2021-03-27T12:47:07Z</time>
      </trkpt>
      <trkpt lat="44.20279" lon="1.75383">
        <ele>304.2</ele>
        <time>2021-03-27T12:47:08Z</time>
      </trkpt>
      <trkpt lat="44.20275" lon="1.75381">
        <ele>304.2</ele>
        <time>2021-03-27T12:47:09Z</time>
      </trkpt>
      <trkpt lat="44.2027" lon="1.75378">
        <ele>304.2</ele>
        <time>2021-03-27T12:47:10Z</time>
      </trkpt>
      <trkpt lat="44.20266" lon="1.75375">
        <ele>304.2</ele>
        <time>2021-03-27T12:47:11Z</time>
      </trkpt>
      <trkpt lat="44.20261" lon="1.75372">
        <ele>304.1</ele>
        <time>2021-03-27T12:47:12Z</time>
      </trkpt>
      <trkpt lat="44.20257" lon="1.7537">
        <ele>304.1</ele>
        <time>2021-03-27T12:47:13Z</time>
      </trkpt>
      <trkpt lat="44.20252" lon="1.75367">
        <ele>304.1</ele>
        <time>2021-03-27T12:47:14Z</time>
      </trkpt>
      <trkpt lat="44.20248" lon="1.75364">
        <ele>304.1</ele>
        <time>2021-03-27T12:47:15Z</time>
      </trkpt>
      <trkpt lat="44.20243" lon="1.75362">
        <ele>304</ele>
        <time>2021-03-27T12:47:16Z</time>
      </trkpt>
      <trkpt lat="44.20238" lon="1.7536">
        <ele>304</ele>
        <time>2021-03-27T12:47:17Z</time>
      </trkpt>
      <trkpt lat="44.20234" lon="1.75358">
        <ele>303.9</ele>
        <time>2021-03-27T12:47:18Z</time>
      </trkpt>
      <trkpt lat="44.20229" lon="1.75356">
        <ele>303.9</ele>
        <time>2021-03-27T12:47:19Z</time>
      </trkpt>
      <trkpt lat="44.20225" lon="1.75354">
        <ele>303.9</ele>
        <time>2021-03-27T12:47:20Z</time>
      </trkpt>
      <trkpt lat="44.20221" lon="1.75351">
        <ele>303.8</ele>
        <time>2021-03-27T12:47:21Z</time>
      </trkpt>
      <trkpt lat="44.20212" lon="1.75347">
        <ele>303.7</ele>
        <time>2021-03-27T12:47:23Z</time>
      </trkpt>
      <trkpt lat="44.20204" lon="1.75342">
        <ele>303.7</ele>
        <time>2021-03-27T12:47:25Z</time>
      </trkpt>
      <trkpt lat="44.20196" lon="1.75339">
        <ele>303.6</ele>
        <time>2021-03-27T12:47:27Z</time>
      </trkpt>
      <trkpt lat="44.20191" lon="1.75338">
        <ele>303.6</ele>
        <time>2021-03-27T12:47:28Z</time>
      </trkpt>
      <trkpt lat="44.20183" lon="1.75335">
        <ele>303.5</ele>
        <time>2021-03-27T12:47:30Z</time>
      </trkpt>
      <trkpt lat="44.20175" lon="1.75333">
        <ele>303.5</ele>
        <time>2021-03-27T12:47:32Z</time>
      </trkpt>
      <trkpt lat="44.20168" lon="1.7533">
        <ele>303.5</ele>
        <time>2021-03-27T12:47:34Z</time>
      </trkpt>
      <trkpt lat="44.20161" lon="1.75327">
        <ele>303.5</ele>
        <time>2021-03-27T12:47:36Z</time>
      </trkpt>
      <trkpt lat="44.20153" lon="1.75324">
        <ele>303.5</ele>
        <time>2021-03-27T12:47:38Z</time>
      </trkpt>
      <trkpt lat="44.20146" lon="1.75321">
        <ele>303.6</ele>
        <time>2021-03-27T12:47:40Z</time>
      </trkpt>
      <trkpt lat="44.20139" lon="1.75319">
        <ele>303.6</ele>
        <time>2021-03-27T12:47:42Z</time>
      </trkpt>
      <trkpt lat="44.20131" lon="1.75316">
        <ele>303.7</ele>
        <time>2021-03-27T12:47:44Z</time>
      </trkpt>
      <trkpt lat="44.20124" lon="1.75314">
        <ele>303.7</ele>
        <time>2021-03-27T12:47:46Z</time>
      </trkpt>
      <trkpt lat="44.20116" lon="1.75312">
        <ele>303.8</ele>
        <time>2021-03-27T12:47:48Z</time>
      </trkpt>
      <trkpt lat="44.20109" lon="1.75309">
        <ele>303.8</ele>
        <time>2021-03-27T12:47:50Z</time>
      </trkpt>
      <trkpt lat="44.201" lon="1.75305">
        <ele>303.8</ele>
        <time>2021-03-27T12:47:52Z</time>
      </trkpt>
      <trkpt lat="44.20092" lon="1.753">
        <ele>303.8</ele>
        <time>2021-03-27T12:47:54Z</time>
      </trkpt>
      <trkpt lat="44.20088" lon="1.75298">
        <ele>303.7</ele>
        <time>2021-03-27T12:47:55Z</time>
      </trkpt>
      <trkpt lat="44.20083" lon="1.75295">
        <ele>303.6</ele>
        <time>2021-03-27T12:47:56Z</time>
      </trkpt>
      <trkpt lat="44.20079" lon="1.75291">
        <ele>303.4</ele>
        <time>2021-03-27T12:47:57Z</time>
      </trkpt>
      <trkpt lat="44.20074" lon="1.75288">
        <ele>303.2</ele>
        <time>2021-03-27T12:47:58Z</time>
      </trkpt>
      <trkpt lat="44.20068" lon="1.75285">
        <ele>303.1</ele>
        <time>2021-03-27T12:47:59Z</time>
      </trkpt>
      <trkpt lat="44.20063" lon="1.75283">
        <ele>302.9</ele>
        <time>2021-03-27T12:48:00Z</time>
      </trkpt>
      <trkpt lat="44.20057" lon="1.7528">
        <ele>302.8</ele>
        <time>2021-03-27T12:48:01Z</time>
      </trkpt>
      <trkpt lat="44.20051" lon="1.75278">
        <ele>302.6</ele>
        <time>2021-03-27T12:48:02Z</time>
      </trkpt>
      <trkpt lat="44.20045" lon="1.75275">
        <ele>302.4</ele>
        <time>2021-03-27T12:48:03Z</time>
      </trkpt>
      <trkpt lat="44.20039" lon="1.75273">
        <ele>302.2</ele>
        <time>2021-03-27T12:48:04Z</time>
      </trkpt>
      <trkpt lat="44.20033" lon="1.7527">
        <ele>302</ele>
        <time>2021-03-27T12:48:05Z</time>
      </trkpt>
      <trkpt lat="44.20026" lon="1.75269">
        <ele>301.7</ele>
        <time>2021-03-27T12:48:06Z</time>
      </trkpt>
      <trkpt lat="44.20019" lon="1.75267">
        <ele>301.4</ele>
        <time>2021-03-27T12:48:07Z</time>
      </trkpt>
      <trkpt lat="44.20012" lon="1.75265">
        <ele>301</ele>
        <time>2021-03-27T12:48:08Z</time>
      </trkpt>
      <trkpt lat="44.20005" lon="1.75263">
        <ele>300.5</ele>
        <time>2021-03-27T12:48:09Z</time>
      </trkpt>
      <trkpt lat="44.19999" lon="1.75262">
        <ele>300</ele>
        <time>2021-03-27T12:48:10Z</time>
      </trkpt>
      <trkpt lat="44.19993" lon="1.7526">
        <ele>299.5</ele>
        <time>2021-03-27T12:48:11Z</time>
      </trkpt>
      <trkpt lat="44.19987" lon="1.75258">
        <ele>299</ele>
        <time>2021-03-27T12:48:12Z</time>
      </trkpt>
      <trkpt lat="44.19981" lon="1.75256">
        <ele>298.5</ele>
        <time>2021-03-27T12:48:13Z</time>
      </trkpt>
      <trkpt lat="44.19976" lon="1.75255">
        <ele>298</ele>
        <time>2021-03-27T12:48:14Z</time>
      </trkpt>
      <trkpt lat="44.19971" lon="1.75254">
        <ele>297.6</ele>
        <time>2021-03-27T12:48:15Z</time>
      </trkpt>
      <trkpt lat="44.19966" lon="1.75252">
        <ele>297.2</ele>
        <time>2021-03-27T12:48:16Z</time>
      </trkpt>
      <trkpt lat="44.1996" lon="1.75249">
        <ele>296.6</ele>
        <time>2021-03-27T12:48:18Z</time>
      </trkpt>
      <trkpt lat="44.19956" lon="1.75243">
        <ele>296</ele>
        <time>2021-03-27T12:48:20Z</time>
      </trkpt>
      <trkpt lat="44.19958" lon="1.75234">
        <ele>295.2</ele>
        <time>2021-03-27T12:48:23Z</time>
      </trkpt>
      <trkpt lat="44.19961" lon="1.75224">
        <ele>294.7</ele>
        <time>2021-03-27T12:48:25Z</time>
      </trkpt>
      <trkpt lat="44.19963" lon="1.75218">
        <ele>294.2</ele>
        <time>2021-03-27T12:48:26Z</time>
      </trkpt>
      <trkpt lat="44.19965" lon="1.75211">
        <ele>293.8</ele>
        <time>2021-03-27T12:48:27Z</time>
      </trkpt>
      <trkpt lat="44.19967" lon="1.75204">
        <ele>293.3</ele>
        <time>2021-03-27T12:48:28Z</time>
      </trkpt>
      <trkpt lat="44.19969" lon="1.75196">
        <ele>292.8</ele>
        <time>2021-03-27T12:48:29Z</time>
      </trkpt>
      <trkpt lat="44.19971" lon="1.75189">
        <ele>292.1</ele>
        <time>2021-03-27T12:48:30Z</time>
      </trkpt>
      <trkpt lat="44.19973" lon="1.75183">
        <ele>291.9</ele>
        <time>2021-03-27T12:48:31Z</time>
      </trkpt>
      <trkpt lat="44.19975" lon="1.75176">
        <ele>291.8</ele>
        <time>2021-03-27T12:48:32Z</time>
      </trkpt>
      <trkpt lat="44.19977" lon="1.75169">
        <ele>291.2</ele>
        <time>2021-03-27T12:48:33Z</time>
      </trkpt>
      <trkpt lat="44.1998" lon="1.75161">
        <ele>290.7</ele>
        <time>2021-03-27T12:48:34Z</time>
      </trkpt>
      <trkpt lat="44.19982" lon="1.75153">
        <ele>290.2</ele>
        <time>2021-03-27T12:48:35Z</time>
      </trkpt>
      <trkpt lat="44.19983" lon="1.75144">
        <ele>289.5</ele>
        <time>2021-03-27T12:48:36Z</time>
      </trkpt>
      <trkpt lat="44.19985" lon="1.75136">
        <ele>289.1</ele>
        <time>2021-03-27T12:48:37Z</time>
      </trkpt>
      <trkpt lat="44.19986" lon="1.75128">
        <ele>288.4</ele>
        <time>2021-03-27T12:48:38Z</time>
      </trkpt>
      <trkpt lat="44.19987" lon="1.75119">
        <ele>287.9</ele>
        <time>2021-03-27T12:48:39Z</time>
      </trkpt>
      <trkpt lat="44.19988" lon="1.75111">
        <ele>287.1</ele>
        <time>2021-03-27T12:48:40Z</time>
      </trkpt>
      <trkpt lat="44.1999" lon="1.75102">
        <ele>286.5</ele>
        <time>2021-03-27T12:48:41Z</time>
      </trkpt>
      <trkpt lat="44.19992" lon="1.75093">
        <ele>285.9</ele>
        <time>2021-03-27T12:48:42Z</time>
      </trkpt>
      <trkpt lat="44.19993" lon="1.75085">
        <ele>285.5</ele>
        <time>2021-03-27T12:48:43Z</time>
      </trkpt>
      <trkpt lat="44.19996" lon="1.75077">
        <ele>284.8</ele>
        <time>2021-03-27T12:48:44Z</time>
      </trkpt>
      <trkpt lat="44.19998" lon="1.75068">
        <ele>284.3</ele>
        <time>2021-03-27T12:48:45Z</time>
      </trkpt>
      <trkpt lat="44.2" lon="1.7506">
        <ele>283.8</ele>
        <time>2021-03-27T12:48:46Z</time>
      </trkpt>
      <trkpt lat="44.20003" lon="1.75051">
        <ele>283.2</ele>
        <time>2021-03-27T12:48:47Z</time>
      </trkpt>
      <trkpt lat="44.20006" lon="1.7504">
        <ele>282.6</ele>
        <time>2021-03-27T12:48:48Z</time>
      </trkpt>
      <trkpt lat="44.20011" lon="1.75029">
        <ele>281.5</ele>
        <time>2021-03-27T12:48:49Z</time>
      </trkpt>
      <trkpt lat="44.20016" lon="1.75018">
        <ele>281</ele>
        <time>2021-03-27T12:48:50Z</time>
      </trkpt>
      <trkpt lat="44.2002" lon="1.75007">
        <ele>279.7</ele>
        <time>2021-03-27T12:48:51Z</time>
      </trkpt>
      <trkpt lat="44.20024" lon="1.74994">
        <ele>278.5</ele>
        <time>2021-03-27T12:48:52Z</time>
      </trkpt>
      <trkpt lat="44.20028" lon="1.7498">
        <ele>276.8</ele>
        <time>2021-03-27T12:48:53Z</time>
      </trkpt>
      <trkpt lat="44.20031" lon="1.74966">
        <ele>274.2</ele>
        <time>2021-03-27T12:48:54Z</time>
      </trkpt>
      <trkpt lat="44.20036" lon="1.74952">
        <ele>272.5</ele>
        <time>2021-03-27T12:48:55Z</time>
      </trkpt>
      <trkpt lat="44.2004" lon="1.74938">
        <ele>271</ele>
        <time>2021-03-27T12:48:56Z</time>
      </trkpt>
      <trkpt lat="44.20045" lon="1.74925">
        <ele>269.5</ele>
        <time>2021-03-27T12:48:57Z</time>
      </trkpt>
      <trkpt lat="44.20049" lon="1.74909">
        <ele>267.1</ele>
        <time>2021-03-27T12:48:58Z</time>
      </trkpt>
      <trkpt lat="44.20053" lon="1.74894">
        <ele>265.3</ele>
        <time>2021-03-27T12:48:59Z</time>
      </trkpt>
      <trkpt lat="44.20057" lon="1.74881">
        <ele>263.5</ele>
        <time>2021-03-27T12:49:00Z</time>
      </trkpt>
      <trkpt lat="44.2006" lon="1.74869">
        <ele>262.2</ele>
        <time>2021-03-27T12:49:01Z</time>
      </trkpt>
      <trkpt lat="44.20063" lon="1.7486">
        <ele>261.5</ele>
        <time>2021-03-27T12:49:02Z</time>
      </trkpt>
      <trkpt lat="44.20068" lon="1.74853">
        <ele>261.2</ele>
        <time>2021-03-27T12:49:03Z</time>
      </trkpt>
      <trkpt lat="44.20073" lon="1.74846">
        <ele>261.2</ele>
        <time>2021-03-27T12:49:04Z</time>
      </trkpt>
      <trkpt lat="44.20078" lon="1.74841">
        <ele>261.7</ele>
        <time>2021-03-27T12:49:05Z</time>
      </trkpt>
      <trkpt lat="44.20084" lon="1.74838">
        <ele>262.9</ele>
        <time>2021-03-27T12:49:06Z</time>
      </trkpt>
      <trkpt lat="44.20089" lon="1.74832">
        <ele>264.6</ele>
        <time>2021-03-27T12:49:08Z</time>
      </trkpt>
      <trkpt lat="44.20087" lon="1.74825">
        <ele>263.8</ele>
        <time>2021-03-27T12:49:11Z</time>
      </trkpt>
      <trkpt lat="44.20082" lon="1.74821">
        <ele>262.3</ele>
        <time>2021-03-27T12:49:14Z</time>
      </trkpt>
      <trkpt lat="44.20076" lon="1.74817">
        <ele>261</ele>
        <time>2021-03-27T12:49:17Z</time>
      </trkpt>
      <trkpt lat="44.2007" lon="1.74812">
        <ele>260.5</ele>
        <time>2021-03-27T12:49:19Z</time>
      </trkpt>
      <trkpt lat="44.20066" lon="1.74804">
        <ele>259.7</ele>
        <time>2021-03-27T12:49:21Z</time>
      </trkpt>
      <trkpt lat="44.20062" lon="1.74794">
        <ele>259.6</ele>
        <time>2021-03-27T12:49:23Z</time>
      </trkpt>
      <trkpt lat="44.20059" lon="1.74789">
        <ele>259</ele>
        <time>2021-03-27T12:49:24Z</time>
      </trkpt>
      <trkpt lat="44.20056" lon="1.74784">
        <ele>258.5</ele>
        <time>2021-03-27T12:49:25Z</time>
      </trkpt>
      <trkpt lat="44.20052" lon="1.74778">
        <ele>258</ele>
        <time>2021-03-27T12:49:26Z</time>
      </trkpt>
      <trkpt lat="44.20049" lon="1.74773">
        <ele>257.6</ele>
        <time>2021-03-27T12:49:27Z</time>
      </trkpt>
      <trkpt lat="44.20046" lon="1.74767">
        <ele>257.8</ele>
        <time>2021-03-27T12:49:28Z</time>
      </trkpt>
      <trkpt lat="44.20043" lon="1.7476">
        <ele>257.6</ele>
        <time>2021-03-27T12:49:29Z</time>
      </trkpt>
      <trkpt lat="44.20039" lon="1.74754">
        <ele>257.9</ele>
        <time>2021-03-27T12:49:30Z</time>
      </trkpt>
      <trkpt lat="44.20035" lon="1.74748">
        <ele>257.1</ele>
        <time>2021-03-27T12:49:31Z</time>
      </trkpt>
      <trkpt lat="44.20032" lon="1.74741">
        <ele>257.3</ele>
        <time>2021-03-27T12:49:32Z</time>
      </trkpt>
      <trkpt lat="44.20028" lon="1.74734">
        <ele>257.6</ele>
        <time>2021-03-27T12:49:33Z</time>
      </trkpt>
      <trkpt lat="44.20025" lon="1.74727">
        <ele>257.4</ele>
        <time>2021-03-27T12:49:34Z</time>
      </trkpt>
      <trkpt lat="44.20022" lon="1.7472">
        <ele>257.9</ele>
        <time>2021-03-27T12:49:35Z</time>
      </trkpt>
      <trkpt lat="44.20017" lon="1.74714">
        <ele>257.4</ele>
        <time>2021-03-27T12:49:36Z</time>
      </trkpt>
      <trkpt lat="44.20013" lon="1.74707">
        <ele>258</ele>
        <time>2021-03-27T12:49:37Z</time>
      </trkpt>
      <trkpt lat="44.20008" lon="1.74701">
        <ele>257.5</ele>
        <time>2021-03-27T12:49:38Z</time>
      </trkpt>
      <trkpt lat="44.20004" lon="1.74694">
        <ele>258</ele>
        <time>2021-03-27T12:49:39Z</time>
      </trkpt>
      <trkpt lat="44.19999" lon="1.74687">
        <ele>257.9</ele>
        <time>2021-03-27T12:49:40Z</time>
      </trkpt>
      <trkpt lat="44.19996" lon="1.74681">
        <ele>258</ele>
        <time>2021-03-27T12:49:41Z</time>
      </trkpt>
      <trkpt lat="44.19994" lon="1.74674">
        <ele>258.7</ele>
        <time>2021-03-27T12:49:42Z</time>
      </trkpt>
      <trkpt lat="44.19992" lon="1.74663">
        <ele>258.9</ele>
        <time>2021-03-27T12:49:44Z</time>
      </trkpt>
      <trkpt lat="44.19991" lon="1.74656">
        <ele>259.6</ele>
        <time>2021-03-27T12:49:45Z</time>
      </trkpt>
      <trkpt lat="44.1999" lon="1.7465">
        <ele>259.9</ele>
        <time>2021-03-27T12:49:46Z</time>
      </trkpt>
      <trkpt lat="44.19989" lon="1.74643">
        <ele>260</ele>
        <time>2021-03-27T12:49:47Z</time>
      </trkpt>
      <trkpt lat="44.19984" lon="1.74632">
        <ele>259.9</ele>
        <time>2021-03-27T12:49:49Z</time>
      </trkpt>
      <trkpt lat="44.19981" lon="1.74625">
        <ele>259.8</ele>
        <time>2021-03-27T12:49:50Z</time>
      </trkpt>
      <trkpt lat="44.19978" lon="1.74617">
        <ele>259.7</ele>
        <time>2021-03-27T12:49:51Z</time>
      </trkpt>
      <trkpt lat="44.19975" lon="1.7461">
        <ele>259.1</ele>
        <time>2021-03-27T12:49:52Z</time>
      </trkpt>
      <trkpt lat="44.19972" lon="1.74602">
        <ele>258.7</ele>
        <time>2021-03-27T12:49:53Z</time>
      </trkpt>
      <trkpt lat="44.1997" lon="1.74594">
        <ele>258.2</ele>
        <time>2021-03-27T12:49:54Z</time>
      </trkpt>
      <trkpt lat="44.19967" lon="1.74587">
        <ele>257.7</ele>
        <time>2021-03-27T12:49:55Z</time>
      </trkpt>
      <trkpt lat="44.19965" lon="1.74579">
        <ele>257.2</ele>
        <time>2021-03-27T12:49:56Z</time>
      </trkpt>
      <trkpt lat="44.19963" lon="1.74572">
        <ele>257.5</ele>
        <time>2021-03-27T12:49:57Z</time>
      </trkpt>
      <trkpt lat="44.19961" lon="1.74566">
        <ele>257</ele>
        <time>2021-03-27T12:49:58Z</time>
      </trkpt>
      <trkpt lat="44.19957" lon="1.74559">
        <ele>256.3</ele>
        <time>2021-03-27T12:50:00Z</time>
      </trkpt>
      <trkpt lat="44.19953" lon="1.74549">
        <ele>256.4</ele>
        <time>2021-03-27T12:50:02Z</time>
      </trkpt>
      <trkpt lat="44.19949" lon="1.74542">
        <ele>254.6</ele>
        <time>2021-03-27T12:50:04Z</time>
      </trkpt>
      <trkpt lat="44.19945" lon="1.74532">
        <ele>254.9</ele>
        <time>2021-03-27T12:50:06Z</time>
      </trkpt>
      <trkpt lat="44.19943" lon="1.74526">
        <ele>254</ele>
        <time>2021-03-27T12:50:07Z</time>
      </trkpt>
      <trkpt lat="44.19941" lon="1.7452">
        <ele>254.5</ele>
        <time>2021-03-27T12:50:08Z</time>
      </trkpt>
      <trkpt lat="44.19939" lon="1.74514">
        <ele>254.2</ele>
        <time>2021-03-27T12:50:09Z</time>
      </trkpt>
      <trkpt lat="44.19937" lon="1.74508">
        <ele>253.4</ele>
        <time>2021-03-27T12:50:10Z</time>
      </trkpt>
      <trkpt lat="44.19933" lon="1.74497">
        <ele>253.8</ele>
        <time>2021-03-27T12:50:12Z</time>
      </trkpt>
      <trkpt lat="44.1993" lon="1.74491">
        <ele>253.3</ele>
        <time>2021-03-27T12:50:13Z</time>
      </trkpt>
      <trkpt lat="44.19925" lon="1.74481">
        <ele>252.6</ele>
        <time>2021-03-27T12:50:15Z</time>
      </trkpt>
      <trkpt lat="44.1992" lon="1.74474">
        <ele>252.9</ele>
        <time>2021-03-27T12:50:17Z</time>
      </trkpt>
      <trkpt lat="44.19916" lon="1.74468">
        <ele>253.2</ele>
        <time>2021-03-27T12:50:19Z</time>
      </trkpt>
      <trkpt lat="44.19912" lon="1.74464">
        <ele>250.8</ele>
        <time>2021-03-27T12:50:21Z</time>
      </trkpt>
      <trkpt lat="44.19908" lon="1.74459">
        <ele>251.1</ele>
        <time>2021-03-27T12:50:23Z</time>
      </trkpt>
      <trkpt lat="44.19902" lon="1.74454">
        <ele>249.8</ele>
        <time>2021-03-27T12:50:25Z</time>
      </trkpt>
      <trkpt lat="44.19897" lon="1.74448">
        <ele>248.5</ele>
        <time>2021-03-27T12:50:27Z</time>
      </trkpt>
      <trkpt lat="44.19892" lon="1.74443">
        <ele>248.2</ele>
        <time>2021-03-27T12:50:29Z</time>
      </trkpt>
      <trkpt lat="44.19887" lon="1.74437">
        <ele>247.7</ele>
        <time>2021-03-27T12:50:31Z</time>
      </trkpt>
      <trkpt lat="44.19882" lon="1.74432">
        <ele>246.5</ele>
        <time>2021-03-27T12:50:34Z</time>
      </trkpt>
      <trkpt lat="44.19876" lon="1.7443">
        <ele>245.5</ele>
        <time>2021-03-27T12:50:36Z</time>
      </trkpt>
      <trkpt lat="44.1987" lon="1.74427">
        <ele>244.4</ele>
        <time>2021-03-27T12:50:38Z</time>
      </trkpt>
      <trkpt lat="44.19865" lon="1.74425">
        <ele>243.4</ele>
        <time>2021-03-27T12:50:40Z</time>
      </trkpt>
      <trkpt lat="44.19861" lon="1.74422">
        <ele>242.5</ele>
        <time>2021-03-27T12:50:42Z</time>
      </trkpt>
      <trkpt lat="44.1986" lon="1.74421">
        <ele>241.6</ele>
        <time>2021-03-27T12:50:43Z</time>
      </trkpt>
      <trkpt lat="44.19857" lon="1.74421">
        <ele>240.7</ele>
        <time>2021-03-27T12:50:48Z</time>
      </trkpt>
      <trkpt lat="44.19851" lon="1.74419">
        <ele>240.7</ele>
        <time>2021-03-27T12:50:51Z</time>
      </trkpt>
      <trkpt lat="44.19847" lon="1.74416">
        <ele>240.1</ele>
        <time>2021-03-27T12:50:53Z</time>
      </trkpt>
      <trkpt lat="44.19842" lon="1.7441">
        <ele>239.8</ele>
        <time>2021-03-27T12:50:55Z</time>
      </trkpt>
      <trkpt lat="44.19838" lon="1.74405">
        <ele>239.9</ele>
        <time>2021-03-27T12:50:56Z</time>
      </trkpt>
      <trkpt lat="44.19834" lon="1.74401">
        <ele>240.1</ele>
        <time>2021-03-27T12:50:57Z</time>
      </trkpt>
      <trkpt lat="44.1983" lon="1.74398">
        <ele>240.3</ele>
        <time>2021-03-27T12:50:58Z</time>
      </trkpt>
      <trkpt lat="44.19823" lon="1.74391">
        <ele>239.6</ele>
        <time>2021-03-27T12:51:00Z</time>
      </trkpt>
      <trkpt lat="44.19818" lon="1.74389">
        <ele>240.1</ele>
        <time>2021-03-27T12:51:02Z</time>
      </trkpt>
      <trkpt lat="44.19817" lon="1.74387">
        <ele>239.6</ele>
        <time>2021-03-27T12:51:04Z</time>
      </trkpt>
      <trkpt lat="44.19815" lon="1.74387">
        <ele>239.5</ele>
        <time>2021-03-27T12:51:11Z</time>
      </trkpt>
      <trkpt lat="44.19811" lon="1.74383">
        <ele>239.6</ele>
        <time>2021-03-27T12:51:14Z</time>
      </trkpt>
      <trkpt lat="44.19808" lon="1.74382">
        <ele>240</ele>
        <time>2021-03-27T12:51:16Z</time>
      </trkpt>
      <trkpt lat="44.19806" lon="1.74381">
        <ele>239.9</ele>
        <time>2021-03-27T12:51:23Z</time>
      </trkpt>
      <trkpt lat="44.19799" lon="1.74382">
        <ele>237.5</ele>
        <time>2021-03-27T12:51:26Z</time>
      </trkpt>
      <trkpt lat="44.19793" lon="1.74382">
        <ele>237.4</ele>
        <time>2021-03-27T12:51:29Z</time>
      </trkpt>
      <trkpt lat="44.19787" lon="1.74379">
        <ele>236.9</ele>
        <time>2021-03-27T12:51:32Z</time>
      </trkpt>
      <trkpt lat="44.19781" lon="1.74377">
        <ele>236.8</ele>
        <time>2021-03-27T12:51:35Z</time>
      </trkpt>
      <trkpt lat="44.19778" lon="1.74377">
        <ele>236.3</ele>
        <time>2021-03-27T12:51:37Z</time>
      </trkpt>
      <trkpt lat="44.19775" lon="1.74375">
        <ele>235.8</ele>
        <time>2021-03-27T12:51:43Z</time>
      </trkpt>
      <trkpt lat="44.19769" lon="1.74372">
        <ele>235.6</ele>
        <time>2021-03-27T12:51:47Z</time>
      </trkpt>
      <trkpt lat="44.19769" lon="1.74371">
        <ele>235.5</ele>
        <time>2021-03-27T12:51:48Z</time>
      </trkpt>
      <trkpt lat="44.19767" lon="1.7437">
        <ele>235</ele>
        <time>2021-03-27T12:51:50Z</time>
      </trkpt>
      <trkpt lat="44.19766" lon="1.7437">
        <ele>235</ele>
        <time>2021-03-27T12:51:51Z</time>
      </trkpt>
      <trkpt lat="44.19764" lon="1.74369">
        <ele>235.3</ele>
        <time>2021-03-27T12:51:52Z</time>
      </trkpt>
      <trkpt lat="44.19759" lon="1.74368">
        <ele>234.8</ele>
        <time>2021-03-27T12:51:55Z</time>
      </trkpt>
      <trkpt lat="44.19752" lon="1.74368">
        <ele>233.2</ele>
        <time>2021-03-27T12:51:57Z</time>
      </trkpt>
      <trkpt lat="44.19745" lon="1.74367">
        <ele>231.9</ele>
        <time>2021-03-27T12:51:59Z</time>
      </trkpt>
      <trkpt lat="44.1974" lon="1.74365">
        <ele>231.4</ele>
        <time>2021-03-27T12:52:01Z</time>
      </trkpt>
      <trkpt lat="44.19734" lon="1.74361">
        <ele>230.3</ele>
        <time>2021-03-27T12:52:03Z</time>
      </trkpt>
      <trkpt lat="44.1973" lon="1.74358">
        <ele>230.2</ele>
        <time>2021-03-27T12:52:05Z</time>
      </trkpt>
      <trkpt lat="44.19724" lon="1.74358">
        <ele>228.9</ele>
        <time>2021-03-27T12:52:07Z</time>
      </trkpt>
      <trkpt lat="44.19717" lon="1.74357">
        <ele>227.5</ele>
        <time>2021-03-27T12:52:09Z</time>
      </trkpt>
      <trkpt lat="44.19709" lon="1.74354">
        <ele>226</ele>
        <time>2021-03-27T12:52:11Z</time>
      </trkpt>
      <trkpt lat="44.19701" lon="1.7435">
        <ele>225</ele>
        <time>2021-03-27T12:52:13Z</time>
      </trkpt>
      <trkpt lat="44.19696" lon="1.74349">
        <ele>223.4</ele>
        <time>2021-03-27T12:52:14Z</time>
      </trkpt>
      <trkpt lat="44.19689" lon="1.74348">
        <ele>222.1</ele>
        <time>2021-03-27T12:52:16Z</time>
      </trkpt>
      <trkpt lat="44.19682" lon="1.74346">
        <ele>220.6</ele>
        <time>2021-03-27T12:52:18Z</time>
      </trkpt>
      <trkpt lat="44.19677" lon="1.74345">
        <ele>219.2</ele>
        <time>2021-03-27T12:52:20Z</time>
      </trkpt>
      <trkpt lat="44.19671" lon="1.74344">
        <ele>217.8</ele>
        <time>2021-03-27T12:52:22Z</time>
      </trkpt>
      <trkpt lat="44.19665" lon="1.74343">
        <ele>216.7</ele>
        <time>2021-03-27T12:52:24Z</time>
      </trkpt>
      <trkpt lat="44.19658" lon="1.74341">
        <ele>215.3</ele>
        <time>2021-03-27T12:52:26Z</time>
      </trkpt>
      <trkpt lat="44.1965" lon="1.74339">
        <ele>213.4</ele>
        <time>2021-03-27T12:52:28Z</time>
      </trkpt>
      <trkpt lat="44.19643" lon="1.74337">
        <ele>212.4</ele>
        <time>2021-03-27T12:52:30Z</time>
      </trkpt>
      <trkpt lat="44.19638" lon="1.74333">
        <ele>211.2</ele>
        <time>2021-03-27T12:52:32Z</time>
      </trkpt>
      <trkpt lat="44.19634" lon="1.7433">
        <ele>210.6</ele>
        <time>2021-03-27T12:52:34Z</time>
      </trkpt>
      <trkpt lat="44.1963" lon="1.74326">
        <ele>209.6</ele>
        <time>2021-03-27T12:52:36Z</time>
      </trkpt>
      <trkpt lat="44.19625" lon="1.74323">
        <ele>209</ele>
        <time>2021-03-27T12:52:38Z</time>
      </trkpt>
      <trkpt lat="44.19621" lon="1.74323">
        <ele>208.4</ele>
        <time>2021-03-27T12:52:41Z</time>
      </trkpt>
      <trkpt lat="44.19619" lon="1.7432">
        <ele>208</ele>
        <time>2021-03-27T12:52:58Z</time>
      </trkpt>
      <trkpt lat="44.19618" lon="1.74312">
        <ele>208.3</ele>
        <time>2021-03-27T12:53:01Z</time>
      </trkpt>
      <trkpt lat="44.19614" lon="1.74302">
        <ele>207.4</ele>
        <time>2021-03-27T12:53:04Z</time>
      </trkpt>
      <trkpt lat="44.19612" lon="1.74293">
        <ele>206.5</ele>
        <time>2021-03-27T12:53:06Z</time>
      </trkpt>
      <trkpt lat="44.1961" lon="1.74286">
        <ele>205.8</ele>
        <time>2021-03-27T12:53:08Z</time>
      </trkpt>
      <trkpt lat="44.19608" lon="1.74276">
        <ele>205</ele>
        <time>2021-03-27T12:53:10Z</time>
      </trkpt>
      <trkpt lat="44.19605" lon="1.7427">
        <ele>204.3</ele>
        <time>2021-03-27T12:53:12Z</time>
      </trkpt>
      <trkpt lat="44.19604" lon="1.74263">
        <ele>203.7</ele>
        <time>2021-03-27T12:53:14Z</time>
      </trkpt>
      <trkpt lat="44.19602" lon="1.74254">
        <ele>202.8</ele>
        <time>2021-03-27T12:53:17Z</time>
      </trkpt>
      <trkpt lat="44.19601" lon="1.74246">
        <ele>202.1</ele>
        <time>2021-03-27T12:53:19Z</time>
      </trkpt>
      <trkpt lat="44.19599" lon="1.74239">
        <ele>201.4</ele>
        <time>2021-03-27T12:53:21Z</time>
      </trkpt>
      <trkpt lat="44.19596" lon="1.74232">
        <ele>200.7</ele>
        <time>2021-03-27T12:53:24Z</time>
      </trkpt>
      <trkpt lat="44.19596" lon="1.74233">
        <ele>200.7</ele>
        <time>2021-03-27T12:53:25Z</time>
      </trkpt>
      <trkpt lat="44.19595" lon="1.74229">
        <ele>200.4</ele>
        <time>2021-03-27T12:53:29Z</time>
      </trkpt>
      <trkpt lat="44.19595" lon="1.74227">
        <ele>200.2</ele>
        <time>2021-03-27T12:53:30Z</time>
      </trkpt>
      <trkpt lat="44.19593" lon="1.74224">
        <ele>199.9</ele>
        <time>2021-03-27T12:53:34Z</time>
      </trkpt>
      <trkpt lat="44.19589" lon="1.74226">
        <ele>199.3</ele>
        <time>2021-03-27T12:53:36Z</time>
      </trkpt>
      <trkpt lat="44.19584" lon="1.74228">
        <ele>198.7</ele>
        <time>2021-03-27T12:53:39Z</time>
      </trkpt>
      <trkpt lat="44.19578" lon="1.74226">
        <ele>197.9</ele>
        <time>2021-03-27T12:53:42Z</time>
      </trkpt>
      <trkpt lat="44.19575" lon="1.74223">
        <ele>197.5</ele>
        <time>2021-03-27T12:53:45Z</time>
      </trkpt>
      <trkpt lat="44.19573" lon="1.74222">
        <ele>197.2</ele>
        <time>2021-03-27T12:53:47Z</time>
      </trkpt>
      <trkpt lat="44.19573" lon="1.74222">
        <ele>197.1</ele>
        <time>2021-03-27T12:53:48Z</time>
      </trkpt>
      <trkpt lat="44.19568" lon="1.74222">
        <ele>196.5</ele>
        <time>2021-03-27T12:53:57Z</time>
      </trkpt>
      <trkpt lat="44.19569" lon="1.74218">
        <ele>196.1</ele>
        <time>2021-03-27T12:54:44Z</time>
      </trkpt>
      <trkpt lat="44.1957" lon="1.74209">
        <ele>195.4</ele>
        <time>2021-03-27T12:54:47Z</time>
      </trkpt>
      <trkpt lat="44.19568" lon="1.742">
        <ele>194.5</ele>
        <time>2021-03-27T12:54:49Z</time>
      </trkpt>
      <trkpt lat="44.19568" lon="1.74193">
        <ele>193.9</ele>
        <time>2021-03-27T12:54:51Z</time>
      </trkpt>
      <trkpt lat="44.1957" lon="1.74185">
        <ele>193.2</ele>
        <time>2021-03-27T12:54:53Z</time>
      </trkpt>
      <trkpt lat="44.1957" lon="1.74176">
        <ele>192.6</ele>
        <time>2021-03-27T12:54:55Z</time>
      </trkpt>
      <trkpt lat="44.19569" lon="1.74165">
        <ele>191.8</ele>
        <time>2021-03-27T12:54:57Z</time>
      </trkpt>
      <trkpt lat="44.19567" lon="1.74155">
        <ele>191.2</ele>
        <time>2021-03-27T12:54:59Z</time>
      </trkpt>
      <trkpt lat="44.19566" lon="1.74152">
        <ele>191</ele>
        <time>2021-03-27T12:55:01Z</time>
      </trkpt>
      <trkpt lat="44.19566" lon="1.74148">
        <ele>190.7</ele>
        <time>2021-03-27T12:55:09Z</time>
      </trkpt>
      <trkpt lat="44.19566" lon="1.74146">
        <ele>190.7</ele>
        <time>2021-03-27T12:55:10Z</time>
      </trkpt>
      <trkpt lat="44.19567" lon="1.74143">
        <ele>189.3</ele>
        <time>2021-03-27T12:55:12Z</time>
      </trkpt>
      <trkpt lat="44.19569" lon="1.74136">
        <ele>189.2</ele>
        <time>2021-03-27T12:55:15Z</time>
      </trkpt>
      <trkpt lat="44.1957" lon="1.7413">
        <ele>189.3</ele>
        <time>2021-03-27T12:55:18Z</time>
      </trkpt>
      <trkpt lat="44.19573" lon="1.74122">
        <ele>189.3</ele>
        <time>2021-03-27T12:55:21Z</time>
      </trkpt>
      <trkpt lat="44.19574" lon="1.74114">
        <ele>189.3</ele>
        <time>2021-03-27T12:55:24Z</time>
      </trkpt>
      <trkpt lat="44.19576" lon="1.74108">
        <ele>189.3</ele>
        <time>2021-03-27T12:55:27Z</time>
      </trkpt>
      <trkpt lat="44.19575" lon="1.74101">
        <ele>189.4</ele>
        <time>2021-03-27T12:55:31Z</time>
      </trkpt>
      <trkpt lat="44.19575" lon="1.74093">
        <ele>189.4</ele>
        <time>2021-03-27T12:55:33Z</time>
      </trkpt>
      <trkpt lat="44.19576" lon="1.74086">
        <ele>189.5</ele>
        <time>2021-03-27T12:55:35Z</time>
      </trkpt>
      <trkpt lat="44.1958" lon="1.7408">
        <ele>189.6</ele>
        <time>2021-03-27T12:55:38Z</time>
      </trkpt>
      <trkpt lat="44.19583" lon="1.74071">
        <ele>189.8</ele>
        <time>2021-03-27T12:55:41Z</time>
      </trkpt>
      <trkpt lat="44.19586" lon="1.74065">
        <ele>189.9</ele>
        <time>2021-03-27T12:55:43Z</time>
      </trkpt>
      <trkpt lat="44.1959" lon="1.7406">
        <ele>190.1</ele>
        <time>2021-03-27T12:55:45Z</time>
      </trkpt>
      <trkpt lat="44.19592" lon="1.74054">
        <ele>190.2</ele>
        <time>2021-03-27T12:55:48Z</time>
      </trkpt>
      <trkpt lat="44.19595" lon="1.74044">
        <ele>190.5</ele>
        <time>2021-03-27T12:55:51Z</time>
      </trkpt>
      <trkpt lat="44.19598" lon="1.74037">
        <ele>190.8</ele>
        <time>2021-03-27T12:55:53Z</time>
      </trkpt>
      <trkpt lat="44.19601" lon="1.74032">
        <ele>191.1</ele>
        <time>2021-03-27T12:55:55Z</time>
      </trkpt>
      <trkpt lat="44.19604" lon="1.74026">
        <ele>191.3</ele>
        <time>2021-03-27T12:55:57Z</time>
      </trkpt>
      <trkpt lat="44.19607" lon="1.74019">
        <ele>191.6</ele>
        <time>2021-03-27T12:55:59Z</time>
      </trkpt>
      <trkpt lat="44.1961" lon="1.7401">
        <ele>191.8</ele>
        <time>2021-03-27T12:56:01Z</time>
      </trkpt>
      <trkpt lat="44.19613" lon="1.74001">
        <ele>192.2</ele>
        <time>2021-03-27T12:56:03Z</time>
      </trkpt>
      <trkpt lat="44.19616" lon="1.73994">
        <ele>192.4</ele>
        <time>2021-03-27T12:56:05Z</time>
      </trkpt>
      <trkpt lat="44.19619" lon="1.73986">
        <ele>192.6</ele>
        <time>2021-03-27T12:56:07Z</time>
      </trkpt>
      <trkpt lat="44.19623" lon="1.73977">
        <ele>192.8</ele>
        <time>2021-03-27T12:56:09Z</time>
      </trkpt>
      <trkpt lat="44.19627" lon="1.73966">
        <ele>193.1</ele>
        <time>2021-03-27T12:56:11Z</time>
      </trkpt>
      <trkpt lat="44.19631" lon="1.73956">
        <ele>193.4</ele>
        <time>2021-03-27T12:56:13Z</time>
      </trkpt>
      <trkpt lat="44.19634" lon="1.73946">
        <ele>193.7</ele>
        <time>2021-03-27T12:56:15Z</time>
      </trkpt>
      <trkpt lat="44.19637" lon="1.73939">
        <ele>194</ele>
        <time>2021-03-27T12:56:17Z</time>
      </trkpt>
      <trkpt lat="44.19641" lon="1.73932">
        <ele>194.2</ele>
        <time>2021-03-27T12:56:19Z</time>
      </trkpt>
      <trkpt lat="44.19643" lon="1.73924">
        <ele>194.5</ele>
        <time>2021-03-27T12:56:21Z</time>
      </trkpt>
      <trkpt lat="44.19644" lon="1.73918">
        <ele>194.8</ele>
        <time>2021-03-27T12:56:23Z</time>
      </trkpt>
      <trkpt lat="44.19647" lon="1.73911">
        <ele>195.2</ele>
        <time>2021-03-27T12:56:25Z</time>
      </trkpt>
      <trkpt lat="44.1965" lon="1.73904">
        <ele>195.6</ele>
        <time>2021-03-27T12:56:27Z</time>
      </trkpt>
      <trkpt lat="44.19652" lon="1.73897">
        <ele>196</ele>
        <time>2021-03-27T12:56:29Z</time>
      </trkpt>
      <trkpt lat="44.19654" lon="1.73891">
        <ele>196.3</ele>
        <time>2021-03-27T12:56:31Z</time>
      </trkpt>
      <trkpt lat="44.19657" lon="1.73885">
        <ele>196.7</ele>
        <time>2021-03-27T12:56:33Z</time>
      </trkpt>
      <trkpt lat="44.19659" lon="1.73878">
        <ele>197.1</ele>
        <time>2021-03-27T12:56:35Z</time>
      </trkpt>
      <trkpt lat="44.19659" lon="1.7387">
        <ele>197.5</ele>
        <time>2021-03-27T12:56:37Z</time>
      </trkpt>
      <trkpt lat="44.1966" lon="1.73862">
        <ele>197.9</ele>
        <time>2021-03-27T12:56:39Z</time>
      </trkpt>
      <trkpt lat="44.19661" lon="1.73854">
        <ele>198.3</ele>
        <time>2021-03-27T12:56:41Z</time>
      </trkpt>
      <trkpt lat="44.19662" lon="1.73846">
        <ele>198.7</ele>
        <time>2021-03-27T12:56:43Z</time>
      </trkpt>
      <trkpt lat="44.19664" lon="1.73838">
        <ele>199.1</ele>
        <time>2021-03-27T12:56:45Z</time>
      </trkpt>
      <trkpt lat="44.19667" lon="1.73831">
        <ele>199.4</ele>
        <time>2021-03-27T12:56:47Z</time>
      </trkpt>
      <trkpt lat="44.19667" lon="1.73824">
        <ele>199.7</ele>
        <time>2021-03-27T12:56:49Z</time>
      </trkpt>
      <trkpt lat="44.19666" lon="1.73817">
        <ele>199.9</ele>
        <time>2021-03-27T12:56:51Z</time>
      </trkpt>
      <trkpt lat="44.19665" lon="1.73811">
        <ele>200.1</ele>
        <time>2021-03-27T12:56:53Z</time>
      </trkpt>
      <trkpt lat="44.19667" lon="1.73804">
        <ele>200.4</ele>
        <time>2021-03-27T12:56:55Z</time>
      </trkpt>
      <trkpt lat="44.19668" lon="1.73797">
        <ele>200.6</ele>
        <time>2021-03-27T12:56:57Z</time>
      </trkpt>
      <trkpt lat="44.19669" lon="1.7379">
        <ele>200.9</ele>
        <time>2021-03-27T12:56:59Z</time>
      </trkpt>
      <trkpt lat="44.1967" lon="1.73783">
        <ele>201.1</ele>
        <time>2021-03-27T12:57:01Z</time>
      </trkpt>
      <trkpt lat="44.19672" lon="1.73775">
        <ele>201.4</ele>
        <time>2021-03-27T12:57:03Z</time>
      </trkpt>
      <trkpt lat="44.19671" lon="1.73765">
        <ele>201.8</ele>
        <time>2021-03-27T12:57:05Z</time>
      </trkpt>
      <trkpt lat="44.1967" lon="1.73758">
        <ele>202.1</ele>
        <time>2021-03-27T12:57:07Z</time>
      </trkpt>
      <trkpt lat="44.19671" lon="1.73749">
        <ele>202.4</ele>
        <time>2021-03-27T12:57:10Z</time>
      </trkpt>
      <trkpt lat="44.19672" lon="1.73741">
        <ele>202.7</ele>
        <time>2021-03-27T12:57:13Z</time>
      </trkpt>
      <trkpt lat="44.19673" lon="1.73732">
        <ele>203</ele>
        <time>2021-03-27T12:57:15Z</time>
      </trkpt>
      <trkpt lat="44.19673" lon="1.73723">
        <ele>203.3</ele>
        <time>2021-03-27T12:57:17Z</time>
      </trkpt>
      <trkpt lat="44.19673" lon="1.73716">
        <ele>203.5</ele>
        <time>2021-03-27T12:57:19Z</time>
      </trkpt>
      <trkpt lat="44.19674" lon="1.73709">
        <ele>203.7</ele>
        <time>2021-03-27T12:57:21Z</time>
      </trkpt>
      <trkpt lat="44.19675" lon="1.73702">
        <ele>204</ele>
        <time>2021-03-27T12:57:23Z</time>
      </trkpt>
      <trkpt lat="44.19675" lon="1.73696">
        <ele>204.3</ele>
        <time>2021-03-27T12:57:25Z</time>
      </trkpt>
      <trkpt lat="44.19676" lon="1.73688">
        <ele>204.7</ele>
        <time>2021-03-27T12:57:27Z</time>
      </trkpt>
      <trkpt lat="44.19677" lon="1.73679">
        <ele>205.2</ele>
        <time>2021-03-27T12:57:29Z</time>
      </trkpt>
      <trkpt lat="44.19678" lon="1.73671">
        <ele>205.6</ele>
        <time>2021-03-27T12:57:31Z</time>
      </trkpt>
      <trkpt lat="44.19678" lon="1.73663">
        <ele>206.1</ele>
        <time>2021-03-27T12:57:33Z</time>
      </trkpt>
      <trkpt lat="44.19677" lon="1.73654">
        <ele>206.6</ele>
        <time>2021-03-27T12:57:35Z</time>
      </trkpt>
      <trkpt lat="44.19679" lon="1.73648">
        <ele>207</ele>
        <time>2021-03-27T12:57:37Z</time>
      </trkpt>
      <trkpt lat="44.19681" lon="1.73637">
        <ele>207.5</ele>
        <time>2021-03-27T12:57:40Z</time>
      </trkpt>
      <trkpt lat="44.19682" lon="1.7363">
        <ele>207.8</ele>
        <time>2021-03-27T12:57:42Z</time>
      </trkpt>
      <trkpt lat="44.19684" lon="1.73621">
        <ele>208.2</ele>
        <time>2021-03-27T12:57:45Z</time>
      </trkpt>
      <trkpt lat="44.19683" lon="1.73612">
        <ele>208.5</ele>
        <time>2021-03-27T12:57:47Z</time>
      </trkpt>
      <trkpt lat="44.19685" lon="1.73605">
        <ele>208.8</ele>
        <time>2021-03-27T12:57:49Z</time>
      </trkpt>
      <trkpt lat="44.19685" lon="1.73597">
        <ele>209</ele>
        <time>2021-03-27T12:57:51Z</time>
      </trkpt>
      <trkpt lat="44.19681" lon="1.73589">
        <ele>209.3</ele>
        <time>2021-03-27T12:57:53Z</time>
      </trkpt>
      <trkpt lat="44.19677" lon="1.73581">
        <ele>209.5</ele>
        <time>2021-03-27T12:57:55Z</time>
      </trkpt>
      <trkpt lat="44.19678" lon="1.73574">
        <ele>209.7</ele>
        <time>2021-03-27T12:57:57Z</time>
      </trkpt>
      <trkpt lat="44.19679" lon="1.73568">
        <ele>209.9</ele>
        <time>2021-03-27T12:57:59Z</time>
      </trkpt>
      <trkpt lat="44.1968" lon="1.7356">
        <ele>210.2</ele>
        <time>2021-03-27T12:58:01Z</time>
      </trkpt>
      <trkpt lat="44.19681" lon="1.73554">
        <ele>210.4</ele>
        <time>2021-03-27T12:58:03Z</time>
      </trkpt>
      <trkpt lat="44.1968" lon="1.73547">
        <ele>210.6</ele>
        <time>2021-03-27T12:58:05Z</time>
      </trkpt>
      <trkpt lat="44.19678" lon="1.7354">
        <ele>210.8</ele>
        <time>2021-03-27T12:58:07Z</time>
      </trkpt>
      <trkpt lat="44.19674" lon="1.73532">
        <ele>211.1</ele>
        <time>2021-03-27T12:58:09Z</time>
      </trkpt>
      <trkpt lat="44.1967" lon="1.73527">
        <ele>211.4</ele>
        <time>2021-03-27T12:58:11Z</time>
      </trkpt>
      <trkpt lat="44.19666" lon="1.73521">
        <ele>211.7</ele>
        <time>2021-03-27T12:58:13Z</time>
      </trkpt>
      <trkpt lat="44.19664" lon="1.73515">
        <ele>211.9</ele>
        <time>2021-03-27T12:58:15Z</time>
      </trkpt>
      <trkpt lat="44.19661" lon="1.73505">
        <ele>212.2</ele>
        <time>2021-03-27T12:58:18Z</time>
      </trkpt>
      <trkpt lat="44.19659" lon="1.735">
        <ele>212.4</ele>
        <time>2021-03-27T12:58:20Z</time>
      </trkpt>
      <trkpt lat="44.19657" lon="1.73492">
        <ele>212.7</ele>
        <time>2021-03-27T12:58:23Z</time>
      </trkpt>
      <trkpt lat="44.19655" lon="1.73484">
        <ele>213</ele>
        <time>2021-03-27T12:58:26Z</time>
      </trkpt>
      <trkpt lat="44.19653" lon="1.73476">
        <ele>213.2</ele>
        <time>2021-03-27T12:58:29Z</time>
      </trkpt>
      <trkpt lat="44.19654" lon="1.73469">
        <ele>213.4</ele>
        <time>2021-03-27T12:58:32Z</time>
      </trkpt>
      <trkpt lat="44.19656" lon="1.73463">
        <ele>213.7</ele>
        <time>2021-03-27T12:58:34Z</time>
      </trkpt>
      <trkpt lat="44.19657" lon="1.73455">
        <ele>213.9</ele>
        <time>2021-03-27T12:58:36Z</time>
      </trkpt>
      <trkpt lat="44.19656" lon="1.73445">
        <ele>214.3</ele>
        <time>2021-03-27T12:58:38Z</time>
      </trkpt>
      <trkpt lat="44.19655" lon="1.73437">
        <ele>214.7</ele>
        <time>2021-03-27T12:58:40Z</time>
      </trkpt>
      <trkpt lat="44.19653" lon="1.7343">
        <ele>215</ele>
        <time>2021-03-27T12:58:42Z</time>
      </trkpt>
      <trkpt lat="44.19651" lon="1.73422">
        <ele>215.5</ele>
        <time>2021-03-27T12:58:45Z</time>
      </trkpt>
      <trkpt lat="44.19649" lon="1.73413">
        <ele>216</ele>
        <time>2021-03-27T12:58:48Z</time>
      </trkpt>
      <trkpt lat="44.19646" lon="1.73405">
        <ele>216.5</ele>
        <time>2021-03-27T12:58:50Z</time>
      </trkpt>
      <trkpt lat="44.19643" lon="1.73396">
        <ele>217.1</ele>
        <time>2021-03-27T12:58:52Z</time>
      </trkpt>
      <trkpt lat="44.1964" lon="1.73388">
        <ele>217.5</ele>
        <time>2021-03-27T12:58:54Z</time>
      </trkpt>
      <trkpt lat="44.19639" lon="1.73378">
        <ele>218</ele>
        <time>2021-03-27T12:58:57Z</time>
      </trkpt>
      <trkpt lat="44.19636" lon="1.73371">
        <ele>218.4</ele>
        <time>2021-03-27T12:58:59Z</time>
      </trkpt>
      <trkpt lat="44.19633" lon="1.73362">
        <ele>219</ele>
        <time>2021-03-27T12:59:01Z</time>
      </trkpt>
      <trkpt lat="44.19631" lon="1.73354">
        <ele>219.4</ele>
        <time>2021-03-27T12:59:03Z</time>
      </trkpt>
      <trkpt lat="44.19627" lon="1.73345">
        <ele>219.7</ele>
        <time>2021-03-27T12:59:05Z</time>
      </trkpt>
      <trkpt lat="44.19623" lon="1.73339">
        <ele>220</ele>
        <time>2021-03-27T12:59:07Z</time>
      </trkpt>
      <trkpt lat="44.19618" lon="1.73333">
        <ele>220.2</ele>
        <time>2021-03-27T12:59:09Z</time>
      </trkpt>
      <trkpt lat="44.19615" lon="1.73328">
        <ele>220.3</ele>
        <time>2021-03-27T12:59:11Z</time>
      </trkpt>
      <trkpt lat="44.19611" lon="1.73323">
        <ele>220.4</ele>
        <time>2021-03-27T12:59:13Z</time>
      </trkpt>
      <trkpt lat="44.19607" lon="1.73317">
        <ele>220.6</ele>
        <time>2021-03-27T12:59:15Z</time>
      </trkpt>
      <trkpt lat="44.19603" lon="1.73312">
        <ele>220.7</ele>
        <time>2021-03-27T12:59:17Z</time>
      </trkpt>
      <trkpt lat="44.19601" lon="1.73307">
        <ele>220.9</ele>
        <time>2021-03-27T12:59:19Z</time>
      </trkpt>
      <trkpt lat="44.19598" lon="1.733">
        <ele>221.1</ele>
        <time>2021-03-27T12:59:21Z</time>
      </trkpt>
      <trkpt lat="44.19595" lon="1.73292">
        <ele>221.3</ele>
        <time>2021-03-27T12:59:24Z</time>
      </trkpt>
      <trkpt lat="44.19592" lon="1.73287">
        <ele>221.5</ele>
        <time>2021-03-27T12:59:26Z</time>
      </trkpt>
      <trkpt lat="44.19588" lon="1.7328">
        <ele>221.7</ele>
        <time>2021-03-27T12:59:29Z</time>
      </trkpt>
      <trkpt lat="44.19587" lon="1.73272">
        <ele>221.9</ele>
        <time>2021-03-27T12:59:32Z</time>
      </trkpt>
      <trkpt lat="44.19585" lon="1.73266">
        <ele>222.1</ele>
        <time>2021-03-27T12:59:34Z</time>
      </trkpt>
      <trkpt lat="44.19583" lon="1.73257">
        <ele>222.4</ele>
        <time>2021-03-27T12:59:37Z</time>
      </trkpt>
      <trkpt lat="44.19582" lon="1.7325">
        <ele>222.6</ele>
        <time>2021-03-27T12:59:40Z</time>
      </trkpt>
      <trkpt lat="44.1958" lon="1.73243">
        <ele>222.9</ele>
        <time>2021-03-27T12:59:42Z</time>
      </trkpt>
      <trkpt lat="44.19578" lon="1.73234">
        <ele>223.3</ele>
        <time>2021-03-27T12:59:45Z</time>
      </trkpt>
      <trkpt lat="44.19577" lon="1.73227">
        <ele>220.5</ele>
        <time>2021-03-27T12:59:47Z</time>
      </trkpt>
      <trkpt lat="44.19578" lon="1.73224">
        <ele>217</ele>
        <time>2021-03-27T12:59:49Z</time>
      </trkpt>
      <trkpt lat="44.19581" lon="1.7322">
        <ele>213.7</ele>
        <time>2021-03-27T12:59:57Z</time>
      </trkpt>
      <trkpt lat="44.19583" lon="1.73215">
        <ele>210.5</ele>
        <time>2021-03-27T13:00:00Z</time>
      </trkpt>
      <trkpt lat="44.19586" lon="1.73209">
        <ele>207.4</ele>
        <time>2021-03-27T13:00:03Z</time>
      </trkpt>
      <trkpt lat="44.19589" lon="1.73201">
        <ele>207.5</ele>
        <time>2021-03-27T13:00:06Z</time>
      </trkpt>
      <trkpt lat="44.1959" lon="1.73194">
        <ele>207.5</ele>
        <time>2021-03-27T13:00:08Z</time>
      </trkpt>
      <trkpt lat="44.19589" lon="1.73186">
        <ele>207.6</ele>
        <time>2021-03-27T13:00:10Z</time>
      </trkpt>
      <trkpt lat="44.19589" lon="1.73179">
        <ele>207.6</ele>
        <time>2021-03-27T13:00:12Z</time>
      </trkpt>
      <trkpt lat="44.1959" lon="1.73172">
        <ele>207.7</ele>
        <time>2021-03-27T13:00:14Z</time>
      </trkpt>
      <trkpt lat="44.1959" lon="1.73163">
        <ele>207.8</ele>
        <time>2021-03-27T13:00:16Z</time>
      </trkpt>
      <trkpt lat="44.1959" lon="1.73155">
        <ele>207.9</ele>
        <time>2021-03-27T13:00:18Z</time>
      </trkpt>
      <trkpt lat="44.19591" lon="1.73147">
        <ele>207.9</ele>
        <time>2021-03-27T13:00:20Z</time>
      </trkpt>
      <trkpt lat="44.19594" lon="1.73141">
        <ele>207.9</ele>
        <time>2021-03-27T13:00:22Z</time>
      </trkpt>
      <trkpt lat="44.19596" lon="1.73132">
        <ele>207.9</ele>
        <time>2021-03-27T13:00:24Z</time>
      </trkpt>
      <trkpt lat="44.19597" lon="1.73123">
        <ele>207.9</ele>
        <time>2021-03-27T13:00:26Z</time>
      </trkpt>
      <trkpt lat="44.19598" lon="1.73116">
        <ele>207.9</ele>
        <time>2021-03-27T13:00:28Z</time>
      </trkpt>
      <trkpt lat="44.196" lon="1.73107">
        <ele>208</ele>
        <time>2021-03-27T13:00:31Z</time>
      </trkpt>
      <trkpt lat="44.19603" lon="1.731">
        <ele>208.1</ele>
        <time>2021-03-27T13:00:33Z</time>
      </trkpt>
      <trkpt lat="44.19607" lon="1.73092">
        <ele>208.3</ele>
        <time>2021-03-27T13:00:35Z</time>
      </trkpt>
      <trkpt lat="44.19611" lon="1.73083">
        <ele>208.6</ele>
        <time>2021-03-27T13:00:37Z</time>
      </trkpt>
      <trkpt lat="44.19614" lon="1.73074">
        <ele>208.9</ele>
        <time>2021-03-27T13:00:39Z</time>
      </trkpt>
      <trkpt lat="44.19617" lon="1.73067">
        <ele>209.3</ele>
        <time>2021-03-27T13:00:41Z</time>
      </trkpt>
      <trkpt lat="44.1962" lon="1.73059">
        <ele>209.8</ele>
        <time>2021-03-27T13:00:44Z</time>
      </trkpt>
      <trkpt lat="44.19622" lon="1.73053">
        <ele>210.2</ele>
        <time>2021-03-27T13:00:46Z</time>
      </trkpt>
      <trkpt lat="44.19625" lon="1.73046">
        <ele>210.7</ele>
        <time>2021-03-27T13:00:49Z</time>
      </trkpt>
      <trkpt lat="44.19627" lon="1.73039">
        <ele>211.2</ele>
        <time>2021-03-27T13:00:51Z</time>
      </trkpt>
      <trkpt lat="44.19629" lon="1.7303">
        <ele>211.7</ele>
        <time>2021-03-27T13:00:54Z</time>
      </trkpt>
      <trkpt lat="44.19631" lon="1.73024">
        <ele>212</ele>
        <time>2021-03-27T13:00:56Z</time>
      </trkpt>
      <trkpt lat="44.19631" lon="1.73018">
        <ele>212.3</ele>
        <time>2021-03-27T13:00:58Z</time>
      </trkpt>
      <trkpt lat="44.19632" lon="1.73009">
        <ele>212.6</ele>
        <time>2021-03-27T13:01:00Z</time>
      </trkpt>
      <trkpt lat="44.19631" lon="1.73">
        <ele>212.8</ele>
        <time>2021-03-27T13:01:02Z</time>
      </trkpt>
      <trkpt lat="44.19631" lon="1.72992">
        <ele>213</ele>
        <time>2021-03-27T13:01:04Z</time>
      </trkpt>
      <trkpt lat="44.1963" lon="1.72983">
        <ele>213.1</ele>
        <time>2021-03-27T13:01:06Z</time>
      </trkpt>
      <trkpt lat="44.1963" lon="1.72974">
        <ele>213.2</ele>
        <time>2021-03-27T13:01:08Z</time>
      </trkpt>
      <trkpt lat="44.19631" lon="1.72964">
        <ele>213.2</ele>
        <time>2021-03-27T13:01:10Z</time>
      </trkpt>
      <trkpt lat="44.1963" lon="1.72956">
        <ele>213.2</ele>
        <time>2021-03-27T13:01:12Z</time>
      </trkpt>
      <trkpt lat="44.19629" lon="1.72949">
        <ele>213.1</ele>
        <time>2021-03-27T13:01:14Z</time>
      </trkpt>
      <trkpt lat="44.19627" lon="1.72938">
        <ele>213.1</ele>
        <time>2021-03-27T13:01:16Z</time>
      </trkpt>
      <trkpt lat="44.19625" lon="1.72928">
        <ele>213</ele>
        <time>2021-03-27T13:01:18Z</time>
      </trkpt>
      <trkpt lat="44.19624" lon="1.72919">
        <ele>213</ele>
        <time>2021-03-27T13:01:20Z</time>
      </trkpt>
      <trkpt lat="44.19622" lon="1.72911">
        <ele>213.1</ele>
        <time>2021-03-27T13:01:22Z</time>
      </trkpt>
      <trkpt lat="44.1962" lon="1.72903">
        <ele>213.3</ele>
        <time>2021-03-27T13:01:24Z</time>
      </trkpt>
      <trkpt lat="44.19619" lon="1.72897">
        <ele>213.5</ele>
        <time>2021-03-27T13:01:26Z</time>
      </trkpt>
      <trkpt lat="44.19618" lon="1.72889">
        <ele>213.6</ele>
        <time>2021-03-27T13:01:28Z</time>
      </trkpt>
      <trkpt lat="44.19615" lon="1.7288">
        <ele>213.9</ele>
        <time>2021-03-27T13:01:30Z</time>
      </trkpt>
      <trkpt lat="44.19613" lon="1.72872">
        <ele>214.1</ele>
        <time>2021-03-27T13:01:32Z</time>
      </trkpt>
      <trkpt lat="44.19612" lon="1.72865">
        <ele>214.2</ele>
        <time>2021-03-27T13:01:34Z</time>
      </trkpt>
      <trkpt lat="44.19611" lon="1.72856">
        <ele>214.2</ele>
        <time>2021-03-27T13:01:36Z</time>
      </trkpt>
      <trkpt lat="44.19608" lon="1.72846">
        <ele>214.3</ele>
        <time>2021-03-27T13:01:38Z</time>
      </trkpt>
      <trkpt lat="44.19606" lon="1.72839">
        <ele>214.3</ele>
        <time>2021-03-27T13:01:40Z</time>
      </trkpt>
      <trkpt lat="44.19608" lon="1.7283">
        <ele>214.3</ele>
        <time>2021-03-27T13:01:42Z</time>
      </trkpt>
      <trkpt lat="44.19608" lon="1.72822">
        <ele>214.3</ele>
        <time>2021-03-27T13:01:44Z</time>
      </trkpt>
      <trkpt lat="44.1961" lon="1.72814">
        <ele>214.3</ele>
        <time>2021-03-27T13:01:46Z</time>
      </trkpt>
      <trkpt lat="44.19612" lon="1.72807">
        <ele>214.3</ele>
        <time>2021-03-27T13:01:48Z</time>
      </trkpt>
      <trkpt lat="44.19613" lon="1.72801">
        <ele>214.3</ele>
        <time>2021-03-27T13:01:50Z</time>
      </trkpt>
      <trkpt lat="44.19614" lon="1.72794">
        <ele>214.3</ele>
        <time>2021-03-27T13:01:52Z</time>
      </trkpt>
      <trkpt lat="44.19614" lon="1.72785">
        <ele>214.3</ele>
        <time>2021-03-27T13:01:54Z</time>
      </trkpt>
      <trkpt lat="44.19612" lon="1.72776">
        <ele>214.3</ele>
        <time>2021-03-27T13:01:56Z</time>
      </trkpt>
      <trkpt lat="44.19612" lon="1.72769">
        <ele>214.3</ele>
        <time>2021-03-27T13:01:58Z</time>
      </trkpt>
      <trkpt lat="44.19611" lon="1.72763">
        <ele>214.3</ele>
        <time>2021-03-27T13:02:00Z</time>
      </trkpt>
      <trkpt lat="44.19609" lon="1.72754">
        <ele>214.3</ele>
        <time>2021-03-27T13:02:02Z</time>
      </trkpt>
      <trkpt lat="44.19606" lon="1.72747">
        <ele>214.4</ele>
        <time>2021-03-27T13:02:03Z</time>
      </trkpt>
      <trkpt lat="44.19604" lon="1.72741">
        <ele>214.4</ele>
        <time>2021-03-27T13:02:04Z</time>
      </trkpt>
      <trkpt lat="44.196" lon="1.72732">
        <ele>214.5</ele>
        <time>2021-03-27T13:02:06Z</time>
      </trkpt>
      <trkpt lat="44.19598" lon="1.72723">
        <ele>214.7</ele>
        <time>2021-03-27T13:02:08Z</time>
      </trkpt>
      <trkpt lat="44.19596" lon="1.72716">
        <ele>214.8</ele>
        <time>2021-03-27T13:02:10Z</time>
      </trkpt>
      <trkpt lat="44.19593" lon="1.72708">
        <ele>214.9</ele>
        <time>2021-03-27T13:02:12Z</time>
      </trkpt>
      <trkpt lat="44.19591" lon="1.72698">
        <ele>215.1</ele>
        <time>2021-03-27T13:02:14Z</time>
      </trkpt>
      <trkpt lat="44.19591" lon="1.72691">
        <ele>215.3</ele>
        <time>2021-03-27T13:02:16Z</time>
      </trkpt>
      <trkpt lat="44.1959" lon="1.72683">
        <ele>215.5</ele>
        <time>2021-03-27T13:02:18Z</time>
      </trkpt>
      <trkpt lat="44.19591" lon="1.72676">
        <ele>215.7</ele>
        <time>2021-03-27T13:02:20Z</time>
      </trkpt>
      <trkpt lat="44.19592" lon="1.7267">
        <ele>215.9</ele>
        <time>2021-03-27T13:02:22Z</time>
      </trkpt>
      <trkpt lat="44.19589" lon="1.72664">
        <ele>216</ele>
        <time>2021-03-27T13:02:25Z</time>
      </trkpt>
      <trkpt lat="44.19585" lon="1.72659">
        <ele>216.2</ele>
        <time>2021-03-27T13:02:27Z</time>
      </trkpt>
      <trkpt lat="44.19582" lon="1.72656">
        <ele>216.3</ele>
        <time>2021-03-27T13:02:30Z</time>
      </trkpt>
      <trkpt lat="44.1958" lon="1.72654">
        <ele>216.4</ele>
        <time>2021-03-27T13:02:42Z</time>
      </trkpt>
      <trkpt lat="44.19575" lon="1.7265">
        <ele>216.6</ele>
        <time>2021-03-27T13:02:45Z</time>
      </trkpt>
      <trkpt lat="44.19571" lon="1.72646">
        <ele>216.7</ele>
        <time>2021-03-27T13:02:48Z</time>
      </trkpt>
      <trkpt lat="44.19567" lon="1.72642">
        <ele>216.8</ele>
        <time>2021-03-27T13:02:50Z</time>
      </trkpt>
      <trkpt lat="44.19563" lon="1.72639">
        <ele>216.9</ele>
        <time>2021-03-27T13:02:52Z</time>
      </trkpt>
      <trkpt lat="44.19559" lon="1.72635">
        <ele>216.9</ele>
        <time>2021-03-27T13:02:54Z</time>
      </trkpt>
      <trkpt lat="44.19555" lon="1.7263">
        <ele>216.9</ele>
        <time>2021-03-27T13:02:56Z</time>
      </trkpt>
      <trkpt lat="44.1955" lon="1.72627">
        <ele>216.9</ele>
        <time>2021-03-27T13:02:58Z</time>
      </trkpt>
      <trkpt lat="44.19544" lon="1.7262">
        <ele>216.9</ele>
        <time>2021-03-27T13:03:00Z</time>
      </trkpt>
      <trkpt lat="44.19537" lon="1.72616">
        <ele>216.8</ele>
        <time>2021-03-27T13:03:02Z</time>
      </trkpt>
      <trkpt lat="44.19532" lon="1.7261">
        <ele>216.7</ele>
        <time>2021-03-27T13:03:04Z</time>
      </trkpt>
      <trkpt lat="44.19526" lon="1.72605">
        <ele>216.6</ele>
        <time>2021-03-27T13:03:06Z</time>
      </trkpt>
      <trkpt lat="44.1952" lon="1.726">
        <ele>216.6</ele>
        <time>2021-03-27T13:03:08Z</time>
      </trkpt>
      <trkpt lat="44.19514" lon="1.72594">
        <ele>216.6</ele>
        <time>2021-03-27T13:03:10Z</time>
      </trkpt>
      <trkpt lat="44.19508" lon="1.72591">
        <ele>216.7</ele>
        <time>2021-03-27T13:03:12Z</time>
      </trkpt>
      <trkpt lat="44.19501" lon="1.72586">
        <ele>216.8</ele>
        <time>2021-03-27T13:03:14Z</time>
      </trkpt>
      <trkpt lat="44.19496" lon="1.72582">
        <ele>216.9</ele>
        <time>2021-03-27T13:03:16Z</time>
      </trkpt>
      <trkpt lat="44.19491" lon="1.72578">
        <ele>217.1</ele>
        <time>2021-03-27T13:03:18Z</time>
      </trkpt>
      <trkpt lat="44.19485" lon="1.72574">
        <ele>217.3</ele>
        <time>2021-03-27T13:03:20Z</time>
      </trkpt>
      <trkpt lat="44.19481" lon="1.7257">
        <ele>217.6</ele>
        <time>2021-03-27T13:03:22Z</time>
      </trkpt>
      <trkpt lat="44.19477" lon="1.72565">
        <ele>217.8</ele>
        <time>2021-03-27T13:03:24Z</time>
      </trkpt>
      <trkpt lat="44.19472" lon="1.72562">
        <ele>218.1</ele>
        <time>2021-03-27T13:03:26Z</time>
      </trkpt>
      <trkpt lat="44.19468" lon="1.72558">
        <ele>218.4</ele>
        <time>2021-03-27T13:03:28Z</time>
      </trkpt>
      <trkpt lat="44.19463" lon="1.72555">
        <ele>218.8</ele>
        <time>2021-03-27T13:03:30Z</time>
      </trkpt>
      <trkpt lat="44.19459" lon="1.72553">
        <ele>219.1</ele>
        <time>2021-03-27T13:03:32Z</time>
      </trkpt>
      <trkpt lat="44.19453" lon="1.72549">
        <ele>219.6</ele>
        <time>2021-03-27T13:03:35Z</time>
      </trkpt>
      <trkpt lat="44.19448" lon="1.72544">
        <ele>220.1</ele>
        <time>2021-03-27T13:03:38Z</time>
      </trkpt>
      <trkpt lat="44.19444" lon="1.7254">
        <ele>220.4</ele>
        <time>2021-03-27T13:03:40Z</time>
      </trkpt>
      <trkpt lat="44.19439" lon="1.72536">
        <ele>220.8</ele>
        <time>2021-03-27T13:03:42Z</time>
      </trkpt>
      <trkpt lat="44.19435" lon="1.72531">
        <ele>221.1</ele>
        <time>2021-03-27T13:03:44Z</time>
      </trkpt>
      <trkpt lat="44.19433" lon="1.72525">
        <ele>221.4</ele>
        <time>2021-03-27T13:03:46Z</time>
      </trkpt>
      <trkpt lat="44.19431" lon="1.72517">
        <ele>221.7</ele>
        <time>2021-03-27T13:03:49Z</time>
      </trkpt>
      <trkpt lat="44.19429" lon="1.7251">
        <ele>222</ele>
        <time>2021-03-27T13:03:52Z</time>
      </trkpt>
      <trkpt lat="44.19425" lon="1.72502">
        <ele>222.3</ele>
        <time>2021-03-27T13:03:55Z</time>
      </trkpt>
      <trkpt lat="44.19422" lon="1.72494">
        <ele>222.5</ele>
        <time>2021-03-27T13:03:58Z</time>
      </trkpt>
      <trkpt lat="44.1942" lon="1.72486">
        <ele>222.6</ele>
        <time>2021-03-27T13:04:00Z</time>
      </trkpt>
      <trkpt lat="44.19417" lon="1.72479">
        <ele>222.5</ele>
        <time>2021-03-27T13:04:02Z</time>
      </trkpt>
      <trkpt lat="44.19415" lon="1.72472">
        <ele>222.4</ele>
        <time>2021-03-27T13:04:04Z</time>
      </trkpt>
      <trkpt lat="44.19414" lon="1.72461">
        <ele>222.2</ele>
        <time>2021-03-27T13:04:06Z</time>
      </trkpt>
      <trkpt lat="44.19413" lon="1.7245">
        <ele>222</ele>
        <time>2021-03-27T13:04:08Z</time>
      </trkpt>
      <trkpt lat="44.19413" lon="1.7244">
        <ele>221.9</ele>
        <time>2021-03-27T13:04:10Z</time>
      </trkpt>
      <trkpt lat="44.19412" lon="1.72429">
        <ele>221.9</ele>
        <time>2021-03-27T13:04:12Z</time>
      </trkpt>
      <trkpt lat="44.19413" lon="1.72421">
        <ele>222</ele>
        <time>2021-03-27T13:04:14Z</time>
      </trkpt>
      <trkpt lat="44.19414" lon="1.72414">
        <ele>222.1</ele>
        <time>2021-03-27T13:04:16Z</time>
      </trkpt>
      <trkpt lat="44.19414" lon="1.72406">
        <ele>222.2</ele>
        <time>2021-03-27T13:04:18Z</time>
      </trkpt>
      <trkpt lat="44.19415" lon="1.72398">
        <ele>222.3</ele>
        <time>2021-03-27T13:04:20Z</time>
      </trkpt>
      <trkpt lat="44.19415" lon="1.72389">
        <ele>222.4</ele>
        <time>2021-03-27T13:04:22Z</time>
      </trkpt>
      <trkpt lat="44.19415" lon="1.72379">
        <ele>222.5</ele>
        <time>2021-03-27T13:04:24Z</time>
      </trkpt>
      <trkpt lat="44.19416" lon="1.72372">
        <ele>222.6</ele>
        <time>2021-03-27T13:04:26Z</time>
      </trkpt>
      <trkpt lat="44.19417" lon="1.72365">
        <ele>222.6</ele>
        <time>2021-03-27T13:04:28Z</time>
      </trkpt>
      <trkpt lat="44.19417" lon="1.72357">
        <ele>222.7</ele>
        <time>2021-03-27T13:04:30Z</time>
      </trkpt>
      <trkpt lat="44.19417" lon="1.72349">
        <ele>222.9</ele>
        <time>2021-03-27T13:04:32Z</time>
      </trkpt>
      <trkpt lat="44.19417" lon="1.72341">
        <ele>223.1</ele>
        <time>2021-03-27T13:04:34Z</time>
      </trkpt>
      <trkpt lat="44.19417" lon="1.72333">
        <ele>223.2</ele>
        <time>2021-03-27T13:04:36Z</time>
      </trkpt>
      <trkpt lat="44.19415" lon="1.72324">
        <ele>223.4</ele>
        <time>2021-03-27T13:04:38Z</time>
      </trkpt>
      <trkpt lat="44.19413" lon="1.72313">
        <ele>223.7</ele>
        <time>2021-03-27T13:04:40Z</time>
      </trkpt>
      <trkpt lat="44.19412" lon="1.72305">
        <ele>223.8</ele>
        <time>2021-03-27T13:04:42Z</time>
      </trkpt>
      <trkpt lat="44.19411" lon="1.72298">
        <ele>224</ele>
        <time>2021-03-27T13:04:44Z</time>
      </trkpt>
      <trkpt lat="44.19409" lon="1.7229">
        <ele>224.3</ele>
        <time>2021-03-27T13:04:46Z</time>
      </trkpt>
      <trkpt lat="44.19408" lon="1.72281">
        <ele>224.7</ele>
        <time>2021-03-27T13:04:48Z</time>
      </trkpt>
      <trkpt lat="44.19405" lon="1.72273">
        <ele>225.1</ele>
        <time>2021-03-27T13:04:50Z</time>
      </trkpt>
      <trkpt lat="44.19404" lon="1.72265">
        <ele>225.6</ele>
        <time>2021-03-27T13:04:52Z</time>
      </trkpt>
      <trkpt lat="44.19403" lon="1.72257">
        <ele>226.1</ele>
        <time>2021-03-27T13:04:54Z</time>
      </trkpt>
      <trkpt lat="44.19402" lon="1.7225">
        <ele>226.5</ele>
        <time>2021-03-27T13:04:56Z</time>
      </trkpt>
      <trkpt lat="44.194" lon="1.72242">
        <ele>226.9</ele>
        <time>2021-03-27T13:04:58Z</time>
      </trkpt>
      <trkpt lat="44.19399" lon="1.72234">
        <ele>227.3</ele>
        <time>2021-03-27T13:05:01Z</time>
      </trkpt>
      <trkpt lat="44.19399" lon="1.72227">
        <ele>227.7</ele>
        <time>2021-03-27T13:05:03Z</time>
      </trkpt>
      <trkpt lat="44.194" lon="1.72218">
        <ele>228.2</ele>
        <time>2021-03-27T13:05:06Z</time>
      </trkpt>
      <trkpt lat="44.19401" lon="1.72211">
        <ele>228.7</ele>
        <time>2021-03-27T13:05:09Z</time>
      </trkpt>
      <trkpt lat="44.19401" lon="1.72203">
        <ele>229.1</ele>
        <time>2021-03-27T13:05:12Z</time>
      </trkpt>
      <trkpt lat="44.19401" lon="1.72195">
        <ele>229.6</ele>
        <time>2021-03-27T13:05:15Z</time>
      </trkpt>
      <trkpt lat="44.19403" lon="1.72189">
        <ele>230</ele>
        <time>2021-03-27T13:05:17Z</time>
      </trkpt>
      <trkpt lat="44.19405" lon="1.72181">
        <ele>230.5</ele>
        <time>2021-03-27T13:05:20Z</time>
      </trkpt>
      <trkpt lat="44.19406" lon="1.72174">
        <ele>230.8</ele>
        <time>2021-03-27T13:05:22Z</time>
      </trkpt>
      <trkpt lat="44.19406" lon="1.72166">
        <ele>231.1</ele>
        <time>2021-03-27T13:05:24Z</time>
      </trkpt>
      <trkpt lat="44.19406" lon="1.72159">
        <ele>231.4</ele>
        <time>2021-03-27T13:05:26Z</time>
      </trkpt>
      <trkpt lat="44.19405" lon="1.72151">
        <ele>231.7</ele>
        <time>2021-03-27T13:05:28Z</time>
      </trkpt>
      <trkpt lat="44.19405" lon="1.72143">
        <ele>231.9</ele>
        <time>2021-03-27T13:05:30Z</time>
      </trkpt>
      <trkpt lat="44.19405" lon="1.72136">
        <ele>232.1</ele>
        <time>2021-03-27T13:05:32Z</time>
      </trkpt>
      <trkpt lat="44.19406" lon="1.72127">
        <ele>232.4</ele>
        <time>2021-03-27T13:05:35Z</time>
      </trkpt>
      <trkpt lat="44.19407" lon="1.72121">
        <ele>232.6</ele>
        <time>2021-03-27T13:05:37Z</time>
      </trkpt>
      <trkpt lat="44.19407" lon="1.72113">
        <ele>232.8</ele>
        <time>2021-03-27T13:05:39Z</time>
      </trkpt>
      <trkpt lat="44.19406" lon="1.72105">
        <ele>233.1</ele>
        <time>2021-03-27T13:05:41Z</time>
      </trkpt>
      <trkpt lat="44.19406" lon="1.72098">
        <ele>233.3</ele>
        <time>2021-03-27T13:05:43Z</time>
      </trkpt>
      <trkpt lat="44.19405" lon="1.72092">
        <ele>233.5</ele>
        <time>2021-03-27T13:05:45Z</time>
      </trkpt>
      <trkpt lat="44.19406" lon="1.72085">
        <ele>233.7</ele>
        <time>2021-03-27T13:05:47Z</time>
      </trkpt>
      <trkpt lat="44.19406" lon="1.72079">
        <ele>233.9</ele>
        <time>2021-03-27T13:05:49Z</time>
      </trkpt>
      <trkpt lat="44.19406" lon="1.72072">
        <ele>234.1</ele>
        <time>2021-03-27T13:05:51Z</time>
      </trkpt>
      <trkpt lat="44.19405" lon="1.72065">
        <ele>234.3</ele>
        <time>2021-03-27T13:05:53Z</time>
      </trkpt>
      <trkpt lat="44.19405" lon="1.72058">
        <ele>234.5</ele>
        <time>2021-03-27T13:05:55Z</time>
      </trkpt>
      <trkpt lat="44.19405" lon="1.72052">
        <ele>234.7</ele>
        <time>2021-03-27T13:05:57Z</time>
      </trkpt>
      <trkpt lat="44.19406" lon="1.72044">
        <ele>234.9</ele>
        <time>2021-03-27T13:06:00Z</time>
      </trkpt>
      <trkpt lat="44.19406" lon="1.72034">
        <ele>235.1</ele>
        <time>2021-03-27T13:06:03Z</time>
      </trkpt>
      <trkpt lat="44.19406" lon="1.72026">
        <ele>235.3</ele>
        <time>2021-03-27T13:06:05Z</time>
      </trkpt>
      <trkpt lat="44.19406" lon="1.7202">
        <ele>235.4</ele>
        <time>2021-03-27T13:06:07Z</time>
      </trkpt>
      <trkpt lat="44.19408" lon="1.7201">
        <ele>235.7</ele>
        <time>2021-03-27T13:06:10Z</time>
      </trkpt>
      <trkpt lat="44.19408" lon="1.72003">
        <ele>235.8</ele>
        <time>2021-03-27T13:06:12Z</time>
      </trkpt>
      <trkpt lat="44.19409" lon="1.71996">
        <ele>236.1</ele>
        <time>2021-03-27T13:06:14Z</time>
      </trkpt>
      <trkpt lat="44.1941" lon="1.71987">
        <ele>236.4</ele>
        <time>2021-03-27T13:06:17Z</time>
      </trkpt>
      <trkpt lat="44.19411" lon="1.71981">
        <ele>236.6</ele>
        <time>2021-03-27T13:06:19Z</time>
      </trkpt>
      <trkpt lat="44.19411" lon="1.71974">
        <ele>236.9</ele>
        <time>2021-03-27T13:06:21Z</time>
      </trkpt>
      <trkpt lat="44.19412" lon="1.71967">
        <ele>237.1</ele>
        <time>2021-03-27T13:06:23Z</time>
      </trkpt>
      <trkpt lat="44.19412" lon="1.7196">
        <ele>237.4</ele>
        <time>2021-03-27T13:06:25Z</time>
      </trkpt>
      <trkpt lat="44.19412" lon="1.71952">
        <ele>237.7</ele>
        <time>2021-03-27T13:06:27Z</time>
      </trkpt>
      <trkpt lat="44.19413" lon="1.71945">
        <ele>237.9</ele>
        <time>2021-03-27T13:06:29Z</time>
      </trkpt>
      <trkpt lat="44.19413" lon="1.71938">
        <ele>238.2</ele>
        <time>2021-03-27T13:06:31Z</time>
      </trkpt>
      <trkpt lat="44.19414" lon="1.71932">
        <ele>238.5</ele>
        <time>2021-03-27T13:06:33Z</time>
      </trkpt>
      <trkpt lat="44.19414" lon="1.71925">
        <ele>238.8</ele>
        <time>2021-03-27T13:06:35Z</time>
      </trkpt>
      <trkpt lat="44.19415" lon="1.71918">
        <ele>239.1</ele>
        <time>2021-03-27T13:06:37Z</time>
      </trkpt>
      <trkpt lat="44.19416" lon="1.71909">
        <ele>239.5</ele>
        <time>2021-03-27T13:06:40Z</time>
      </trkpt>
      <trkpt lat="44.19416" lon="1.71901">
        <ele>240</ele>
        <time>2021-03-27T13:06:43Z</time>
      </trkpt>
      <trkpt lat="44.19415" lon="1.71892">
        <ele>240.4</ele>
        <time>2021-03-27T13:06:46Z</time>
      </trkpt>
      <trkpt lat="44.19414" lon="1.71886">
        <ele>240.7</ele>
        <time>2021-03-27T13:06:48Z</time>
      </trkpt>
      <trkpt lat="44.19412" lon="1.71878">
        <ele>241</ele>
        <time>2021-03-27T13:06:51Z</time>
      </trkpt>
      <trkpt lat="44.19411" lon="1.71869">
        <ele>241.3</ele>
        <time>2021-03-27T13:06:54Z</time>
      </trkpt>
      <trkpt lat="44.19409" lon="1.71862">
        <ele>241.5</ele>
        <time>2021-03-27T13:06:56Z</time>
      </trkpt>
      <trkpt lat="44.19408" lon="1.71855">
        <ele>241.7</ele>
        <time>2021-03-27T13:06:58Z</time>
      </trkpt>
      <trkpt lat="44.19407" lon="1.71848">
        <ele>241.8</ele>
        <time>2021-03-27T13:07:00Z</time>
      </trkpt>
      <trkpt lat="44.19406" lon="1.71841">
        <ele>242</ele>
        <time>2021-03-27T13:07:02Z</time>
      </trkpt>
      <trkpt lat="44.19406" lon="1.71835">
        <ele>242.2</ele>
        <time>2021-03-27T13:07:04Z</time>
      </trkpt>
      <trkpt lat="44.19404" lon="1.71826">
        <ele>242.4</ele>
        <time>2021-03-27T13:07:07Z</time>
      </trkpt>
      <trkpt lat="44.19402" lon="1.71819">
        <ele>242.7</ele>
        <time>2021-03-27T13:07:09Z</time>
      </trkpt>
      <trkpt lat="44.194" lon="1.71813">
        <ele>243.2</ele>
        <time>2021-03-27T13:07:11Z</time>
      </trkpt>
      <trkpt lat="44.19398" lon="1.71807">
        <ele>243.5</ele>
        <time>2021-03-27T13:07:13Z</time>
      </trkpt>
      <trkpt lat="44.19395" lon="1.71799">
        <ele>244.1</ele>
        <time>2021-03-27T13:07:16Z</time>
      </trkpt>
      <trkpt lat="44.19392" lon="1.71793">
        <ele>244.6</ele>
        <time>2021-03-27T13:07:19Z</time>
      </trkpt>
      <trkpt lat="44.1939" lon="1.71785">
        <ele>245.1</ele>
        <time>2021-03-27T13:07:22Z</time>
      </trkpt>
      <trkpt lat="44.19388" lon="1.71778">
        <ele>245.6</ele>
        <time>2021-03-27T13:07:25Z</time>
      </trkpt>
      <trkpt lat="44.19387" lon="1.71771">
        <ele>246</ele>
        <time>2021-03-27T13:07:28Z</time>
      </trkpt>
      <trkpt lat="44.19386" lon="1.71764">
        <ele>246.5</ele>
        <time>2021-03-27T13:07:32Z</time>
      </trkpt>
      <trkpt lat="44.19387" lon="1.71768">
        <ele>246.4</ele>
        <time>2021-03-27T13:07:46Z</time>
      </trkpt>
      <trkpt lat="44.19387" lon="1.71769">
        <ele>246.4</ele>
        <time>2021-03-27T13:07:47Z</time>
      </trkpt>
      <trkpt lat="44.19387" lon="1.71771">
        <ele>246.3</ele>
        <time>2021-03-27T13:07:48Z</time>
      </trkpt>
      <trkpt lat="44.19389" lon="1.71781">
        <ele>245.5</ele>
        <time>2021-03-27T13:07:51Z</time>
      </trkpt>
      <trkpt lat="44.1939" lon="1.71787">
        <ele>245.1</ele>
        <time>2021-03-27T13:07:53Z</time>
      </trkpt>
      <trkpt lat="44.19393" lon="1.71794">
        <ele>244.6</ele>
        <time>2021-03-27T13:07:55Z</time>
      </trkpt>
      <trkpt lat="44.19395" lon="1.718">
        <ele>244.1</ele>
        <time>2021-03-27T13:07:57Z</time>
      </trkpt>
      <trkpt lat="44.19398" lon="1.71806">
        <ele>243</ele>
        <time>2021-03-27T13:07:59Z</time>
      </trkpt>
      <trkpt lat="44.19399" lon="1.71809">
        <ele>243.1</ele>
        <time>2021-03-27T13:08:01Z</time>
      </trkpt>
      <trkpt lat="44.19404" lon="1.7181">
        <ele>243.3</ele>
        <time>2021-03-27T13:09:45Z</time>
      </trkpt>
      <trkpt lat="44.19406" lon="1.71808">
        <ele>243.3</ele>
        <time>2021-03-27T13:09:47Z</time>
      </trkpt>
      <trkpt lat="44.19409" lon="1.71803">
        <ele>243.5</ele>
        <time>2021-03-27T13:10:04Z</time>
      </trkpt>
      <trkpt lat="44.19412" lon="1.71798">
        <ele>243.6</ele>
        <time>2021-03-27T13:10:18Z</time>
      </trkpt>
      <trkpt lat="44.19414" lon="1.71792">
        <ele>243.8</ele>
        <time>2021-03-27T13:10:35Z</time>
      </trkpt>
      <trkpt lat="44.19415" lon="1.71786">
        <ele>243.9</ele>
        <time>2021-03-27T13:10:43Z</time>
      </trkpt>
      <trkpt lat="44.19418" lon="1.71782">
        <ele>244</ele>
        <time>2021-03-27T13:10:47Z</time>
      </trkpt>
      <trkpt lat="44.19419" lon="1.71781">
        <ele>244.1</ele>
        <time>2021-03-27T13:10:48Z</time>
      </trkpt>
      <trkpt lat="44.19423" lon="1.71777">
        <ele>244.2</ele>
        <time>2021-03-27T13:11:00Z</time>
      </trkpt>
      <trkpt lat="44.19428" lon="1.71776">
        <ele>244.4</ele>
        <time>2021-03-27T13:11:09Z</time>
      </trkpt>
      <trkpt lat="44.19431" lon="1.71773">
        <ele>244.5</ele>
        <time>2021-03-27T13:11:19Z</time>
      </trkpt>
      <trkpt lat="44.19436" lon="1.71768">
        <ele>244.7</ele>
        <time>2021-03-27T13:12:12Z</time>
      </trkpt>
      <trkpt lat="44.19437" lon="1.71767">
        <ele>244.7</ele>
        <time>2021-03-27T13:12:13Z</time>
      </trkpt>
      <trkpt lat="44.19438" lon="1.71766">
        <ele>244.7</ele>
        <time>2021-03-27T13:12:14Z</time>
      </trkpt>
      <trkpt lat="44.19441" lon="1.71764">
        <ele>244.9</ele>
        <time>2021-03-27T13:12:17Z</time>
      </trkpt>
      <trkpt lat="44.19443" lon="1.71763">
        <ele>244.9</ele>
        <time>2021-03-27T13:12:18Z</time>
      </trkpt>
      <trkpt lat="44.19447" lon="1.71757">
        <ele>245.1</ele>
        <time>2021-03-27T13:12:22Z</time>
      </trkpt>
      <trkpt lat="44.1945" lon="1.71753">
        <ele>245.2</ele>
        <time>2021-03-27T13:12:25Z</time>
      </trkpt>
      <trkpt lat="44.19451" lon="1.71752">
        <ele>245.3</ele>
        <time>2021-03-27T13:12:26Z</time>
      </trkpt>
      <trkpt lat="44.19453" lon="1.71745">
        <ele>245.4</ele>
        <time>2021-03-27T13:12:48Z</time>
      </trkpt>
      <trkpt lat="44.19455" lon="1.71742">
        <ele>245.5</ele>
        <time>2021-03-27T13:12:50Z</time>
      </trkpt>
      <trkpt lat="44.19458" lon="1.71737">
        <ele>245.6</ele>
        <time>2021-03-27T13:12:53Z</time>
      </trkpt>
      <trkpt lat="44.19462" lon="1.71731">
        <ele>245.8</ele>
        <time>2021-03-27T13:12:57Z</time>
      </trkpt>
      <trkpt lat="44.19466" lon="1.71727">
        <ele>246</ele>
        <time>2021-03-27T13:13:00Z</time>
      </trkpt>
      <trkpt lat="44.1947" lon="1.71722">
        <ele>246.1</ele>
        <time>2021-03-27T13:13:03Z</time>
      </trkpt>
      <trkpt lat="44.19474" lon="1.71716">
        <ele>246.3</ele>
        <time>2021-03-27T13:13:06Z</time>
      </trkpt>
      <trkpt lat="44.19477" lon="1.7171">
        <ele>246.5</ele>
        <time>2021-03-27T13:13:09Z</time>
      </trkpt>
      <trkpt lat="44.1948" lon="1.71705">
        <ele>246.6</ele>
        <time>2021-03-27T13:13:12Z</time>
      </trkpt>
      <trkpt lat="44.19484" lon="1.71701">
        <ele>246.8</ele>
        <time>2021-03-27T13:13:15Z</time>
      </trkpt>
      <trkpt lat="44.19488" lon="1.71696">
        <ele>246.9</ele>
        <time>2021-03-27T13:13:18Z</time>
      </trkpt>
      <trkpt lat="44.19491" lon="1.71691">
        <ele>247.1</ele>
        <time>2021-03-27T13:13:21Z</time>
      </trkpt>
      <trkpt lat="44.19494" lon="1.71687">
        <ele>247.2</ele>
        <time>2021-03-27T13:13:24Z</time>
      </trkpt>
      <trkpt lat="44.19497" lon="1.71682">
        <ele>247.4</ele>
        <time>2021-03-27T13:13:27Z</time>
      </trkpt>
      <trkpt lat="44.195" lon="1.71676">
        <ele>247.5</ele>
        <time>2021-03-27T13:13:30Z</time>
      </trkpt>
      <trkpt lat="44.19503" lon="1.71671">
        <ele>247.7</ele>
        <time>2021-03-27T13:13:33Z</time>
      </trkpt>
      <trkpt lat="44.19506" lon="1.71665">
        <ele>247.8</ele>
        <time>2021-03-27T13:13:36Z</time>
      </trkpt>
      <trkpt lat="44.19509" lon="1.7166">
        <ele>247.9</ele>
        <time>2021-03-27T13:13:39Z</time>
      </trkpt>
      <trkpt lat="44.19512" lon="1.71654">
        <ele>248.1</ele>
        <time>2021-03-27T13:13:42Z</time>
      </trkpt>
      <trkpt lat="44.19515" lon="1.71649">
        <ele>248.2</ele>
        <time>2021-03-27T13:13:45Z</time>
      </trkpt>
      <trkpt lat="44.19516" lon="1.71646">
        <ele>248.3</ele>
        <time>2021-03-27T13:13:47Z</time>
      </trkpt>
      <trkpt lat="44.19517" lon="1.71645">
        <ele>248.4</ele>
        <time>2021-03-27T13:13:48Z</time>
      </trkpt>
      <trkpt lat="44.19519" lon="1.7164">
        <ele>248.5</ele>
        <time>2021-03-27T13:13:51Z</time>
      </trkpt>
      <trkpt lat="44.1952" lon="1.71634">
        <ele>248.6</ele>
        <time>2021-03-27T13:13:55Z</time>
      </trkpt>
      <trkpt lat="44.1952" lon="1.71627">
        <ele>248.8</ele>
        <time>2021-03-27T13:13:58Z</time>
      </trkpt>
      <trkpt lat="44.19524" lon="1.71621">
        <ele>248.9</ele>
        <time>2021-03-27T13:14:02Z</time>
      </trkpt>
      <trkpt lat="44.19526" lon="1.71621">
        <ele>249</ele>
        <time>2021-03-27T13:14:04Z</time>
      </trkpt>
      <trkpt lat="44.19527" lon="1.71621">
        <ele>249.1</ele>
        <time>2021-03-27T13:14:05Z</time>
      </trkpt>
      <trkpt lat="44.19528" lon="1.71622">
        <ele>249.1</ele>
        <time>2021-03-27T13:14:06Z</time>
      </trkpt>
      <trkpt lat="44.19531" lon="1.71628">
        <ele>249.2</ele>
        <time>2021-03-27T13:14:11Z</time>
      </trkpt>
      <trkpt lat="44.19531" lon="1.71635">
        <ele>249.4</ele>
        <time>2021-03-27T13:14:14Z</time>
      </trkpt>
      <trkpt lat="44.19531" lon="1.71642">
        <ele>249.5</ele>
        <time>2021-03-27T13:14:17Z</time>
      </trkpt>
      <trkpt lat="44.19531" lon="1.71648">
        <ele>249.7</ele>
        <time>2021-03-27T13:14:20Z</time>
      </trkpt>
      <trkpt lat="44.19532" lon="1.71654">
        <ele>249.8</ele>
        <time>2021-03-27T13:14:23Z</time>
      </trkpt>
      <trkpt lat="44.19532" lon="1.71661">
        <ele>250</ele>
        <time>2021-03-27T13:14:26Z</time>
      </trkpt>
      <trkpt lat="44.19532" lon="1.71668">
        <ele>250.1</ele>
        <time>2021-03-27T13:14:30Z</time>
      </trkpt>
      <trkpt lat="44.19532" lon="1.71676">
        <ele>250.3</ele>
        <time>2021-03-27T13:14:34Z</time>
      </trkpt>
      <trkpt lat="44.19531" lon="1.71683">
        <ele>250.4</ele>
        <time>2021-03-27T13:14:37Z</time>
      </trkpt>
      <trkpt lat="44.19531" lon="1.7169">
        <ele>250.6</ele>
        <time>2021-03-27T13:14:40Z</time>
      </trkpt>
      <trkpt lat="44.19529" lon="1.71697">
        <ele>250.8</ele>
        <time>2021-03-27T13:14:43Z</time>
      </trkpt>
      <trkpt lat="44.19528" lon="1.71705">
        <ele>250.9</ele>
        <time>2021-03-27T13:14:46Z</time>
      </trkpt>
      <trkpt lat="44.19528" lon="1.71712">
        <ele>251.1</ele>
        <time>2021-03-27T13:14:49Z</time>
      </trkpt>
      <trkpt lat="44.19528" lon="1.71719">
        <ele>251.2</ele>
        <time>2021-03-27T13:14:52Z</time>
      </trkpt>
      <trkpt lat="44.19526" lon="1.71726">
        <ele>251.4</ele>
        <time>2021-03-27T13:14:55Z</time>
      </trkpt>
      <trkpt lat="44.19525" lon="1.71732">
        <ele>251.5</ele>
        <time>2021-03-27T13:14:58Z</time>
      </trkpt>
      <trkpt lat="44.19525" lon="1.71738">
        <ele>251.7</ele>
        <time>2021-03-27T13:15:01Z</time>
      </trkpt>
      <trkpt lat="44.19524" lon="1.71744">
        <ele>251.8</ele>
        <time>2021-03-27T13:15:04Z</time>
      </trkpt>
      <trkpt lat="44.19522" lon="1.71752">
        <ele>252</ele>
        <time>2021-03-27T13:15:08Z</time>
      </trkpt>
      <trkpt lat="44.19521" lon="1.7176">
        <ele>252.2</ele>
        <time>2021-03-27T13:15:12Z</time>
      </trkpt>
      <trkpt lat="44.19519" lon="1.71768">
        <ele>252.3</ele>
        <time>2021-03-27T13:15:16Z</time>
      </trkpt>
      <trkpt lat="44.19519" lon="1.71776">
        <ele>252.5</ele>
        <time>2021-03-27T13:15:20Z</time>
      </trkpt>
      <trkpt lat="44.19518" lon="1.71782">
        <ele>252.7</ele>
        <time>2021-03-27T13:15:23Z</time>
      </trkpt>
      <trkpt lat="44.19518" lon="1.71789">
        <ele>252.8</ele>
        <time>2021-03-27T13:15:26Z</time>
      </trkpt>
      <trkpt lat="44.19517" lon="1.71796">
        <ele>253</ele>
        <time>2021-03-27T13:15:29Z</time>
      </trkpt>
      <trkpt lat="44.19517" lon="1.71803">
        <ele>253.1</ele>
        <time>2021-03-27T13:15:32Z</time>
      </trkpt>
      <trkpt lat="44.19517" lon="1.7181">
        <ele>253.3</ele>
        <time>2021-03-27T13:15:35Z</time>
      </trkpt>
      <trkpt lat="44.19517" lon="1.71819">
        <ele>253.5</ele>
        <time>2021-03-27T13:15:38Z</time>
      </trkpt>
      <trkpt lat="44.19516" lon="1.71828">
        <ele>253.7</ele>
        <time>2021-03-27T13:15:41Z</time>
      </trkpt>
      <trkpt lat="44.19517" lon="1.71834">
        <ele>253.8</ele>
        <time>2021-03-27T13:15:43Z</time>
      </trkpt>
      <trkpt lat="44.19516" lon="1.7184">
        <ele>253.9</ele>
        <time>2021-03-27T13:15:45Z</time>
      </trkpt>
      <trkpt lat="44.19515" lon="1.71847">
        <ele>254.1</ele>
        <time>2021-03-27T13:15:47Z</time>
      </trkpt>
      <trkpt lat="44.19513" lon="1.71854">
        <ele>254.2</ele>
        <time>2021-03-27T13:15:49Z</time>
      </trkpt>
      <trkpt lat="44.19511" lon="1.7186">
        <ele>254.4</ele>
        <time>2021-03-27T13:15:51Z</time>
      </trkpt>
      <trkpt lat="44.1951" lon="1.71867">
        <ele>254.5</ele>
        <time>2021-03-27T13:15:53Z</time>
      </trkpt>
      <trkpt lat="44.19508" lon="1.71874">
        <ele>254.7</ele>
        <time>2021-03-27T13:15:55Z</time>
      </trkpt>
      <trkpt lat="44.19506" lon="1.71882">
        <ele>254.9</ele>
        <time>2021-03-27T13:15:57Z</time>
      </trkpt>
      <trkpt lat="44.19504" lon="1.71891">
        <ele>255.1</ele>
        <time>2021-03-27T13:15:59Z</time>
      </trkpt>
      <trkpt lat="44.19501" lon="1.719">
        <ele>255.3</ele>
        <time>2021-03-27T13:16:01Z</time>
      </trkpt>
      <trkpt lat="44.19499" lon="1.71908">
        <ele>255.5</ele>
        <time>2021-03-27T13:16:03Z</time>
      </trkpt>
      <trkpt lat="44.19499" lon="1.71917">
        <ele>255.7</ele>
        <time>2021-03-27T13:16:05Z</time>
      </trkpt>
      <trkpt lat="44.19499" lon="1.71925">
        <ele>255.9</ele>
        <time>2021-03-27T13:16:07Z</time>
      </trkpt>
      <trkpt lat="44.19501" lon="1.71932">
        <ele>256</ele>
        <time>2021-03-27T13:16:09Z</time>
      </trkpt>
      <trkpt lat="44.19502" lon="1.71939">
        <ele>256.2</ele>
        <time>2021-03-27T13:16:11Z</time>
      </trkpt>
      <trkpt lat="44.19498" lon="1.71945">
        <ele>256.4</ele>
        <time>2021-03-27T13:16:13Z</time>
      </trkpt>
      <trkpt lat="44.19495" lon="1.71952">
        <ele>256.5</ele>
        <time>2021-03-27T13:16:15Z</time>
      </trkpt>
      <trkpt lat="44.19494" lon="1.7196">
        <ele>256.7</ele>
        <time>2021-03-27T13:16:17Z</time>
      </trkpt>
      <trkpt lat="44.19495" lon="1.71967">
        <ele>256.9</ele>
        <time>2021-03-27T13:16:19Z</time>
      </trkpt>
      <trkpt lat="44.19495" lon="1.71975">
        <ele>257.1</ele>
        <time>2021-03-27T13:16:21Z</time>
      </trkpt>
      <trkpt lat="44.19497" lon="1.71983">
        <ele>257.2</ele>
        <time>2021-03-27T13:16:23Z</time>
      </trkpt>
      <trkpt lat="44.19497" lon="1.71991">
        <ele>257.4</ele>
        <time>2021-03-27T13:16:25Z</time>
      </trkpt>
      <trkpt lat="44.19497" lon="1.71998">
        <ele>257.6</ele>
        <time>2021-03-27T13:16:27Z</time>
      </trkpt>
      <trkpt lat="44.19498" lon="1.72006">
        <ele>257.7</ele>
        <time>2021-03-27T13:16:29Z</time>
      </trkpt>
      <trkpt lat="44.19499" lon="1.72013">
        <ele>257.9</ele>
        <time>2021-03-27T13:16:31Z</time>
      </trkpt>
      <trkpt lat="44.19499" lon="1.7202">
        <ele>258</ele>
        <time>2021-03-27T13:16:33Z</time>
      </trkpt>
      <trkpt lat="44.19497" lon="1.72028">
        <ele>258.2</ele>
        <time>2021-03-27T13:16:35Z</time>
      </trkpt>
      <trkpt lat="44.19497" lon="1.72036">
        <ele>258.4</ele>
        <time>2021-03-27T13:16:37Z</time>
      </trkpt>
      <trkpt lat="44.19495" lon="1.72044">
        <ele>258.6</ele>
        <time>2021-03-27T13:16:39Z</time>
      </trkpt>
      <trkpt lat="44.19492" lon="1.72052">
        <ele>258.8</ele>
        <time>2021-03-27T13:16:41Z</time>
      </trkpt>
      <trkpt lat="44.19493" lon="1.72059">
        <ele>258.9</ele>
        <time>2021-03-27T13:16:43Z</time>
      </trkpt>
      <trkpt lat="44.19496" lon="1.72067">
        <ele>259.1</ele>
        <time>2021-03-27T13:16:46Z</time>
      </trkpt>
      <trkpt lat="44.195" lon="1.72071">
        <ele>259.3</ele>
        <time>2021-03-27T13:16:49Z</time>
      </trkpt>
      <trkpt lat="44.19503" lon="1.72078">
        <ele>259.5</ele>
        <time>2021-03-27T13:16:52Z</time>
      </trkpt>
      <trkpt lat="44.19505" lon="1.72086">
        <ele>259.7</ele>
        <time>2021-03-27T13:16:55Z</time>
      </trkpt>
      <trkpt lat="44.19505" lon="1.72092">
        <ele>259.8</ele>
        <time>2021-03-27T13:16:57Z</time>
      </trkpt>
      <trkpt lat="44.19505" lon="1.72102">
        <ele>260</ele>
        <time>2021-03-27T13:17:00Z</time>
      </trkpt>
      <trkpt lat="44.19504" lon="1.72109">
        <ele>260.2</ele>
        <time>2021-03-27T13:17:02Z</time>
      </trkpt>
      <trkpt lat="44.19504" lon="1.72117">
        <ele>260.3</ele>
        <time>2021-03-27T13:17:04Z</time>
      </trkpt>
      <trkpt lat="44.19504" lon="1.72125">
        <ele>260.5</ele>
        <time>2021-03-27T13:17:06Z</time>
      </trkpt>
      <trkpt lat="44.19502" lon="1.72133">
        <ele>260.7</ele>
        <time>2021-03-27T13:17:08Z</time>
      </trkpt>
      <trkpt lat="44.195" lon="1.72142">
        <ele>260.9</ele>
        <time>2021-03-27T13:17:10Z</time>
      </trkpt>
      <trkpt lat="44.19498" lon="1.7215">
        <ele>261.1</ele>
        <time>2021-03-27T13:17:12Z</time>
      </trkpt>
      <trkpt lat="44.19499" lon="1.72156">
        <ele>261.2</ele>
        <time>2021-03-27T13:17:14Z</time>
      </trkpt>
      <trkpt lat="44.195" lon="1.72163">
        <ele>261.4</ele>
        <time>2021-03-27T13:17:16Z</time>
      </trkpt>
      <trkpt lat="44.19499" lon="1.7217">
        <ele>261.5</ele>
        <time>2021-03-27T13:17:18Z</time>
      </trkpt>
      <trkpt lat="44.19498" lon="1.72178">
        <ele>261.7</ele>
        <time>2021-03-27T13:17:20Z</time>
      </trkpt>
      <trkpt lat="44.19498" lon="1.72186">
        <ele>261.9</ele>
        <time>2021-03-27T13:17:22Z</time>
      </trkpt>
      <trkpt lat="44.19497" lon="1.72194">
        <ele>262.1</ele>
        <time>2021-03-27T13:17:24Z</time>
      </trkpt>
      <trkpt lat="44.19495" lon="1.72201">
        <ele>262.2</ele>
        <time>2021-03-27T13:17:26Z</time>
      </trkpt>
      <trkpt lat="44.19496" lon="1.72208">
        <ele>262.4</ele>
        <time>2021-03-27T13:17:28Z</time>
      </trkpt>
      <trkpt lat="44.19496" lon="1.72215">
        <ele>262.5</ele>
        <time>2021-03-27T13:17:30Z</time>
      </trkpt>
      <trkpt lat="44.19494" lon="1.72221">
        <ele>262.7</ele>
        <time>2021-03-27T13:17:32Z</time>
      </trkpt>
      <trkpt lat="44.19491" lon="1.72227">
        <ele>262.8</ele>
        <time>2021-03-27T13:17:35Z</time>
      </trkpt>
      <trkpt lat="44.19489" lon="1.7223">
        <ele>262.9</ele>
        <time>2021-03-27T13:17:55Z</time>
      </trkpt>
      <trkpt lat="44.1949" lon="1.72235">
        <ele>263</ele>
        <time>2021-03-27T13:17:58Z</time>
      </trkpt>
      <trkpt lat="44.1949" lon="1.72238">
        <ele>263.1</ele>
        <time>2021-03-27T13:19:04Z</time>
      </trkpt>
      <trkpt lat="44.19491" lon="1.72245">
        <ele>263.3</ele>
        <time>2021-03-27T13:19:07Z</time>
      </trkpt>
      <trkpt lat="44.19492" lon="1.72253">
        <ele>263.4</ele>
        <time>2021-03-27T13:19:10Z</time>
      </trkpt>
      <trkpt lat="44.19496" lon="1.7226">
        <ele>263.6</ele>
        <time>2021-03-27T13:19:13Z</time>
      </trkpt>
      <trkpt lat="44.19499" lon="1.72266">
        <ele>263.8</ele>
        <time>2021-03-27T13:19:15Z</time>
      </trkpt>
      <trkpt lat="44.19501" lon="1.72274">
        <ele>264</ele>
        <time>2021-03-27T13:19:17Z</time>
      </trkpt>
      <trkpt lat="44.19503" lon="1.72283">
        <ele>264.2</ele>
        <time>2021-03-27T13:19:20Z</time>
      </trkpt>
      <trkpt lat="44.19504" lon="1.72289">
        <ele>264.3</ele>
        <time>2021-03-27T13:19:22Z</time>
      </trkpt>
      <trkpt lat="44.19505" lon="1.72296">
        <ele>264.5</ele>
        <time>2021-03-27T13:19:24Z</time>
      </trkpt>
      <trkpt lat="44.19504" lon="1.72302">
        <ele>264.6</ele>
        <time>2021-03-27T13:19:26Z</time>
      </trkpt>
      <trkpt lat="44.19507" lon="1.72308">
        <ele>264.8</ele>
        <time>2021-03-27T13:19:29Z</time>
      </trkpt>
      <trkpt lat="44.19509" lon="1.72308">
        <ele>264.8</ele>
        <time>2021-03-27T13:19:30Z</time>
      </trkpt>
      <trkpt lat="44.1951" lon="1.72308">
        <ele>264.8</ele>
        <time>2021-03-27T13:19:31Z</time>
      </trkpt>
      <trkpt lat="44.19511" lon="1.72311">
        <ele>264.9</ele>
        <time>2021-03-27T13:19:33Z</time>
      </trkpt>
      <trkpt lat="44.19512" lon="1.7232">
        <ele>265.1</ele>
        <time>2021-03-27T13:19:36Z</time>
      </trkpt>
      <trkpt lat="44.19512" lon="1.72329">
        <ele>265.3</ele>
        <time>2021-03-27T13:19:38Z</time>
      </trkpt>
      <trkpt lat="44.1951" lon="1.72338">
        <ele>265.5</ele>
        <time>2021-03-27T13:19:40Z</time>
      </trkpt>
      <trkpt lat="44.19507" lon="1.72346">
        <ele>265.7</ele>
        <time>2021-03-27T13:19:42Z</time>
      </trkpt>
      <trkpt lat="44.19506" lon="1.72354">
        <ele>265.9</ele>
        <time>2021-03-27T13:19:44Z</time>
      </trkpt>
      <trkpt lat="44.19508" lon="1.72362">
        <ele>266.1</ele>
        <time>2021-03-27T13:19:46Z</time>
      </trkpt>
      <trkpt lat="44.19511" lon="1.7237">
        <ele>266.3</ele>
        <time>2021-03-27T13:19:48Z</time>
      </trkpt>
      <trkpt lat="44.19513" lon="1.7238">
        <ele>266.5</ele>
        <time>2021-03-27T13:19:50Z</time>
      </trkpt>
      <trkpt lat="44.19512" lon="1.72389">
        <ele>266.7</ele>
        <time>2021-03-27T13:19:52Z</time>
      </trkpt>
      <trkpt lat="44.19515" lon="1.72398">
        <ele>266.9</ele>
        <time>2021-03-27T13:19:54Z</time>
      </trkpt>
      <trkpt lat="44.1952" lon="1.72402">
        <ele>267.1</ele>
        <time>2021-03-27T13:19:56Z</time>
      </trkpt>
      <trkpt lat="44.19525" lon="1.72406">
        <ele>267.3</ele>
        <time>2021-03-27T13:19:58Z</time>
      </trkpt>
      <trkpt lat="44.1953" lon="1.7241">
        <ele>267.4</ele>
        <time>2021-03-27T13:20:01Z</time>
      </trkpt>
      <trkpt lat="44.19534" lon="1.72416">
        <ele>267.6</ele>
        <time>2021-03-27T13:20:04Z</time>
      </trkpt>
      <trkpt lat="44.19535" lon="1.72417">
        <ele>267.7</ele>
        <time>2021-03-27T13:20:06Z</time>
      </trkpt>
      <trkpt lat="44.19535" lon="1.72422">
        <ele>267.7</ele>
        <time>2021-03-27T13:20:24Z</time>
      </trkpt>
      <trkpt lat="44.19537" lon="1.72424">
        <ele>267.8</ele>
        <time>2021-03-27T13:20:26Z</time>
      </trkpt>
      <trkpt lat="44.1954" lon="1.72427">
        <ele>267.9</ele>
        <time>2021-03-27T13:20:30Z</time>
      </trkpt>
      <trkpt lat="44.19544" lon="1.72425">
        <ele>268.1</ele>
        <time>2021-03-27T13:20:32Z</time>
      </trkpt>
      <trkpt lat="44.19547" lon="1.7242">
        <ele>268.2</ele>
        <time>2021-03-27T13:20:34Z</time>
      </trkpt>
      <trkpt lat="44.1955" lon="1.72412">
        <ele>268.7</ele>
        <time>2021-03-27T13:20:37Z</time>
      </trkpt>
      <trkpt lat="44.19553" lon="1.72404">
        <ele>269</ele>
        <time>2021-03-27T13:20:40Z</time>
      </trkpt>
      <trkpt lat="44.19554" lon="1.72397">
        <ele>269.2</ele>
        <time>2021-03-27T13:20:42Z</time>
      </trkpt>
      <trkpt lat="44.19557" lon="1.72388">
        <ele>269.4</ele>
        <time>2021-03-27T13:20:45Z</time>
      </trkpt>
      <trkpt lat="44.19563" lon="1.72384">
        <ele>269.7</ele>
        <time>2021-03-27T13:20:48Z</time>
      </trkpt>
      <trkpt lat="44.19568" lon="1.72385">
        <ele>269.9</ele>
        <time>2021-03-27T13:20:50Z</time>
      </trkpt>
      <trkpt lat="44.19573" lon="1.72385">
        <ele>270.1</ele>
        <time>2021-03-27T13:20:52Z</time>
      </trkpt>
      <trkpt lat="44.19578" lon="1.72381">
        <ele>270.3</ele>
        <time>2021-03-27T13:20:55Z</time>
      </trkpt>
      <trkpt lat="44.19581" lon="1.72375">
        <ele>270.5</ele>
        <time>2021-03-27T13:20:57Z</time>
      </trkpt>
      <trkpt lat="44.19584" lon="1.72368">
        <ele>270.7</ele>
        <time>2021-03-27T13:20:59Z</time>
      </trkpt>
      <trkpt lat="44.19586" lon="1.72361">
        <ele>270.9</ele>
        <time>2021-03-27T13:21:01Z</time>
      </trkpt>
      <trkpt lat="44.19588" lon="1.72354">
        <ele>271.1</ele>
        <time>2021-03-27T13:21:03Z</time>
      </trkpt>
      <trkpt lat="44.19591" lon="1.72349">
        <ele>271.3</ele>
        <time>2021-03-27T13:21:05Z</time>
      </trkpt>
      <trkpt lat="44.19594" lon="1.72342">
        <ele>271.5</ele>
        <time>2021-03-27T13:21:07Z</time>
      </trkpt>
      <trkpt lat="44.19595" lon="1.72336">
        <ele>271.7</ele>
        <time>2021-03-27T13:21:09Z</time>
      </trkpt>
      <trkpt lat="44.19594" lon="1.72331">
        <ele>271.8</ele>
        <time>2021-03-27T13:21:12Z</time>
      </trkpt>
      <trkpt lat="44.19595" lon="1.72326">
        <ele>271.9</ele>
        <time>2021-03-27T13:22:37Z</time>
      </trkpt>
      <trkpt lat="44.19598" lon="1.72319">
        <ele>272.1</ele>
        <time>2021-03-27T13:22:40Z</time>
      </trkpt>
      <trkpt lat="44.19602" lon="1.72312">
        <ele>272.4</ele>
        <time>2021-03-27T13:22:43Z</time>
      </trkpt>
      <trkpt lat="44.19607" lon="1.72305">
        <ele>272.6</ele>
        <time>2021-03-27T13:22:45Z</time>
      </trkpt>
      <trkpt lat="44.19612" lon="1.72299">
        <ele>272.9</ele>
        <time>2021-03-27T13:22:47Z</time>
      </trkpt>
      <trkpt lat="44.19618" lon="1.72294">
        <ele>273.2</ele>
        <time>2021-03-27T13:22:49Z</time>
      </trkpt>
      <trkpt lat="44.19624" lon="1.72289">
        <ele>273.4</ele>
        <time>2021-03-27T13:22:51Z</time>
      </trkpt>
      <trkpt lat="44.19629" lon="1.72285">
        <ele>273.7</ele>
        <time>2021-03-27T13:22:53Z</time>
      </trkpt>
      <trkpt lat="44.19634" lon="1.7228">
        <ele>273.9</ele>
        <time>2021-03-27T13:22:55Z</time>
      </trkpt>
      <trkpt lat="44.19638" lon="1.72277">
        <ele>274.1</ele>
        <time>2021-03-27T13:22:57Z</time>
      </trkpt>
      <trkpt lat="44.19645" lon="1.72272">
        <ele>274.3</ele>
        <time>2021-03-27T13:23:00Z</time>
      </trkpt>
      <trkpt lat="44.1965" lon="1.72268">
        <ele>274.6</ele>
        <time>2021-03-27T13:23:02Z</time>
      </trkpt>
      <trkpt lat="44.19657" lon="1.72264">
        <ele>274.8</ele>
        <time>2021-03-27T13:23:04Z</time>
      </trkpt>
      <trkpt lat="44.19663" lon="1.72258">
        <ele>275.1</ele>
        <time>2021-03-27T13:23:06Z</time>
      </trkpt>
      <trkpt lat="44.19669" lon="1.72252">
        <ele>275.4</ele>
        <time>2021-03-27T13:23:08Z</time>
      </trkpt>
      <trkpt lat="44.19674" lon="1.72244">
        <ele>275.7</ele>
        <time>2021-03-27T13:23:10Z</time>
      </trkpt>
      <trkpt lat="44.19679" lon="1.72236">
        <ele>276</ele>
        <time>2021-03-27T13:23:12Z</time>
      </trkpt>
      <trkpt lat="44.19682" lon="1.72228">
        <ele>276.2</ele>
        <time>2021-03-27T13:23:14Z</time>
      </trkpt>
      <trkpt lat="44.19684" lon="1.72222">
        <ele>276.4</ele>
        <time>2021-03-27T13:23:16Z</time>
      </trkpt>
      <trkpt lat="44.19688" lon="1.72216">
        <ele>276.6</ele>
        <time>2021-03-27T13:23:18Z</time>
      </trkpt>
      <trkpt lat="44.19693" lon="1.7221">
        <ele>276.8</ele>
        <time>2021-03-27T13:23:20Z</time>
      </trkpt>
      <trkpt lat="44.19699" lon="1.72204">
        <ele>277.1</ele>
        <time>2021-03-27T13:23:22Z</time>
      </trkpt>
      <trkpt lat="44.19702" lon="1.72198">
        <ele>277.3</ele>
        <time>2021-03-27T13:23:24Z</time>
      </trkpt>
      <trkpt lat="44.19705" lon="1.72192">
        <ele>277.5</ele>
        <time>2021-03-27T13:23:26Z</time>
      </trkpt>
      <trkpt lat="44.19706" lon="1.72186">
        <ele>277.7</ele>
        <time>2021-03-27T13:23:28Z</time>
      </trkpt>
      <trkpt lat="44.19705" lon="1.72178">
        <ele>277.9</ele>
        <time>2021-03-27T13:23:31Z</time>
      </trkpt>
      <trkpt lat="44.19708" lon="1.72172">
        <ele>278.1</ele>
        <time>2021-03-27T13:23:34Z</time>
      </trkpt>
      <trkpt lat="44.19712" lon="1.72167">
        <ele>278.3</ele>
        <time>2021-03-27T13:23:36Z</time>
      </trkpt>
      <trkpt lat="44.19715" lon="1.72162">
        <ele>278.5</ele>
        <time>2021-03-27T13:23:38Z</time>
      </trkpt>
      <trkpt lat="44.19718" lon="1.72155">
        <ele>278.7</ele>
        <time>2021-03-27T13:23:40Z</time>
      </trkpt>
      <trkpt lat="44.1972" lon="1.72148">
        <ele>278.9</ele>
        <time>2021-03-27T13:23:42Z</time>
      </trkpt>
      <trkpt lat="44.19722" lon="1.72142">
        <ele>279.1</ele>
        <time>2021-03-27T13:23:44Z</time>
      </trkpt>
      <trkpt lat="44.19726" lon="1.72137">
        <ele>279.3</ele>
        <time>2021-03-27T13:23:46Z</time>
      </trkpt>
      <trkpt lat="44.19728" lon="1.7213">
        <ele>279.5</ele>
        <time>2021-03-27T13:23:48Z</time>
      </trkpt>
      <trkpt lat="44.1973" lon="1.72124">
        <ele>279.7</ele>
        <time>2021-03-27T13:23:50Z</time>
      </trkpt>
      <trkpt lat="44.19731" lon="1.72116">
        <ele>279.9</ele>
        <time>2021-03-27T13:23:53Z</time>
      </trkpt>
      <trkpt lat="44.19735" lon="1.7211">
        <ele>280.1</ele>
        <time>2021-03-27T13:23:56Z</time>
      </trkpt>
      <trkpt lat="44.19738" lon="1.72106">
        <ele>280.3</ele>
        <time>2021-03-27T13:23:58Z</time>
      </trkpt>
      <trkpt lat="44.19742" lon="1.721">
        <ele>280.5</ele>
        <time>2021-03-27T13:24:00Z</time>
      </trkpt>
      <trkpt lat="44.19746" lon="1.72095">
        <ele>280.7</ele>
        <time>2021-03-27T13:24:02Z</time>
      </trkpt>
      <trkpt lat="44.19751" lon="1.72092">
        <ele>280.9</ele>
        <time>2021-03-27T13:24:04Z</time>
      </trkpt>
      <trkpt lat="44.19756" lon="1.72087">
        <ele>281.1</ele>
        <time>2021-03-27T13:24:06Z</time>
      </trkpt>
      <trkpt lat="44.19762" lon="1.72082">
        <ele>281.4</ele>
        <time>2021-03-27T13:24:08Z</time>
      </trkpt>
      <trkpt lat="44.19769" lon="1.72077">
        <ele>281.6</ele>
        <time>2021-03-27T13:24:10Z</time>
      </trkpt>
      <trkpt lat="44.19773" lon="1.72074">
        <ele>281.8</ele>
        <time>2021-03-27T13:24:12Z</time>
      </trkpt>
      <trkpt lat="44.19774" lon="1.72074">
        <ele>281.9</ele>
        <time>2021-03-27T13:24:13Z</time>
      </trkpt>
      <trkpt lat="44.19778" lon="1.72073">
        <ele>282</ele>
        <time>2021-03-27T13:24:58Z</time>
      </trkpt>
      <trkpt lat="44.19784" lon="1.72071">
        <ele>282.3</ele>
        <time>2021-03-27T13:25:01Z</time>
      </trkpt>
      <trkpt lat="44.19789" lon="1.72068">
        <ele>282.5</ele>
        <time>2021-03-27T13:25:03Z</time>
      </trkpt>
      <trkpt lat="44.19794" lon="1.72064">
        <ele>282.7</ele>
        <time>2021-03-27T13:25:05Z</time>
      </trkpt>
      <trkpt lat="44.198" lon="1.72059">
        <ele>282.9</ele>
        <time>2021-03-27T13:25:07Z</time>
      </trkpt>
      <trkpt lat="44.19805" lon="1.72053">
        <ele>283.2</ele>
        <time>2021-03-27T13:25:09Z</time>
      </trkpt>
      <trkpt lat="44.1981" lon="1.72044">
        <ele>283.5</ele>
        <time>2021-03-27T13:25:11Z</time>
      </trkpt>
      <trkpt lat="44.19814" lon="1.72036">
        <ele>283.7</ele>
        <time>2021-03-27T13:25:13Z</time>
      </trkpt>
      <trkpt lat="44.19817" lon="1.72029">
        <ele>284</ele>
        <time>2021-03-27T13:25:15Z</time>
      </trkpt>
      <trkpt lat="44.19821" lon="1.72024">
        <ele>284.2</ele>
        <time>2021-03-27T13:25:17Z</time>
      </trkpt>
      <trkpt lat="44.19825" lon="1.72019">
        <ele>284.4</ele>
        <time>2021-03-27T13:25:19Z</time>
      </trkpt>
      <trkpt lat="44.1983" lon="1.72016">
        <ele>284.6</ele>
        <time>2021-03-27T13:25:21Z</time>
      </trkpt>
      <trkpt lat="44.19837" lon="1.72013">
        <ele>284.9</ele>
        <time>2021-03-27T13:25:23Z</time>
      </trkpt>
      <trkpt lat="44.19845" lon="1.72007">
        <ele>285.2</ele>
        <time>2021-03-27T13:25:25Z</time>
      </trkpt>
      <trkpt lat="44.19853" lon="1.72001">
        <ele>285.5</ele>
        <time>2021-03-27T13:25:27Z</time>
      </trkpt>
      <trkpt lat="44.19857" lon="1.71999">
        <ele>285.7</ele>
        <time>2021-03-27T13:25:28Z</time>
      </trkpt>
      <trkpt lat="44.19862" lon="1.71996">
        <ele>285.9</ele>
        <time>2021-03-27T13:25:29Z</time>
      </trkpt>
      <trkpt lat="44.19866" lon="1.71994">
        <ele>286.1</ele>
        <time>2021-03-27T13:25:30Z</time>
      </trkpt>
      <trkpt lat="44.19871" lon="1.71992">
        <ele>286.3</ele>
        <time>2021-03-27T13:25:31Z</time>
      </trkpt>
      <trkpt lat="44.19875" lon="1.71989">
        <ele>286.4</ele>
        <time>2021-03-27T13:25:32Z</time>
      </trkpt>
      <trkpt lat="44.1988" lon="1.71989">
        <ele>286.6</ele>
        <time>2021-03-27T13:25:34Z</time>
      </trkpt>
      <trkpt lat="44.1988" lon="1.7199">
        <ele>286.6</ele>
        <time>2021-03-27T13:25:35Z</time>
      </trkpt>
      <trkpt lat="44.19882" lon="1.71992">
        <ele>286.7</ele>
        <time>2021-03-27T13:25:45Z</time>
      </trkpt>
      <trkpt lat="44.19886" lon="1.71996">
        <ele>286.9</ele>
        <time>2021-03-27T13:25:48Z</time>
      </trkpt>
      <trkpt lat="44.19887" lon="1.71997">
        <ele>287</ele>
        <time>2021-03-27T13:25:49Z</time>
      </trkpt>
      <trkpt lat="44.19887" lon="1.71991">
        <ele>287.1</ele>
        <time>2021-03-27T13:26:27Z</time>
      </trkpt>
      <trkpt lat="44.19885" lon="1.71988">
        <ele>287.2</ele>
        <time>2021-03-27T13:26:29Z</time>
      </trkpt>
      <trkpt lat="44.19886" lon="1.71985">
        <ele>287.3</ele>
        <time>2021-03-27T13:26:31Z</time>
      </trkpt>
      <trkpt lat="44.19889" lon="1.71978">
        <ele>287.5</ele>
        <time>2021-03-27T13:26:34Z</time>
      </trkpt>
      <trkpt lat="44.19895" lon="1.71973">
        <ele>287.8</ele>
        <time>2021-03-27T13:26:37Z</time>
      </trkpt>
      <trkpt lat="44.19901" lon="1.7197">
        <ele>288</ele>
        <time>2021-03-27T13:26:39Z</time>
      </trkpt>
      <trkpt lat="44.19904" lon="1.71966">
        <ele>288.2</ele>
        <time>2021-03-27T13:26:41Z</time>
      </trkpt>
      <trkpt lat="44.19905" lon="1.71965">
        <ele>288.2</ele>
        <time>2021-03-27T13:26:42Z</time>
      </trkpt>
      <trkpt lat="44.19903" lon="1.71969">
        <ele>288.3</ele>
        <time>2021-03-27T13:26:51Z</time>
      </trkpt>
      <trkpt lat="44.19901" lon="1.7197">
        <ele>288.4</ele>
        <time>2021-03-27T13:26:53Z</time>
      </trkpt>
      <trkpt lat="44.19898" lon="1.71973">
        <ele>288.6</ele>
        <time>2021-03-27T13:26:58Z</time>
      </trkpt>
      <trkpt lat="44.19903" lon="1.71977">
        <ele>288.8</ele>
        <time>2021-03-27T13:27:02Z</time>
      </trkpt>
      <trkpt lat="44.19909" lon="1.71977">
        <ele>289</ele>
        <time>2021-03-27T13:27:05Z</time>
      </trkpt>
      <trkpt lat="44.19914" lon="1.71975">
        <ele>289.2</ele>
        <time>2021-03-27T13:27:07Z</time>
      </trkpt>
      <trkpt lat="44.1992" lon="1.71974">
        <ele>289.4</ele>
        <time>2021-03-27T13:27:09Z</time>
      </trkpt>
      <trkpt lat="44.19926" lon="1.71972">
        <ele>289.7</ele>
        <time>2021-03-27T13:27:11Z</time>
      </trkpt>
      <trkpt lat="44.1993" lon="1.71967">
        <ele>289.9</ele>
        <time>2021-03-27T13:27:13Z</time>
      </trkpt>
      <trkpt lat="44.19936" lon="1.71962">
        <ele>290.1</ele>
        <time>2021-03-27T13:27:16Z</time>
      </trkpt>
      <trkpt lat="44.1994" lon="1.71961">
        <ele>290.3</ele>
        <time>2021-03-27T13:27:18Z</time>
      </trkpt>
      <trkpt lat="44.19946" lon="1.71962">
        <ele>290.5</ele>
        <time>2021-03-27T13:27:20Z</time>
      </trkpt>
      <trkpt lat="44.19951" lon="1.71963">
        <ele>290.7</ele>
        <time>2021-03-27T13:27:22Z</time>
      </trkpt>
      <trkpt lat="44.19957" lon="1.71964">
        <ele>290.9</ele>
        <time>2021-03-27T13:27:24Z</time>
      </trkpt>
      <trkpt lat="44.19961" lon="1.71965">
        <ele>291.1</ele>
        <time>2021-03-27T13:27:26Z</time>
      </trkpt>
      <trkpt lat="44.19965" lon="1.71966">
        <ele>291.3</ele>
        <time>2021-03-27T13:27:29Z</time>
      </trkpt>
      <trkpt lat="44.19966" lon="1.71968">
        <ele>291.3</ele>
        <time>2021-03-27T13:27:30Z</time>
      </trkpt>
      <trkpt lat="44.1997" lon="1.71976">
        <ele>291.6</ele>
        <time>2021-03-27T13:27:33Z</time>
      </trkpt>
      <trkpt lat="44.19972" lon="1.71982">
        <ele>291.8</ele>
        <time>2021-03-27T13:27:35Z</time>
      </trkpt>
      <trkpt lat="44.19971" lon="1.71985">
        <ele>291.8</ele>
        <time>2021-03-27T13:27:37Z</time>
      </trkpt>
      <trkpt lat="44.19969" lon="1.71989">
        <ele>291.9</ele>
        <time>2021-03-27T13:27:40Z</time>
      </trkpt>
      <trkpt lat="44.19965" lon="1.71995">
        <ele>292.2</ele>
        <time>2021-03-27T13:27:43Z</time>
      </trkpt>
      <trkpt lat="44.19963" lon="1.71997">
        <ele>292.3</ele>
        <time>2021-03-27T13:27:46Z</time>
      </trkpt>
      <trkpt lat="44.1996" lon="1.72">
        <ele>292.4</ele>
        <time>2021-03-27T13:28:08Z</time>
      </trkpt>
      <trkpt lat="44.19957" lon="1.72005">
        <ele>292.6</ele>
        <time>2021-03-27T13:28:10Z</time>
      </trkpt>
      <trkpt lat="44.19954" lon="1.72012">
        <ele>292.8</ele>
        <time>2021-03-27T13:28:12Z</time>
      </trkpt>
      <trkpt lat="44.19953" lon="1.72019">
        <ele>293</ele>
        <time>2021-03-27T13:28:14Z</time>
      </trkpt>
      <trkpt lat="44.19953" lon="1.72027">
        <ele>293.2</ele>
        <time>2021-03-27T13:28:16Z</time>
      </trkpt>
      <trkpt lat="44.19954" lon="1.72035">
        <ele>293.4</ele>
        <time>2021-03-27T13:28:19Z</time>
      </trkpt>
      <trkpt lat="44.19953" lon="1.72044">
        <ele>293.7</ele>
        <time>2021-03-27T13:28:22Z</time>
      </trkpt>
      <trkpt lat="44.19952" lon="1.72051">
        <ele>293.9</ele>
        <time>2021-03-27T13:28:24Z</time>
      </trkpt>
      <trkpt lat="44.1995" lon="1.72057">
        <ele>294.1</ele>
        <time>2021-03-27T13:28:26Z</time>
      </trkpt>
      <trkpt lat="44.1995" lon="1.72064">
        <ele>294.2</ele>
        <time>2021-03-27T13:28:28Z</time>
      </trkpt>
      <trkpt lat="44.19949" lon="1.72072">
        <ele>294.5</ele>
        <time>2021-03-27T13:28:31Z</time>
      </trkpt>
      <trkpt lat="44.1995" lon="1.72081">
        <ele>294.7</ele>
        <time>2021-03-27T13:28:34Z</time>
      </trkpt>
      <trkpt lat="44.19953" lon="1.72087">
        <ele>294.9</ele>
        <time>2021-03-27T13:28:37Z</time>
      </trkpt>
      <trkpt lat="44.19954" lon="1.72088">
        <ele>294.9</ele>
        <time>2021-03-27T13:28:38Z</time>
      </trkpt>
      <trkpt lat="44.19955" lon="1.72089">
        <ele>295</ele>
        <time>2021-03-27T13:28:39Z</time>
      </trkpt>
      <trkpt lat="44.19958" lon="1.72096">
        <ele>295.2</ele>
        <time>2021-03-27T13:28:42Z</time>
      </trkpt>
      <trkpt lat="44.1996" lon="1.72103">
        <ele>295.4</ele>
        <time>2021-03-27T13:28:45Z</time>
      </trkpt>
      <trkpt lat="44.19963" lon="1.7211">
        <ele>295.6</ele>
        <time>2021-03-27T13:28:48Z</time>
      </trkpt>
      <trkpt lat="44.19964" lon="1.72113">
        <ele>295.7</ele>
        <time>2021-03-27T13:28:50Z</time>
      </trkpt>
      <trkpt lat="44.19968" lon="1.72119">
        <ele>295.9</ele>
        <time>2021-03-27T13:29:12Z</time>
      </trkpt>
      <trkpt lat="44.19968" lon="1.7212">
        <ele>296.9</ele>
        <time>2021-03-27T13:29:13Z</time>
      </trkpt>
      <trkpt lat="44.19969" lon="1.72122">
        <ele>297.2</ele>
        <time>2021-03-27T13:29:14Z</time>
      </trkpt>
      <trkpt lat="44.19969" lon="1.72128">
        <ele>297.5</ele>
        <time>2021-03-27T13:29:21Z</time>
      </trkpt>
      <trkpt lat="44.19968" lon="1.72135">
        <ele>298.2</ele>
        <time>2021-03-27T13:29:28Z</time>
      </trkpt>
      <trkpt lat="44.19967" lon="1.72139">
        <ele>297.4</ele>
        <time>2021-03-27T13:29:31Z</time>
      </trkpt>
      <trkpt lat="44.19967" lon="1.7214">
        <ele>297.3</ele>
        <time>2021-03-27T13:29:32Z</time>
      </trkpt>
      <trkpt lat="44.19965" lon="1.72146">
        <ele>296.5</ele>
        <time>2021-03-27T13:29:36Z</time>
      </trkpt>
      <trkpt lat="44.19963" lon="1.72152">
        <ele>297.3</ele>
        <time>2021-03-27T13:29:41Z</time>
      </trkpt>
      <trkpt lat="44.1996" lon="1.72158">
        <ele>296.6</ele>
        <time>2021-03-27T13:29:46Z</time>
      </trkpt>
      <trkpt lat="44.1996" lon="1.72164">
        <ele>297.2</ele>
        <time>2021-03-27T13:29:49Z</time>
      </trkpt>
      <trkpt lat="44.1996" lon="1.72173">
        <ele>297.7</ele>
        <time>2021-03-27T13:29:53Z</time>
      </trkpt>
      <trkpt lat="44.19962" lon="1.7218">
        <ele>297.9</ele>
        <time>2021-03-27T13:29:57Z</time>
      </trkpt>
      <trkpt lat="44.19963" lon="1.72181">
        <ele>299</ele>
        <time>2021-03-27T13:29:58Z</time>
      </trkpt>
      <trkpt lat="44.19965" lon="1.72183">
        <ele>299.7</ele>
        <time>2021-03-27T13:30:00Z</time>
      </trkpt>
      <trkpt lat="44.19969" lon="1.72185">
        <ele>300.8</ele>
        <time>2021-03-27T13:30:03Z</time>
      </trkpt>
      <trkpt lat="44.1997" lon="1.72186">
        <ele>300.6</ele>
        <time>2021-03-27T13:30:04Z</time>
      </trkpt>
      <trkpt lat="44.19971" lon="1.72187">
        <ele>300.4</ele>
        <time>2021-03-27T13:30:05Z</time>
      </trkpt>
      <trkpt lat="44.19972" lon="1.72188">
        <ele>301.1</ele>
        <time>2021-03-27T13:30:06Z</time>
      </trkpt>
      <trkpt lat="44.19977" lon="1.72189">
        <ele>301.7</ele>
        <time>2021-03-27T13:30:10Z</time>
      </trkpt>
      <trkpt lat="44.19981" lon="1.72184">
        <ele>302.7</ele>
        <time>2021-03-27T13:30:13Z</time>
      </trkpt>
      <trkpt lat="44.19985" lon="1.72181">
        <ele>303.2</ele>
        <time>2021-03-27T13:30:15Z</time>
      </trkpt>
      <trkpt lat="44.1999" lon="1.72177">
        <ele>304.2</ele>
        <time>2021-03-27T13:30:17Z</time>
      </trkpt>
      <trkpt lat="44.19994" lon="1.72174">
        <ele>304.5</ele>
        <time>2021-03-27T13:30:19Z</time>
      </trkpt>
      <trkpt lat="44.19998" lon="1.72169">
        <ele>304.8</ele>
        <time>2021-03-27T13:30:21Z</time>
      </trkpt>
      <trkpt lat="44.20002" lon="1.72164">
        <ele>305</ele>
        <time>2021-03-27T13:30:23Z</time>
      </trkpt>
      <trkpt lat="44.20005" lon="1.72158">
        <ele>305.1</ele>
        <time>2021-03-27T13:30:25Z</time>
      </trkpt>
      <trkpt lat="44.20008" lon="1.72153">
        <ele>305.3</ele>
        <time>2021-03-27T13:30:27Z</time>
      </trkpt>
      <trkpt lat="44.20011" lon="1.72148">
        <ele>305.5</ele>
        <time>2021-03-27T13:30:29Z</time>
      </trkpt>
      <trkpt lat="44.20014" lon="1.72143">
        <ele>305.6</ele>
        <time>2021-03-27T13:30:32Z</time>
      </trkpt>
      <trkpt lat="44.20018" lon="1.72136">
        <ele>306</ele>
        <time>2021-03-27T13:30:35Z</time>
      </trkpt>
      <trkpt lat="44.20018" lon="1.72135">
        <ele>305.8</ele>
        <time>2021-03-27T13:30:37Z</time>
      </trkpt>
      <trkpt lat="44.20018" lon="1.72128">
        <ele>305.4</ele>
        <time>2021-03-27T13:30:46Z</time>
      </trkpt>
      <trkpt lat="44.20018" lon="1.72123">
        <ele>305.1</ele>
        <time>2021-03-27T13:30:50Z</time>
      </trkpt>
      <trkpt lat="44.20018" lon="1.72119">
        <ele>304.7</ele>
        <time>2021-03-27T13:30:52Z</time>
      </trkpt>
      <trkpt lat="44.20018" lon="1.72113">
        <ele>304.4</ele>
        <time>2021-03-27T13:31:00Z</time>
      </trkpt>
      <trkpt lat="44.20021" lon="1.72108">
        <ele>304.5</ele>
        <time>2021-03-27T13:31:03Z</time>
      </trkpt>
      <trkpt lat="44.20026" lon="1.72106">
        <ele>304.7</ele>
        <time>2021-03-27T13:31:07Z</time>
      </trkpt>
      <trkpt lat="44.2003" lon="1.72114">
        <ele>305.8</ele>
        <time>2021-03-27T13:31:11Z</time>
      </trkpt>
      <trkpt lat="44.20033" lon="1.72121">
        <ele>305.9</ele>
        <time>2021-03-27T13:31:14Z</time>
      </trkpt>
      <trkpt lat="44.20037" lon="1.72126">
        <ele>306.3</ele>
        <time>2021-03-27T13:31:17Z</time>
      </trkpt>
      <trkpt lat="44.20042" lon="1.7213">
        <ele>306.4</ele>
        <time>2021-03-27T13:31:20Z</time>
      </trkpt>
      <trkpt lat="44.20046" lon="1.72134">
        <ele>306.4</ele>
        <time>2021-03-27T13:31:23Z</time>
      </trkpt>
      <trkpt lat="44.2005" lon="1.7214">
        <ele>306.3</ele>
        <time>2021-03-27T13:31:26Z</time>
      </trkpt>
      <trkpt lat="44.20053" lon="1.72146">
        <ele>306.2</ele>
        <time>2021-03-27T13:31:29Z</time>
      </trkpt>
      <trkpt lat="44.20056" lon="1.72152">
        <ele>306.1</ele>
        <time>2021-03-27T13:31:32Z</time>
      </trkpt>
      <trkpt lat="44.20057" lon="1.7216">
        <ele>305.9</ele>
        <time>2021-03-27T13:31:36Z</time>
      </trkpt>
      <trkpt lat="44.20057" lon="1.72168">
        <ele>305.8</ele>
        <time>2021-03-27T13:31:39Z</time>
      </trkpt>
      <trkpt lat="44.2006" lon="1.72173">
        <ele>305.5</ele>
        <time>2021-03-27T13:31:42Z</time>
      </trkpt>
      <trkpt lat="44.20065" lon="1.72177">
        <ele>305.3</ele>
        <time>2021-03-27T13:31:45Z</time>
      </trkpt>
      <trkpt lat="44.2007" lon="1.72182">
        <ele>305.1</ele>
        <time>2021-03-27T13:31:48Z</time>
      </trkpt>
      <trkpt lat="44.20075" lon="1.72186">
        <ele>304.9</ele>
        <time>2021-03-27T13:31:51Z</time>
      </trkpt>
      <trkpt lat="44.20081" lon="1.72188">
        <ele>304.9</ele>
        <time>2021-03-27T13:31:55Z</time>
      </trkpt>
      <trkpt lat="44.20082" lon="1.72191">
        <ele>304.8</ele>
        <time>2021-03-27T13:31:57Z</time>
      </trkpt>
      <trkpt lat="44.20087" lon="1.72194">
        <ele>304.7</ele>
        <time>2021-03-27T13:32:00Z</time>
      </trkpt>
      <trkpt lat="44.20091" lon="1.72199">
        <ele>304.6</ele>
        <time>2021-03-27T13:32:03Z</time>
      </trkpt>
      <trkpt lat="44.20092" lon="1.722">
        <ele>304.6</ele>
        <time>2021-03-27T13:32:04Z</time>
      </trkpt>
      <trkpt lat="44.20089" lon="1.72203">
        <ele>304.3</ele>
        <time>2021-03-27T13:32:18Z</time>
      </trkpt>
      <trkpt lat="44.20084" lon="1.72205">
        <ele>303.9</ele>
        <time>2021-03-27T13:32:21Z</time>
      </trkpt>
      <trkpt lat="44.20081" lon="1.72211">
        <ele>303.5</ele>
        <time>2021-03-27T13:32:24Z</time>
      </trkpt>
      <trkpt lat="44.20077" lon="1.72218">
        <ele>303.2</ele>
        <time>2021-03-27T13:32:27Z</time>
      </trkpt>
      <trkpt lat="44.20075" lon="1.72226">
        <ele>302.9</ele>
        <time>2021-03-27T13:32:30Z</time>
      </trkpt>
      <trkpt lat="44.20074" lon="1.72233">
        <ele>302.7</ele>
        <time>2021-03-27T13:32:32Z</time>
      </trkpt>
      <trkpt lat="44.20072" lon="1.72239">
        <ele>302.5</ele>
        <time>2021-03-27T13:32:34Z</time>
      </trkpt>
      <trkpt lat="44.20072" lon="1.72247">
        <ele>302.7</ele>
        <time>2021-03-27T13:32:36Z</time>
      </trkpt>
      <trkpt lat="44.20073" lon="1.72254">
        <ele>302.9</ele>
        <time>2021-03-27T13:32:38Z</time>
      </trkpt>
      <trkpt lat="44.20074" lon="1.72261">
        <ele>303.1</ele>
        <time>2021-03-27T13:32:40Z</time>
      </trkpt>
      <trkpt lat="44.20074" lon="1.72268">
        <ele>303.3</ele>
        <time>2021-03-27T13:32:42Z</time>
      </trkpt>
      <trkpt lat="44.20072" lon="1.72276">
        <ele>303.5</ele>
        <time>2021-03-27T13:32:44Z</time>
      </trkpt>
      <trkpt lat="44.20071" lon="1.72283">
        <ele>303.7</ele>
        <time>2021-03-27T13:32:46Z</time>
      </trkpt>
      <trkpt lat="44.2007" lon="1.72289">
        <ele>303.9</ele>
        <time>2021-03-27T13:32:48Z</time>
      </trkpt>
      <trkpt lat="44.2007" lon="1.72296">
        <ele>304.1</ele>
        <time>2021-03-27T13:32:50Z</time>
      </trkpt>
      <trkpt lat="44.2007" lon="1.72302">
        <ele>304.2</ele>
        <time>2021-03-27T13:32:52Z</time>
      </trkpt>
      <trkpt lat="44.20069" lon="1.72311">
        <ele>304.6</ele>
        <time>2021-03-27T13:32:55Z</time>
      </trkpt>
      <trkpt lat="44.20066" lon="1.72317">
        <ele>304.5</ele>
        <time>2021-03-27T13:32:57Z</time>
      </trkpt>
      <trkpt lat="44.20063" lon="1.72323">
        <ele>304.5</ele>
        <time>2021-03-27T13:33:00Z</time>
      </trkpt>
      <trkpt lat="44.20061" lon="1.72332">
        <ele>304.5</ele>
        <time>2021-03-27T13:33:03Z</time>
      </trkpt>
      <trkpt lat="44.2006" lon="1.72339">
        <ele>304.4</ele>
        <time>2021-03-27T13:33:05Z</time>
      </trkpt>
      <trkpt lat="44.2006" lon="1.72346">
        <ele>304.4</ele>
        <time>2021-03-27T13:33:07Z</time>
      </trkpt>
      <trkpt lat="44.20059" lon="1.72353">
        <ele>304.4</ele>
        <time>2021-03-27T13:33:09Z</time>
      </trkpt>
      <trkpt lat="44.20062" lon="1.7236">
        <ele>304.3</ele>
        <time>2021-03-27T13:33:13Z</time>
      </trkpt>
      <trkpt lat="44.20066" lon="1.72363">
        <ele>304.3</ele>
        <time>2021-03-27T13:33:16Z</time>
      </trkpt>
      <trkpt lat="44.20071" lon="1.72361">
        <ele>304.3</ele>
        <time>2021-03-27T13:33:27Z</time>
      </trkpt>
      <trkpt lat="44.20072" lon="1.72354">
        <ele>304.2</ele>
        <time>2021-03-27T13:33:44Z</time>
      </trkpt>
      <trkpt lat="44.20073" lon="1.7236">
        <ele>304.2</ele>
        <time>2021-03-27T13:34:23Z</time>
      </trkpt>
      <trkpt lat="44.20077" lon="1.72364">
        <ele>304.2</ele>
        <time>2021-03-27T13:34:33Z</time>
      </trkpt>
      <trkpt lat="44.20074" lon="1.72371">
        <ele>304.1</ele>
        <time>2021-03-27T13:34:39Z</time>
      </trkpt>
      <trkpt lat="44.20074" lon="1.72372">
        <ele>304.1</ele>
        <time>2021-03-27T13:34:40Z</time>
      </trkpt>
      <trkpt lat="44.20073" lon="1.72375">
        <ele>304.1</ele>
        <time>2021-03-27T13:34:42Z</time>
      </trkpt>
      <trkpt lat="44.20071" lon="1.72381">
        <ele>304.1</ele>
        <time>2021-03-27T13:34:46Z</time>
      </trkpt>
      <trkpt lat="44.2007" lon="1.72384">
        <ele>304.1</ele>
        <time>2021-03-27T13:34:48Z</time>
      </trkpt>
      <trkpt lat="44.20068" lon="1.72391">
        <ele>304</ele>
        <time>2021-03-27T13:34:51Z</time>
      </trkpt>
      <trkpt lat="44.20066" lon="1.72397">
        <ele>304</ele>
        <time>2021-03-27T13:34:54Z</time>
      </trkpt>
      <trkpt lat="44.20064" lon="1.72402">
        <ele>304</ele>
        <time>2021-03-27T13:35:26Z</time>
      </trkpt>
      <trkpt lat="44.20063" lon="1.72409">
        <ele>303.9</ele>
        <time>2021-03-27T13:35:28Z</time>
      </trkpt>
      <trkpt lat="44.20061" lon="1.72416">
        <ele>303.9</ele>
        <time>2021-03-27T13:35:30Z</time>
      </trkpt>
      <trkpt lat="44.2006" lon="1.72424">
        <ele>303.9</ele>
        <time>2021-03-27T13:35:32Z</time>
      </trkpt>
      <trkpt lat="44.20059" lon="1.72432">
        <ele>303.8</ele>
        <time>2021-03-27T13:35:34Z</time>
      </trkpt>
      <trkpt lat="44.20058" lon="1.72441">
        <ele>303.8</ele>
        <time>2021-03-27T13:35:37Z</time>
      </trkpt>
      <trkpt lat="44.20056" lon="1.72448">
        <ele>303.8</ele>
        <time>2021-03-27T13:35:39Z</time>
      </trkpt>
      <trkpt lat="44.20055" lon="1.72455">
        <ele>303.7</ele>
        <time>2021-03-27T13:35:41Z</time>
      </trkpt>
      <trkpt lat="44.20052" lon="1.72462">
        <ele>303.7</ele>
        <time>2021-03-27T13:35:43Z</time>
      </trkpt>
      <trkpt lat="44.20047" lon="1.72467">
        <ele>303.6</ele>
        <time>2021-03-27T13:35:45Z</time>
      </trkpt>
      <trkpt lat="44.20041" lon="1.72466">
        <ele>303</ele>
        <time>2021-03-27T13:35:47Z</time>
      </trkpt>
      <trkpt lat="44.20036" lon="1.72462">
        <ele>302.3</ele>
        <time>2021-03-27T13:35:49Z</time>
      </trkpt>
      <trkpt lat="44.2003" lon="1.72459">
        <ele>301.6</ele>
        <time>2021-03-27T13:35:51Z</time>
      </trkpt>
      <trkpt lat="44.20024" lon="1.72458">
        <ele>301</ele>
        <time>2021-03-27T13:35:53Z</time>
      </trkpt>
      <trkpt lat="44.20017" lon="1.72457">
        <ele>300.5</ele>
        <time>2021-03-27T13:35:55Z</time>
      </trkpt>
      <trkpt lat="44.20011" lon="1.72457">
        <ele>300</ele>
        <time>2021-03-27T13:35:57Z</time>
      </trkpt>
      <trkpt lat="44.20005" lon="1.72457">
        <ele>299.7</ele>
        <time>2021-03-27T13:35:59Z</time>
      </trkpt>
      <trkpt lat="44.2" lon="1.72459">
        <ele>299.4</ele>
        <time>2021-03-27T13:36:01Z</time>
      </trkpt>
      <trkpt lat="44.19995" lon="1.72462">
        <ele>299.1</ele>
        <time>2021-03-27T13:36:03Z</time>
      </trkpt>
      <trkpt lat="44.19989" lon="1.72463">
        <ele>298.9</ele>
        <time>2021-03-27T13:36:05Z</time>
      </trkpt>
      <trkpt lat="44.19985" lon="1.72462">
        <ele>298.7</ele>
        <time>2021-03-27T13:36:08Z</time>
      </trkpt>
      <trkpt lat="44.19983" lon="1.72461">
        <ele>298.5</ele>
        <time>2021-03-27T13:36:10Z</time>
      </trkpt>
      <trkpt lat="44.19978" lon="1.72456">
        <ele>298.2</ele>
        <time>2021-03-27T13:36:14Z</time>
      </trkpt>
      <trkpt lat="44.19975" lon="1.72451">
        <ele>297.8</ele>
        <time>2021-03-27T13:36:18Z</time>
      </trkpt>
      <trkpt lat="44.1997" lon="1.72447">
        <ele>297.4</ele>
        <time>2021-03-27T13:36:21Z</time>
      </trkpt>
      <trkpt lat="44.19965" lon="1.72446">
        <ele>297.1</ele>
        <time>2021-03-27T13:36:23Z</time>
      </trkpt>
      <trkpt lat="44.19958" lon="1.72441">
        <ele>296.5</ele>
        <time>2021-03-27T13:36:25Z</time>
      </trkpt>
      <trkpt lat="44.19953" lon="1.72438">
        <ele>296.1</ele>
        <time>2021-03-27T13:36:26Z</time>
      </trkpt>
      <trkpt lat="44.19946" lon="1.72435">
        <ele>295.4</ele>
        <time>2021-03-27T13:36:27Z</time>
      </trkpt>
      <trkpt lat="44.19937" lon="1.72432">
        <ele>294.7</ele>
        <time>2021-03-27T13:36:28Z</time>
      </trkpt>
      <trkpt lat="44.19929" lon="1.7243">
        <ele>294</ele>
        <time>2021-03-27T13:36:29Z</time>
      </trkpt>
      <trkpt lat="44.19921" lon="1.72427">
        <ele>293.3</ele>
        <time>2021-03-27T13:36:30Z</time>
      </trkpt>
      <trkpt lat="44.19913" lon="1.72424">
        <ele>292.6</ele>
        <time>2021-03-27T13:36:31Z</time>
      </trkpt>
      <trkpt lat="44.19904" lon="1.72421">
        <ele>291.8</ele>
        <time>2021-03-27T13:36:32Z</time>
      </trkpt>
      <trkpt lat="44.19894" lon="1.72418">
        <ele>291.1</ele>
        <time>2021-03-27T13:36:33Z</time>
      </trkpt>
      <trkpt lat="44.19884" lon="1.72415">
        <ele>290.4</ele>
        <time>2021-03-27T13:36:34Z</time>
      </trkpt>
      <trkpt lat="44.19875" lon="1.72413">
        <ele>289.7</ele>
        <time>2021-03-27T13:36:35Z</time>
      </trkpt>
      <trkpt lat="44.19867" lon="1.72412">
        <ele>289.1</ele>
        <time>2021-03-27T13:36:36Z</time>
      </trkpt>
      <trkpt lat="44.1986" lon="1.72414">
        <ele>288.5</ele>
        <time>2021-03-27T13:36:37Z</time>
      </trkpt>
      <trkpt lat="44.19854" lon="1.72418">
        <ele>288</ele>
        <time>2021-03-27T13:36:38Z</time>
      </trkpt>
      <trkpt lat="44.19848" lon="1.72423">
        <ele>287.5</ele>
        <time>2021-03-27T13:36:39Z</time>
      </trkpt>
      <trkpt lat="44.19842" lon="1.7243">
        <ele>286.9</ele>
        <time>2021-03-27T13:36:40Z</time>
      </trkpt>
      <trkpt lat="44.19837" lon="1.72438">
        <ele>286.4</ele>
        <time>2021-03-27T13:36:41Z</time>
      </trkpt>
      <trkpt lat="44.19833" lon="1.72444">
        <ele>285.9</ele>
        <time>2021-03-27T13:36:42Z</time>
      </trkpt>
      <trkpt lat="44.19829" lon="1.7245">
        <ele>285.5</ele>
        <time>2021-03-27T13:36:43Z</time>
      </trkpt>
      <trkpt lat="44.19826" lon="1.72456">
        <ele>279.2</ele>
        <time>2021-03-27T13:36:44Z</time>
      </trkpt>
      <trkpt lat="44.19822" lon="1.7246">
        <ele>278.6</ele>
        <time>2021-03-27T13:36:46Z</time>
      </trkpt>
      <trkpt lat="44.19823" lon="1.72451">
        <ele>277.9</ele>
        <time>2021-03-27T13:36:49Z</time>
      </trkpt>
      <trkpt lat="44.19826" lon="1.72446">
        <ele>277.5</ele>
        <time>2021-03-27T13:36:50Z</time>
      </trkpt>
      <trkpt lat="44.19829" lon="1.7244">
        <ele>277.2</ele>
        <time>2021-03-27T13:36:51Z</time>
      </trkpt>
      <trkpt lat="44.19831" lon="1.72435">
        <ele>276.8</ele>
        <time>2021-03-27T13:36:52Z</time>
      </trkpt>
      <trkpt lat="44.19834" lon="1.72429">
        <ele>276.4</ele>
        <time>2021-03-27T13:36:53Z</time>
      </trkpt>
      <trkpt lat="44.19837" lon="1.72423">
        <ele>276</ele>
        <time>2021-03-27T13:36:54Z</time>
      </trkpt>
      <trkpt lat="44.1984" lon="1.72417">
        <ele>275.6</ele>
        <time>2021-03-27T13:36:55Z</time>
      </trkpt>
      <trkpt lat="44.19844" lon="1.72411">
        <ele>275.1</ele>
        <time>2021-03-27T13:36:56Z</time>
      </trkpt>
      <trkpt lat="44.19848" lon="1.72404">
        <ele>274.6</ele>
        <time>2021-03-27T13:36:57Z</time>
      </trkpt>
      <trkpt lat="44.19852" lon="1.72397">
        <ele>274.1</ele>
        <time>2021-03-27T13:36:58Z</time>
      </trkpt>
      <trkpt lat="44.19856" lon="1.72392">
        <ele>273.5</ele>
        <time>2021-03-27T13:36:59Z</time>
      </trkpt>
      <trkpt lat="44.19862" lon="1.72388">
        <ele>273</ele>
        <time>2021-03-27T13:37:00Z</time>
      </trkpt>
      <trkpt lat="44.19868" lon="1.72387">
        <ele>272.6</ele>
        <time>2021-03-27T13:37:01Z</time>
      </trkpt>
      <trkpt lat="44.19875" lon="1.72387">
        <ele>272.1</ele>
        <time>2021-03-27T13:37:02Z</time>
      </trkpt>
      <trkpt lat="44.19882" lon="1.72386">
        <ele>271.6</ele>
        <time>2021-03-27T13:37:03Z</time>
      </trkpt>
      <trkpt lat="44.19888" lon="1.72384">
        <ele>271</ele>
        <time>2021-03-27T13:37:04Z</time>
      </trkpt>
      <trkpt lat="44.19894" lon="1.72382">
        <ele>270.4</ele>
        <time>2021-03-27T13:37:05Z</time>
      </trkpt>
      <trkpt lat="44.19899" lon="1.72379">
        <ele>269.7</ele>
        <time>2021-03-27T13:37:06Z</time>
      </trkpt>
      <trkpt lat="44.19904" lon="1.72375">
        <ele>269</ele>
        <time>2021-03-27T13:37:07Z</time>
      </trkpt>
      <trkpt lat="44.19905" lon="1.72364">
        <ele>268</ele>
        <time>2021-03-27T13:37:09Z</time>
      </trkpt>
      <trkpt lat="44.19902" lon="1.72356">
        <ele>267.2</ele>
        <time>2021-03-27T13:37:10Z</time>
      </trkpt>
      <trkpt lat="44.19896" lon="1.72346">
        <ele>266.2</ele>
        <time>2021-03-27T13:37:11Z</time>
      </trkpt>
      <trkpt lat="44.1989" lon="1.72337">
        <ele>265.2</ele>
        <time>2021-03-27T13:37:12Z</time>
      </trkpt>
      <trkpt lat="44.19885" lon="1.72327">
        <ele>264.3</ele>
        <time>2021-03-27T13:37:13Z</time>
      </trkpt>
      <trkpt lat="44.1988" lon="1.72317">
        <ele>263.5</ele>
        <time>2021-03-27T13:37:14Z</time>
      </trkpt>
      <trkpt lat="44.19875" lon="1.72307">
        <ele>262.7</ele>
        <time>2021-03-27T13:37:15Z</time>
      </trkpt>
      <trkpt lat="44.19871" lon="1.72297">
        <ele>262</ele>
        <time>2021-03-27T13:37:16Z</time>
      </trkpt>
      <trkpt lat="44.19869" lon="1.72287">
        <ele>261.4</ele>
        <time>2021-03-27T13:37:17Z</time>
      </trkpt>
      <trkpt lat="44.19868" lon="1.72278">
        <ele>260.9</ele>
        <time>2021-03-27T13:37:18Z</time>
      </trkpt>
      <trkpt lat="44.19868" lon="1.72269">
        <ele>260.4</ele>
        <time>2021-03-27T13:37:19Z</time>
      </trkpt>
      <trkpt lat="44.19868" lon="1.72261">
        <ele>259.9</ele>
        <time>2021-03-27T13:37:20Z</time>
      </trkpt>
      <trkpt lat="44.19869" lon="1.72254">
        <ele>259.5</ele>
        <time>2021-03-27T13:37:21Z</time>
      </trkpt>
      <trkpt lat="44.19872" lon="1.72247">
        <ele>259.1</ele>
        <time>2021-03-27T13:37:22Z</time>
      </trkpt>
      <trkpt lat="44.19874" lon="1.7224">
        <ele>258.7</ele>
        <time>2021-03-27T13:37:23Z</time>
      </trkpt>
      <trkpt lat="44.19877" lon="1.72233">
        <ele>258.3</ele>
        <time>2021-03-27T13:37:24Z</time>
      </trkpt>
      <trkpt lat="44.1988" lon="1.72225">
        <ele>257.9</ele>
        <time>2021-03-27T13:37:25Z</time>
      </trkpt>
      <trkpt lat="44.19882" lon="1.72217">
        <ele>257.6</ele>
        <time>2021-03-27T13:37:26Z</time>
      </trkpt>
      <trkpt lat="44.19885" lon="1.72209">
        <ele>257.3</ele>
        <time>2021-03-27T13:37:27Z</time>
      </trkpt>
      <trkpt lat="44.19888" lon="1.722">
        <ele>257</ele>
        <time>2021-03-27T13:37:28Z</time>
      </trkpt>
      <trkpt lat="44.19891" lon="1.72191">
        <ele>256.7</ele>
        <time>2021-03-27T13:37:29Z</time>
      </trkpt>
      <trkpt lat="44.19894" lon="1.72182">
        <ele>256.4</ele>
        <time>2021-03-27T13:37:30Z</time>
      </trkpt>
      <trkpt lat="44.19896" lon="1.72172">
        <ele>256.1</ele>
        <time>2021-03-27T13:37:31Z</time>
      </trkpt>
      <trkpt lat="44.19898" lon="1.72162">
        <ele>255.8</ele>
        <time>2021-03-27T13:37:32Z</time>
      </trkpt>
      <trkpt lat="44.199" lon="1.72152">
        <ele>255.5</ele>
        <time>2021-03-27T13:37:33Z</time>
      </trkpt>
      <trkpt lat="44.19901" lon="1.72143">
        <ele>255.1</ele>
        <time>2021-03-27T13:37:34Z</time>
      </trkpt>
      <trkpt lat="44.19903" lon="1.72133">
        <ele>254.6</ele>
        <time>2021-03-27T13:37:35Z</time>
      </trkpt>
      <trkpt lat="44.19903" lon="1.72124">
        <ele>254.3</ele>
        <time>2021-03-27T13:37:36Z</time>
      </trkpt>
      <trkpt lat="44.19903" lon="1.72117">
        <ele>254.1</ele>
        <time>2021-03-27T13:37:37Z</time>
      </trkpt>
      <trkpt lat="44.19903" lon="1.72108">
        <ele>253.8</ele>
        <time>2021-03-27T13:37:38Z</time>
      </trkpt>
      <trkpt lat="44.19903" lon="1.721">
        <ele>253.6</ele>
        <time>2021-03-27T13:37:39Z</time>
      </trkpt>
      <trkpt lat="44.19904" lon="1.72091">
        <ele>253.3</ele>
        <time>2021-03-27T13:37:40Z</time>
      </trkpt>
      <trkpt lat="44.19904" lon="1.72082">
        <ele>252.9</ele>
        <time>2021-03-27T13:37:41Z</time>
      </trkpt>
      <trkpt lat="44.19904" lon="1.72075">
        <ele>252.5</ele>
        <time>2021-03-27T13:37:42Z</time>
      </trkpt>
      <trkpt lat="44.19904" lon="1.72068">
        <ele>252.1</ele>
        <time>2021-03-27T13:37:43Z</time>
      </trkpt>
      <trkpt lat="44.19902" lon="1.7206">
        <ele>251.4</ele>
        <time>2021-03-27T13:37:45Z</time>
      </trkpt>
      <trkpt lat="44.19901" lon="1.72059">
        <ele>251.3</ele>
        <time>2021-03-27T13:37:46Z</time>
      </trkpt>
      <trkpt lat="44.199" lon="1.72062">
        <ele>251</ele>
        <time>2021-03-27T13:37:48Z</time>
      </trkpt>
      <trkpt lat="44.199" lon="1.72064">
        <ele>250.9</ele>
        <time>2021-03-27T13:37:49Z</time>
      </trkpt>
      <trkpt lat="44.19901" lon="1.72066">
        <ele>250.7</ele>
        <time>2021-03-27T13:37:50Z</time>
      </trkpt>
      <trkpt lat="44.19901" lon="1.72066">
        <ele>250.7</ele>
        <time>2021-03-27T13:37:51Z</time>
      </trkpt>
      <trkpt lat="44.19902" lon="1.72071">
        <ele>250.3</ele>
        <time>2021-03-27T13:38:45Z</time>
      </trkpt>
      <trkpt lat="44.19898" lon="1.72078">
        <ele>249.7</ele>
        <time>2021-03-27T13:38:47Z</time>
      </trkpt>
      <trkpt lat="44.19894" lon="1.72088">
        <ele>248.8</ele>
        <time>2021-03-27T13:38:49Z</time>
      </trkpt>
      <trkpt lat="44.1989" lon="1.72096">
        <ele>248.2</ele>
        <time>2021-03-27T13:38:51Z</time>
      </trkpt>
      <trkpt lat="44.19887" lon="1.72105">
        <ele>247.5</ele>
        <time>2021-03-27T13:38:53Z</time>
      </trkpt>
      <trkpt lat="44.19884" lon="1.72117">
        <ele>246.8</ele>
        <time>2021-03-27T13:38:55Z</time>
      </trkpt>
      <trkpt lat="44.19883" lon="1.72124">
        <ele>246.2</ele>
        <time>2021-03-27T13:38:56Z</time>
      </trkpt>
      <trkpt lat="44.19882" lon="1.72133">
        <ele>245.7</ele>
        <time>2021-03-27T13:38:57Z</time>
      </trkpt>
      <trkpt lat="44.1988" lon="1.72142">
        <ele>245</ele>
        <time>2021-03-27T13:38:58Z</time>
      </trkpt>
      <trkpt lat="44.19879" lon="1.72151">
        <ele>244.4</ele>
        <time>2021-03-27T13:38:59Z</time>
      </trkpt>
      <trkpt lat="44.19878" lon="1.7216">
        <ele>243.8</ele>
        <time>2021-03-27T13:39:00Z</time>
      </trkpt>
      <trkpt lat="44.19877" lon="1.72168">
        <ele>243.3</ele>
        <time>2021-03-27T13:39:01Z</time>
      </trkpt>
      <trkpt lat="44.19875" lon="1.72175">
        <ele>242.9</ele>
        <time>2021-03-27T13:39:02Z</time>
      </trkpt>
      <trkpt lat="44.19873" lon="1.72181">
        <ele>242.5</ele>
        <time>2021-03-27T13:39:03Z</time>
      </trkpt>
      <trkpt lat="44.19871" lon="1.72188">
        <ele>242.1</ele>
        <time>2021-03-27T13:39:04Z</time>
      </trkpt>
      <trkpt lat="44.19869" lon="1.72196">
        <ele>241.7</ele>
        <time>2021-03-27T13:39:05Z</time>
      </trkpt>
      <trkpt lat="44.19866" lon="1.72204">
        <ele>241.2</ele>
        <time>2021-03-27T13:39:06Z</time>
      </trkpt>
      <trkpt lat="44.19863" lon="1.72215">
        <ele>240.5</ele>
        <time>2021-03-27T13:39:07Z</time>
      </trkpt>
      <trkpt lat="44.1986" lon="1.72226">
        <ele>239.8</ele>
        <time>2021-03-27T13:39:08Z</time>
      </trkpt>
      <trkpt lat="44.19858" lon="1.72236">
        <ele>239.2</ele>
        <time>2021-03-27T13:39:09Z</time>
      </trkpt>
      <trkpt lat="44.19856" lon="1.72246">
        <ele>238.6</ele>
        <time>2021-03-27T13:39:10Z</time>
      </trkpt>
      <trkpt lat="44.19854" lon="1.72258">
        <ele>238</ele>
        <time>2021-03-27T13:39:11Z</time>
      </trkpt>
      <trkpt lat="44.19852" lon="1.72269">
        <ele>237.4</ele>
        <time>2021-03-27T13:39:12Z</time>
      </trkpt>
      <trkpt lat="44.1985" lon="1.72279">
        <ele>236.8</ele>
        <time>2021-03-27T13:39:13Z</time>
      </trkpt>
      <trkpt lat="44.19847" lon="1.72289">
        <ele>236.3</ele>
        <time>2021-03-27T13:39:14Z</time>
      </trkpt>
      <trkpt lat="44.19842" lon="1.72299">
        <ele>235.7</ele>
        <time>2021-03-27T13:39:15Z</time>
      </trkpt>
      <trkpt lat="44.19837" lon="1.72308">
        <ele>235.1</ele>
        <time>2021-03-27T13:39:16Z</time>
      </trkpt>
      <trkpt lat="44.19832" lon="1.72316">
        <ele>234.4</ele>
        <time>2021-03-27T13:39:17Z</time>
      </trkpt>
      <trkpt lat="44.19828" lon="1.72322">
        <ele>233.9</ele>
        <time>2021-03-27T13:39:18Z</time>
      </trkpt>
      <trkpt lat="44.19823" lon="1.72327">
        <ele>233.4</ele>
        <time>2021-03-27T13:39:19Z</time>
      </trkpt>
      <trkpt lat="44.19818" lon="1.7233">
        <ele>232.8</ele>
        <time>2021-03-27T13:39:20Z</time>
      </trkpt>
      <trkpt lat="44.19812" lon="1.72333">
        <ele>232.3</ele>
        <time>2021-03-27T13:39:21Z</time>
      </trkpt>
      <trkpt lat="44.19807" lon="1.72337">
        <ele>231.8</ele>
        <time>2021-03-27T13:39:22Z</time>
      </trkpt>
      <trkpt lat="44.19801" lon="1.72341">
        <ele>231.3</ele>
        <time>2021-03-27T13:39:23Z</time>
      </trkpt>
      <trkpt lat="44.19795" lon="1.72346">
        <ele>230.7</ele>
        <time>2021-03-27T13:39:24Z</time>
      </trkpt>
      <trkpt lat="44.19789" lon="1.72352">
        <ele>230.1</ele>
        <time>2021-03-27T13:39:25Z</time>
      </trkpt>
      <trkpt lat="44.19784" lon="1.72358">
        <ele>229.5</ele>
        <time>2021-03-27T13:39:26Z</time>
      </trkpt>
      <trkpt lat="44.19778" lon="1.72364">
        <ele>229</ele>
        <time>2021-03-27T13:39:27Z</time>
      </trkpt>
      <trkpt lat="44.19773" lon="1.72369">
        <ele>228.5</ele>
        <time>2021-03-27T13:39:28Z</time>
      </trkpt>
      <trkpt lat="44.19769" lon="1.72375">
        <ele>228.1</ele>
        <time>2021-03-27T13:39:29Z</time>
      </trkpt>
      <trkpt lat="44.19765" lon="1.7238">
        <ele>227.7</ele>
        <time>2021-03-27T13:39:30Z</time>
      </trkpt>
      <trkpt lat="44.1976" lon="1.72387">
        <ele>227.3</ele>
        <time>2021-03-27T13:39:31Z</time>
      </trkpt>
      <trkpt lat="44.19756" lon="1.72393">
        <ele>226.8</ele>
        <time>2021-03-27T13:39:32Z</time>
      </trkpt>
      <trkpt lat="44.19752" lon="1.72402">
        <ele>226.4</ele>
        <time>2021-03-27T13:39:33Z</time>
      </trkpt>
      <trkpt lat="44.19747" lon="1.72409">
        <ele>225.9</ele>
        <time>2021-03-27T13:39:34Z</time>
      </trkpt>
      <trkpt lat="44.19743" lon="1.72417">
        <ele>225.5</ele>
        <time>2021-03-27T13:39:35Z</time>
      </trkpt>
      <trkpt lat="44.19739" lon="1.72425">
        <ele>225.1</ele>
        <time>2021-03-27T13:39:36Z</time>
      </trkpt>
      <trkpt lat="44.19735" lon="1.72434">
        <ele>224.8</ele>
        <time>2021-03-27T13:39:37Z</time>
      </trkpt>
      <trkpt lat="44.1973" lon="1.72442">
        <ele>224.4</ele>
        <time>2021-03-27T13:39:38Z</time>
      </trkpt>
      <trkpt lat="44.19725" lon="1.7245">
        <ele>224.1</ele>
        <time>2021-03-27T13:39:39Z</time>
      </trkpt>
      <trkpt lat="44.19722" lon="1.72459">
        <ele>223.8</ele>
        <time>2021-03-27T13:39:40Z</time>
      </trkpt>
      <trkpt lat="44.19717" lon="1.72469">
        <ele>223.5</ele>
        <time>2021-03-27T13:39:41Z</time>
      </trkpt>
      <trkpt lat="44.19713" lon="1.72479">
        <ele>223.1</ele>
        <time>2021-03-27T13:39:42Z</time>
      </trkpt>
      <trkpt lat="44.19708" lon="1.72488">
        <ele>222.8</ele>
        <time>2021-03-27T13:39:43Z</time>
      </trkpt>
      <trkpt lat="44.19703" lon="1.72498">
        <ele>222.4</ele>
        <time>2021-03-27T13:39:44Z</time>
      </trkpt>
      <trkpt lat="44.19697" lon="1.72506">
        <ele>222</ele>
        <time>2021-03-27T13:39:45Z</time>
      </trkpt>
      <trkpt lat="44.19691" lon="1.72513">
        <ele>221.7</ele>
        <time>2021-03-27T13:39:46Z</time>
      </trkpt>
      <trkpt lat="44.19685" lon="1.7252">
        <ele>221.3</ele>
        <time>2021-03-27T13:39:47Z</time>
      </trkpt>
      <trkpt lat="44.19679" lon="1.72527">
        <ele>221</ele>
        <time>2021-03-27T13:39:48Z</time>
      </trkpt>
      <trkpt lat="44.19674" lon="1.72533">
        <ele>220.8</ele>
        <time>2021-03-27T13:39:49Z</time>
      </trkpt>
      <trkpt lat="44.1967" lon="1.72538">
        <ele>220.5</ele>
        <time>2021-03-27T13:39:50Z</time>
      </trkpt>
      <trkpt lat="44.19667" lon="1.72544">
        <ele>220.3</ele>
        <time>2021-03-27T13:39:51Z</time>
      </trkpt>
      <trkpt lat="44.19663" lon="1.72551">
        <ele>220.1</ele>
        <time>2021-03-27T13:39:52Z</time>
      </trkpt>
      <trkpt lat="44.19661" lon="1.72557">
        <ele>219.9</ele>
        <time>2021-03-27T13:39:53Z</time>
      </trkpt>
      <trkpt lat="44.19658" lon="1.72563">
        <ele>219.7</ele>
        <time>2021-03-27T13:39:54Z</time>
      </trkpt>
      <trkpt lat="44.19655" lon="1.72568">
        <ele>219.5</ele>
        <time>2021-03-27T13:39:55Z</time>
      </trkpt>
      <trkpt lat="44.19651" lon="1.72572">
        <ele>219.3</ele>
        <time>2021-03-27T13:39:56Z</time>
      </trkpt>
      <trkpt lat="44.19648" lon="1.72577">
        <ele>219.2</ele>
        <time>2021-03-27T13:39:57Z</time>
      </trkpt>
      <trkpt lat="44.19644" lon="1.72585">
        <ele>218.9</ele>
        <time>2021-03-27T13:39:59Z</time>
      </trkpt>
      <trkpt lat="44.1964" lon="1.72592">
        <ele>218.7</ele>
        <time>2021-03-27T13:40:01Z</time>
      </trkpt>
      <trkpt lat="44.19637" lon="1.72597">
        <ele>218.5</ele>
        <time>2021-03-27T13:40:03Z</time>
      </trkpt>
      <trkpt lat="44.19634" lon="1.72602">
        <ele>218.3</ele>
        <time>2021-03-27T13:40:05Z</time>
      </trkpt>
      <trkpt lat="44.1963" lon="1.72607">
        <ele>218.1</ele>
        <time>2021-03-27T13:40:07Z</time>
      </trkpt>
      <trkpt lat="44.19625" lon="1.72611">
        <ele>217.9</ele>
        <time>2021-03-27T13:40:09Z</time>
      </trkpt>
      <trkpt lat="44.19621" lon="1.72615">
        <ele>217.7</ele>
        <time>2021-03-27T13:40:11Z</time>
      </trkpt>
      <trkpt lat="44.19616" lon="1.72622">
        <ele>217.4</ele>
        <time>2021-03-27T13:40:14Z</time>
      </trkpt>
      <trkpt lat="44.19612" lon="1.72626">
        <ele>217.3</ele>
        <time>2021-03-27T13:40:16Z</time>
      </trkpt>
      <trkpt lat="44.19607" lon="1.7263">
        <ele>217.1</ele>
        <time>2021-03-27T13:40:18Z</time>
      </trkpt>
      <trkpt lat="44.19599" lon="1.72635">
        <ele>216.9</ele>
        <time>2021-03-27T13:40:20Z</time>
      </trkpt>
      <trkpt lat="44.19595" lon="1.72639">
        <ele>216.8</ele>
        <time>2021-03-27T13:40:21Z</time>
      </trkpt>
      <trkpt lat="44.19592" lon="1.72648">
        <ele>216.5</ele>
        <time>2021-03-27T13:40:23Z</time>
      </trkpt>
      <trkpt lat="44.1959" lon="1.72655">
        <ele>216.3</ele>
        <time>2021-03-27T13:40:25Z</time>
      </trkpt>
      <trkpt lat="44.19587" lon="1.72662">
        <ele>216.2</ele>
        <time>2021-03-27T13:40:27Z</time>
      </trkpt>
      <trkpt lat="44.19586" lon="1.72669">
        <ele>216</ele>
        <time>2021-03-27T13:40:29Z</time>
      </trkpt>
      <trkpt lat="44.19588" lon="1.72677">
        <ele>215.7</ele>
        <time>2021-03-27T13:40:31Z</time>
      </trkpt>
      <trkpt lat="44.19589" lon="1.72683">
        <ele>215.6</ele>
        <time>2021-03-27T13:40:33Z</time>
      </trkpt>
      <trkpt lat="44.19589" lon="1.72692">
        <ele>215.3</ele>
        <time>2021-03-27T13:40:36Z</time>
      </trkpt>
      <trkpt lat="44.1959" lon="1.72699">
        <ele>215.2</ele>
        <time>2021-03-27T13:40:38Z</time>
      </trkpt>
      <trkpt lat="44.19592" lon="1.72706">
        <ele>215</ele>
        <time>2021-03-27T13:40:40Z</time>
      </trkpt>
      <trkpt lat="44.19593" lon="1.72713">
        <ele>214.9</ele>
        <time>2021-03-27T13:40:42Z</time>
      </trkpt>
      <trkpt lat="44.19593" lon="1.7272">
        <ele>214.8</ele>
        <time>2021-03-27T13:40:44Z</time>
      </trkpt>
      <trkpt lat="44.19592" lon="1.72727">
        <ele>214.6</ele>
        <time>2021-03-27T13:40:47Z</time>
      </trkpt>
      <trkpt lat="44.19594" lon="1.72735">
        <ele>214.5</ele>
        <time>2021-03-27T13:40:50Z</time>
      </trkpt>
      <trkpt lat="44.19596" lon="1.72741">
        <ele>214.4</ele>
        <time>2021-03-27T13:40:52Z</time>
      </trkpt>
      <trkpt lat="44.19597" lon="1.72747">
        <ele>214.4</ele>
        <time>2021-03-27T13:40:54Z</time>
      </trkpt>
      <trkpt lat="44.19598" lon="1.72753">
        <ele>214.4</ele>
        <time>2021-03-27T13:40:56Z</time>
      </trkpt>
      <trkpt lat="44.19598" lon="1.7276">
        <ele>214.3</ele>
        <time>2021-03-27T13:40:59Z</time>
      </trkpt>
      <trkpt lat="44.19599" lon="1.7277">
        <ele>214.3</ele>
        <time>2021-03-27T13:41:01Z</time>
      </trkpt>
      <trkpt lat="44.196" lon="1.72779">
        <ele>214.3</ele>
        <time>2021-03-27T13:41:03Z</time>
      </trkpt>
      <trkpt lat="44.19601" lon="1.72787">
        <ele>214.3</ele>
        <time>2021-03-27T13:41:05Z</time>
      </trkpt>
      <trkpt lat="44.19602" lon="1.72797">
        <ele>214.3</ele>
        <time>2021-03-27T13:41:07Z</time>
      </trkpt>
      <trkpt lat="44.19603" lon="1.72809">
        <ele>214.3</ele>
        <time>2021-03-27T13:41:09Z</time>
      </trkpt>
      <trkpt lat="44.19603" lon="1.72816">
        <ele>214.3</ele>
        <time>2021-03-27T13:41:10Z</time>
      </trkpt>
      <trkpt lat="44.19604" lon="1.72828">
        <ele>214.3</ele>
        <time>2021-03-27T13:41:12Z</time>
      </trkpt>
      <trkpt lat="44.19604" lon="1.72835">
        <ele>214.3</ele>
        <time>2021-03-27T13:41:13Z</time>
      </trkpt>
      <trkpt lat="44.19604" lon="1.72841">
        <ele>214.3</ele>
        <time>2021-03-27T13:41:14Z</time>
      </trkpt>
      <trkpt lat="44.19605" lon="1.72852">
        <ele>214.3</ele>
        <time>2021-03-27T13:41:16Z</time>
      </trkpt>
      <trkpt lat="44.19606" lon="1.72863">
        <ele>214.2</ele>
        <time>2021-03-27T13:41:18Z</time>
      </trkpt>
      <trkpt lat="44.19607" lon="1.72869">
        <ele>214.1</ele>
        <time>2021-03-27T13:41:19Z</time>
      </trkpt>
      <trkpt lat="44.19609" lon="1.72876">
        <ele>214</ele>
        <time>2021-03-27T13:41:20Z</time>
      </trkpt>
      <trkpt lat="44.19611" lon="1.72883">
        <ele>213.8</ele>
        <time>2021-03-27T13:41:21Z</time>
      </trkpt>
      <trkpt lat="44.19613" lon="1.7289">
        <ele>213.6</ele>
        <time>2021-03-27T13:41:22Z</time>
      </trkpt>
      <trkpt lat="44.19616" lon="1.72897">
        <ele>213.4</ele>
        <time>2021-03-27T13:41:23Z</time>
      </trkpt>
      <trkpt lat="44.19618" lon="1.72905">
        <ele>213.2</ele>
        <time>2021-03-27T13:41:24Z</time>
      </trkpt>
      <trkpt lat="44.1962" lon="1.72914">
        <ele>213.1</ele>
        <time>2021-03-27T13:41:25Z</time>
      </trkpt>
      <trkpt lat="44.19623" lon="1.72922">
        <ele>213</ele>
        <time>2021-03-27T13:41:26Z</time>
      </trkpt>
      <trkpt lat="44.19625" lon="1.7293">
        <ele>213</ele>
        <time>2021-03-27T13:41:27Z</time>
      </trkpt>
      <trkpt lat="44.19626" lon="1.72937">
        <ele>213.1</ele>
        <time>2021-03-27T13:41:28Z</time>
      </trkpt>
      <trkpt lat="44.19628" lon="1.72943">
        <ele>213.1</ele>
        <time>2021-03-27T13:41:29Z</time>
      </trkpt>
      <trkpt lat="44.1963" lon="1.72954">
        <ele>213.2</ele>
        <time>2021-03-27T13:41:31Z</time>
      </trkpt>
      <trkpt lat="44.19632" lon="1.72961">
        <ele>213.2</ele>
        <time>2021-03-27T13:41:32Z</time>
      </trkpt>
      <trkpt lat="44.19633" lon="1.72969">
        <ele>213.2</ele>
        <time>2021-03-27T13:41:33Z</time>
      </trkpt>
      <trkpt lat="44.19633" lon="1.72976">
        <ele>213.1</ele>
        <time>2021-03-27T13:41:34Z</time>
      </trkpt>
      <trkpt lat="44.19632" lon="1.72983">
        <ele>213.1</ele>
        <time>2021-03-27T13:41:35Z</time>
      </trkpt>
      <trkpt lat="44.19632" lon="1.7299">
        <ele>212.9</ele>
        <time>2021-03-27T13:41:36Z</time>
      </trkpt>
      <trkpt lat="44.19629" lon="1.73002">
        <ele>212.6</ele>
        <time>2021-03-27T13:41:38Z</time>
      </trkpt>
      <trkpt lat="44.19629" lon="1.73009">
        <ele>212.4</ele>
        <time>2021-03-27T13:41:39Z</time>
      </trkpt>
      <trkpt lat="44.19627" lon="1.73016">
        <ele>212.1</ele>
        <time>2021-03-27T13:41:40Z</time>
      </trkpt>
      <trkpt lat="44.19626" lon="1.73023">
        <ele>211.7</ele>
        <time>2021-03-27T13:41:41Z</time>
      </trkpt>
      <trkpt lat="44.19624" lon="1.73031">
        <ele>211.2</ele>
        <time>2021-03-27T13:41:42Z</time>
      </trkpt>
      <trkpt lat="44.19622" lon="1.73038">
        <ele>210.7</ele>
        <time>2021-03-27T13:41:43Z</time>
      </trkpt>
      <trkpt lat="44.1962" lon="1.73045">
        <ele>210.2</ele>
        <time>2021-03-27T13:41:44Z</time>
      </trkpt>
      <trkpt lat="44.19619" lon="1.73052">
        <ele>209.7</ele>
        <time>2021-03-27T13:41:45Z</time>
      </trkpt>
      <trkpt lat="44.19618" lon="1.73061">
        <ele>209.2</ele>
        <time>2021-03-27T13:41:46Z</time>
      </trkpt>
      <trkpt lat="44.19616" lon="1.73071">
        <ele>208.8</ele>
        <time>2021-03-27T13:41:47Z</time>
      </trkpt>
      <trkpt lat="44.19615" lon="1.73081">
        <ele>208.5</ele>
        <time>2021-03-27T13:41:48Z</time>
      </trkpt>
      <trkpt lat="44.19612" lon="1.73091">
        <ele>208.2</ele>
        <time>2021-03-27T13:41:49Z</time>
      </trkpt>
      <trkpt lat="44.19608" lon="1.731">
        <ele>208</ele>
        <time>2021-03-27T13:41:50Z</time>
      </trkpt>
      <trkpt lat="44.19606" lon="1.73111">
        <ele>207.9</ele>
        <time>2021-03-27T13:41:51Z</time>
      </trkpt>
      <trkpt lat="44.19604" lon="1.73121">
        <ele>207.9</ele>
        <time>2021-03-27T13:41:52Z</time>
      </trkpt>
      <trkpt lat="44.19602" lon="1.73131">
        <ele>207.9</ele>
        <time>2021-03-27T13:41:53Z</time>
      </trkpt>
      <trkpt lat="44.19602" lon="1.73139">
        <ele>207.9</ele>
        <time>2021-03-27T13:41:54Z</time>
      </trkpt>
      <trkpt lat="44.19601" lon="1.73147">
        <ele>207.9</ele>
        <time>2021-03-27T13:41:55Z</time>
      </trkpt>
      <trkpt lat="44.19601" lon="1.73154">
        <ele>207.8</ele>
        <time>2021-03-27T13:41:56Z</time>
      </trkpt>
      <trkpt lat="44.196" lon="1.73161">
        <ele>207.8</ele>
        <time>2021-03-27T13:41:57Z</time>
      </trkpt>
      <trkpt lat="44.196" lon="1.73169">
        <ele>207.7</ele>
        <time>2021-03-27T13:41:58Z</time>
      </trkpt>
      <trkpt lat="44.19601" lon="1.7318">
        <ele>207.6</ele>
        <time>2021-03-27T13:42:00Z</time>
      </trkpt>
      <trkpt lat="44.19601" lon="1.73189">
        <ele>207.5</ele>
        <time>2021-03-27T13:42:02Z</time>
      </trkpt>
      <trkpt lat="44.196" lon="1.73196">
        <ele>207.5</ele>
        <time>2021-03-27T13:42:04Z</time>
      </trkpt>
      <trkpt lat="44.19602" lon="1.73202">
        <ele>207.4</ele>
        <time>2021-03-27T13:42:07Z</time>
      </trkpt>
      <trkpt lat="44.19602" lon="1.73205">
        <ele>207.4</ele>
        <time>2021-03-27T13:42:09Z</time>
      </trkpt>
      <trkpt lat="44.19601" lon="1.73208">
        <ele>207.4</ele>
        <time>2021-03-27T13:42:11Z</time>
      </trkpt>
      <trkpt lat="44.19601" lon="1.73216">
        <ele>207.4</ele>
        <time>2021-03-27T13:42:15Z</time>
      </trkpt>
      <trkpt lat="44.19599" lon="1.73221">
        <ele>207.8</ele>
        <time>2021-03-27T13:42:18Z</time>
      </trkpt>
      <trkpt lat="44.19595" lon="1.7322">
        <ele>208</ele>
        <time>2021-03-27T13:42:22Z</time>
      </trkpt>
      <trkpt lat="44.19595" lon="1.7322">
        <ele>208.6</ele>
        <time>2021-03-27T13:42:23Z</time>
      </trkpt>
      <trkpt lat="44.19592" lon="1.73216">
        <ele>209.2</ele>
        <time>2021-03-27T13:42:29Z</time>
      </trkpt>
      <trkpt lat="44.19591" lon="1.73215">
        <ele>209.8</ele>
        <time>2021-03-27T13:42:30Z</time>
      </trkpt>
      <trkpt lat="44.19589" lon="1.73208">
        <ele>210.4</ele>
        <time>2021-03-27T13:42:36Z</time>
      </trkpt>
      <trkpt lat="44.19588" lon="1.73207">
        <ele>210.9</ele>
        <time>2021-03-27T13:42:37Z</time>
      </trkpt>
      <trkpt lat="44.19587" lon="1.73206">
        <ele>211.6</ele>
        <time>2021-03-27T13:42:38Z</time>
      </trkpt>
      <trkpt lat="44.19583" lon="1.73202">
        <ele>212.1</ele>
        <time>2021-03-27T13:42:45Z</time>
      </trkpt>
      <trkpt lat="44.19583" lon="1.73195">
        <ele>212.7</ele>
        <time>2021-03-27T13:42:49Z</time>
      </trkpt>
      <trkpt lat="44.19582" lon="1.73194">
        <ele>213.2</ele>
        <time>2021-03-27T13:42:50Z</time>
      </trkpt>
      <trkpt lat="44.1958" lon="1.73188">
        <ele>213.8</ele>
        <time>2021-03-27T13:42:54Z</time>
      </trkpt>
      <trkpt lat="44.19578" lon="1.73184">
        <ele>214.3</ele>
        <time>2021-03-27T13:42:58Z</time>
      </trkpt>
      <trkpt lat="44.19577" lon="1.73184">
        <ele>215</ele>
        <time>2021-03-27T13:42:59Z</time>
      </trkpt>
      <trkpt lat="44.19573" lon="1.73183">
        <ele>215.7</ele>
        <time>2021-03-27T13:43:04Z</time>
      </trkpt>
      <trkpt lat="44.19571" lon="1.73183">
        <ele>216.5</ele>
        <time>2021-03-27T13:43:05Z</time>
      </trkpt>
      <trkpt lat="44.1957" lon="1.73184">
        <ele>217.1</ele>
        <time>2021-03-27T13:43:06Z</time>
      </trkpt>
      <trkpt lat="44.19568" lon="1.73185">
        <ele>218</ele>
        <time>2021-03-27T13:43:08Z</time>
      </trkpt>
      <trkpt lat="44.19566" lon="1.73186">
        <ele>218.6</ele>
        <time>2021-03-27T13:43:10Z</time>
      </trkpt>
      <trkpt lat="44.19566" lon="1.73194">
        <ele>219.5</ele>
        <time>2021-03-27T13:43:16Z</time>
      </trkpt>
      <trkpt lat="44.19564" lon="1.73196">
        <ele>220.5</ele>
        <time>2021-03-27T13:43:18Z</time>
      </trkpt>
      <trkpt lat="44.19564" lon="1.73198">
        <ele>221.1</ele>
        <time>2021-03-27T13:43:19Z</time>
      </trkpt>
      <trkpt lat="44.19563" lon="1.73199">
        <ele>221.8</ele>
        <time>2021-03-27T13:43:20Z</time>
      </trkpt>
      <trkpt lat="44.19561" lon="1.73203">
        <ele>223.2</ele>
        <time>2021-03-27T13:43:23Z</time>
      </trkpt>
      <trkpt lat="44.19561" lon="1.73205">
        <ele>223.7</ele>
        <time>2021-03-27T13:43:24Z</time>
      </trkpt>
      <trkpt lat="44.19559" lon="1.73211">
        <ele>224.5</ele>
        <time>2021-03-27T13:43:28Z</time>
      </trkpt>
      <trkpt lat="44.19559" lon="1.73212">
        <ele>226.1</ele>
        <time>2021-03-27T13:43:29Z</time>
      </trkpt>
      <trkpt lat="44.19558" lon="1.73214">
        <ele>226.6</ele>
        <time>2021-03-27T13:43:30Z</time>
      </trkpt>
      <trkpt lat="44.19555" lon="1.73219">
        <ele>228.3</ele>
        <time>2021-03-27T13:43:33Z</time>
      </trkpt>
      <trkpt lat="44.19554" lon="1.73222">
        <ele>228.4</ele>
        <time>2021-03-27T13:43:35Z</time>
      </trkpt>
      <trkpt lat="44.19553" lon="1.73223">
        <ele>228.5</ele>
        <time>2021-03-27T13:43:36Z</time>
      </trkpt>
      <trkpt lat="44.19552" lon="1.73228">
        <ele>228.8</ele>
        <time>2021-03-27T13:43:39Z</time>
      </trkpt>
      <trkpt lat="44.19551" lon="1.73231">
        <ele>228.9</ele>
        <time>2021-03-27T13:43:41Z</time>
      </trkpt>
      <trkpt lat="44.19551" lon="1.73235">
        <ele>229.1</ele>
        <time>2021-03-27T13:43:43Z</time>
      </trkpt>
      <trkpt lat="44.19549" lon="1.73242">
        <ele>229.4</ele>
        <time>2021-03-27T13:43:48Z</time>
      </trkpt>
      <trkpt lat="44.19549" lon="1.73245">
        <ele>229.5</ele>
        <time>2021-03-27T13:43:50Z</time>
      </trkpt>
      <trkpt lat="44.1955" lon="1.73247">
        <ele>229.6</ele>
        <time>2021-03-27T13:43:51Z</time>
      </trkpt>
      <trkpt lat="44.19551" lon="1.73256">
        <ele>230</ele>
        <time>2021-03-27T13:43:54Z</time>
      </trkpt>
      <trkpt lat="44.19552" lon="1.73263">
        <ele>230.3</ele>
        <time>2021-03-27T13:43:56Z</time>
      </trkpt>
      <trkpt lat="44.19553" lon="1.73271">
        <ele>230.6</ele>
        <time>2021-03-27T13:43:59Z</time>
      </trkpt>
      <trkpt lat="44.19556" lon="1.73277">
        <ele>230.9</ele>
        <time>2021-03-27T13:44:01Z</time>
      </trkpt>
      <trkpt lat="44.19558" lon="1.73284">
        <ele>231.2</ele>
        <time>2021-03-27T13:44:03Z</time>
      </trkpt>
      <trkpt lat="44.19559" lon="1.7329">
        <ele>231.5</ele>
        <time>2021-03-27T13:44:05Z</time>
      </trkpt>
      <trkpt lat="44.19561" lon="1.73296">
        <ele>231.7</ele>
        <time>2021-03-27T13:44:08Z</time>
      </trkpt>
      <trkpt lat="44.19562" lon="1.73303">
        <ele>232</ele>
        <time>2021-03-27T13:44:11Z</time>
      </trkpt>
      <trkpt lat="44.19562" lon="1.73311">
        <ele>232.3</ele>
        <time>2021-03-27T13:44:15Z</time>
      </trkpt>
      <trkpt lat="44.19564" lon="1.73318">
        <ele>232.5</ele>
        <time>2021-03-27T13:44:18Z</time>
      </trkpt>
      <trkpt lat="44.19565" lon="1.73324">
        <ele>232.7</ele>
        <time>2021-03-27T13:44:21Z</time>
      </trkpt>
      <trkpt lat="44.19568" lon="1.73332">
        <ele>233</ele>
        <time>2021-03-27T13:44:24Z</time>
      </trkpt>
      <trkpt lat="44.19569" lon="1.73338">
        <ele>233.2</ele>
        <time>2021-03-27T13:44:27Z</time>
      </trkpt>
      <trkpt lat="44.1957" lon="1.73346">
        <ele>233.5</ele>
        <time>2021-03-27T13:44:31Z</time>
      </trkpt>
      <trkpt lat="44.19571" lon="1.73352">
        <ele>233.8</ele>
        <time>2021-03-27T13:44:34Z</time>
      </trkpt>
      <trkpt lat="44.19574" lon="1.73358">
        <ele>234.1</ele>
        <time>2021-03-27T13:44:37Z</time>
      </trkpt>
      <trkpt lat="44.19574" lon="1.73366">
        <ele>234.4</ele>
        <time>2021-03-27T13:44:41Z</time>
      </trkpt>
      <trkpt lat="44.19575" lon="1.73373">
        <ele>234.7</ele>
        <time>2021-03-27T13:44:45Z</time>
      </trkpt>
      <trkpt lat="44.19574" lon="1.73381">
        <ele>235.1</ele>
        <time>2021-03-27T13:44:49Z</time>
      </trkpt>
      <trkpt lat="44.19575" lon="1.73383">
        <ele>235.1</ele>
        <time>2021-03-27T13:44:50Z</time>
      </trkpt>
      <trkpt lat="44.19575" lon="1.73388">
        <ele>235.4</ele>
        <time>2021-03-27T13:44:53Z</time>
      </trkpt>
      <trkpt lat="44.19575" lon="1.7339">
        <ele>235.4</ele>
        <time>2021-03-27T13:44:54Z</time>
      </trkpt>
      <trkpt lat="44.19576" lon="1.73396">
        <ele>235.7</ele>
        <time>2021-03-27T13:44:57Z</time>
      </trkpt>
      <trkpt lat="44.19575" lon="1.73399">
        <ele>235.8</ele>
        <time>2021-03-27T13:44:59Z</time>
      </trkpt>
      <trkpt lat="44.19576" lon="1.73403">
        <ele>236</ele>
        <time>2021-03-27T13:45:01Z</time>
      </trkpt>
      <trkpt lat="44.19576" lon="1.73406">
        <ele>236.1</ele>
        <time>2021-03-27T13:45:03Z</time>
      </trkpt>
      <trkpt lat="44.19577" lon="1.73408">
        <ele>236.2</ele>
        <time>2021-03-27T13:45:04Z</time>
      </trkpt>
      <trkpt lat="44.19577" lon="1.73415">
        <ele>236.5</ele>
        <time>2021-03-27T13:45:07Z</time>
      </trkpt>
      <trkpt lat="44.19577" lon="1.73422">
        <ele>236.8</ele>
        <time>2021-03-27T13:45:11Z</time>
      </trkpt>
      <trkpt lat="44.19575" lon="1.73428">
        <ele>237.1</ele>
        <time>2021-03-27T13:45:14Z</time>
      </trkpt>
      <trkpt lat="44.19576" lon="1.7343">
        <ele>237.2</ele>
        <time>2021-03-27T13:45:15Z</time>
      </trkpt>
      <trkpt lat="44.19575" lon="1.73431">
        <ele>237.2</ele>
        <time>2021-03-27T13:45:16Z</time>
      </trkpt>
      <trkpt lat="44.19575" lon="1.73436">
        <ele>237.4</ele>
        <time>2021-03-27T13:45:19Z</time>
      </trkpt>
      <trkpt lat="44.19576" lon="1.73444">
        <ele>237.7</ele>
        <time>2021-03-27T13:45:23Z</time>
      </trkpt>
      <trkpt lat="44.19576" lon="1.73449">
        <ele>238</ele>
        <time>2021-03-27T13:45:26Z</time>
      </trkpt>
      <trkpt lat="44.19576" lon="1.7345">
        <ele>238</ele>
        <time>2021-03-27T13:45:27Z</time>
      </trkpt>
      <trkpt lat="44.19576" lon="1.73457">
        <ele>238.3</ele>
        <time>2021-03-27T13:45:31Z</time>
      </trkpt>
      <trkpt lat="44.19576" lon="1.7346">
        <ele>238.4</ele>
        <time>2021-03-27T13:45:33Z</time>
      </trkpt>
      <trkpt lat="44.19577" lon="1.73468">
        <ele>238.8</ele>
        <time>2021-03-27T13:45:37Z</time>
      </trkpt>
      <trkpt lat="44.19575" lon="1.73475">
        <ele>239.1</ele>
        <time>2021-03-27T13:45:41Z</time>
      </trkpt>
      <trkpt lat="44.19573" lon="1.73482">
        <ele>239.4</ele>
        <time>2021-03-27T13:45:45Z</time>
      </trkpt>
      <trkpt lat="44.19573" lon="1.73484">
        <ele>239.5</ele>
        <time>2021-03-27T13:45:46Z</time>
      </trkpt>
      <trkpt lat="44.19573" lon="1.73486">
        <ele>239.5</ele>
        <time>2021-03-27T13:45:47Z</time>
      </trkpt>
      <trkpt lat="44.19574" lon="1.73489">
        <ele>239.7</ele>
        <time>2021-03-27T13:45:49Z</time>
      </trkpt>
      <trkpt lat="44.19572" lon="1.73494">
        <ele>239.9</ele>
        <time>2021-03-27T13:45:53Z</time>
      </trkpt>
      <trkpt lat="44.19571" lon="1.73495">
        <ele>240</ele>
        <time>2021-03-27T13:45:54Z</time>
      </trkpt>
      <trkpt lat="44.19569" lon="1.73499">
        <ele>240.2</ele>
        <time>2021-03-27T13:45:57Z</time>
      </trkpt>
      <trkpt lat="44.19568" lon="1.73502">
        <ele>240.3</ele>
        <time>2021-03-27T13:45:59Z</time>
      </trkpt>
      <trkpt lat="44.19569" lon="1.73504">
        <ele>240.4</ele>
        <time>2021-03-27T13:46:00Z</time>
      </trkpt>
      <trkpt lat="44.1957" lon="1.73508">
        <ele>240.6</ele>
        <time>2021-03-27T13:46:02Z</time>
      </trkpt>
      <trkpt lat="44.1957" lon="1.73509">
        <ele>240.7</ele>
        <time>2021-03-27T13:46:03Z</time>
      </trkpt>
      <trkpt lat="44.1957" lon="1.73513">
        <ele>240.8</ele>
        <time>2021-03-27T13:46:05Z</time>
      </trkpt>
      <trkpt lat="44.1957" lon="1.73515">
        <ele>240.9</ele>
        <time>2021-03-27T13:46:06Z</time>
      </trkpt>
      <trkpt lat="44.1957" lon="1.73516">
        <ele>240.9</ele>
        <time>2021-03-27T13:46:07Z</time>
      </trkpt>
      <trkpt lat="44.1957" lon="1.73521">
        <ele>241.2</ele>
        <time>2021-03-27T13:46:10Z</time>
      </trkpt>
      <trkpt lat="44.1957" lon="1.73525">
        <ele>241.3</ele>
        <time>2021-03-27T13:46:12Z</time>
      </trkpt>
      <trkpt lat="44.1957" lon="1.73527">
        <ele>241.4</ele>
        <time>2021-03-27T13:46:13Z</time>
      </trkpt>
      <trkpt lat="44.19568" lon="1.73534">
        <ele>241.7</ele>
        <time>2021-03-27T13:46:17Z</time>
      </trkpt>
      <trkpt lat="44.19567" lon="1.73541">
        <ele>242</ele>
        <time>2021-03-27T13:46:21Z</time>
      </trkpt>
      <trkpt lat="44.19565" lon="1.73549">
        <ele>242.3</ele>
        <time>2021-03-27T13:46:25Z</time>
      </trkpt>
      <trkpt lat="44.19565" lon="1.7355">
        <ele>242.4</ele>
        <time>2021-03-27T13:46:26Z</time>
      </trkpt>
      <trkpt lat="44.19565" lon="1.73553">
        <ele>242.5</ele>
        <time>2021-03-27T13:46:27Z</time>
      </trkpt>
      <trkpt lat="44.19567" lon="1.7356">
        <ele>242.8</ele>
        <time>2021-03-27T13:46:30Z</time>
      </trkpt>
      <trkpt lat="44.19567" lon="1.73566">
        <ele>243.1</ele>
        <time>2021-03-27T13:46:33Z</time>
      </trkpt>
      <trkpt lat="44.19566" lon="1.73573">
        <ele>243.4</ele>
        <time>2021-03-27T13:46:36Z</time>
      </trkpt>
      <trkpt lat="44.19566" lon="1.73581">
        <ele>243.7</ele>
        <time>2021-03-27T13:46:40Z</time>
      </trkpt>
      <trkpt lat="44.19566" lon="1.73589">
        <ele>244</ele>
        <time>2021-03-27T13:46:44Z</time>
      </trkpt>
      <trkpt lat="44.19565" lon="1.73595">
        <ele>244.3</ele>
        <time>2021-03-27T13:46:47Z</time>
      </trkpt>
      <trkpt lat="44.19563" lon="1.73603">
        <ele>244.7</ele>
        <time>2021-03-27T13:46:51Z</time>
      </trkpt>
      <trkpt lat="44.19562" lon="1.7361">
        <ele>245</ele>
        <time>2021-03-27T13:46:54Z</time>
      </trkpt>
      <trkpt lat="44.1956" lon="1.73617">
        <ele>245.3</ele>
        <time>2021-03-27T13:46:57Z</time>
      </trkpt>
      <trkpt lat="44.19557" lon="1.73624">
        <ele>245.6</ele>
        <time>2021-03-27T13:47:00Z</time>
      </trkpt>
      <trkpt lat="44.19555" lon="1.73631">
        <ele>245.9</ele>
        <time>2021-03-27T13:47:03Z</time>
      </trkpt>
      <trkpt lat="44.19554" lon="1.73639">
        <ele>246.3</ele>
        <time>2021-03-27T13:47:07Z</time>
      </trkpt>
      <trkpt lat="44.19553" lon="1.73645">
        <ele>246.5</ele>
        <time>2021-03-27T13:47:10Z</time>
      </trkpt>
      <trkpt lat="44.19553" lon="1.73652">
        <ele>246.8</ele>
        <time>2021-03-27T13:47:13Z</time>
      </trkpt>
      <trkpt lat="44.19551" lon="1.73658">
        <ele>247.1</ele>
        <time>2021-03-27T13:47:16Z</time>
      </trkpt>
      <trkpt lat="44.19548" lon="1.73665">
        <ele>247.4</ele>
        <time>2021-03-27T13:47:20Z</time>
      </trkpt>
      <trkpt lat="44.19546" lon="1.73671">
        <ele>247.7</ele>
        <time>2021-03-27T13:47:23Z</time>
      </trkpt>
      <trkpt lat="44.19543" lon="1.73678">
        <ele>248</ele>
        <time>2021-03-27T13:47:26Z</time>
      </trkpt>
      <trkpt lat="44.19541" lon="1.73684">
        <ele>248.3</ele>
        <time>2021-03-27T13:47:29Z</time>
      </trkpt>
      <trkpt lat="44.1954" lon="1.7369">
        <ele>248.6</ele>
        <time>2021-03-27T13:47:32Z</time>
      </trkpt>
      <trkpt lat="44.19537" lon="1.73696">
        <ele>248.9</ele>
        <time>2021-03-27T13:47:35Z</time>
      </trkpt>
      <trkpt lat="44.19534" lon="1.73702">
        <ele>249.2</ele>
        <time>2021-03-27T13:47:38Z</time>
      </trkpt>
      <trkpt lat="44.19532" lon="1.73708">
        <ele>249.4</ele>
        <time>2021-03-27T13:47:41Z</time>
      </trkpt>
      <trkpt lat="44.1953" lon="1.73714">
        <ele>249.7</ele>
        <time>2021-03-27T13:47:44Z</time>
      </trkpt>
      <trkpt lat="44.19528" lon="1.73722">
        <ele>250.1</ele>
        <time>2021-03-27T13:47:48Z</time>
      </trkpt>
      <trkpt lat="44.19526" lon="1.73728">
        <ele>250.3</ele>
        <time>2021-03-27T13:47:51Z</time>
      </trkpt>
      <trkpt lat="44.19525" lon="1.73734">
        <ele>250.6</ele>
        <time>2021-03-27T13:47:54Z</time>
      </trkpt>
      <trkpt lat="44.19524" lon="1.73741">
        <ele>250.9</ele>
        <time>2021-03-27T13:47:57Z</time>
      </trkpt>
      <trkpt lat="44.19522" lon="1.73748">
        <ele>251.2</ele>
        <time>2021-03-27T13:48:01Z</time>
      </trkpt>
      <trkpt lat="44.1952" lon="1.73751">
        <ele>251.4</ele>
        <time>2021-03-27T13:48:03Z</time>
      </trkpt>
      <trkpt lat="44.19519" lon="1.73752">
        <ele>251.4</ele>
        <time>2021-03-27T13:48:04Z</time>
      </trkpt>
      <trkpt lat="44.19519" lon="1.73754">
        <ele>251.5</ele>
        <time>2021-03-27T13:48:05Z</time>
      </trkpt>
      <trkpt lat="44.19518" lon="1.73757">
        <ele>251.7</ele>
        <time>2021-03-27T13:48:07Z</time>
      </trkpt>
      <trkpt lat="44.19514" lon="1.73764">
        <ele>252</ele>
        <time>2021-03-27T13:48:11Z</time>
      </trkpt>
      <trkpt lat="44.19512" lon="1.73771">
        <ele>252.3</ele>
        <time>2021-03-27T13:48:15Z</time>
      </trkpt>
      <trkpt lat="44.1951" lon="1.73775">
        <ele>252.6</ele>
        <time>2021-03-27T13:48:18Z</time>
      </trkpt>
      <trkpt lat="44.19509" lon="1.73776">
        <ele>252.6</ele>
        <time>2021-03-27T13:48:19Z</time>
      </trkpt>
      <trkpt lat="44.19504" lon="1.73782">
        <ele>253</ele>
        <time>2021-03-27T13:48:23Z</time>
      </trkpt>
      <trkpt lat="44.19501" lon="1.73787">
        <ele>253.3</ele>
        <time>2021-03-27T13:48:27Z</time>
      </trkpt>
      <trkpt lat="44.19497" lon="1.73793">
        <ele>253.6</ele>
        <time>2021-03-27T13:48:32Z</time>
      </trkpt>
      <trkpt lat="44.19496" lon="1.73795">
        <ele>253.7</ele>
        <time>2021-03-27T13:48:34Z</time>
      </trkpt>
      <trkpt lat="44.19492" lon="1.738">
        <ele>254</ele>
        <time>2021-03-27T13:48:38Z</time>
      </trkpt>
      <trkpt lat="44.19491" lon="1.73802">
        <ele>254.1</ele>
        <time>2021-03-27T13:48:39Z</time>
      </trkpt>
      <trkpt lat="44.1949" lon="1.73803">
        <ele>254.2</ele>
        <time>2021-03-27T13:48:40Z</time>
      </trkpt>
      <trkpt lat="44.19488" lon="1.73809">
        <ele>254.5</ele>
        <time>2021-03-27T13:48:44Z</time>
      </trkpt>
      <trkpt lat="44.19485" lon="1.73812">
        <ele>254.7</ele>
        <time>2021-03-27T13:48:47Z</time>
      </trkpt>
      <trkpt lat="44.19481" lon="1.73816">
        <ele>255</ele>
        <time>2021-03-27T13:48:50Z</time>
      </trkpt>
      <trkpt lat="44.1948" lon="1.73819">
        <ele>255.1</ele>
        <time>2021-03-27T13:48:52Z</time>
      </trkpt>
      <trkpt lat="44.19479" lon="1.7382">
        <ele>255.2</ele>
        <time>2021-03-27T13:48:53Z</time>
      </trkpt>
      <trkpt lat="44.19475" lon="1.73824">
        <ele>255.4</ele>
        <time>2021-03-27T13:48:56Z</time>
      </trkpt>
      <trkpt lat="44.19473" lon="1.73826">
        <ele>255.6</ele>
        <time>2021-03-27T13:48:58Z</time>
      </trkpt>
      <trkpt lat="44.19472" lon="1.73827">
        <ele>255.7</ele>
        <time>2021-03-27T13:48:59Z</time>
      </trkpt>
      <trkpt lat="44.19471" lon="1.73828">
        <ele>255.7</ele>
        <time>2021-03-27T13:49:00Z</time>
      </trkpt>
      <trkpt lat="44.1947" lon="1.7383">
        <ele>255.8</ele>
        <time>2021-03-27T13:49:01Z</time>
      </trkpt>
      <trkpt lat="44.1947" lon="1.73831">
        <ele>255.9</ele>
        <time>2021-03-27T13:49:02Z</time>
      </trkpt>
      <trkpt lat="44.19467" lon="1.73834">
        <ele>256.1</ele>
        <time>2021-03-27T13:49:05Z</time>
      </trkpt>
      <trkpt lat="44.19462" lon="1.73837">
        <ele>256.4</ele>
        <time>2021-03-27T13:49:09Z</time>
      </trkpt>
      <trkpt lat="44.1946" lon="1.7384">
        <ele>256.5</ele>
        <time>2021-03-27T13:49:11Z</time>
      </trkpt>
      <trkpt lat="44.19455" lon="1.73844">
        <ele>256.9</ele>
        <time>2021-03-27T13:49:15Z</time>
      </trkpt>
      <trkpt lat="44.19451" lon="1.73847">
        <ele>257.2</ele>
        <time>2021-03-27T13:49:18Z</time>
      </trkpt>
      <trkpt lat="44.19445" lon="1.7385">
        <ele>257.5</ele>
        <time>2021-03-27T13:49:22Z</time>
      </trkpt>
      <trkpt lat="44.19439" lon="1.73852">
        <ele>257.9</ele>
        <time>2021-03-27T13:49:26Z</time>
      </trkpt>
      <trkpt lat="44.19434" lon="1.73854">
        <ele>258.2</ele>
        <time>2021-03-27T13:49:30Z</time>
      </trkpt>
      <trkpt lat="44.19431" lon="1.73854">
        <ele>258.4</ele>
        <time>2021-03-27T13:49:32Z</time>
      </trkpt>
      <trkpt lat="44.19429" lon="1.73854">
        <ele>258.5</ele>
        <time>2021-03-27T13:49:34Z</time>
      </trkpt>
      <trkpt lat="44.19428" lon="1.73854">
        <ele>258.6</ele>
        <time>2021-03-27T13:49:35Z</time>
      </trkpt>
      <trkpt lat="44.19426" lon="1.73855">
        <ele>258.6</ele>
        <time>2021-03-27T13:49:36Z</time>
      </trkpt>
      <trkpt lat="44.19421" lon="1.73853">
        <ele>259</ele>
        <time>2021-03-27T13:49:40Z</time>
      </trkpt>
      <trkpt lat="44.19418" lon="1.73848">
        <ele>259.2</ele>
        <time>2021-03-27T13:49:44Z</time>
      </trkpt>
      <trkpt lat="44.19416" lon="1.73842">
        <ele>259.5</ele>
        <time>2021-03-27T13:49:48Z</time>
      </trkpt>
      <trkpt lat="44.19416" lon="1.7384">
        <ele>259.6</ele>
        <time>2021-03-27T13:49:49Z</time>
      </trkpt>
      <trkpt lat="44.19415" lon="1.73838">
        <ele>259.7</ele>
        <time>2021-03-27T13:49:50Z</time>
      </trkpt>
      <trkpt lat="44.19414" lon="1.73834">
        <ele>259.9</ele>
        <time>2021-03-27T13:49:53Z</time>
      </trkpt>
      <trkpt lat="44.19413" lon="1.73833">
        <ele>259.9</ele>
        <time>2021-03-27T13:49:54Z</time>
      </trkpt>
      <trkpt lat="44.19412" lon="1.73831">
        <ele>260</ele>
        <time>2021-03-27T13:49:55Z</time>
      </trkpt>
      <trkpt lat="44.1941" lon="1.73826">
        <ele>260.3</ele>
        <time>2021-03-27T13:49:58Z</time>
      </trkpt>
      <trkpt lat="44.19409" lon="1.7382">
        <ele>260.5</ele>
        <time>2021-03-27T13:50:01Z</time>
      </trkpt>
      <trkpt lat="44.19407" lon="1.73813">
        <ele>260.8</ele>
        <time>2021-03-27T13:50:04Z</time>
      </trkpt>
      <trkpt lat="44.19405" lon="1.73807">
        <ele>261.1</ele>
        <time>2021-03-27T13:50:07Z</time>
      </trkpt>
      <trkpt lat="44.19403" lon="1.738">
        <ele>261.4</ele>
        <time>2021-03-27T13:50:10Z</time>
      </trkpt>
      <trkpt lat="44.19401" lon="1.73791">
        <ele>261.8</ele>
        <time>2021-03-27T13:50:13Z</time>
      </trkpt>
      <trkpt lat="44.19402" lon="1.73783">
        <ele>262.1</ele>
        <time>2021-03-27T13:50:16Z</time>
      </trkpt>
      <trkpt lat="44.19402" lon="1.73775">
        <ele>262.5</ele>
        <time>2021-03-27T13:50:19Z</time>
      </trkpt>
      <trkpt lat="44.19401" lon="1.73767">
        <ele>262.8</ele>
        <time>2021-03-27T13:50:22Z</time>
      </trkpt>
      <trkpt lat="44.194" lon="1.73758">
        <ele>263.2</ele>
        <time>2021-03-27T13:50:25Z</time>
      </trkpt>
      <trkpt lat="44.19399" lon="1.73749">
        <ele>263.6</ele>
        <time>2021-03-27T13:50:28Z</time>
      </trkpt>
      <trkpt lat="44.19398" lon="1.7374">
        <ele>264</ele>
        <time>2021-03-27T13:50:31Z</time>
      </trkpt>
      <trkpt lat="44.19396" lon="1.73733">
        <ele>264.2</ele>
        <time>2021-03-27T13:50:33Z</time>
      </trkpt>
      <trkpt lat="44.19395" lon="1.73727">
        <ele>264.5</ele>
        <time>2021-03-27T13:50:35Z</time>
      </trkpt>
      <trkpt lat="44.19393" lon="1.73721">
        <ele>264.8</ele>
        <time>2021-03-27T13:50:37Z</time>
      </trkpt>
      <trkpt lat="44.19393" lon="1.73715">
        <ele>265.1</ele>
        <time>2021-03-27T13:50:39Z</time>
      </trkpt>
      <trkpt lat="44.19392" lon="1.73708">
        <ele>265.3</ele>
        <time>2021-03-27T13:50:41Z</time>
      </trkpt>
      <trkpt lat="44.1939" lon="1.73702">
        <ele>265.6</ele>
        <time>2021-03-27T13:50:43Z</time>
      </trkpt>
      <trkpt lat="44.1939" lon="1.73695">
        <ele>265.9</ele>
        <time>2021-03-27T13:50:45Z</time>
      </trkpt>
      <trkpt lat="44.1939" lon="1.73686">
        <ele>266.3</ele>
        <time>2021-03-27T13:50:48Z</time>
      </trkpt>
      <trkpt lat="44.1939" lon="1.73677">
        <ele>266.6</ele>
        <time>2021-03-27T13:50:51Z</time>
      </trkpt>
      <trkpt lat="44.19389" lon="1.7367">
        <ele>266.9</ele>
        <time>2021-03-27T13:50:54Z</time>
      </trkpt>
      <trkpt lat="44.19388" lon="1.73663">
        <ele>267.2</ele>
        <time>2021-03-27T13:50:56Z</time>
      </trkpt>
      <trkpt lat="44.19387" lon="1.73657">
        <ele>267.5</ele>
        <time>2021-03-27T13:50:58Z</time>
      </trkpt>
      <trkpt lat="44.19386" lon="1.7365">
        <ele>267.8</ele>
        <time>2021-03-27T13:51:00Z</time>
      </trkpt>
      <trkpt lat="44.19382" lon="1.73645">
        <ele>268.1</ele>
        <time>2021-03-27T13:51:03Z</time>
      </trkpt>
      <trkpt lat="44.19381" lon="1.73646">
        <ele>268.2</ele>
        <time>2021-03-27T13:51:04Z</time>
      </trkpt>
      <trkpt lat="44.19376" lon="1.73646">
        <ele>268.4</ele>
        <time>2021-03-27T13:51:59Z</time>
      </trkpt>
      <trkpt lat="44.19373" lon="1.73645">
        <ele>268.6</ele>
        <time>2021-03-27T13:52:01Z</time>
      </trkpt>
      <trkpt lat="44.19367" lon="1.73646">
        <ele>269</ele>
        <time>2021-03-27T13:52:04Z</time>
      </trkpt>
      <trkpt lat="44.19362" lon="1.73646">
        <ele>269.3</ele>
        <time>2021-03-27T13:52:06Z</time>
      </trkpt>
      <trkpt lat="44.19357" lon="1.73645">
        <ele>269.5</ele>
        <time>2021-03-27T13:52:08Z</time>
      </trkpt>
      <trkpt lat="44.19351" lon="1.73645">
        <ele>269.9</ele>
        <time>2021-03-27T13:52:10Z</time>
      </trkpt>
      <trkpt lat="44.19346" lon="1.73642">
        <ele>270.2</ele>
        <time>2021-03-27T13:52:12Z</time>
      </trkpt>
      <trkpt lat="44.19341" lon="1.7364">
        <ele>270.5</ele>
        <time>2021-03-27T13:52:14Z</time>
      </trkpt>
      <trkpt lat="44.19334" lon="1.73639">
        <ele>270.9</ele>
        <time>2021-03-27T13:52:16Z</time>
      </trkpt>
      <trkpt lat="44.19329" lon="1.73636">
        <ele>271.3</ele>
        <time>2021-03-27T13:52:18Z</time>
      </trkpt>
      <trkpt lat="44.19322" lon="1.73634">
        <ele>271.6</ele>
        <time>2021-03-27T13:52:20Z</time>
      </trkpt>
      <trkpt lat="44.19315" lon="1.73634">
        <ele>272.1</ele>
        <time>2021-03-27T13:52:22Z</time>
      </trkpt>
      <trkpt lat="44.19307" lon="1.73638">
        <ele>272.5</ele>
        <time>2021-03-27T13:52:24Z</time>
      </trkpt>
      <trkpt lat="44.193" lon="1.73644">
        <ele>273</ele>
        <time>2021-03-27T13:52:26Z</time>
      </trkpt>
      <trkpt lat="44.19293" lon="1.73649">
        <ele>273.5</ele>
        <time>2021-03-27T13:52:28Z</time>
      </trkpt>
      <trkpt lat="44.19284" lon="1.73653">
        <ele>274</ele>
        <time>2021-03-27T13:52:30Z</time>
      </trkpt>
      <trkpt lat="44.1928" lon="1.73655">
        <ele>274.3</ele>
        <time>2021-03-27T13:52:31Z</time>
      </trkpt>
      <trkpt lat="44.19275" lon="1.73654">
        <ele>274.6</ele>
        <time>2021-03-27T13:52:32Z</time>
      </trkpt>
      <trkpt lat="44.1927" lon="1.73652">
        <ele>274.9</ele>
        <time>2021-03-27T13:52:33Z</time>
      </trkpt>
      <trkpt lat="44.19266" lon="1.73649">
        <ele>275.2</ele>
        <time>2021-03-27T13:52:34Z</time>
      </trkpt>
      <trkpt lat="44.19262" lon="1.73645">
        <ele>275.4</ele>
        <time>2021-03-27T13:52:35Z</time>
      </trkpt>
      <trkpt lat="44.19259" lon="1.7364">
        <ele>275.7</ele>
        <time>2021-03-27T13:52:36Z</time>
      </trkpt>
      <trkpt lat="44.19252" lon="1.73634">
        <ele>276.2</ele>
        <time>2021-03-27T13:52:38Z</time>
      </trkpt>
      <trkpt lat="44.19248" lon="1.73628">
        <ele>276.5</ele>
        <time>2021-03-27T13:52:40Z</time>
      </trkpt>
      <trkpt lat="44.19243" lon="1.73622">
        <ele>276.9</ele>
        <time>2021-03-27T13:52:42Z</time>
      </trkpt>
      <trkpt lat="44.19239" lon="1.73618">
        <ele>277.2</ele>
        <time>2021-03-27T13:52:44Z</time>
      </trkpt>
      <trkpt lat="44.19231" lon="1.73617">
        <ele>277.6</ele>
        <time>2021-03-27T13:52:46Z</time>
      </trkpt>
      <trkpt lat="44.19226" lon="1.73614">
        <ele>278</ele>
        <time>2021-03-27T13:52:48Z</time>
      </trkpt>
      <trkpt lat="44.19221" lon="1.73614">
        <ele>278.3</ele>
        <time>2021-03-27T13:52:50Z</time>
      </trkpt>
      <trkpt lat="44.19215" lon="1.73616">
        <ele>278.6</ele>
        <time>2021-03-27T13:52:52Z</time>
      </trkpt>
      <trkpt lat="44.1921" lon="1.73616">
        <ele>278.9</ele>
        <time>2021-03-27T13:52:54Z</time>
      </trkpt>
      <trkpt lat="44.19206" lon="1.7362">
        <ele>279.2</ele>
        <time>2021-03-27T13:52:56Z</time>
      </trkpt>
      <trkpt lat="44.19202" lon="1.73626">
        <ele>279.6</ele>
        <time>2021-03-27T13:52:58Z</time>
      </trkpt>
      <trkpt lat="44.19197" lon="1.7363">
        <ele>279.9</ele>
        <time>2021-03-27T13:53:01Z</time>
      </trkpt>
      <trkpt lat="44.19192" lon="1.73626">
        <ele>280.2</ele>
        <time>2021-03-27T13:53:05Z</time>
      </trkpt>
      <trkpt lat="44.19187" lon="1.73624">
        <ele>280.5</ele>
        <time>2021-03-27T13:53:08Z</time>
      </trkpt>
      <trkpt lat="44.19182" lon="1.73623">
        <ele>280.8</ele>
        <time>2021-03-27T13:53:10Z</time>
      </trkpt>
      <trkpt lat="44.19178" lon="1.73622">
        <ele>281.1</ele>
        <time>2021-03-27T13:53:12Z</time>
      </trkpt>
      <trkpt lat="44.19172" lon="1.73618">
        <ele>281.4</ele>
        <time>2021-03-27T13:53:15Z</time>
      </trkpt>
      <trkpt lat="44.19168" lon="1.73617">
        <ele>281.7</ele>
        <time>2021-03-27T13:53:18Z</time>
      </trkpt>
      <trkpt lat="44.19167" lon="1.73617">
        <ele>281.7</ele>
        <time>2021-03-27T13:53:19Z</time>
      </trkpt>
      <trkpt lat="44.19163" lon="1.73622">
        <ele>282</ele>
        <time>2021-03-27T13:53:21Z</time>
      </trkpt>
      <trkpt lat="44.19159" lon="1.73627">
        <ele>282.4</ele>
        <time>2021-03-27T13:53:23Z</time>
      </trkpt>
      <trkpt lat="44.19155" lon="1.73622">
        <ele>282.7</ele>
        <time>2021-03-27T13:53:27Z</time>
      </trkpt>
      <trkpt lat="44.19151" lon="1.73616">
        <ele>283</ele>
        <time>2021-03-27T13:53:31Z</time>
      </trkpt>
      <trkpt lat="44.1915" lon="1.73615">
        <ele>283.1</ele>
        <time>2021-03-27T13:53:32Z</time>
      </trkpt>
      <trkpt lat="44.19148" lon="1.73614">
        <ele>283.2</ele>
        <time>2021-03-27T13:53:33Z</time>
      </trkpt>
      <trkpt lat="44.19143" lon="1.73614">
        <ele>283.5</ele>
        <time>2021-03-27T13:53:36Z</time>
      </trkpt>
      <trkpt lat="44.19138" lon="1.73615">
        <ele>283.8</ele>
        <time>2021-03-27T13:53:38Z</time>
      </trkpt>
      <trkpt lat="44.1913" lon="1.73616">
        <ele>284.2</ele>
        <time>2021-03-27T13:53:40Z</time>
      </trkpt>
      <trkpt lat="44.19124" lon="1.73616">
        <ele>284.6</ele>
        <time>2021-03-27T13:53:42Z</time>
      </trkpt>
      <trkpt lat="44.19119" lon="1.73618">
        <ele>284.9</ele>
        <time>2021-03-27T13:53:44Z</time>
      </trkpt>
      <trkpt lat="44.19115" lon="1.73615">
        <ele>285.2</ele>
        <time>2021-03-27T13:53:46Z</time>
      </trkpt>
      <trkpt lat="44.1911" lon="1.73612">
        <ele>284.7</ele>
        <time>2021-03-27T13:53:48Z</time>
      </trkpt>
      <trkpt lat="44.19106" lon="1.73608">
        <ele>283.6</ele>
        <time>2021-03-27T13:53:50Z</time>
      </trkpt>
      <trkpt lat="44.19104" lon="1.736">
        <ele>282.4</ele>
        <time>2021-03-27T13:53:53Z</time>
      </trkpt>
      <trkpt lat="44.19099" lon="1.73595">
        <ele>281.3</ele>
        <time>2021-03-27T13:53:55Z</time>
      </trkpt>
      <trkpt lat="44.19098" lon="1.73588">
        <ele>280.1</ele>
        <time>2021-03-27T13:53:57Z</time>
      </trkpt>
      <trkpt lat="44.19101" lon="1.73582">
        <ele>279.1</ele>
        <time>2021-03-27T13:53:59Z</time>
      </trkpt>
      <trkpt lat="44.19103" lon="1.73576">
        <ele>278.1</ele>
        <time>2021-03-27T13:54:02Z</time>
      </trkpt>
      <trkpt lat="44.19103" lon="1.7357">
        <ele>277.2</ele>
        <time>2021-03-27T13:54:05Z</time>
      </trkpt>
      <trkpt lat="44.19104" lon="1.73569">
        <ele>277</ele>
        <time>2021-03-27T13:54:06Z</time>
      </trkpt>
      <trkpt lat="44.19104" lon="1.73562">
        <ele>276</ele>
        <time>2021-03-27T13:54:13Z</time>
      </trkpt>
      <trkpt lat="44.19103" lon="1.73558">
        <ele>275.3</ele>
        <time>2021-03-27T13:54:17Z</time>
      </trkpt>
      <trkpt lat="44.19107" lon="1.73562">
        <ele>274.4</ele>
        <time>2021-03-27T13:54:25Z</time>
      </trkpt>
      <trkpt lat="44.19106" lon="1.73563">
        <ele>274.2</ele>
        <time>2021-03-27T13:54:26Z</time>
      </trkpt>
      <trkpt lat="44.19103" lon="1.73568">
        <ele>273.3</ele>
        <time>2021-03-27T13:54:37Z</time>
      </trkpt>
      <trkpt lat="44.19102" lon="1.73574">
        <ele>272.3</ele>
        <time>2021-03-27T13:54:39Z</time>
      </trkpt>
      <trkpt lat="44.19101" lon="1.73576">
        <ele>272</ele>
        <time>2021-03-27T13:54:41Z</time>
      </trkpt>
      <trkpt lat="44.19098" lon="1.73581">
        <ele>271</ele>
        <time>2021-03-27T13:54:48Z</time>
      </trkpt>
      <trkpt lat="44.19094" lon="1.73582">
        <ele>270.2</ele>
        <time>2021-03-27T13:54:53Z</time>
      </trkpt>
      <trkpt lat="44.1909" lon="1.73583">
        <ele>269.3</ele>
        <time>2021-03-27T13:54:55Z</time>
      </trkpt>
      <trkpt lat="44.19085" lon="1.73582">
        <ele>268.2</ele>
        <time>2021-03-27T13:54:57Z</time>
      </trkpt>
      <trkpt lat="44.1908" lon="1.73585">
        <ele>267.2</ele>
        <time>2021-03-27T13:55:00Z</time>
      </trkpt>
      <trkpt lat="44.19078" lon="1.73586">
        <ele>266.7</ele>
        <time>2021-03-27T13:55:05Z</time>
      </trkpt>
      <trkpt lat="44.19074" lon="1.73591">
        <ele>265.6</ele>
        <time>2021-03-27T13:55:07Z</time>
      </trkpt>
      <trkpt lat="44.19069" lon="1.73595">
        <ele>264.4</ele>
        <time>2021-03-27T13:55:09Z</time>
      </trkpt>
      <trkpt lat="44.19065" lon="1.73599">
        <ele>263.4</ele>
        <time>2021-03-27T13:55:11Z</time>
      </trkpt>
      <trkpt lat="44.19062" lon="1.73604">
        <ele>262.4</ele>
        <time>2021-03-27T13:55:14Z</time>
      </trkpt>
      <trkpt lat="44.19061" lon="1.73605">
        <ele>262.2</ele>
        <time>2021-03-27T13:55:15Z</time>
      </trkpt>
      <trkpt lat="44.19058" lon="1.73602">
        <ele>261.4</ele>
        <time>2021-03-27T13:55:19Z</time>
      </trkpt>
      <trkpt lat="44.19057" lon="1.73595">
        <ele>260.4</ele>
        <time>2021-03-27T13:55:22Z</time>
      </trkpt>
      <trkpt lat="44.19054" lon="1.73589">
        <ele>259.3</ele>
        <time>2021-03-27T13:55:25Z</time>
      </trkpt>
      <trkpt lat="44.19052" lon="1.73583">
        <ele>258.3</ele>
        <time>2021-03-27T13:55:27Z</time>
      </trkpt>
      <trkpt lat="44.19051" lon="1.73575">
        <ele>257.1</ele>
        <time>2021-03-27T13:55:30Z</time>
      </trkpt>
      <trkpt lat="44.19051" lon="1.73575">
        <ele>257.1</ele>
        <time>2021-03-27T13:55:31Z</time>
      </trkpt>
      <trkpt lat="44.19049" lon="1.73574">
        <ele>256.8</ele>
        <time>2021-03-27T13:55:36Z</time>
      </trkpt>
      <trkpt lat="44.19047" lon="1.73572">
        <ele>256.2</ele>
        <time>2021-03-27T13:55:38Z</time>
      </trkpt>
      <trkpt lat="44.19042" lon="1.73574">
        <ele>255.2</ele>
        <time>2021-03-27T13:55:50Z</time>
      </trkpt>
      <trkpt lat="44.19038" lon="1.73576">
        <ele>254.2</ele>
        <time>2021-03-27T13:56:04Z</time>
      </trkpt>
      <trkpt lat="44.19036" lon="1.73577">
        <ele>253.7</ele>
        <time>2021-03-27T13:56:06Z</time>
      </trkpt>
      <trkpt lat="44.19029" lon="1.73578">
        <ele>252.3</ele>
        <time>2021-03-27T13:56:09Z</time>
      </trkpt>
      <trkpt lat="44.19024" lon="1.7358">
        <ele>251.2</ele>
        <time>2021-03-27T13:56:12Z</time>
      </trkpt>
      <trkpt lat="44.19021" lon="1.73575">
        <ele>250.1</ele>
        <time>2021-03-27T13:56:16Z</time>
      </trkpt>
      <trkpt lat="44.19021" lon="1.73573">
        <ele>249.9</ele>
        <time>2021-03-27T13:56:17Z</time>
      </trkpt>
      <trkpt lat="44.1902" lon="1.73569">
        <ele>249.2</ele>
        <time>2021-03-27T13:56:21Z</time>
      </trkpt>
      <trkpt lat="44.1902" lon="1.73562">
        <ele>248.3</ele>
        <time>2021-03-27T13:56:24Z</time>
      </trkpt>
      <trkpt lat="44.19019" lon="1.7356">
        <ele>247.8</ele>
        <time>2021-03-27T13:56:26Z</time>
      </trkpt>
      <trkpt lat="44.19017" lon="1.73557">
        <ele>247.3</ele>
        <time>2021-03-27T13:56:28Z</time>
      </trkpt>
      <trkpt lat="44.19016" lon="1.73561">
        <ele>246.6</ele>
        <time>2021-03-27T13:56:33Z</time>
      </trkpt>
      <trkpt lat="44.19014" lon="1.73564">
        <ele>246.1</ele>
        <time>2021-03-27T13:56:35Z</time>
      </trkpt>
      <trkpt lat="44.1901" lon="1.73567">
        <ele>245.1</ele>
        <time>2021-03-27T13:56:40Z</time>
      </trkpt>
      <trkpt lat="44.19006" lon="1.73569">
        <ele>244.2</ele>
        <time>2021-03-27T13:56:45Z</time>
      </trkpt>
      <trkpt lat="44.19001" lon="1.73569">
        <ele>243.2</ele>
        <time>2021-03-27T13:56:53Z</time>
      </trkpt>
      <trkpt lat="44.18997" lon="1.73572">
        <ele>242.2</ele>
        <time>2021-03-27T13:57:09Z</time>
      </trkpt>
      <trkpt lat="44.18995" lon="1.73573">
        <ele>241.7</ele>
        <time>2021-03-27T13:57:14Z</time>
      </trkpt>
      <trkpt lat="44.1899" lon="1.73576">
        <ele>240.6</ele>
        <time>2021-03-27T13:57:16Z</time>
      </trkpt>
      <trkpt lat="44.18986" lon="1.73579">
        <ele>239.6</ele>
        <time>2021-03-27T13:57:18Z</time>
      </trkpt>
      <trkpt lat="44.18981" lon="1.73582">
        <ele>238.5</ele>
        <time>2021-03-27T13:57:21Z</time>
      </trkpt>
      <trkpt lat="44.1898" lon="1.73582">
        <ele>238.3</ele>
        <time>2021-03-27T13:57:22Z</time>
      </trkpt>
      <trkpt lat="44.18979" lon="1.73576">
        <ele>237.3</ele>
        <time>2021-03-27T13:57:28Z</time>
      </trkpt>
      <trkpt lat="44.18978" lon="1.73569">
        <ele>236.3</ele>
        <time>2021-03-27T13:57:35Z</time>
      </trkpt>
      <trkpt lat="44.18976" lon="1.73568">
        <ele>235.9</ele>
        <time>2021-03-27T13:57:36Z</time>
      </trkpt>
      <trkpt lat="44.18973" lon="1.73565">
        <ele>235.1</ele>
        <time>2021-03-27T13:57:39Z</time>
      </trkpt>
      <trkpt lat="44.1897" lon="1.73563">
        <ele>234.4</ele>
        <time>2021-03-27T13:57:42Z</time>
      </trkpt>
      <trkpt lat="44.18964" lon="1.73562">
        <ele>233.2</ele>
        <time>2021-03-27T13:57:46Z</time>
      </trkpt>
      <trkpt lat="44.18963" lon="1.73562">
        <ele>233</ele>
        <time>2021-03-27T13:57:47Z</time>
      </trkpt>
      <trkpt lat="44.18964" lon="1.73565">
        <ele>232.6</ele>
        <time>2021-03-27T13:57:48Z</time>
      </trkpt>
      <trkpt lat="44.18965" lon="1.73567">
        <ele>232.2</ele>
        <time>2021-03-27T13:57:50Z</time>
      </trkpt>
      <trkpt lat="44.18962" lon="1.73569">
        <ele>231.5</ele>
        <time>2021-03-27T13:57:54Z</time>
      </trkpt>
      <trkpt lat="44.18959" lon="1.73569">
        <ele>231</ele>
        <time>2021-03-27T13:57:56Z</time>
      </trkpt>
      <trkpt lat="44.18957" lon="1.73568">
        <ele>230.4</ele>
        <time>2021-03-27T13:57:58Z</time>
      </trkpt>
      <trkpt lat="44.18952" lon="1.73569">
        <ele>229.6</ele>
        <time>2021-03-27T13:58:01Z</time>
      </trkpt>
      <trkpt lat="44.1895" lon="1.73575">
        <ele>226.9</ele>
        <time>2021-03-27T13:58:18Z</time>
      </trkpt>
      <trkpt lat="44.18945" lon="1.73574">
        <ele>226.9</ele>
        <time>2021-03-27T13:58:27Z</time>
      </trkpt>
      <trkpt lat="44.1894" lon="1.73574">
        <ele>226.9</ele>
        <time>2021-03-27T13:58:30Z</time>
      </trkpt>
      <trkpt lat="44.18938" lon="1.73574">
        <ele>226.9</ele>
        <time>2021-03-27T13:58:32Z</time>
      </trkpt>
      <trkpt lat="44.18937" lon="1.73575">
        <ele>226.9</ele>
        <time>2021-03-27T13:58:33Z</time>
      </trkpt>
      <trkpt lat="44.18936" lon="1.73578">
        <ele>226.9</ele>
        <time>2021-03-27T13:58:35Z</time>
      </trkpt>
      <trkpt lat="44.18935" lon="1.73579">
        <ele>226.9</ele>
        <time>2021-03-27T13:58:36Z</time>
      </trkpt>
      <trkpt lat="44.18939" lon="1.73576">
        <ele>226.9</ele>
        <time>2021-03-27T14:01:26Z</time>
      </trkpt>
      <trkpt lat="44.1894" lon="1.73574">
        <ele>226.9</ele>
        <time>2021-03-27T14:01:27Z</time>
      </trkpt>
      <trkpt lat="44.1894" lon="1.7357">
        <ele>226.9</ele>
        <time>2021-03-27T14:01:46Z</time>
      </trkpt>
      <trkpt lat="44.1894" lon="1.73569">
        <ele>226.9</ele>
        <time>2021-03-27T14:01:47Z</time>
      </trkpt>
      <trkpt lat="44.18943" lon="1.73563">
        <ele>228.1</ele>
        <time>2021-03-27T14:01:55Z</time>
      </trkpt>
      <trkpt lat="44.18946" lon="1.73558">
        <ele>228.6</ele>
        <time>2021-03-27T14:02:02Z</time>
      </trkpt>
      <trkpt lat="44.18948" lon="1.73551">
        <ele>229.1</ele>
        <time>2021-03-27T14:02:23Z</time>
      </trkpt>
      <trkpt lat="44.1895" lon="1.73545">
        <ele>229.6</ele>
        <time>2021-03-27T14:02:27Z</time>
      </trkpt>
      <trkpt lat="44.18951" lon="1.73544">
        <ele>229.7</ele>
        <time>2021-03-27T14:02:28Z</time>
      </trkpt>
      <trkpt lat="44.18953" lon="1.73538">
        <ele>230.2</ele>
        <time>2021-03-27T14:02:33Z</time>
      </trkpt>
      <trkpt lat="44.18955" lon="1.73537">
        <ele>230.3</ele>
        <time>2021-03-27T14:02:34Z</time>
      </trkpt>
      <trkpt lat="44.18957" lon="1.73533">
        <ele>230.7</ele>
        <time>2021-03-27T14:02:37Z</time>
      </trkpt>
      <trkpt lat="44.18961" lon="1.73528">
        <ele>231.2</ele>
        <time>2021-03-27T14:02:43Z</time>
      </trkpt>
      <trkpt lat="44.18963" lon="1.73526">
        <ele>231.4</ele>
        <time>2021-03-27T14:02:45Z</time>
      </trkpt>
      <trkpt lat="44.18967" lon="1.73522">
        <ele>231.9</ele>
        <time>2021-03-27T14:02:51Z</time>
      </trkpt>
      <trkpt lat="44.1897" lon="1.73516">
        <ele>232.4</ele>
        <time>2021-03-27T14:02:56Z</time>
      </trkpt>
      <trkpt lat="44.18972" lon="1.73514">
        <ele>232.7</ele>
        <time>2021-03-27T14:02:58Z</time>
      </trkpt>
      <trkpt lat="44.18975" lon="1.73508">
        <ele>233.2</ele>
        <time>2021-03-27T14:03:03Z</time>
      </trkpt>
      <trkpt lat="44.18977" lon="1.73506">
        <ele>233.4</ele>
        <time>2021-03-27T14:03:05Z</time>
      </trkpt>
      <trkpt lat="44.18979" lon="1.73504">
        <ele>233.7</ele>
        <time>2021-03-27T14:03:07Z</time>
      </trkpt>
      <trkpt lat="44.18981" lon="1.73501">
        <ele>233.9</ele>
        <time>2021-03-27T14:03:09Z</time>
      </trkpt>
      <trkpt lat="44.18983" lon="1.73496">
        <ele>234.3</ele>
        <time>2021-03-27T14:03:12Z</time>
      </trkpt>
      <trkpt lat="44.18984" lon="1.73491">
        <ele>234.8</ele>
        <time>2021-03-27T14:03:17Z</time>
      </trkpt>
      <trkpt lat="44.18985" lon="1.73488">
        <ele>235</ele>
        <time>2021-03-27T14:03:19Z</time>
      </trkpt>
      <trkpt lat="44.18989" lon="1.73483">
        <ele>235.5</ele>
        <time>2021-03-27T14:03:31Z</time>
      </trkpt>
      <trkpt lat="44.1899" lon="1.73479">
        <ele>235.7</ele>
        <time>2021-03-27T14:03:33Z</time>
      </trkpt>
      <trkpt lat="44.18992" lon="1.73474">
        <ele>236.2</ele>
        <time>2021-03-27T14:03:38Z</time>
      </trkpt>
      <trkpt lat="44.18993" lon="1.73466">
        <ele>236.7</ele>
        <time>2021-03-27T14:03:44Z</time>
      </trkpt>
      <trkpt lat="44.18994" lon="1.73465">
        <ele>236.9</ele>
        <time>2021-03-27T14:03:45Z</time>
      </trkpt>
      <trkpt lat="44.18995" lon="1.73459">
        <ele>237.3</ele>
        <time>2021-03-27T14:03:51Z</time>
      </trkpt>
      <trkpt lat="44.18995" lon="1.73451">
        <ele>237.8</ele>
        <time>2021-03-27T14:04:00Z</time>
      </trkpt>
      <trkpt lat="44.18995" lon="1.73444">
        <ele>238.3</ele>
        <time>2021-03-27T14:04:07Z</time>
      </trkpt>
      <trkpt lat="44.18997" lon="1.73439">
        <ele>238.8</ele>
        <time>2021-03-27T14:04:12Z</time>
      </trkpt>
      <trkpt lat="44.18999" lon="1.73432">
        <ele>239.3</ele>
        <time>2021-03-27T14:04:18Z</time>
      </trkpt>
      <trkpt lat="44.19001" lon="1.73426">
        <ele>239.8</ele>
        <time>2021-03-27T14:04:24Z</time>
      </trkpt>
      <trkpt lat="44.19002" lon="1.73419">
        <ele>240.2</ele>
        <time>2021-03-27T14:04:30Z</time>
      </trkpt>
      <trkpt lat="44.19002" lon="1.73418">
        <ele>240.3</ele>
        <time>2021-03-27T14:04:31Z</time>
      </trkpt>
      <trkpt lat="44.19003" lon="1.73411">
        <ele>240.8</ele>
        <time>2021-03-27T14:04:37Z</time>
      </trkpt>
      <trkpt lat="44.19004" lon="1.73404">
        <ele>241.3</ele>
        <time>2021-03-27T14:04:45Z</time>
      </trkpt>
      <trkpt lat="44.19003" lon="1.73397">
        <ele>241.8</ele>
        <time>2021-03-27T14:04:53Z</time>
      </trkpt>
      <trkpt lat="44.19004" lon="1.73391">
        <ele>242.3</ele>
        <time>2021-03-27T14:04:59Z</time>
      </trkpt>
      <trkpt lat="44.19003" lon="1.73385">
        <ele>242.7</ele>
        <time>2021-03-27T14:05:04Z</time>
      </trkpt>
      <trkpt lat="44.19006" lon="1.73378">
        <ele>243.3</ele>
        <time>2021-03-27T14:05:12Z</time>
      </trkpt>
      <trkpt lat="44.19008" lon="1.73375">
        <ele>243.5</ele>
        <time>2021-03-27T14:05:14Z</time>
      </trkpt>
      <trkpt lat="44.19007" lon="1.73369">
        <ele>244</ele>
        <time>2021-03-27T14:05:20Z</time>
      </trkpt>
      <trkpt lat="44.19006" lon="1.73362">
        <ele>244.5</ele>
        <time>2021-03-27T14:05:27Z</time>
      </trkpt>
      <trkpt lat="44.19007" lon="1.73356">
        <ele>245</ele>
        <time>2021-03-27T14:05:36Z</time>
      </trkpt>
      <trkpt lat="44.19008" lon="1.73349">
        <ele>245.4</ele>
        <time>2021-03-27T14:05:42Z</time>
      </trkpt>
      <trkpt lat="44.19005" lon="1.73344">
        <ele>245.9</ele>
        <time>2021-03-27T14:05:49Z</time>
      </trkpt>
      <trkpt lat="44.19004" lon="1.73337">
        <ele>246.4</ele>
        <time>2021-03-27T14:05:57Z</time>
      </trkpt>
      <trkpt lat="44.19002" lon="1.73332">
        <ele>246.8</ele>
        <time>2021-03-27T14:06:04Z</time>
      </trkpt>
      <trkpt lat="44.18998" lon="1.73327">
        <ele>247.3</ele>
        <time>2021-03-27T14:06:12Z</time>
      </trkpt>
      <trkpt lat="44.18996" lon="1.73321">
        <ele>247.7</ele>
        <time>2021-03-27T14:06:21Z</time>
      </trkpt>
      <trkpt lat="44.18993" lon="1.73316">
        <ele>248.2</ele>
        <time>2021-03-27T14:06:30Z</time>
      </trkpt>
      <trkpt lat="44.1899" lon="1.73311">
        <ele>248.7</ele>
        <time>2021-03-27T14:06:37Z</time>
      </trkpt>
      <trkpt lat="44.18988" lon="1.73305">
        <ele>249.2</ele>
        <time>2021-03-27T14:06:46Z</time>
      </trkpt>
      <trkpt lat="44.18987" lon="1.73298">
        <ele>249.6</ele>
        <time>2021-03-27T14:06:53Z</time>
      </trkpt>
      <trkpt lat="44.18983" lon="1.73294">
        <ele>250.1</ele>
        <time>2021-03-27T14:06:59Z</time>
      </trkpt>
      <trkpt lat="44.18979" lon="1.7329">
        <ele>250.6</ele>
        <time>2021-03-27T14:07:08Z</time>
      </trkpt>
      <trkpt lat="44.18976" lon="1.73285">
        <ele>251.1</ele>
        <time>2021-03-27T14:07:17Z</time>
      </trkpt>
      <trkpt lat="44.18973" lon="1.7328">
        <ele>251.6</ele>
        <time>2021-03-27T14:07:34Z</time>
      </trkpt>
      <trkpt lat="44.18969" lon="1.73274">
        <ele>252.1</ele>
        <time>2021-03-27T14:07:40Z</time>
      </trkpt>
      <trkpt lat="44.18966" lon="1.73269">
        <ele>252.6</ele>
        <time>2021-03-27T14:07:46Z</time>
      </trkpt>
      <trkpt lat="44.18963" lon="1.73264">
        <ele>253</ele>
        <time>2021-03-27T14:07:54Z</time>
      </trkpt>
      <trkpt lat="44.18962" lon="1.73258">
        <ele>253.5</ele>
        <time>2021-03-27T14:08:02Z</time>
      </trkpt>
      <trkpt lat="44.1896" lon="1.7325">
        <ele>254</ele>
        <time>2021-03-27T14:08:09Z</time>
      </trkpt>
      <trkpt lat="44.18958" lon="1.73244">
        <ele>254.5</ele>
        <time>2021-03-27T14:08:16Z</time>
      </trkpt>
      <trkpt lat="44.18955" lon="1.73241">
        <ele>254.9</ele>
        <time>2021-03-27T14:08:23Z</time>
      </trkpt>
      <trkpt lat="44.18951" lon="1.73235">
        <ele>255.4</ele>
        <time>2021-03-27T14:08:33Z</time>
      </trkpt>
      <trkpt lat="44.18949" lon="1.73229">
        <ele>255.9</ele>
        <time>2021-03-27T14:08:43Z</time>
      </trkpt>
      <trkpt lat="44.18945" lon="1.73226">
        <ele>256.4</ele>
        <time>2021-03-27T14:08:48Z</time>
      </trkpt>
      <trkpt lat="44.18941" lon="1.73221">
        <ele>256.9</ele>
        <time>2021-03-27T14:08:54Z</time>
      </trkpt>
      <trkpt lat="44.18938" lon="1.73215">
        <ele>257.4</ele>
        <time>2021-03-27T14:09:02Z</time>
      </trkpt>
      <trkpt lat="44.18936" lon="1.7321">
        <ele>257.8</ele>
        <time>2021-03-27T14:09:08Z</time>
      </trkpt>
      <trkpt lat="44.18935" lon="1.73203">
        <ele>258.3</ele>
        <time>2021-03-27T14:09:14Z</time>
      </trkpt>
      <trkpt lat="44.18933" lon="1.73197">
        <ele>258.8</ele>
        <time>2021-03-27T14:09:23Z</time>
      </trkpt>
      <trkpt lat="44.18929" lon="1.73193">
        <ele>259.3</ele>
        <time>2021-03-27T14:09:30Z</time>
      </trkpt>
      <trkpt lat="44.18925" lon="1.73189">
        <ele>259.8</ele>
        <time>2021-03-27T14:09:39Z</time>
      </trkpt>
      <trkpt lat="44.18923" lon="1.73183">
        <ele>260.3</ele>
        <time>2021-03-27T14:09:52Z</time>
      </trkpt>
      <trkpt lat="44.1892" lon="1.73177">
        <ele>260.8</ele>
        <time>2021-03-27T14:09:57Z</time>
      </trkpt>
      <trkpt lat="44.18917" lon="1.7317">
        <ele>261.3</ele>
        <time>2021-03-27T14:10:02Z</time>
      </trkpt>
      <trkpt lat="44.18914" lon="1.73165">
        <ele>261.8</ele>
        <time>2021-03-27T14:10:07Z</time>
      </trkpt>
      <trkpt lat="44.18913" lon="1.73158">
        <ele>262.3</ele>
        <time>2021-03-27T14:10:13Z</time>
      </trkpt>
      <trkpt lat="44.18912" lon="1.73151">
        <ele>262.8</ele>
        <time>2021-03-27T14:10:18Z</time>
      </trkpt>
      <trkpt lat="44.18912" lon="1.73144">
        <ele>263.3</ele>
        <time>2021-03-27T14:10:23Z</time>
      </trkpt>
      <trkpt lat="44.1891" lon="1.73138">
        <ele>263.8</ele>
        <time>2021-03-27T14:10:28Z</time>
      </trkpt>
      <trkpt lat="44.18907" lon="1.73133">
        <ele>264.3</ele>
        <time>2021-03-27T14:10:33Z</time>
      </trkpt>
      <trkpt lat="44.18904" lon="1.73127">
        <ele>264.7</ele>
        <time>2021-03-27T14:10:39Z</time>
      </trkpt>
      <trkpt lat="44.18901" lon="1.73121">
        <ele>265.3</ele>
        <time>2021-03-27T14:10:44Z</time>
      </trkpt>
      <trkpt lat="44.18899" lon="1.73115">
        <ele>265.7</ele>
        <time>2021-03-27T14:10:49Z</time>
      </trkpt>
      <trkpt lat="44.18896" lon="1.73111">
        <ele>266.2</ele>
        <time>2021-03-27T14:10:54Z</time>
      </trkpt>
      <trkpt lat="44.18892" lon="1.73106">
        <ele>266.7</ele>
        <time>2021-03-27T14:11:00Z</time>
      </trkpt>
      <trkpt lat="44.18888" lon="1.73102">
        <ele>267.1</ele>
        <time>2021-03-27T14:11:05Z</time>
      </trkpt>
      <trkpt lat="44.18886" lon="1.73096">
        <ele>267.6</ele>
        <time>2021-03-27T14:11:14Z</time>
      </trkpt>
      <trkpt lat="44.18883" lon="1.73092">
        <ele>268.1</ele>
        <time>2021-03-27T14:11:30Z</time>
      </trkpt>
      <trkpt lat="44.18882" lon="1.73085">
        <ele>268.6</ele>
        <time>2021-03-27T14:11:38Z</time>
      </trkpt>
      <trkpt lat="44.18881" lon="1.73078">
        <ele>269</ele>
        <time>2021-03-27T14:11:48Z</time>
      </trkpt>
      <trkpt lat="44.1888" lon="1.73077">
        <ele>269.1</ele>
        <time>2021-03-27T14:11:49Z</time>
      </trkpt>
      <trkpt lat="44.18876" lon="1.73073">
        <ele>269.6</ele>
        <time>2021-03-27T14:11:56Z</time>
      </trkpt>
      <trkpt lat="44.18873" lon="1.73078">
        <ele>270.1</ele>
        <time>2021-03-27T14:12:03Z</time>
      </trkpt>
      <trkpt lat="44.18872" lon="1.73085">
        <ele>270.7</ele>
        <time>2021-03-27T14:16:45Z</time>
      </trkpt>
      <trkpt lat="44.18871" lon="1.73092">
        <ele>271.1</ele>
        <time>2021-03-27T14:16:48Z</time>
      </trkpt>
      <trkpt lat="44.18868" lon="1.73099">
        <ele>271.7</ele>
        <time>2021-03-27T14:16:52Z</time>
      </trkpt>
      <trkpt lat="44.18864" lon="1.73101">
        <ele>272.2</ele>
        <time>2021-03-27T14:16:56Z</time>
      </trkpt>
      <trkpt lat="44.18862" lon="1.731">
        <ele>272.3</ele>
        <time>2021-03-27T14:16:57Z</time>
      </trkpt>
      <trkpt lat="44.18858" lon="1.73098">
        <ele>272.8</ele>
        <time>2021-03-27T14:17:00Z</time>
      </trkpt>
      <trkpt lat="44.18852" lon="1.73097">
        <ele>273.3</ele>
        <time>2021-03-27T14:17:03Z</time>
      </trkpt>
      <trkpt lat="44.18848" lon="1.73102">
        <ele>273.9</ele>
        <time>2021-03-27T14:17:06Z</time>
      </trkpt>
      <trkpt lat="44.18844" lon="1.73108">
        <ele>274.5</ele>
        <time>2021-03-27T14:17:09Z</time>
      </trkpt>
      <trkpt lat="44.18839" lon="1.73115">
        <ele>275.1</ele>
        <time>2021-03-27T14:17:12Z</time>
      </trkpt>
      <trkpt lat="44.18834" lon="1.73118">
        <ele>275.7</ele>
        <time>2021-03-27T14:17:15Z</time>
      </trkpt>
      <trkpt lat="44.18828" lon="1.73117">
        <ele>276.3</ele>
        <time>2021-03-27T14:17:18Z</time>
      </trkpt>
      <trkpt lat="44.18822" lon="1.73117">
        <ele>276.8</ele>
        <time>2021-03-27T14:17:21Z</time>
      </trkpt>
      <trkpt lat="44.18818" lon="1.7312">
        <ele>277.3</ele>
        <time>2021-03-27T14:17:24Z</time>
      </trkpt>
      <trkpt lat="44.18813" lon="1.73123">
        <ele>277.9</ele>
        <time>2021-03-27T14:17:27Z</time>
      </trkpt>
      <trkpt lat="44.18809" lon="1.73129">
        <ele>278.5</ele>
        <time>2021-03-27T14:17:30Z</time>
      </trkpt>
      <trkpt lat="44.18806" lon="1.73135">
        <ele>278.9</ele>
        <time>2021-03-27T14:17:32Z</time>
      </trkpt>
      <trkpt lat="44.18803" lon="1.7314">
        <ele>279.4</ele>
        <time>2021-03-27T14:17:34Z</time>
      </trkpt>
      <trkpt lat="44.188" lon="1.73147">
        <ele>280</ele>
        <time>2021-03-27T14:17:36Z</time>
      </trkpt>
      <trkpt lat="44.18797" lon="1.73153">
        <ele>280.5</ele>
        <time>2021-03-27T14:17:38Z</time>
      </trkpt>
      <trkpt lat="44.18794" lon="1.7316">
        <ele>281.1</ele>
        <time>2021-03-27T14:17:40Z</time>
      </trkpt>
      <trkpt lat="44.18791" lon="1.73167">
        <ele>281.6</ele>
        <time>2021-03-27T14:17:42Z</time>
      </trkpt>
      <trkpt lat="44.18788" lon="1.73174">
        <ele>282.2</ele>
        <time>2021-03-27T14:17:44Z</time>
      </trkpt>
      <trkpt lat="44.18785" lon="1.73181">
        <ele>282.8</ele>
        <time>2021-03-27T14:17:46Z</time>
      </trkpt>
      <trkpt lat="44.18782" lon="1.73187">
        <ele>283.3</ele>
        <time>2021-03-27T14:17:48Z</time>
      </trkpt>
      <trkpt lat="44.18778" lon="1.73192">
        <ele>283.9</ele>
        <time>2021-03-27T14:17:50Z</time>
      </trkpt>
      <trkpt lat="44.18774" lon="1.73197">
        <ele>284.4</ele>
        <time>2021-03-27T14:17:52Z</time>
      </trkpt>
      <trkpt lat="44.18773" lon="1.73205">
        <ele>285</ele>
        <time>2021-03-27T14:17:55Z</time>
      </trkpt>
      <trkpt lat="44.18775" lon="1.73211">
        <ele>285.4</ele>
        <time>2021-03-27T14:17:57Z</time>
      </trkpt>
      <trkpt lat="44.18777" lon="1.73217">
        <ele>285.9</ele>
        <time>2021-03-27T14:17:59Z</time>
      </trkpt>
      <trkpt lat="44.1878" lon="1.73226">
        <ele>286.6</ele>
        <time>2021-03-27T14:18:01Z</time>
      </trkpt>
      <trkpt lat="44.18779" lon="1.73234">
        <ele>287.2</ele>
        <time>2021-03-27T14:18:03Z</time>
      </trkpt>
      <trkpt lat="44.18776" lon="1.73241">
        <ele>287.7</ele>
        <time>2021-03-27T14:18:05Z</time>
      </trkpt>
      <trkpt lat="44.18772" lon="1.73246">
        <ele>288.2</ele>
        <time>2021-03-27T14:18:07Z</time>
      </trkpt>
      <trkpt lat="44.18768" lon="1.73253">
        <ele>288.9</ele>
        <time>2021-03-27T14:18:10Z</time>
      </trkpt>
      <trkpt lat="44.18766" lon="1.73259">
        <ele>289.3</ele>
        <time>2021-03-27T14:18:12Z</time>
      </trkpt>
      <trkpt lat="44.18768" lon="1.73267">
        <ele>290</ele>
        <time>2021-03-27T14:18:15Z</time>
      </trkpt>
      <trkpt lat="44.1877" lon="1.73274">
        <ele>290.5</ele>
        <time>2021-03-27T14:18:17Z</time>
      </trkpt>
      <trkpt lat="44.18771" lon="1.73281">
        <ele>291</ele>
        <time>2021-03-27T14:18:19Z</time>
      </trkpt>
      <trkpt lat="44.18773" lon="1.73287">
        <ele>291.5</ele>
        <time>2021-03-27T14:18:21Z</time>
      </trkpt>
      <trkpt lat="44.18774" lon="1.73295">
        <ele>292.1</ele>
        <time>2021-03-27T14:18:24Z</time>
      </trkpt>
      <trkpt lat="44.18772" lon="1.73301">
        <ele>292.5</ele>
        <time>2021-03-27T14:18:26Z</time>
      </trkpt>
      <trkpt lat="44.18772" lon="1.73307">
        <ele>293</ele>
        <time>2021-03-27T14:18:28Z</time>
      </trkpt>
      <trkpt lat="44.1877" lon="1.73312">
        <ele>293.3</ele>
        <time>2021-03-27T14:18:31Z</time>
      </trkpt>
      <trkpt lat="44.1877" lon="1.73318">
        <ele>293.8</ele>
        <time>2021-03-27T14:18:39Z</time>
      </trkpt>
      <trkpt lat="44.18772" lon="1.73326">
        <ele>294.4</ele>
        <time>2021-03-27T14:18:55Z</time>
      </trkpt>
      <trkpt lat="44.18774" lon="1.73334">
        <ele>295</ele>
        <time>2021-03-27T14:18:58Z</time>
      </trkpt>
      <trkpt lat="44.18777" lon="1.73342">
        <ele>295.6</ele>
        <time>2021-03-27T14:19:01Z</time>
      </trkpt>
      <trkpt lat="44.18778" lon="1.73349">
        <ele>296.1</ele>
        <time>2021-03-27T14:19:04Z</time>
      </trkpt>
      <trkpt lat="44.18779" lon="1.73357">
        <ele>296.7</ele>
        <time>2021-03-27T14:19:08Z</time>
      </trkpt>
      <trkpt lat="44.1878" lon="1.73366">
        <ele>298</ele>
        <time>2021-03-27T14:19:11Z</time>
      </trkpt>
      <trkpt lat="44.18779" lon="1.73369">
        <ele>298</ele>
        <time>2021-03-27T14:19:13Z</time>
      </trkpt>
      <trkpt lat="44.18776" lon="1.73372">
        <ele>298</ele>
        <time>2021-03-27T14:19:16Z</time>
      </trkpt>
      <trkpt lat="44.18771" lon="1.73373">
        <ele>297.9</ele>
        <time>2021-03-27T14:19:19Z</time>
      </trkpt>
      <trkpt lat="44.18767" lon="1.73372">
        <ele>297.9</ele>
        <time>2021-03-27T14:19:21Z</time>
      </trkpt>
      <trkpt lat="44.18762" lon="1.73373">
        <ele>298</ele>
        <time>2021-03-27T14:19:23Z</time>
      </trkpt>
      <trkpt lat="44.18757" lon="1.73375">
        <ele>298.1</ele>
        <time>2021-03-27T14:19:25Z</time>
      </trkpt>
      <trkpt lat="44.18751" lon="1.73377">
        <ele>298.4</ele>
        <time>2021-03-27T14:19:27Z</time>
      </trkpt>
      <trkpt lat="44.18746" lon="1.73378">
        <ele>298.6</ele>
        <time>2021-03-27T14:19:29Z</time>
      </trkpt>
      <trkpt lat="44.1874" lon="1.7338">
        <ele>298.9</ele>
        <time>2021-03-27T14:19:31Z</time>
      </trkpt>
      <trkpt lat="44.18737" lon="1.73385">
        <ele>299.2</ele>
        <time>2021-03-27T14:19:33Z</time>
      </trkpt>
      <trkpt lat="44.18737" lon="1.73392">
        <ele>299.5</ele>
        <time>2021-03-27T14:19:35Z</time>
      </trkpt>
      <trkpt lat="44.18739" lon="1.73401">
        <ele>299.9</ele>
        <time>2021-03-27T14:19:37Z</time>
      </trkpt>
      <trkpt lat="44.18741" lon="1.73411">
        <ele>300.3</ele>
        <time>2021-03-27T14:19:39Z</time>
      </trkpt>
      <trkpt lat="44.18745" lon="1.73418">
        <ele>300.4</ele>
        <time>2021-03-27T14:19:41Z</time>
      </trkpt>
      <trkpt lat="44.18745" lon="1.73425">
        <ele>300.4</ele>
        <time>2021-03-27T14:19:44Z</time>
      </trkpt>
      <trkpt lat="44.18744" lon="1.73426">
        <ele>300.4</ele>
        <time>2021-03-27T14:19:45Z</time>
      </trkpt>
      <trkpt lat="44.18743" lon="1.73429">
        <ele>300.4</ele>
        <time>2021-03-27T14:19:47Z</time>
      </trkpt>
      <trkpt lat="44.18739" lon="1.73439">
        <ele>300.3</ele>
        <time>2021-03-27T14:19:50Z</time>
      </trkpt>
      <trkpt lat="44.18737" lon="1.73446">
        <ele>300.2</ele>
        <time>2021-03-27T14:19:52Z</time>
      </trkpt>
      <trkpt lat="44.18735" lon="1.73454">
        <ele>300.2</ele>
        <time>2021-03-27T14:19:55Z</time>
      </trkpt>
      <trkpt lat="44.18732" lon="1.73459">
        <ele>300.2</ele>
        <time>2021-03-27T14:19:58Z</time>
      </trkpt>
      <trkpt lat="44.18727" lon="1.73464">
        <ele>300.2</ele>
        <time>2021-03-27T14:20:01Z</time>
      </trkpt>
      <trkpt lat="44.18723" lon="1.73469">
        <ele>300.2</ele>
        <time>2021-03-27T14:20:03Z</time>
      </trkpt>
      <trkpt lat="44.18718" lon="1.7347">
        <ele>300.1</ele>
        <time>2021-03-27T14:20:05Z</time>
      </trkpt>
      <trkpt lat="44.18713" lon="1.73472">
        <ele>300.1</ele>
        <time>2021-03-27T14:20:08Z</time>
      </trkpt>
      <trkpt lat="44.18709" lon="1.73476">
        <ele>300.1</ele>
        <time>2021-03-27T14:20:10Z</time>
      </trkpt>
      <trkpt lat="44.18704" lon="1.73476">
        <ele>300.1</ele>
        <time>2021-03-27T14:20:13Z</time>
      </trkpt>
      <trkpt lat="44.18703" lon="1.73477">
        <ele>300.1</ele>
        <time>2021-03-27T14:20:14Z</time>
      </trkpt>
      <trkpt lat="44.18702" lon="1.73478">
        <ele>300</ele>
        <time>2021-03-27T14:20:15Z</time>
      </trkpt>
      <trkpt lat="44.18696" lon="1.73483">
        <ele>300</ele>
        <time>2021-03-27T14:20:18Z</time>
      </trkpt>
      <trkpt lat="44.18691" lon="1.73486">
        <ele>300</ele>
        <time>2021-03-27T14:20:21Z</time>
      </trkpt>
      <trkpt lat="44.1869" lon="1.73486">
        <ele>300</ele>
        <time>2021-03-27T14:20:22Z</time>
      </trkpt>
      <trkpt lat="44.1869" lon="1.73493">
        <ele>300</ele>
        <time>2021-03-27T14:20:29Z</time>
      </trkpt>
      <trkpt lat="44.1869" lon="1.73501">
        <ele>300.1</ele>
        <time>2021-03-27T14:20:33Z</time>
      </trkpt>
      <trkpt lat="44.18691" lon="1.73509">
        <ele>300.2</ele>
        <time>2021-03-27T14:20:36Z</time>
      </trkpt>
      <trkpt lat="44.1869" lon="1.73513">
        <ele>300.3</ele>
        <time>2021-03-27T14:20:38Z</time>
      </trkpt>
      <trkpt lat="44.18685" lon="1.73514">
        <ele>300.4</ele>
        <time>2021-03-27T14:20:48Z</time>
      </trkpt>
      <trkpt lat="44.18681" lon="1.73512">
        <ele>300.5</ele>
        <time>2021-03-27T14:20:51Z</time>
      </trkpt>
      <trkpt lat="44.1868" lon="1.7351">
        <ele>300.5</ele>
        <time>2021-03-27T14:20:52Z</time>
      </trkpt>
      <trkpt lat="44.18678" lon="1.73515">
        <ele>300.6</ele>
        <time>2021-03-27T14:22:15Z</time>
      </trkpt>
      <trkpt lat="44.18674" lon="1.7352">
        <ele>300.6</ele>
        <time>2021-03-27T14:22:18Z</time>
      </trkpt>
      <trkpt lat="44.18668" lon="1.73525">
        <ele>300.6</ele>
        <time>2021-03-27T14:22:21Z</time>
      </trkpt>
      <trkpt lat="44.18664" lon="1.7353">
        <ele>300.6</ele>
        <time>2021-03-27T14:22:23Z</time>
      </trkpt>
      <trkpt lat="44.18661" lon="1.73536">
        <ele>300.6</ele>
        <time>2021-03-27T14:22:25Z</time>
      </trkpt>
      <trkpt lat="44.18659" lon="1.73544">
        <ele>300.5</ele>
        <time>2021-03-27T14:22:27Z</time>
      </trkpt>
      <trkpt lat="44.18655" lon="1.7355">
        <ele>300.5</ele>
        <time>2021-03-27T14:22:29Z</time>
      </trkpt>
      <trkpt lat="44.18651" lon="1.73556">
        <ele>300.5</ele>
        <time>2021-03-27T14:22:32Z</time>
      </trkpt>
      <trkpt lat="44.18646" lon="1.73561">
        <ele>300.5</ele>
        <time>2021-03-27T14:22:34Z</time>
      </trkpt>
      <trkpt lat="44.18641" lon="1.73563">
        <ele>300.5</ele>
        <time>2021-03-27T14:22:36Z</time>
      </trkpt>
      <trkpt lat="44.18637" lon="1.73565">
        <ele>300.5</ele>
        <time>2021-03-27T14:22:38Z</time>
      </trkpt>
      <trkpt lat="44.1863" lon="1.73567">
        <ele>300.5</ele>
        <time>2021-03-27T14:22:41Z</time>
      </trkpt>
      <trkpt lat="44.18625" lon="1.73569">
        <ele>300.4</ele>
        <time>2021-03-27T14:22:43Z</time>
      </trkpt>
      <trkpt lat="44.1862" lon="1.73572">
        <ele>300.4</ele>
        <time>2021-03-27T14:22:45Z</time>
      </trkpt>
      <trkpt lat="44.18615" lon="1.73574">
        <ele>300.4</ele>
        <time>2021-03-27T14:22:47Z</time>
      </trkpt>
      <trkpt lat="44.1861" lon="1.73577">
        <ele>300.3</ele>
        <time>2021-03-27T14:22:49Z</time>
      </trkpt>
      <trkpt lat="44.18604" lon="1.7358">
        <ele>300.3</ele>
        <time>2021-03-27T14:22:51Z</time>
      </trkpt>
      <trkpt lat="44.18599" lon="1.73584">
        <ele>300.2</ele>
        <time>2021-03-27T14:22:53Z</time>
      </trkpt>
      <trkpt lat="44.18594" lon="1.73588">
        <ele>300.1</ele>
        <time>2021-03-27T14:22:55Z</time>
      </trkpt>
      <trkpt lat="44.18588" lon="1.7359">
        <ele>299.9</ele>
        <time>2021-03-27T14:22:57Z</time>
      </trkpt>
      <trkpt lat="44.18582" lon="1.73593">
        <ele>299.7</ele>
        <time>2021-03-27T14:22:59Z</time>
      </trkpt>
      <trkpt lat="44.18576" lon="1.73596">
        <ele>299.6</ele>
        <time>2021-03-27T14:23:01Z</time>
      </trkpt>
      <trkpt lat="44.18569" lon="1.73599">
        <ele>299.6</ele>
        <time>2021-03-27T14:23:03Z</time>
      </trkpt>
      <trkpt lat="44.18563" lon="1.736">
        <ele>299.6</ele>
        <time>2021-03-27T14:23:05Z</time>
      </trkpt>
      <trkpt lat="44.18558" lon="1.73603">
        <ele>299.7</ele>
        <time>2021-03-27T14:23:07Z</time>
      </trkpt>
      <trkpt lat="44.18552" lon="1.73606">
        <ele>299.7</ele>
        <time>2021-03-27T14:23:09Z</time>
      </trkpt>
      <trkpt lat="44.18547" lon="1.73609">
        <ele>299.8</ele>
        <time>2021-03-27T14:23:11Z</time>
      </trkpt>
      <trkpt lat="44.18542" lon="1.73612">
        <ele>299.9</ele>
        <time>2021-03-27T14:23:14Z</time>
      </trkpt>
      <trkpt lat="44.18537" lon="1.73614">
        <ele>299.9</ele>
        <time>2021-03-27T14:23:17Z</time>
      </trkpt>
      <trkpt lat="44.1853" lon="1.73617">
        <ele>299.9</ele>
        <time>2021-03-27T14:23:20Z</time>
      </trkpt>
      <trkpt lat="44.18526" lon="1.73619">
        <ele>299.8</ele>
        <time>2021-03-27T14:23:22Z</time>
      </trkpt>
      <trkpt lat="44.1852" lon="1.73618">
        <ele>299.7</ele>
        <time>2021-03-27T14:23:25Z</time>
      </trkpt>
      <trkpt lat="44.18518" lon="1.7361">
        <ele>299.6</ele>
        <time>2021-03-27T14:23:28Z</time>
      </trkpt>
      <trkpt lat="44.18517" lon="1.73604">
        <ele>299.5</ele>
        <time>2021-03-27T14:23:30Z</time>
      </trkpt>
      <trkpt lat="44.18516" lon="1.73597">
        <ele>299.5</ele>
        <time>2021-03-27T14:23:32Z</time>
      </trkpt>
      <trkpt lat="44.18515" lon="1.7359">
        <ele>299.4</ele>
        <time>2021-03-27T14:23:34Z</time>
      </trkpt>
      <trkpt lat="44.18512" lon="1.73582">
        <ele>299.3</ele>
        <time>2021-03-27T14:23:36Z</time>
      </trkpt>
      <trkpt lat="44.18509" lon="1.73574">
        <ele>299.1</ele>
        <time>2021-03-27T14:23:38Z</time>
      </trkpt>
      <trkpt lat="44.18507" lon="1.73565">
        <ele>299</ele>
        <time>2021-03-27T14:23:40Z</time>
      </trkpt>
      <trkpt lat="44.18506" lon="1.73555">
        <ele>298.9</ele>
        <time>2021-03-27T14:23:42Z</time>
      </trkpt>
      <trkpt lat="44.18506" lon="1.73546">
        <ele>298.8</ele>
        <time>2021-03-27T14:23:44Z</time>
      </trkpt>
      <trkpt lat="44.18508" lon="1.73537">
        <ele>298.8</ele>
        <time>2021-03-27T14:23:46Z</time>
      </trkpt>
      <trkpt lat="44.1851" lon="1.73529">
        <ele>298.8</ele>
        <time>2021-03-27T14:23:48Z</time>
      </trkpt>
      <trkpt lat="44.18512" lon="1.73521">
        <ele>298.7</ele>
        <time>2021-03-27T14:23:50Z</time>
      </trkpt>
      <trkpt lat="44.18513" lon="1.73513">
        <ele>298.7</ele>
        <time>2021-03-27T14:23:52Z</time>
      </trkpt>
      <trkpt lat="44.18513" lon="1.73504">
        <ele>298.7</ele>
        <time>2021-03-27T14:23:54Z</time>
      </trkpt>
      <trkpt lat="44.18513" lon="1.73495">
        <ele>298.7</ele>
        <time>2021-03-27T14:23:56Z</time>
      </trkpt>
      <trkpt lat="44.18513" lon="1.73487">
        <ele>298.6</ele>
        <time>2021-03-27T14:23:58Z</time>
      </trkpt>
      <trkpt lat="44.18511" lon="1.73478">
        <ele>298.6</ele>
        <time>2021-03-27T14:24:00Z</time>
      </trkpt>
      <trkpt lat="44.18509" lon="1.7347">
        <ele>298.6</ele>
        <time>2021-03-27T14:24:02Z</time>
      </trkpt>
      <trkpt lat="44.18507" lon="1.7346">
        <ele>298.5</ele>
        <time>2021-03-27T14:24:04Z</time>
      </trkpt>
      <trkpt lat="44.18505" lon="1.73451">
        <ele>298.5</ele>
        <time>2021-03-27T14:24:06Z</time>
      </trkpt>
      <trkpt lat="44.18502" lon="1.73441">
        <ele>298.5</ele>
        <time>2021-03-27T14:24:08Z</time>
      </trkpt>
      <trkpt lat="44.18501" lon="1.73433">
        <ele>298.5</ele>
        <time>2021-03-27T14:24:10Z</time>
      </trkpt>
      <trkpt lat="44.18499" lon="1.73424">
        <ele>298.5</ele>
        <time>2021-03-27T14:24:12Z</time>
      </trkpt>
      <trkpt lat="44.18497" lon="1.73414">
        <ele>298.3</ele>
        <time>2021-03-27T14:24:14Z</time>
      </trkpt>
      <trkpt lat="44.18496" lon="1.73405">
        <ele>298.2</ele>
        <time>2021-03-27T14:24:16Z</time>
      </trkpt>
      <trkpt lat="44.18494" lon="1.73395">
        <ele>298</ele>
        <time>2021-03-27T14:24:18Z</time>
      </trkpt>
      <trkpt lat="44.18492" lon="1.73385">
        <ele>297.9</ele>
        <time>2021-03-27T14:24:20Z</time>
      </trkpt>
      <trkpt lat="44.1849" lon="1.73375">
        <ele>297.7</ele>
        <time>2021-03-27T14:24:22Z</time>
      </trkpt>
      <trkpt lat="44.18488" lon="1.73365">
        <ele>297.4</ele>
        <time>2021-03-27T14:24:24Z</time>
      </trkpt>
      <trkpt lat="44.18486" lon="1.73355">
        <ele>297.2</ele>
        <time>2021-03-27T14:24:26Z</time>
      </trkpt>
      <trkpt lat="44.18482" lon="1.73345">
        <ele>297.1</ele>
        <time>2021-03-27T14:24:28Z</time>
      </trkpt>
      <trkpt lat="44.18478" lon="1.73335">
        <ele>297</ele>
        <time>2021-03-27T14:24:30Z</time>
      </trkpt>
      <trkpt lat="44.18474" lon="1.73324">
        <ele>296.9</ele>
        <time>2021-03-27T14:24:32Z</time>
      </trkpt>
      <trkpt lat="44.18469" lon="1.73313">
        <ele>296.8</ele>
        <time>2021-03-27T14:24:34Z</time>
      </trkpt>
      <trkpt lat="44.18466" lon="1.73307">
        <ele>296.7</ele>
        <time>2021-03-27T14:24:35Z</time>
      </trkpt>
      <trkpt lat="44.18464" lon="1.73301">
        <ele>296.6</ele>
        <time>2021-03-27T14:24:36Z</time>
      </trkpt>
      <trkpt lat="44.18461" lon="1.73295">
        <ele>296.4</ele>
        <time>2021-03-27T14:24:37Z</time>
      </trkpt>
      <trkpt lat="44.18459" lon="1.73287">
        <ele>296.3</ele>
        <time>2021-03-27T14:24:38Z</time>
      </trkpt>
      <trkpt lat="44.18457" lon="1.7328">
        <ele>296</ele>
        <time>2021-03-27T14:24:39Z</time>
      </trkpt>
      <trkpt lat="44.18456" lon="1.73272">
        <ele>295.8</ele>
        <time>2021-03-27T14:24:40Z</time>
      </trkpt>
      <trkpt lat="44.18454" lon="1.73265">
        <ele>295.4</ele>
        <time>2021-03-27T14:24:41Z</time>
      </trkpt>
      <trkpt lat="44.18454" lon="1.73257">
        <ele>294.9</ele>
        <time>2021-03-27T14:24:42Z</time>
      </trkpt>
      <trkpt lat="44.18454" lon="1.73248">
        <ele>294.4</ele>
        <time>2021-03-27T14:24:43Z</time>
      </trkpt>
      <trkpt lat="44.18454" lon="1.73238">
        <ele>293.9</ele>
        <time>2021-03-27T14:24:44Z</time>
      </trkpt>
      <trkpt lat="44.18455" lon="1.73229">
        <ele>293.4</ele>
        <time>2021-03-27T14:24:45Z</time>
      </trkpt>
      <trkpt lat="44.18456" lon="1.73219">
        <ele>293</ele>
        <time>2021-03-27T14:24:46Z</time>
      </trkpt>
      <trkpt lat="44.18459" lon="1.73209">
        <ele>292.7</ele>
        <time>2021-03-27T14:24:47Z</time>
      </trkpt>
      <trkpt lat="44.18461" lon="1.73199">
        <ele>292.4</ele>
        <time>2021-03-27T14:24:48Z</time>
      </trkpt>
      <trkpt lat="44.18463" lon="1.7319">
        <ele>292.1</ele>
        <time>2021-03-27T14:24:49Z</time>
      </trkpt>
      <trkpt lat="44.18464" lon="1.7318">
        <ele>291.8</ele>
        <time>2021-03-27T14:24:50Z</time>
      </trkpt>
      <trkpt lat="44.18464" lon="1.73171">
        <ele>291.6</ele>
        <time>2021-03-27T14:24:51Z</time>
      </trkpt>
      <trkpt lat="44.18464" lon="1.73163">
        <ele>291.4</ele>
        <time>2021-03-27T14:24:52Z</time>
      </trkpt>
      <trkpt lat="44.18464" lon="1.73156">
        <ele>291.2</ele>
        <time>2021-03-27T14:24:53Z</time>
      </trkpt>
      <trkpt lat="44.18464" lon="1.7315">
        <ele>291.1</ele>
        <time>2021-03-27T14:24:54Z</time>
      </trkpt>
      <trkpt lat="44.18463" lon="1.73143">
        <ele>291</ele>
        <time>2021-03-27T14:24:55Z</time>
      </trkpt>
      <trkpt lat="44.18462" lon="1.73133">
        <ele>290.9</ele>
        <time>2021-03-27T14:24:57Z</time>
      </trkpt>
      <trkpt lat="44.18461" lon="1.73123">
        <ele>290.8</ele>
        <time>2021-03-27T14:24:59Z</time>
      </trkpt>
      <trkpt lat="44.18459" lon="1.73113">
        <ele>290.9</ele>
        <time>2021-03-27T14:25:01Z</time>
      </trkpt>
      <trkpt lat="44.18457" lon="1.73103">
        <ele>291</ele>
        <time>2021-03-27T14:25:03Z</time>
      </trkpt>
      <trkpt lat="44.18455" lon="1.73093">
        <ele>291.1</ele>
        <time>2021-03-27T14:25:05Z</time>
      </trkpt>
      <trkpt lat="44.18453" lon="1.73083">
        <ele>291.3</ele>
        <time>2021-03-27T14:25:07Z</time>
      </trkpt>
      <trkpt lat="44.18451" lon="1.73072">
        <ele>291.4</ele>
        <time>2021-03-27T14:25:09Z</time>
      </trkpt>
      <trkpt lat="44.1845" lon="1.73061">
        <ele>291.4</ele>
        <time>2021-03-27T14:25:11Z</time>
      </trkpt>
      <trkpt lat="44.1845" lon="1.73047">
        <ele>291.4</ele>
        <time>2021-03-27T14:25:13Z</time>
      </trkpt>
      <trkpt lat="44.18451" lon="1.7304">
        <ele>291.3</ele>
        <time>2021-03-27T14:25:14Z</time>
      </trkpt>
      <trkpt lat="44.18453" lon="1.73033">
        <ele>291.2</ele>
        <time>2021-03-27T14:25:15Z</time>
      </trkpt>
      <trkpt lat="44.18455" lon="1.73025">
        <ele>291.1</ele>
        <time>2021-03-27T14:25:16Z</time>
      </trkpt>
      <trkpt lat="44.18457" lon="1.73018">
        <ele>291</ele>
        <time>2021-03-27T14:25:17Z</time>
      </trkpt>
      <trkpt lat="44.18459" lon="1.73011">
        <ele>290.8</ele>
        <time>2021-03-27T14:25:18Z</time>
      </trkpt>
      <trkpt lat="44.18459" lon="1.73003">
        <ele>290.6</ele>
        <time>2021-03-27T14:25:19Z</time>
      </trkpt>
      <trkpt lat="44.18456" lon="1.72995">
        <ele>290.4</ele>
        <time>2021-03-27T14:25:20Z</time>
      </trkpt>
      <trkpt lat="44.18453" lon="1.72987">
        <ele>290.1</ele>
        <time>2021-03-27T14:25:21Z</time>
      </trkpt>
      <trkpt lat="44.1845" lon="1.72981">
        <ele>289.9</ele>
        <time>2021-03-27T14:25:22Z</time>
      </trkpt>
      <trkpt lat="44.18447" lon="1.72975">
        <ele>289.6</ele>
        <time>2021-03-27T14:25:23Z</time>
      </trkpt>
      <trkpt lat="44.18444" lon="1.7297">
        <ele>289.4</ele>
        <time>2021-03-27T14:25:24Z</time>
      </trkpt>
      <trkpt lat="44.1844" lon="1.72967">
        <ele>289.2</ele>
        <time>2021-03-27T14:25:25Z</time>
      </trkpt>
      <trkpt lat="44.18433" lon="1.72961">
        <ele>288.8</ele>
        <time>2021-03-27T14:25:27Z</time>
      </trkpt>
      <trkpt lat="44.18426" lon="1.72954">
        <ele>288.4</ele>
        <time>2021-03-27T14:25:29Z</time>
      </trkpt>
      <trkpt lat="44.18418" lon="1.72949">
        <ele>287.9</ele>
        <time>2021-03-27T14:25:31Z</time>
      </trkpt>
      <trkpt lat="44.18412" lon="1.72943">
        <ele>287.5</ele>
        <time>2021-03-27T14:25:33Z</time>
      </trkpt>
      <trkpt lat="44.18406" lon="1.72938">
        <ele>287.3</ele>
        <time>2021-03-27T14:25:35Z</time>
      </trkpt>
      <trkpt lat="44.18405" lon="1.72936">
        <ele>287.2</ele>
        <time>2021-03-27T14:25:37Z</time>
      </trkpt>
      <trkpt lat="44.18405" lon="1.72943">
        <ele>287</ele>
        <time>2021-03-27T14:26:34Z</time>
      </trkpt>
      <trkpt lat="44.18404" lon="1.7295">
        <ele>286.8</ele>
        <time>2021-03-27T14:26:39Z</time>
      </trkpt>
      <trkpt lat="44.18404" lon="1.72957">
        <ele>286.7</ele>
        <time>2021-03-27T14:26:42Z</time>
      </trkpt>
      <trkpt lat="44.18402" lon="1.72965">
        <ele>286.6</ele>
        <time>2021-03-27T14:26:45Z</time>
      </trkpt>
      <trkpt lat="44.18402" lon="1.72973">
        <ele>286.6</ele>
        <time>2021-03-27T14:26:47Z</time>
      </trkpt>
      <trkpt lat="44.18403" lon="1.72983">
        <ele>286.5</ele>
        <time>2021-03-27T14:26:49Z</time>
      </trkpt>
      <trkpt lat="44.18404" lon="1.72992">
        <ele>286.5</ele>
        <time>2021-03-27T14:26:52Z</time>
      </trkpt>
      <trkpt lat="44.18405" lon="1.72998">
        <ele>286.5</ele>
        <time>2021-03-27T14:26:55Z</time>
      </trkpt>
      <trkpt lat="44.18406" lon="1.73">
        <ele>285.9</ele>
        <time>2021-03-27T14:26:57Z</time>
      </trkpt>
      <trkpt lat="44.1841" lon="1.73002">
        <ele>285.4</ele>
        <time>2021-03-27T14:27:00Z</time>
      </trkpt>
      <trkpt lat="44.18411" lon="1.73003">
        <ele>285.3</ele>
        <time>2021-03-27T14:27:01Z</time>
      </trkpt>
      <trkpt lat="44.18412" lon="1.73004">
        <ele>285.1</ele>
        <time>2021-03-27T14:27:02Z</time>
      </trkpt>
      <trkpt lat="44.18413" lon="1.73005">
        <ele>285</ele>
        <time>2021-03-27T14:27:03Z</time>
      </trkpt>
      <trkpt lat="44.18416" lon="1.73009">
        <ele>284.6</ele>
        <time>2021-03-27T14:27:38Z</time>
      </trkpt>
      <trkpt lat="44.18419" lon="1.73015">
        <ele>284.1</ele>
        <time>2021-03-27T14:27:40Z</time>
      </trkpt>
      <trkpt lat="44.18421" lon="1.73024">
        <ele>283.4</ele>
        <time>2021-03-27T14:27:42Z</time>
      </trkpt>
      <trkpt lat="44.1842" lon="1.7303">
        <ele>283</ele>
        <time>2021-03-27T14:27:43Z</time>
      </trkpt>
      <trkpt lat="44.18416" lon="1.73035">
        <ele>282.6</ele>
        <time>2021-03-27T14:27:44Z</time>
      </trkpt>
      <trkpt lat="44.18412" lon="1.7304">
        <ele>282.1</ele>
        <time>2021-03-27T14:27:45Z</time>
      </trkpt>
      <trkpt lat="44.18408" lon="1.73046">
        <ele>281.6</ele>
        <time>2021-03-27T14:27:46Z</time>
      </trkpt>
      <trkpt lat="44.18403" lon="1.73051">
        <ele>281</ele>
        <time>2021-03-27T14:27:47Z</time>
      </trkpt>
      <trkpt lat="44.18398" lon="1.73057">
        <ele>280.4</ele>
        <time>2021-03-27T14:27:48Z</time>
      </trkpt>
      <trkpt lat="44.18393" lon="1.73064">
        <ele>279.6</ele>
        <time>2021-03-27T14:27:49Z</time>
      </trkpt>
      <trkpt lat="44.18389" lon="1.73071">
        <ele>278.7</ele>
        <time>2021-03-27T14:27:50Z</time>
      </trkpt>
      <trkpt lat="44.18385" lon="1.73078">
        <ele>277.7</ele>
        <time>2021-03-27T14:27:51Z</time>
      </trkpt>
      <trkpt lat="44.18381" lon="1.73088">
        <ele>276.6</ele>
        <time>2021-03-27T14:27:52Z</time>
      </trkpt>
      <trkpt lat="44.18378" lon="1.73097">
        <ele>275.6</ele>
        <time>2021-03-27T14:27:53Z</time>
      </trkpt>
      <trkpt lat="44.18376" lon="1.73105">
        <ele>275</ele>
        <time>2021-03-27T14:27:54Z</time>
      </trkpt>
      <trkpt lat="44.18373" lon="1.73111">
        <ele>274.4</ele>
        <time>2021-03-27T14:27:56Z</time>
      </trkpt>
      <trkpt lat="44.18373" lon="1.731">
        <ele>273.7</ele>
        <time>2021-03-27T14:27:59Z</time>
      </trkpt>
      <trkpt lat="44.18374" lon="1.73094">
        <ele>273.3</ele>
        <time>2021-03-27T14:28:00Z</time>
      </trkpt>
      <trkpt lat="44.18375" lon="1.73086">
        <ele>272.7</ele>
        <time>2021-03-27T14:28:01Z</time>
      </trkpt>
      <trkpt lat="44.18375" lon="1.73077">
        <ele>272.1</ele>
        <time>2021-03-27T14:28:02Z</time>
      </trkpt>
      <trkpt lat="44.18376" lon="1.73068">
        <ele>271.5</ele>
        <time>2021-03-27T14:28:03Z</time>
      </trkpt>
      <trkpt lat="44.18378" lon="1.73059">
        <ele>270.7</ele>
        <time>2021-03-27T14:28:04Z</time>
      </trkpt>
      <trkpt lat="44.18379" lon="1.73049">
        <ele>269.6</ele>
        <time>2021-03-27T14:28:05Z</time>
      </trkpt>
      <trkpt lat="44.18378" lon="1.73041">
        <ele>268.7</ele>
        <time>2021-03-27T14:28:06Z</time>
      </trkpt>
      <trkpt lat="44.18371" lon="1.73037">
        <ele>267.4</ele>
        <time>2021-03-27T14:28:08Z</time>
      </trkpt>
      <trkpt lat="44.18366" lon="1.73038">
        <ele>266.8</ele>
        <time>2021-03-27T14:28:09Z</time>
      </trkpt>
      <trkpt lat="44.18363" lon="1.73042">
        <ele>266.1</ele>
        <time>2021-03-27T14:28:10Z</time>
      </trkpt>
      <trkpt lat="44.1836" lon="1.73048">
        <ele>265.4</ele>
        <time>2021-03-27T14:28:11Z</time>
      </trkpt>
      <trkpt lat="44.18357" lon="1.73056">
        <ele>264.6</ele>
        <time>2021-03-27T14:28:12Z</time>
      </trkpt>
      <trkpt lat="44.18355" lon="1.73064">
        <ele>263.7</ele>
        <time>2021-03-27T14:28:13Z</time>
      </trkpt>
      <trkpt lat="44.18352" lon="1.73074">
        <ele>262.8</ele>
        <time>2021-03-27T14:28:14Z</time>
      </trkpt>
      <trkpt lat="44.18348" lon="1.73085">
        <ele>261.8</ele>
        <time>2021-03-27T14:28:15Z</time>
      </trkpt>
      <trkpt lat="44.18345" lon="1.73098">
        <ele>260.7</ele>
        <time>2021-03-27T14:28:16Z</time>
      </trkpt>
      <trkpt lat="44.18344" lon="1.73112">
        <ele>259.7</ele>
        <time>2021-03-27T14:28:17Z</time>
      </trkpt>
      <trkpt lat="44.18341" lon="1.73126">
        <ele>258.6</ele>
        <time>2021-03-27T14:28:18Z</time>
      </trkpt>
      <trkpt lat="44.18338" lon="1.7314">
        <ele>257.5</ele>
        <time>2021-03-27T14:28:19Z</time>
      </trkpt>
      <trkpt lat="44.18336" lon="1.73155">
        <ele>256.4</ele>
        <time>2021-03-27T14:28:20Z</time>
      </trkpt>
      <trkpt lat="44.18332" lon="1.7317">
        <ele>255.1</ele>
        <time>2021-03-27T14:28:21Z</time>
      </trkpt>
      <trkpt lat="44.18327" lon="1.73183">
        <ele>253.8</ele>
        <time>2021-03-27T14:28:22Z</time>
      </trkpt>
      <trkpt lat="44.18322" lon="1.73196">
        <ele>252.4</ele>
        <time>2021-03-27T14:28:23Z</time>
      </trkpt>
      <trkpt lat="44.18315" lon="1.73207">
        <ele>251.2</ele>
        <time>2021-03-27T14:28:24Z</time>
      </trkpt>
      <trkpt lat="44.18308" lon="1.73218">
        <ele>249.7</ele>
        <time>2021-03-27T14:28:25Z</time>
      </trkpt>
      <trkpt lat="44.183" lon="1.73229">
        <ele>248.1</ele>
        <time>2021-03-27T14:28:26Z</time>
      </trkpt>
      <trkpt lat="44.18292" lon="1.73241">
        <ele>246.4</ele>
        <time>2021-03-27T14:28:27Z</time>
      </trkpt>
      <trkpt lat="44.18284" lon="1.73252">
        <ele>244.8</ele>
        <time>2021-03-27T14:28:28Z</time>
      </trkpt>
      <trkpt lat="44.18276" lon="1.73264">
        <ele>243.1</ele>
        <time>2021-03-27T14:28:29Z</time>
      </trkpt>
      <trkpt lat="44.18271" lon="1.73276">
        <ele>241.6</ele>
        <time>2021-03-27T14:28:30Z</time>
      </trkpt>
      <trkpt lat="44.18265" lon="1.73288">
        <ele>240</ele>
        <time>2021-03-27T14:28:31Z</time>
      </trkpt>
      <trkpt lat="44.18261" lon="1.73299">
        <ele>238.5</ele>
        <time>2021-03-27T14:28:32Z</time>
      </trkpt>
      <trkpt lat="44.18256" lon="1.7331">
        <ele>237</ele>
        <time>2021-03-27T14:28:33Z</time>
      </trkpt>
      <trkpt lat="44.1825" lon="1.7332">
        <ele>235.6</ele>
        <time>2021-03-27T14:28:34Z</time>
      </trkpt>
      <trkpt lat="44.18244" lon="1.73327">
        <ele>234.4</ele>
        <time>2021-03-27T14:28:35Z</time>
      </trkpt>
      <trkpt lat="44.18238" lon="1.73335">
        <ele>233.2</ele>
        <time>2021-03-27T14:28:36Z</time>
      </trkpt>
      <trkpt lat="44.18232" lon="1.73343">
        <ele>232</ele>
        <time>2021-03-27T14:28:37Z</time>
      </trkpt>
      <trkpt lat="44.18225" lon="1.73353">
        <ele>230.6</ele>
        <time>2021-03-27T14:28:38Z</time>
      </trkpt>
      <trkpt lat="44.1822" lon="1.73362">
        <ele>229.4</ele>
        <time>2021-03-27T14:28:39Z</time>
      </trkpt>
      <trkpt lat="44.18217" lon="1.73371">
        <ele>228.4</ele>
        <time>2021-03-27T14:28:40Z</time>
      </trkpt>
      <trkpt lat="44.18215" lon="1.73379">
        <ele>227.6</ele>
        <time>2021-03-27T14:28:41Z</time>
      </trkpt>
      <trkpt lat="44.18214" lon="1.73386">
        <ele>226.9</ele>
        <time>2021-03-27T14:28:42Z</time>
      </trkpt>
      <trkpt lat="44.18213" lon="1.73394">
        <ele>226.2</ele>
        <time>2021-03-27T14:28:43Z</time>
      </trkpt>
      <trkpt lat="44.18213" lon="1.73402">
        <ele>225.5</ele>
        <time>2021-03-27T14:28:44Z</time>
      </trkpt>
      <trkpt lat="44.18213" lon="1.7341">
        <ele>224.9</ele>
        <time>2021-03-27T14:28:45Z</time>
      </trkpt>
      <trkpt lat="44.18214" lon="1.73417">
        <ele>224.3</ele>
        <time>2021-03-27T14:28:46Z</time>
      </trkpt>
      <trkpt lat="44.18214" lon="1.73424">
        <ele>223.7</ele>
        <time>2021-03-27T14:28:47Z</time>
      </trkpt>
      <trkpt lat="44.18214" lon="1.7343">
        <ele>223.2</ele>
        <time>2021-03-27T14:28:48Z</time>
      </trkpt>
      <trkpt lat="44.18213" lon="1.73439">
        <ele>222.4</ele>
        <time>2021-03-27T14:28:50Z</time>
      </trkpt>
      <trkpt lat="44.18211" lon="1.73447">
        <ele>221.7</ele>
        <time>2021-03-27T14:28:53Z</time>
      </trkpt>
      <trkpt lat="44.18209" lon="1.73453">
        <ele>221.1</ele>
        <time>2021-03-27T14:28:56Z</time>
      </trkpt>
      <trkpt lat="44.18208" lon="1.73454">
        <ele>221</ele>
        <time>2021-03-27T14:28:57Z</time>
      </trkpt>
      <trkpt lat="44.18207" lon="1.73453">
        <ele>220.8</ele>
        <time>2021-03-27T14:28:58Z</time>
      </trkpt>
      <trkpt lat="44.18204" lon="1.73448">
        <ele>220.9</ele>
        <time>2021-03-27T14:29:01Z</time>
      </trkpt>
      <trkpt lat="44.18203" lon="1.73447">
        <ele>221</ele>
        <time>2021-03-27T14:29:02Z</time>
      </trkpt>
      <trkpt lat="44.18204" lon="1.73444">
        <ele>221.1</ele>
        <time>2021-03-27T14:29:03Z</time>
      </trkpt>
      <trkpt lat="44.18203" lon="1.73437">
        <ele>221.6</ele>
        <time>2021-03-27T14:29:06Z</time>
      </trkpt>
      <trkpt lat="44.18203" lon="1.73436">
        <ele>221.7</ele>
        <time>2021-03-27T14:29:07Z</time>
      </trkpt>
      <trkpt lat="44.18202" lon="1.73433">
        <ele>221.9</ele>
        <time>2021-03-27T14:29:09Z</time>
      </trkpt>
      <trkpt lat="44.18201" lon="1.73426">
        <ele>222.4</ele>
        <time>2021-03-27T14:29:12Z</time>
      </trkpt>
      <trkpt lat="44.182" lon="1.73419">
        <ele>222.9</ele>
        <time>2021-03-27T14:29:16Z</time>
      </trkpt>
      <trkpt lat="44.18199" lon="1.73418">
        <ele>222.9</ele>
        <time>2021-03-27T14:29:17Z</time>
      </trkpt>
      <trkpt lat="44.18198" lon="1.73418">
        <ele>223.2</ele>
        <time>2021-03-27T14:30:11Z</time>
      </trkpt>
      <trkpt lat="44.18197" lon="1.73426">
        <ele>222.6</ele>
        <time>2021-03-27T14:30:15Z</time>
      </trkpt>
      <trkpt lat="44.18196" lon="1.73433">
        <ele>222.3</ele>
        <time>2021-03-27T14:30:18Z</time>
      </trkpt>
      <trkpt lat="44.18195" lon="1.7344">
        <ele>221.8</ele>
        <time>2021-03-27T14:30:22Z</time>
      </trkpt>
      <trkpt lat="44.18194" lon="1.73447">
        <ele>221.2</ele>
        <time>2021-03-27T14:30:25Z</time>
      </trkpt>
      <trkpt lat="44.18194" lon="1.73455">
        <ele>220.8</ele>
        <time>2021-03-27T14:30:29Z</time>
      </trkpt>
      <trkpt lat="44.18193" lon="1.73457">
        <ele>220.4</ele>
        <time>2021-03-27T14:30:30Z</time>
      </trkpt>
      <trkpt lat="44.18193" lon="1.73458">
        <ele>220.4</ele>
        <time>2021-03-27T14:30:31Z</time>
      </trkpt>
      <trkpt lat="44.18191" lon="1.73464">
        <ele>219.6</ele>
        <time>2021-03-27T14:30:35Z</time>
      </trkpt>
      <trkpt lat="44.1819" lon="1.73465">
        <ele>219.6</ele>
        <time>2021-03-27T14:30:36Z</time>
      </trkpt>
      <trkpt lat="44.18188" lon="1.73472">
        <ele>219.1</ele>
        <time>2021-03-27T14:30:41Z</time>
      </trkpt>
      <trkpt lat="44.18184" lon="1.73477">
        <ele>218.2</ele>
        <time>2021-03-27T14:30:47Z</time>
      </trkpt>
      <trkpt lat="44.18181" lon="1.73481">
        <ele>218</ele>
        <time>2021-03-27T14:30:52Z</time>
      </trkpt>
      <trkpt lat="44.18178" lon="1.73487">
        <ele>218</ele>
        <time>2021-03-27T14:30:57Z</time>
      </trkpt>
      <trkpt lat="44.18175" lon="1.73492">
        <ele>218.3</ele>
        <time>2021-03-27T14:31:02Z</time>
      </trkpt>
      <trkpt lat="44.18172" lon="1.73497">
        <ele>218.9</ele>
        <time>2021-03-27T14:31:19Z</time>
      </trkpt>
      <trkpt lat="44.18168" lon="1.73502">
        <ele>219.7</ele>
        <time>2021-03-27T14:31:24Z</time>
      </trkpt>
      <trkpt lat="44.18164" lon="1.73506">
        <ele>221.3</ele>
        <time>2021-03-27T14:31:29Z</time>
      </trkpt>
      <trkpt lat="44.18161" lon="1.7351">
        <ele>222.3</ele>
        <time>2021-03-27T14:31:34Z</time>
      </trkpt>
      <trkpt lat="44.18157" lon="1.73514">
        <ele>223.3</ele>
        <time>2021-03-27T14:31:39Z</time>
      </trkpt>
      <trkpt lat="44.18153" lon="1.73518">
        <ele>224.4</ele>
        <time>2021-03-27T14:31:44Z</time>
      </trkpt>
      <trkpt lat="44.18152" lon="1.73519">
        <ele>225.2</ele>
        <time>2021-03-27T14:31:45Z</time>
      </trkpt>
      <trkpt lat="44.18151" lon="1.7352">
        <ele>225.4</ele>
        <time>2021-03-27T14:31:46Z</time>
      </trkpt>
      <trkpt lat="44.18146" lon="1.73523">
        <ele>227.1</ele>
        <time>2021-03-27T14:31:52Z</time>
      </trkpt>
      <trkpt lat="44.18143" lon="1.73527">
        <ele>228.2</ele>
        <time>2021-03-27T14:31:57Z</time>
      </trkpt>
      <trkpt lat="44.18138" lon="1.73532">
        <ele>229.3</ele>
        <time>2021-03-27T14:32:03Z</time>
      </trkpt>
      <trkpt lat="44.18134" lon="1.73536">
        <ele>231.3</ele>
        <time>2021-03-27T14:32:10Z</time>
      </trkpt>
      <trkpt lat="44.1813" lon="1.7354">
        <ele>232.4</ele>
        <time>2021-03-27T14:32:15Z</time>
      </trkpt>
      <trkpt lat="44.18126" lon="1.73545">
        <ele>233.6</ele>
        <time>2021-03-27T14:32:25Z</time>
      </trkpt>
      <trkpt lat="44.18122" lon="1.73549">
        <ele>234.7</ele>
        <time>2021-03-27T14:32:31Z</time>
      </trkpt>
      <trkpt lat="44.18118" lon="1.73554">
        <ele>236.7</ele>
        <time>2021-03-27T14:32:37Z</time>
      </trkpt>
      <trkpt lat="44.18114" lon="1.73559">
        <ele>238.2</ele>
        <time>2021-03-27T14:32:43Z</time>
      </trkpt>
      <trkpt lat="44.1811" lon="1.73562">
        <ele>239.2</ele>
        <time>2021-03-27T14:32:48Z</time>
      </trkpt>
      <trkpt lat="44.18106" lon="1.73567">
        <ele>241.3</ele>
        <time>2021-03-27T14:32:54Z</time>
      </trkpt>
      <trkpt lat="44.18102" lon="1.73571">
        <ele>242.3</ele>
        <time>2021-03-27T14:33:00Z</time>
      </trkpt>
      <trkpt lat="44.18098" lon="1.73575">
        <ele>243.2</ele>
        <time>2021-03-27T14:33:06Z</time>
      </trkpt>
      <trkpt lat="44.18095" lon="1.7358">
        <ele>244.2</ele>
        <time>2021-03-27T14:33:11Z</time>
      </trkpt>
      <trkpt lat="44.18092" lon="1.73586">
        <ele>245.3</ele>
        <time>2021-03-27T14:33:16Z</time>
      </trkpt>
      <trkpt lat="44.18088" lon="1.73591">
        <ele>246.3</ele>
        <time>2021-03-27T14:33:21Z</time>
      </trkpt>
      <trkpt lat="44.18085" lon="1.73597">
        <ele>247.3</ele>
        <time>2021-03-27T14:33:26Z</time>
      </trkpt>
      <trkpt lat="44.18081" lon="1.73602">
        <ele>249.3</ele>
        <time>2021-03-27T14:33:31Z</time>
      </trkpt>
      <trkpt lat="44.18078" lon="1.73607">
        <ele>250.2</ele>
        <time>2021-03-27T14:33:36Z</time>
      </trkpt>
      <trkpt lat="44.18077" lon="1.73615">
        <ele>250.4</ele>
        <time>2021-03-27T14:33:41Z</time>
      </trkpt>
      <trkpt lat="44.18076" lon="1.73623">
        <ele>250.6</ele>
        <time>2021-03-27T14:33:45Z</time>
      </trkpt>
      <trkpt lat="44.18076" lon="1.73624">
        <ele>251.4</ele>
        <time>2021-03-27T14:33:46Z</time>
      </trkpt>
      <trkpt lat="44.18075" lon="1.73626">
        <ele>251.4</ele>
        <time>2021-03-27T14:33:47Z</time>
      </trkpt>
      <trkpt lat="44.18075" lon="1.73629">
        <ele>251.6</ele>
        <time>2021-03-27T14:33:49Z</time>
      </trkpt>
      <trkpt lat="44.18074" lon="1.73631">
        <ele>251.7</ele>
        <time>2021-03-27T14:33:50Z</time>
      </trkpt>
      <trkpt lat="44.18073" lon="1.73632">
        <ele>251.9</ele>
        <time>2021-03-27T14:33:51Z</time>
      </trkpt>
      <trkpt lat="44.1807" lon="1.73638">
        <ele>252.7</ele>
        <time>2021-03-27T14:33:56Z</time>
      </trkpt>
      <trkpt lat="44.18066" lon="1.73642">
        <ele>254.2</ele>
        <time>2021-03-27T14:34:02Z</time>
      </trkpt>
      <trkpt lat="44.18063" lon="1.73646">
        <ele>255.1</ele>
        <time>2021-03-27T14:34:08Z</time>
      </trkpt>
      <trkpt lat="44.18061" lon="1.73652">
        <ele>255.3</ele>
        <time>2021-03-27T14:34:12Z</time>
      </trkpt>
      <trkpt lat="44.1806" lon="1.7366">
        <ele>256.3</ele>
        <time>2021-03-27T14:34:16Z</time>
      </trkpt>
      <trkpt lat="44.18062" lon="1.73667">
        <ele>255.8</ele>
        <time>2021-03-27T14:34:19Z</time>
      </trkpt>
      <trkpt lat="44.18064" lon="1.73673">
        <ele>255.3</ele>
        <time>2021-03-27T14:34:21Z</time>
      </trkpt>
      <trkpt lat="44.18065" lon="1.73681">
        <ele>255.6</ele>
        <time>2021-03-27T14:34:23Z</time>
      </trkpt>
      <trkpt lat="44.18065" lon="1.73688">
        <ele>256</ele>
        <time>2021-03-27T14:34:25Z</time>
      </trkpt>
      <trkpt lat="44.18066" lon="1.73695">
        <ele>256.2</ele>
        <time>2021-03-27T14:34:27Z</time>
      </trkpt>
      <trkpt lat="44.18066" lon="1.73701">
        <ele>256.5</ele>
        <time>2021-03-27T14:34:29Z</time>
      </trkpt>
      <trkpt lat="44.18065" lon="1.7371">
        <ele>256.9</ele>
        <time>2021-03-27T14:34:32Z</time>
      </trkpt>
      <trkpt lat="44.18064" lon="1.73718">
        <ele>257.2</ele>
        <time>2021-03-27T14:34:35Z</time>
      </trkpt>
      <trkpt lat="44.18063" lon="1.73727">
        <ele>258.2</ele>
        <time>2021-03-27T14:34:38Z</time>
      </trkpt>
      <trkpt lat="44.18062" lon="1.73735">
        <ele>258.6</ele>
        <time>2021-03-27T14:34:41Z</time>
      </trkpt>
      <trkpt lat="44.1806" lon="1.73742">
        <ele>259.6</ele>
        <time>2021-03-27T14:34:44Z</time>
      </trkpt>
      <trkpt lat="44.18057" lon="1.73749">
        <ele>260</ele>
        <time>2021-03-27T14:34:47Z</time>
      </trkpt>
      <trkpt lat="44.18055" lon="1.73757">
        <ele>261.1</ele>
        <time>2021-03-27T14:34:50Z</time>
      </trkpt>
      <trkpt lat="44.18052" lon="1.73763">
        <ele>262.1</ele>
        <time>2021-03-27T14:34:53Z</time>
      </trkpt>
      <trkpt lat="44.18049" lon="1.73769">
        <ele>263</ele>
        <time>2021-03-27T14:34:56Z</time>
      </trkpt>
      <trkpt lat="44.18046" lon="1.73774">
        <ele>264</ele>
        <time>2021-03-27T14:34:59Z</time>
      </trkpt>
      <trkpt lat="44.18042" lon="1.7378">
        <ele>264.8</ele>
        <time>2021-03-27T14:35:03Z</time>
      </trkpt>
      <trkpt lat="44.18038" lon="1.73785">
        <ele>266.2</ele>
        <time>2021-03-27T14:35:07Z</time>
      </trkpt>
      <trkpt lat="44.18033" lon="1.7379">
        <ele>267</ele>
        <time>2021-03-27T14:35:11Z</time>
      </trkpt>
      <trkpt lat="44.18028" lon="1.73794">
        <ele>268.3</ele>
        <time>2021-03-27T14:35:15Z</time>
      </trkpt>
      <trkpt lat="44.18024" lon="1.73799">
        <ele>269</ele>
        <time>2021-03-27T14:35:19Z</time>
      </trkpt>
      <trkpt lat="44.18022" lon="1.73807">
        <ele>269.6</ele>
        <time>2021-03-27T14:35:22Z</time>
      </trkpt>
      <trkpt lat="44.18018" lon="1.73815">
        <ele>270.2</ele>
        <time>2021-03-27T14:35:25Z</time>
      </trkpt>
      <trkpt lat="44.18014" lon="1.7382">
        <ele>271.3</ele>
        <time>2021-03-27T14:35:28Z</time>
      </trkpt>
      <trkpt lat="44.1801" lon="1.73824">
        <ele>271.8</ele>
        <time>2021-03-27T14:35:31Z</time>
      </trkpt>
      <trkpt lat="44.18005" lon="1.73826">
        <ele>272.2</ele>
        <time>2021-03-27T14:35:34Z</time>
      </trkpt>
      <trkpt lat="44.18001" lon="1.73828">
        <ele>273.4</ele>
        <time>2021-03-27T14:35:37Z</time>
      </trkpt>
      <trkpt lat="44.17999" lon="1.73834">
        <ele>273.7</ele>
        <time>2021-03-27T14:35:53Z</time>
      </trkpt>
      <trkpt lat="44.17999" lon="1.73836">
        <ele>273.2</ele>
        <time>2021-03-27T14:35:54Z</time>
      </trkpt>
      <trkpt lat="44.18" lon="1.73845">
        <ele>272.7</ele>
        <time>2021-03-27T14:35:56Z</time>
      </trkpt>
      <trkpt lat="44.18001" lon="1.73858">
        <ele>271.7</ele>
        <time>2021-03-27T14:35:58Z</time>
      </trkpt>
      <trkpt lat="44.18001" lon="1.73869">
        <ele>270.4</ele>
        <time>2021-03-27T14:36:00Z</time>
      </trkpt>
      <trkpt lat="44.18001" lon="1.73882">
        <ele>269</ele>
        <time>2021-03-27T14:36:02Z</time>
      </trkpt>
      <trkpt lat="44.18001" lon="1.7389">
        <ele>267.9</ele>
        <time>2021-03-27T14:36:03Z</time>
      </trkpt>
      <trkpt lat="44.18001" lon="1.73898">
        <ele>266.7</ele>
        <time>2021-03-27T14:36:04Z</time>
      </trkpt>
      <trkpt lat="44.18001" lon="1.73908">
        <ele>265.5</ele>
        <time>2021-03-27T14:36:05Z</time>
      </trkpt>
      <trkpt lat="44.18" lon="1.73918">
        <ele>264.2</ele>
        <time>2021-03-27T14:36:06Z</time>
      </trkpt>
      <trkpt lat="44.17999" lon="1.73927">
        <ele>262.9</ele>
        <time>2021-03-27T14:36:07Z</time>
      </trkpt>
      <trkpt lat="44.17997" lon="1.73937">
        <ele>261.5</ele>
        <time>2021-03-27T14:36:08Z</time>
      </trkpt>
      <trkpt lat="44.17995" lon="1.73947">
        <ele>260.7</ele>
        <time>2021-03-27T14:36:09Z</time>
      </trkpt>
      <trkpt lat="44.1799" lon="1.73956">
        <ele>259.9</ele>
        <time>2021-03-27T14:36:10Z</time>
      </trkpt>
      <trkpt lat="44.17983" lon="1.73963">
        <ele>260.1</ele>
        <time>2021-03-27T14:36:11Z</time>
      </trkpt>
      <trkpt lat="44.17975" lon="1.73967">
        <ele>260.6</ele>
        <time>2021-03-27T14:36:12Z</time>
      </trkpt>
      <trkpt lat="44.17968" lon="1.7397">
        <ele>262</ele>
        <time>2021-03-27T14:36:13Z</time>
      </trkpt>
      <trkpt lat="44.1796" lon="1.73973">
        <ele>262.3</ele>
        <time>2021-03-27T14:36:14Z</time>
      </trkpt>
      <trkpt lat="44.17952" lon="1.73976">
        <ele>262.8</ele>
        <time>2021-03-27T14:36:15Z</time>
      </trkpt>
      <trkpt lat="44.17944" lon="1.7398">
        <ele>263.1</ele>
        <time>2021-03-27T14:36:16Z</time>
      </trkpt>
      <trkpt lat="44.17937" lon="1.73985">
        <ele>263.6</ele>
        <time>2021-03-27T14:36:17Z</time>
      </trkpt>
      <trkpt lat="44.1793" lon="1.7399">
        <ele>263.7</ele>
        <time>2021-03-27T14:36:18Z</time>
      </trkpt>
      <trkpt lat="44.17922" lon="1.73996">
        <ele>264.1</ele>
        <time>2021-03-27T14:36:19Z</time>
      </trkpt>
      <trkpt lat="44.17915" lon="1.74001">
        <ele>263.9</ele>
        <time>2021-03-27T14:36:20Z</time>
      </trkpt>
      <trkpt lat="44.1791" lon="1.74007">
        <ele>264.2</ele>
        <time>2021-03-27T14:36:21Z</time>
      </trkpt>
      <trkpt lat="44.17906" lon="1.74012">
        <ele>264.2</ele>
        <time>2021-03-27T14:36:22Z</time>
      </trkpt>
      <trkpt lat="44.17901" lon="1.74018">
        <ele>264</ele>
        <time>2021-03-27T14:36:24Z</time>
      </trkpt>
      <trkpt lat="44.17898" lon="1.74022">
        <ele>264</ele>
        <time>2021-03-27T14:36:27Z</time>
      </trkpt>
      <trkpt lat="44.17902" lon="1.74018">
        <ele>264</ele>
        <time>2021-03-27T14:36:32Z</time>
      </trkpt>
      <trkpt lat="44.17906" lon="1.74012">
        <ele>264.3</ele>
        <time>2021-03-27T14:36:35Z</time>
      </trkpt>
      <trkpt lat="44.1791" lon="1.74006">
        <ele>264.1</ele>
        <time>2021-03-27T14:36:38Z</time>
      </trkpt>
      <trkpt lat="44.17913" lon="1.74001">
        <ele>264.4</ele>
        <time>2021-03-27T14:36:41Z</time>
      </trkpt>
      <trkpt lat="44.17915" lon="1.73999">
        <ele>264.5</ele>
        <time>2021-03-27T14:36:43Z</time>
      </trkpt>
      <trkpt lat="44.17916" lon="1.73998">
        <ele>264.3</ele>
        <time>2021-03-27T14:36:45Z</time>
      </trkpt>
      <trkpt lat="44.17918" lon="1.73997">
        <ele>264.3</ele>
        <time>2021-03-27T14:36:47Z</time>
      </trkpt>
      <trkpt lat="44.17924" lon="1.73993">
        <ele>264.2</ele>
        <time>2021-03-27T14:36:50Z</time>
      </trkpt>
      <trkpt lat="44.17929" lon="1.73989">
        <ele>264.2</ele>
        <time>2021-03-27T14:36:52Z</time>
      </trkpt>
      <trkpt lat="44.17934" lon="1.73985">
        <ele>264.1</ele>
        <time>2021-03-27T14:36:54Z</time>
      </trkpt>
      <trkpt lat="44.17939" lon="1.73981">
        <ele>264.2</ele>
        <time>2021-03-27T14:36:56Z</time>
      </trkpt>
      <trkpt lat="44.17943" lon="1.73978">
        <ele>264.3</ele>
        <time>2021-03-27T14:36:58Z</time>
      </trkpt>
      <trkpt lat="44.17947" lon="1.73975">
        <ele>264.1</ele>
        <time>2021-03-27T14:37:00Z</time>
      </trkpt>
      <trkpt lat="44.17953" lon="1.73972">
        <ele>263.5</ele>
        <time>2021-03-27T14:37:03Z</time>
      </trkpt>
      <trkpt lat="44.17957" lon="1.73971">
        <ele>263.3</ele>
        <time>2021-03-27T14:37:06Z</time>
      </trkpt>
      <trkpt lat="44.17959" lon="1.7397">
        <ele>263.7</ele>
        <time>2021-03-27T14:37:07Z</time>
      </trkpt>
      <trkpt lat="44.17964" lon="1.73969">
        <ele>263.2</ele>
        <time>2021-03-27T14:37:10Z</time>
      </trkpt>
      <trkpt lat="44.17969" lon="1.73967">
        <ele>262.5</ele>
        <time>2021-03-27T14:37:13Z</time>
      </trkpt>
      <trkpt lat="44.17976" lon="1.73965">
        <ele>262.1</ele>
        <time>2021-03-27T14:37:16Z</time>
      </trkpt>
      <trkpt lat="44.17981" lon="1.73963">
        <ele>261.1</ele>
        <time>2021-03-27T14:37:19Z</time>
      </trkpt>
      <trkpt lat="44.17986" lon="1.73965">
        <ele>260.7</ele>
        <time>2021-03-27T14:37:22Z</time>
      </trkpt>
      <trkpt lat="44.17992" lon="1.73967">
        <ele>259.1</ele>
        <time>2021-03-27T14:37:25Z</time>
      </trkpt>
      <trkpt lat="44.17999" lon="1.73965">
        <ele>257.7</ele>
        <time>2021-03-27T14:37:27Z</time>
      </trkpt>
      <trkpt lat="44.18005" lon="1.73963">
        <ele>256.9</ele>
        <time>2021-03-27T14:37:29Z</time>
      </trkpt>
      <trkpt lat="44.1801" lon="1.73961">
        <ele>256.2</ele>
        <time>2021-03-27T14:37:31Z</time>
      </trkpt>
      <trkpt lat="44.18014" lon="1.73959">
        <ele>255.5</ele>
        <time>2021-03-27T14:37:34Z</time>
      </trkpt>
      <trkpt lat="44.18017" lon="1.73955">
        <ele>255.6</ele>
        <time>2021-03-27T14:37:58Z</time>
      </trkpt>
      <trkpt lat="44.18021" lon="1.73949">
        <ele>254.7</ele>
        <time>2021-03-27T14:38:01Z</time>
      </trkpt>
      <trkpt lat="44.18025" lon="1.73943">
        <ele>255.5</ele>
        <time>2021-03-27T14:38:04Z</time>
      </trkpt>
      <trkpt lat="44.18029" lon="1.73937">
        <ele>255.4</ele>
        <time>2021-03-27T14:38:07Z</time>
      </trkpt>
      <trkpt lat="44.18032" lon="1.73933">
        <ele>255.3</ele>
        <time>2021-03-27T14:38:10Z</time>
      </trkpt>
      <trkpt lat="44.18029" lon="1.73938">
        <ele>255.5</ele>
        <time>2021-03-27T14:38:26Z</time>
      </trkpt>
      <trkpt lat="44.18027" lon="1.73945">
        <ele>254.7</ele>
        <time>2021-03-27T14:38:36Z</time>
      </trkpt>
      <trkpt lat="44.18023" lon="1.73949">
        <ele>254.9</ele>
        <time>2021-03-27T14:38:47Z</time>
      </trkpt>
      <trkpt lat="44.18021" lon="1.73956">
        <ele>254.1</ele>
        <time>2021-03-27T14:38:54Z</time>
      </trkpt>
      <trkpt lat="44.18022" lon="1.73963">
        <ele>252.6</ele>
        <time>2021-03-27T14:39:17Z</time>
      </trkpt>
      <trkpt lat="44.18022" lon="1.73969">
        <ele>251.9</ele>
        <time>2021-03-27T14:39:34Z</time>
      </trkpt>
      <trkpt lat="44.18021" lon="1.73976">
        <ele>250.4</ele>
        <time>2021-03-27T14:39:41Z</time>
      </trkpt>
      <trkpt lat="44.18023" lon="1.73982">
        <ele>249.6</ele>
        <time>2021-03-27T14:39:55Z</time>
      </trkpt>
      <trkpt lat="44.18023" lon="1.73988">
        <ele>248.2</ele>
        <time>2021-03-27T14:40:03Z</time>
      </trkpt>
      <trkpt lat="44.18022" lon="1.73995">
        <ele>247.5</ele>
        <time>2021-03-27T14:40:23Z</time>
      </trkpt>
      <trkpt lat="44.18023" lon="1.74002">
        <ele>246.3</ele>
        <time>2021-03-27T14:40:29Z</time>
      </trkpt>
      <trkpt lat="44.18023" lon="1.7401">
        <ele>245.2</ele>
        <time>2021-03-27T14:40:40Z</time>
      </trkpt>
      <trkpt lat="44.18022" lon="1.74016">
        <ele>244.8</ele>
        <time>2021-03-27T14:40:42Z</time>
      </trkpt>
      <trkpt lat="44.18019" lon="1.74021">
        <ele>245.3</ele>
        <time>2021-03-27T14:40:45Z</time>
      </trkpt>
      <trkpt lat="44.18016" lon="1.74024">
        <ele>245.9</ele>
        <time>2021-03-27T14:41:04Z</time>
      </trkpt>
      <trkpt lat="44.18013" lon="1.74028">
        <ele>246.3</ele>
        <time>2021-03-27T14:41:07Z</time>
      </trkpt>
      <trkpt lat="44.18012" lon="1.74032">
        <ele>246</ele>
        <time>2021-03-27T14:41:10Z</time>
      </trkpt>
      <trkpt lat="44.18008" lon="1.7404">
        <ele>246.2</ele>
        <time>2021-03-27T14:41:14Z</time>
      </trkpt>
      <trkpt lat="44.18003" lon="1.74047">
        <ele>247.7</ele>
        <time>2021-03-27T14:41:17Z</time>
      </trkpt>
      <trkpt lat="44.18004" lon="1.74054">
        <ele>247.4</ele>
        <time>2021-03-27T14:41:20Z</time>
      </trkpt>
      <trkpt lat="44.18004" lon="1.74063">
        <ele>247.3</ele>
        <time>2021-03-27T14:41:23Z</time>
      </trkpt>
      <trkpt lat="44.18007" lon="1.74067">
        <ele>246.4</ele>
        <time>2021-03-27T14:41:25Z</time>
      </trkpt>
      <trkpt lat="44.18012" lon="1.74068">
        <ele>244.8</ele>
        <time>2021-03-27T14:41:33Z</time>
      </trkpt>
      <trkpt lat="44.18016" lon="1.74067">
        <ele>244</ele>
        <time>2021-03-27T14:41:39Z</time>
      </trkpt>
      <trkpt lat="44.1802" lon="1.74064">
        <ele>243.1</ele>
        <time>2021-03-27T14:41:42Z</time>
      </trkpt>
      <trkpt lat="44.18024" lon="1.7406">
        <ele>241.1</ele>
        <time>2021-03-27T14:41:57Z</time>
      </trkpt>
      <trkpt lat="44.18024" lon="1.74065">
        <ele>241.1</ele>
        <time>2021-03-27T14:42:04Z</time>
      </trkpt>
      <trkpt lat="44.18026" lon="1.74072">
        <ele>241.2</ele>
        <time>2021-03-27T14:42:08Z</time>
      </trkpt>
      <trkpt lat="44.18027" lon="1.74075">
        <ele>240.3</ele>
        <time>2021-03-27T14:42:10Z</time>
      </trkpt>
      <trkpt lat="44.18031" lon="1.74078">
        <ele>239.2</ele>
        <time>2021-03-27T14:42:17Z</time>
      </trkpt>
      <trkpt lat="44.18036" lon="1.74079">
        <ele>237.2</ele>
        <time>2021-03-27T14:42:20Z</time>
      </trkpt>
      <trkpt lat="44.18041" lon="1.74078">
        <ele>236.2</ele>
        <time>2021-03-27T14:42:22Z</time>
      </trkpt>
      <trkpt lat="44.18046" lon="1.74079">
        <ele>234</ele>
        <time>2021-03-27T14:42:25Z</time>
      </trkpt>
      <trkpt lat="44.18051" lon="1.7408">
        <ele>231.7</ele>
        <time>2021-03-27T14:42:28Z</time>
      </trkpt>
      <trkpt lat="44.18056" lon="1.74081">
        <ele>230.4</ele>
        <time>2021-03-27T14:42:31Z</time>
      </trkpt>
      <trkpt lat="44.18062" lon="1.74082">
        <ele>227.8</ele>
        <time>2021-03-27T14:42:34Z</time>
      </trkpt>
      <trkpt lat="44.18067" lon="1.74082">
        <ele>225</ele>
        <time>2021-03-27T14:42:36Z</time>
      </trkpt>
      <trkpt lat="44.18072" lon="1.74084">
        <ele>223.7</ele>
        <time>2021-03-27T14:42:38Z</time>
      </trkpt>
      <trkpt lat="44.18078" lon="1.74086">
        <ele>220.9</ele>
        <time>2021-03-27T14:42:40Z</time>
      </trkpt>
      <trkpt lat="44.18082" lon="1.74087">
        <ele>217.8</ele>
        <time>2021-03-27T14:42:42Z</time>
      </trkpt>
      <trkpt lat="44.18088" lon="1.74089">
        <ele>214.3</ele>
        <time>2021-03-27T14:42:44Z</time>
      </trkpt>
      <trkpt lat="44.18094" lon="1.74091">
        <ele>211.3</ele>
        <time>2021-03-27T14:42:46Z</time>
      </trkpt>
      <trkpt lat="44.18099" lon="1.74093">
        <ele>209.9</ele>
        <time>2021-03-27T14:42:48Z</time>
      </trkpt>
      <trkpt lat="44.18104" lon="1.74097">
        <ele>207.2</ele>
        <time>2021-03-27T14:42:50Z</time>
      </trkpt>
      <trkpt lat="44.18105" lon="1.74098">
        <ele>207.2</ele>
        <time>2021-03-27T14:42:51Z</time>
      </trkpt>
      <trkpt lat="44.18108" lon="1.74097">
        <ele>205.6</ele>
        <time>2021-03-27T14:42:53Z</time>
      </trkpt>
      <trkpt lat="44.18114" lon="1.74098">
        <ele>202.3</ele>
        <time>2021-03-27T14:42:55Z</time>
      </trkpt>
      <trkpt lat="44.1812" lon="1.74097">
        <ele>199.2</ele>
        <time>2021-03-27T14:42:57Z</time>
      </trkpt>
      <trkpt lat="44.18127" lon="1.74097">
        <ele>196.4</ele>
        <time>2021-03-27T14:42:59Z</time>
      </trkpt>
      <trkpt lat="44.18132" lon="1.74097">
        <ele>193.4</ele>
        <time>2021-03-27T14:43:00Z</time>
      </trkpt>
      <trkpt lat="44.18137" lon="1.74098">
        <ele>191.8</ele>
        <time>2021-03-27T14:43:01Z</time>
      </trkpt>
      <trkpt lat="44.18142" lon="1.74099">
        <ele>188.6</ele>
        <time>2021-03-27T14:43:02Z</time>
      </trkpt>
      <trkpt lat="44.18147" lon="1.74101">
        <ele>187.2</ele>
        <time>2021-03-27T14:43:03Z</time>
      </trkpt>
      <trkpt lat="44.18154" lon="1.74106">
        <ele>183.1</ele>
        <time>2021-03-27T14:43:05Z</time>
      </trkpt>
      <trkpt lat="44.18163" lon="1.7411">
        <ele>179.4</ele>
        <time>2021-03-27T14:43:07Z</time>
      </trkpt>
      <trkpt lat="44.18169" lon="1.74112">
        <ele>177</ele>
        <time>2021-03-27T14:43:08Z</time>
      </trkpt>
      <trkpt lat="44.18174" lon="1.74116">
        <ele>175.6</ele>
        <time>2021-03-27T14:43:09Z</time>
      </trkpt>
      <trkpt lat="44.18182" lon="1.74123">
        <ele>172.2</ele>
        <time>2021-03-27T14:43:11Z</time>
      </trkpt>
      <trkpt lat="44.18186" lon="1.74131">
        <ele>170.7</ele>
        <time>2021-03-27T14:43:13Z</time>
      </trkpt>
      <trkpt lat="44.18192" lon="1.74129">
        <ele>169.3</ele>
        <time>2021-03-27T14:43:16Z</time>
      </trkpt>
      <trkpt lat="44.18199" lon="1.74124">
        <ele>168</ele>
        <time>2021-03-27T14:43:19Z</time>
      </trkpt>
      <trkpt lat="44.18205" lon="1.74124">
        <ele>166.1</ele>
        <time>2021-03-27T14:43:21Z</time>
      </trkpt>
      <trkpt lat="44.18213" lon="1.74123">
        <ele>165.3</ele>
        <time>2021-03-27T14:43:23Z</time>
      </trkpt>
      <trkpt lat="44.18221" lon="1.7412">
        <ele>164.3</ele>
        <time>2021-03-27T14:43:25Z</time>
      </trkpt>
      <trkpt lat="44.18226" lon="1.74118">
        <ele>164.1</ele>
        <time>2021-03-27T14:43:26Z</time>
      </trkpt>
      <trkpt lat="44.18232" lon="1.74114">
        <ele>164.1</ele>
        <time>2021-03-27T14:43:27Z</time>
      </trkpt>
      <trkpt lat="44.18239" lon="1.74109">
        <ele>164.2</ele>
        <time>2021-03-27T14:43:28Z</time>
      </trkpt>
      <trkpt lat="44.18248" lon="1.74106">
        <ele>164.3</ele>
        <time>2021-03-27T14:43:29Z</time>
      </trkpt>
      <trkpt lat="44.18256" lon="1.74102">
        <ele>164.6</ele>
        <time>2021-03-27T14:43:30Z</time>
      </trkpt>
      <trkpt lat="44.18263" lon="1.74098">
        <ele>164.9</ele>
        <time>2021-03-27T14:43:31Z</time>
      </trkpt>
      <trkpt lat="44.1827" lon="1.74095">
        <ele>164.8</ele>
        <time>2021-03-27T14:43:32Z</time>
      </trkpt>
      <trkpt lat="44.18275" lon="1.74093">
        <ele>165.1</ele>
        <time>2021-03-27T14:43:33Z</time>
      </trkpt>
      <trkpt lat="44.18281" lon="1.74095">
        <ele>164.6</ele>
        <time>2021-03-27T14:43:35Z</time>
      </trkpt>
      <trkpt lat="44.18283" lon="1.741">
        <ele>164.2</ele>
        <time>2021-03-27T14:43:38Z</time>
      </trkpt>
      <trkpt lat="44.18283" lon="1.74105">
        <ele>163.8</ele>
        <time>2021-03-27T14:46:34Z</time>
      </trkpt>
      <trkpt lat="44.18283" lon="1.74112">
        <ele>163.6</ele>
        <time>2021-03-27T14:46:37Z</time>
      </trkpt>
      <trkpt lat="44.18283" lon="1.74119">
        <ele>163.5</ele>
        <time>2021-03-27T14:46:39Z</time>
      </trkpt>
      <trkpt lat="44.18283" lon="1.74126">
        <ele>163.4</ele>
        <time>2021-03-27T14:46:41Z</time>
      </trkpt>
      <trkpt lat="44.18283" lon="1.74134">
        <ele>163.3</ele>
        <time>2021-03-27T14:46:43Z</time>
      </trkpt>
      <trkpt lat="44.18283" lon="1.74141">
        <ele>163.3</ele>
        <time>2021-03-27T14:46:45Z</time>
      </trkpt>
      <trkpt lat="44.18282" lon="1.74149">
        <ele>163.2</ele>
        <time>2021-03-27T14:46:47Z</time>
      </trkpt>
      <trkpt lat="44.1828" lon="1.74156">
        <ele>163.1</ele>
        <time>2021-03-27T14:46:49Z</time>
      </trkpt>
      <trkpt lat="44.18277" lon="1.74162">
        <ele>163.1</ele>
        <time>2021-03-27T14:46:51Z</time>
      </trkpt>
      <trkpt lat="44.18272" lon="1.74169">
        <ele>163</ele>
        <time>2021-03-27T14:46:53Z</time>
      </trkpt>
      <trkpt lat="44.18267" lon="1.74177">
        <ele>162.9</ele>
        <time>2021-03-27T14:46:55Z</time>
      </trkpt>
      <trkpt lat="44.18264" lon="1.74182">
        <ele>162.8</ele>
        <time>2021-03-27T14:46:56Z</time>
      </trkpt>
      <trkpt lat="44.18261" lon="1.74186">
        <ele>162.8</ele>
        <time>2021-03-27T14:46:57Z</time>
      </trkpt>
      <trkpt lat="44.18257" lon="1.74191">
        <ele>162.7</ele>
        <time>2021-03-27T14:46:58Z</time>
      </trkpt>
      <trkpt lat="44.18252" lon="1.74201">
        <ele>162.7</ele>
        <time>2021-03-27T14:47:00Z</time>
      </trkpt>
      <trkpt lat="44.18249" lon="1.74207">
        <ele>162.6</ele>
        <time>2021-03-27T14:47:01Z</time>
      </trkpt>
      <trkpt lat="44.18247" lon="1.74212">
        <ele>162.6</ele>
        <time>2021-03-27T14:47:02Z</time>
      </trkpt>
      <trkpt lat="44.18245" lon="1.74218">
        <ele>162.6</ele>
        <time>2021-03-27T14:47:03Z</time>
      </trkpt>
      <trkpt lat="44.18243" lon="1.74223">
        <ele>162.5</ele>
        <time>2021-03-27T14:47:04Z</time>
      </trkpt>
      <trkpt lat="44.18239" lon="1.74235">
        <ele>162.5</ele>
        <time>2021-03-27T14:47:06Z</time>
      </trkpt>
      <trkpt lat="44.18237" lon="1.74241">
        <ele>162.4</ele>
        <time>2021-03-27T14:47:07Z</time>
      </trkpt>
      <trkpt lat="44.18235" lon="1.74247">
        <ele>162.4</ele>
        <time>2021-03-27T14:47:08Z</time>
      </trkpt>
      <trkpt lat="44.18234" lon="1.74253">
        <ele>162.4</ele>
        <time>2021-03-27T14:47:09Z</time>
      </trkpt>
      <trkpt lat="44.18232" lon="1.74259">
        <ele>162.4</ele>
        <time>2021-03-27T14:47:10Z</time>
      </trkpt>
      <trkpt lat="44.1823" lon="1.74265">
        <ele>162.4</ele>
        <time>2021-03-27T14:47:11Z</time>
      </trkpt>
      <trkpt lat="44.18229" lon="1.74271">
        <ele>162.4</ele>
        <time>2021-03-27T14:47:12Z</time>
      </trkpt>
      <trkpt lat="44.18227" lon="1.74277">
        <ele>162.4</ele>
        <time>2021-03-27T14:47:13Z</time>
      </trkpt>
      <trkpt lat="44.18224" lon="1.74283">
        <ele>162.4</ele>
        <time>2021-03-27T14:47:14Z</time>
      </trkpt>
      <trkpt lat="44.18222" lon="1.74289">
        <ele>162.5</ele>
        <time>2021-03-27T14:47:15Z</time>
      </trkpt>
      <trkpt lat="44.18221" lon="1.74295">
        <ele>162.6</ele>
        <time>2021-03-27T14:47:16Z</time>
      </trkpt>
      <trkpt lat="44.18219" lon="1.74301">
        <ele>162.6</ele>
        <time>2021-03-27T14:47:17Z</time>
      </trkpt>
      <trkpt lat="44.18216" lon="1.74312">
        <ele>162.8</ele>
        <time>2021-03-27T14:47:19Z</time>
      </trkpt>
      <trkpt lat="44.18213" lon="1.74322">
        <ele>162.9</ele>
        <time>2021-03-27T14:47:21Z</time>
      </trkpt>
      <trkpt lat="44.1821" lon="1.74332">
        <ele>163</ele>
        <time>2021-03-27T14:47:23Z</time>
      </trkpt>
      <trkpt lat="44.18207" lon="1.74342">
        <ele>163.1</ele>
        <time>2021-03-27T14:47:25Z</time>
      </trkpt>
      <trkpt lat="44.18204" lon="1.74351">
        <ele>163.1</ele>
        <time>2021-03-27T14:47:27Z</time>
      </trkpt>
      <trkpt lat="44.18201" lon="1.7436">
        <ele>163</ele>
        <time>2021-03-27T14:47:29Z</time>
      </trkpt>
      <trkpt lat="44.18198" lon="1.7437">
        <ele>163</ele>
        <time>2021-03-27T14:47:31Z</time>
      </trkpt>
      <trkpt lat="44.18194" lon="1.7438">
        <ele>162.9</ele>
        <time>2021-03-27T14:47:33Z</time>
      </trkpt>
      <trkpt lat="44.1819" lon="1.7439">
        <ele>162.9</ele>
        <time>2021-03-27T14:47:35Z</time>
      </trkpt>
      <trkpt lat="44.18186" lon="1.744">
        <ele>162.8</ele>
        <time>2021-03-27T14:47:37Z</time>
      </trkpt>
      <trkpt lat="44.18182" lon="1.7441">
        <ele>162.7</ele>
        <time>2021-03-27T14:47:39Z</time>
      </trkpt>
      <trkpt lat="44.18178" lon="1.7442">
        <ele>162.7</ele>
        <time>2021-03-27T14:47:41Z</time>
      </trkpt>
      <trkpt lat="44.18173" lon="1.7443">
        <ele>162.7</ele>
        <time>2021-03-27T14:47:43Z</time>
      </trkpt>
      <trkpt lat="44.18171" lon="1.74436">
        <ele>162.7</ele>
        <time>2021-03-27T14:47:44Z</time>
      </trkpt>
      <trkpt lat="44.18166" lon="1.74445">
        <ele>162.8</ele>
        <time>2021-03-27T14:47:46Z</time>
      </trkpt>
      <trkpt lat="44.18161" lon="1.74455">
        <ele>162.9</ele>
        <time>2021-03-27T14:47:48Z</time>
      </trkpt>
      <trkpt lat="44.18156" lon="1.74465">
        <ele>162.9</ele>
        <time>2021-03-27T14:47:50Z</time>
      </trkpt>
      <trkpt lat="44.1815" lon="1.74474">
        <ele>163</ele>
        <time>2021-03-27T14:47:52Z</time>
      </trkpt>
      <trkpt lat="44.18146" lon="1.74484">
        <ele>163</ele>
        <time>2021-03-27T14:47:54Z</time>
      </trkpt>
      <trkpt lat="44.18141" lon="1.74494">
        <ele>163</ele>
        <time>2021-03-27T14:47:56Z</time>
      </trkpt>
      <trkpt lat="44.18138" lon="1.74499">
        <ele>163</ele>
        <time>2021-03-27T14:47:57Z</time>
      </trkpt>
      <trkpt lat="44.18135" lon="1.74505">
        <ele>163</ele>
        <time>2021-03-27T14:47:58Z</time>
      </trkpt>
      <trkpt lat="44.18132" lon="1.74511">
        <ele>163</ele>
        <time>2021-03-27T14:47:59Z</time>
      </trkpt>
      <trkpt lat="44.18129" lon="1.74516">
        <ele>163</ele>
        <time>2021-03-27T14:48:00Z</time>
      </trkpt>
      <trkpt lat="44.18127" lon="1.74521">
        <ele>163.1</ele>
        <time>2021-03-27T14:48:01Z</time>
      </trkpt>
      <trkpt lat="44.18124" lon="1.74527">
        <ele>163.1</ele>
        <time>2021-03-27T14:48:02Z</time>
      </trkpt>
      <trkpt lat="44.18121" lon="1.74532">
        <ele>163.1</ele>
        <time>2021-03-27T14:48:03Z</time>
      </trkpt>
      <trkpt lat="44.18118" lon="1.74538">
        <ele>163.1</ele>
        <time>2021-03-27T14:48:04Z</time>
      </trkpt>
      <trkpt lat="44.18115" lon="1.74543">
        <ele>163.1</ele>
        <time>2021-03-27T14:48:05Z</time>
      </trkpt>
      <trkpt lat="44.18112" lon="1.74548">
        <ele>163.1</ele>
        <time>2021-03-27T14:48:06Z</time>
      </trkpt>
      <trkpt lat="44.18109" lon="1.74552">
        <ele>163.1</ele>
        <time>2021-03-27T14:48:07Z</time>
      </trkpt>
      <trkpt lat="44.18106" lon="1.74557">
        <ele>163.1</ele>
        <time>2021-03-27T14:48:08Z</time>
      </trkpt>
      <trkpt lat="44.18102" lon="1.74562">
        <ele>163</ele>
        <time>2021-03-27T14:48:09Z</time>
      </trkpt>
      <trkpt lat="44.18099" lon="1.74567">
        <ele>163</ele>
        <time>2021-03-27T14:48:10Z</time>
      </trkpt>
      <trkpt lat="44.18096" lon="1.74572">
        <ele>163</ele>
        <time>2021-03-27T14:48:11Z</time>
      </trkpt>
      <trkpt lat="44.18092" lon="1.74576">
        <ele>163</ele>
        <time>2021-03-27T14:48:12Z</time>
      </trkpt>
      <trkpt lat="44.18088" lon="1.74581">
        <ele>163</ele>
        <time>2021-03-27T14:48:13Z</time>
      </trkpt>
      <trkpt lat="44.18084" lon="1.74585">
        <ele>163</ele>
        <time>2021-03-27T14:48:14Z</time>
      </trkpt>
      <trkpt lat="44.1808" lon="1.74589">
        <ele>163</ele>
        <time>2021-03-27T14:48:15Z</time>
      </trkpt>
      <trkpt lat="44.18076" lon="1.74592">
        <ele>163.1</ele>
        <time>2021-03-27T14:48:16Z</time>
      </trkpt>
      <trkpt lat="44.18072" lon="1.74596">
        <ele>163.1</ele>
        <time>2021-03-27T14:48:17Z</time>
      </trkpt>
      <trkpt lat="44.18068" lon="1.74599">
        <ele>163.1</ele>
        <time>2021-03-27T14:48:18Z</time>
      </trkpt>
      <trkpt lat="44.18063" lon="1.74602">
        <ele>163.2</ele>
        <time>2021-03-27T14:48:19Z</time>
      </trkpt>
      <trkpt lat="44.18055" lon="1.74606">
        <ele>163.3</ele>
        <time>2021-03-27T14:48:21Z</time>
      </trkpt>
      <trkpt lat="44.18048" lon="1.74611">
        <ele>163.3</ele>
        <time>2021-03-27T14:48:23Z</time>
      </trkpt>
      <trkpt lat="44.1804" lon="1.74616">
        <ele>163.3</ele>
        <time>2021-03-27T14:48:25Z</time>
      </trkpt>
      <trkpt lat="44.18032" lon="1.74622">
        <ele>163.2</ele>
        <time>2021-03-27T14:48:27Z</time>
      </trkpt>
      <trkpt lat="44.18028" lon="1.74625">
        <ele>163.2</ele>
        <time>2021-03-27T14:48:28Z</time>
      </trkpt>
      <trkpt lat="44.18023" lon="1.74628">
        <ele>163.1</ele>
        <time>2021-03-27T14:48:29Z</time>
      </trkpt>
      <trkpt lat="44.18018" lon="1.74631">
        <ele>163</ele>
        <time>2021-03-27T14:48:30Z</time>
      </trkpt>
      <trkpt lat="44.18014" lon="1.74633">
        <ele>162.9</ele>
        <time>2021-03-27T14:48:31Z</time>
      </trkpt>
      <trkpt lat="44.18009" lon="1.74636">
        <ele>162.8</ele>
        <time>2021-03-27T14:48:32Z</time>
      </trkpt>
      <trkpt lat="44.18004" lon="1.74638">
        <ele>162.7</ele>
        <time>2021-03-27T14:48:33Z</time>
      </trkpt>
      <trkpt lat="44.18" lon="1.74641">
        <ele>162.6</ele>
        <time>2021-03-27T14:48:34Z</time>
      </trkpt>
      <trkpt lat="44.17995" lon="1.74644">
        <ele>162.4</ele>
        <time>2021-03-27T14:48:35Z</time>
      </trkpt>
      <trkpt lat="44.1799" lon="1.74646">
        <ele>162.3</ele>
        <time>2021-03-27T14:48:36Z</time>
      </trkpt>
      <trkpt lat="44.17985" lon="1.74649">
        <ele>162.1</ele>
        <time>2021-03-27T14:48:37Z</time>
      </trkpt>
      <trkpt lat="44.17981" lon="1.74653">
        <ele>161.9</ele>
        <time>2021-03-27T14:48:38Z</time>
      </trkpt>
      <trkpt lat="44.17976" lon="1.74657">
        <ele>161.7</ele>
        <time>2021-03-27T14:48:39Z</time>
      </trkpt>
      <trkpt lat="44.17972" lon="1.74661">
        <ele>161.4</ele>
        <time>2021-03-27T14:48:40Z</time>
      </trkpt>
      <trkpt lat="44.17968" lon="1.74667">
        <ele>161.2</ele>
        <time>2021-03-27T14:48:41Z</time>
      </trkpt>
      <trkpt lat="44.17965" lon="1.74674">
        <ele>161</ele>
        <time>2021-03-27T14:48:42Z</time>
      </trkpt>
      <trkpt lat="44.17961" lon="1.74681">
        <ele>160.8</ele>
        <time>2021-03-27T14:48:43Z</time>
      </trkpt>
      <trkpt lat="44.17958" lon="1.74689">
        <ele>160.6</ele>
        <time>2021-03-27T14:48:44Z</time>
      </trkpt>
      <trkpt lat="44.17955" lon="1.74697">
        <ele>160.4</ele>
        <time>2021-03-27T14:48:45Z</time>
      </trkpt>
      <trkpt lat="44.17951" lon="1.74705">
        <ele>160.3</ele>
        <time>2021-03-27T14:48:46Z</time>
      </trkpt>
      <trkpt lat="44.17947" lon="1.74712">
        <ele>160.1</ele>
        <time>2021-03-27T14:48:47Z</time>
      </trkpt>
      <trkpt lat="44.17942" lon="1.74718">
        <ele>160</ele>
        <time>2021-03-27T14:48:48Z</time>
      </trkpt>
      <trkpt lat="44.17938" lon="1.74725">
        <ele>159.9</ele>
        <time>2021-03-27T14:48:49Z</time>
      </trkpt>
      <trkpt lat="44.17934" lon="1.74731">
        <ele>159.8</ele>
        <time>2021-03-27T14:48:50Z</time>
      </trkpt>
      <trkpt lat="44.17929" lon="1.74737">
        <ele>159.7</ele>
        <time>2021-03-27T14:48:51Z</time>
      </trkpt>
      <trkpt lat="44.17925" lon="1.74742">
        <ele>159.6</ele>
        <time>2021-03-27T14:48:52Z</time>
      </trkpt>
      <trkpt lat="44.17921" lon="1.74748">
        <ele>159.5</ele>
        <time>2021-03-27T14:48:53Z</time>
      </trkpt>
      <trkpt lat="44.17917" lon="1.74753">
        <ele>159.5</ele>
        <time>2021-03-27T14:48:54Z</time>
      </trkpt>
      <trkpt lat="44.17913" lon="1.74759">
        <ele>159.5</ele>
        <time>2021-03-27T14:48:55Z</time>
      </trkpt>
      <trkpt lat="44.17909" lon="1.74764">
        <ele>159.4</ele>
        <time>2021-03-27T14:48:56Z</time>
      </trkpt>
      <trkpt lat="44.17905" lon="1.74769">
        <ele>159.4</ele>
        <time>2021-03-27T14:48:57Z</time>
      </trkpt>
      <trkpt lat="44.17902" lon="1.74774">
        <ele>159.3</ele>
        <time>2021-03-27T14:48:58Z</time>
      </trkpt>
      <trkpt lat="44.17898" lon="1.74778">
        <ele>159.3</ele>
        <time>2021-03-27T14:48:59Z</time>
      </trkpt>
      <trkpt lat="44.17894" lon="1.74783">
        <ele>159.2</ele>
        <time>2021-03-27T14:49:00Z</time>
      </trkpt>
      <trkpt lat="44.17891" lon="1.74787">
        <ele>159.2</ele>
        <time>2021-03-27T14:49:01Z</time>
      </trkpt>
      <trkpt lat="44.17888" lon="1.74792">
        <ele>159.1</ele>
        <time>2021-03-27T14:49:02Z</time>
      </trkpt>
      <trkpt lat="44.17885" lon="1.74798">
        <ele>159.1</ele>
        <time>2021-03-27T14:49:03Z</time>
      </trkpt>
      <trkpt lat="44.17882" lon="1.74803">
        <ele>159</ele>
        <time>2021-03-27T14:49:04Z</time>
      </trkpt>
      <trkpt lat="44.17878" lon="1.74808">
        <ele>159</ele>
        <time>2021-03-27T14:49:05Z</time>
      </trkpt>
      <trkpt lat="44.17875" lon="1.74814">
        <ele>158.9</ele>
        <time>2021-03-27T14:49:06Z</time>
      </trkpt>
      <trkpt lat="44.17872" lon="1.7482">
        <ele>158.9</ele>
        <time>2021-03-27T14:49:07Z</time>
      </trkpt>
      <trkpt lat="44.17868" lon="1.74826">
        <ele>158.8</ele>
        <time>2021-03-27T14:49:08Z</time>
      </trkpt>
      <trkpt lat="44.17865" lon="1.74832">
        <ele>158.8</ele>
        <time>2021-03-27T14:49:09Z</time>
      </trkpt>
      <trkpt lat="44.17861" lon="1.74838">
        <ele>158.7</ele>
        <time>2021-03-27T14:49:10Z</time>
      </trkpt>
      <trkpt lat="44.17858" lon="1.74844">
        <ele>158.7</ele>
        <time>2021-03-27T14:49:11Z</time>
      </trkpt>
      <trkpt lat="44.17854" lon="1.7485">
        <ele>158.6</ele>
        <time>2021-03-27T14:49:12Z</time>
      </trkpt>
      <trkpt lat="44.1785" lon="1.74856">
        <ele>158.5</ele>
        <time>2021-03-27T14:49:13Z</time>
      </trkpt>
      <trkpt lat="44.17846" lon="1.74862">
        <ele>158.4</ele>
        <time>2021-03-27T14:49:14Z</time>
      </trkpt>
      <trkpt lat="44.17843" lon="1.74868">
        <ele>158.3</ele>
        <time>2021-03-27T14:49:15Z</time>
      </trkpt>
      <trkpt lat="44.17839" lon="1.74874">
        <ele>158.2</ele>
        <time>2021-03-27T14:49:16Z</time>
      </trkpt>
      <trkpt lat="44.17835" lon="1.7488">
        <ele>158.1</ele>
        <time>2021-03-27T14:49:17Z</time>
      </trkpt>
      <trkpt lat="44.17831" lon="1.74886">
        <ele>157.9</ele>
        <time>2021-03-27T14:49:18Z</time>
      </trkpt>
      <trkpt lat="44.17827" lon="1.74892">
        <ele>157.7</ele>
        <time>2021-03-27T14:49:19Z</time>
      </trkpt>
      <trkpt lat="44.17823" lon="1.74898">
        <ele>157.5</ele>
        <time>2021-03-27T14:49:20Z</time>
      </trkpt>
      <trkpt lat="44.17819" lon="1.74904">
        <ele>157.4</ele>
        <time>2021-03-27T14:49:21Z</time>
      </trkpt>
      <trkpt lat="44.17815" lon="1.7491">
        <ele>157.2</ele>
        <time>2021-03-27T14:49:22Z</time>
      </trkpt>
      <trkpt lat="44.17811" lon="1.74916">
        <ele>157</ele>
        <time>2021-03-27T14:49:23Z</time>
      </trkpt>
      <trkpt lat="44.17806" lon="1.74922">
        <ele>156.8</ele>
        <time>2021-03-27T14:49:24Z</time>
      </trkpt>
      <trkpt lat="44.17802" lon="1.74927">
        <ele>156.7</ele>
        <time>2021-03-27T14:49:25Z</time>
      </trkpt>
      <trkpt lat="44.17797" lon="1.74932">
        <ele>156.5</ele>
        <time>2021-03-27T14:49:26Z</time>
      </trkpt>
      <trkpt lat="44.17792" lon="1.74937">
        <ele>156.3</ele>
        <time>2021-03-27T14:49:27Z</time>
      </trkpt>
      <trkpt lat="44.17787" lon="1.74941">
        <ele>156.1</ele>
        <time>2021-03-27T14:49:28Z</time>
      </trkpt>
      <trkpt lat="44.17782" lon="1.74944">
        <ele>155.8</ele>
        <time>2021-03-27T14:49:29Z</time>
      </trkpt>
      <trkpt lat="44.17777" lon="1.74948">
        <ele>155.6</ele>
        <time>2021-03-27T14:49:30Z</time>
      </trkpt>
      <trkpt lat="44.17772" lon="1.74952">
        <ele>155.3</ele>
        <time>2021-03-27T14:49:31Z</time>
      </trkpt>
      <trkpt lat="44.17767" lon="1.74956">
        <ele>155</ele>
        <time>2021-03-27T14:49:32Z</time>
      </trkpt>
      <trkpt lat="44.17762" lon="1.74961">
        <ele>154.6</ele>
        <time>2021-03-27T14:49:33Z</time>
      </trkpt>
      <trkpt lat="44.17757" lon="1.74967">
        <ele>154.2</ele>
        <time>2021-03-27T14:49:34Z</time>
      </trkpt>
      <trkpt lat="44.17753" lon="1.74973">
        <ele>153.8</ele>
        <time>2021-03-27T14:49:35Z</time>
      </trkpt>
      <trkpt lat="44.17749" lon="1.7498">
        <ele>153.4</ele>
        <time>2021-03-27T14:49:36Z</time>
      </trkpt>
      <trkpt lat="44.17744" lon="1.74988">
        <ele>153</ele>
        <time>2021-03-27T14:49:37Z</time>
      </trkpt>
      <trkpt lat="44.1774" lon="1.74995">
        <ele>152.7</ele>
        <time>2021-03-27T14:49:38Z</time>
      </trkpt>
      <trkpt lat="44.17736" lon="1.75001">
        <ele>152.5</ele>
        <time>2021-03-27T14:49:39Z</time>
      </trkpt>
      <trkpt lat="44.17733" lon="1.75006">
        <ele>152.4</ele>
        <time>2021-03-27T14:49:40Z</time>
      </trkpt>
      <trkpt lat="44.1773" lon="1.75013">
        <ele>152.2</ele>
        <time>2021-03-27T14:49:42Z</time>
      </trkpt>
      <trkpt lat="44.17731" lon="1.75019">
        <ele>152.2</ele>
        <time>2021-03-27T14:49:44Z</time>
      </trkpt>
      <trkpt lat="44.17735" lon="1.75025">
        <ele>152.3</ele>
        <time>2021-03-27T14:49:46Z</time>
      </trkpt>
      <trkpt lat="44.17742" lon="1.75029">
        <ele>152.3</ele>
        <time>2021-03-27T14:49:48Z</time>
      </trkpt>
      <trkpt lat="44.1775" lon="1.75033">
        <ele>152.4</ele>
        <time>2021-03-27T14:49:50Z</time>
      </trkpt>
      <trkpt lat="44.17757" lon="1.75038">
        <ele>152.4</ele>
        <time>2021-03-27T14:49:52Z</time>
      </trkpt>
      <trkpt lat="44.17764" lon="1.75041">
        <ele>152.5</ele>
        <time>2021-03-27T14:49:54Z</time>
      </trkpt>
      <trkpt lat="44.17772" lon="1.75046">
        <ele>152.5</ele>
        <time>2021-03-27T14:49:56Z</time>
      </trkpt>
      <trkpt lat="44.17776" lon="1.75049">
        <ele>152.5</ele>
        <time>2021-03-27T14:49:57Z</time>
      </trkpt>
      <trkpt lat="44.17784" lon="1.75054">
        <ele>152.6</ele>
        <time>2021-03-27T14:49:59Z</time>
      </trkpt>
      <trkpt lat="44.17792" lon="1.7506">
        <ele>152.6</ele>
        <time>2021-03-27T14:50:01Z</time>
      </trkpt>
      <trkpt lat="44.178" lon="1.75065">
        <ele>152.7</ele>
        <time>2021-03-27T14:50:03Z</time>
      </trkpt>
      <trkpt lat="44.17808" lon="1.75071">
        <ele>152.7</ele>
        <time>2021-03-27T14:50:05Z</time>
      </trkpt>
      <trkpt lat="44.17815" lon="1.75076">
        <ele>152.8</ele>
        <time>2021-03-27T14:50:07Z</time>
      </trkpt>
      <trkpt lat="44.17823" lon="1.75081">
        <ele>153</ele>
        <time>2021-03-27T14:50:09Z</time>
      </trkpt>
      <trkpt lat="44.1783" lon="1.75086">
        <ele>153.2</ele>
        <time>2021-03-27T14:50:11Z</time>
      </trkpt>
      <trkpt lat="44.17837" lon="1.7509">
        <ele>153.3</ele>
        <time>2021-03-27T14:50:13Z</time>
      </trkpt>
      <trkpt lat="44.17843" lon="1.75093">
        <ele>153.5</ele>
        <time>2021-03-27T14:50:15Z</time>
      </trkpt>
      <trkpt lat="44.17849" lon="1.75097">
        <ele>153.8</ele>
        <time>2021-03-27T14:50:17Z</time>
      </trkpt>
      <trkpt lat="44.17856" lon="1.75099">
        <ele>154</ele>
        <time>2021-03-27T14:50:19Z</time>
      </trkpt>
      <trkpt lat="44.17864" lon="1.75101">
        <ele>154.3</ele>
        <time>2021-03-27T14:50:21Z</time>
      </trkpt>
      <trkpt lat="44.17871" lon="1.75101">
        <ele>154.5</ele>
        <time>2021-03-27T14:50:23Z</time>
      </trkpt>
      <trkpt lat="44.17878" lon="1.751">
        <ele>154.8</ele>
        <time>2021-03-27T14:50:25Z</time>
      </trkpt>
      <trkpt lat="44.17885" lon="1.75099">
        <ele>155.1</ele>
        <time>2021-03-27T14:50:27Z</time>
      </trkpt>
      <trkpt lat="44.17892" lon="1.75097">
        <ele>155.4</ele>
        <time>2021-03-27T14:50:29Z</time>
      </trkpt>
      <trkpt lat="44.17899" lon="1.75095">
        <ele>155.7</ele>
        <time>2021-03-27T14:50:31Z</time>
      </trkpt>
      <trkpt lat="44.17905" lon="1.75092">
        <ele>155.9</ele>
        <time>2021-03-27T14:50:33Z</time>
      </trkpt>
      <trkpt lat="44.1791" lon="1.7509">
        <ele>156.2</ele>
        <time>2021-03-27T14:50:35Z</time>
      </trkpt>
      <trkpt lat="44.17915" lon="1.75089">
        <ele>156.4</ele>
        <time>2021-03-27T14:50:37Z</time>
      </trkpt>
      <trkpt lat="44.17921" lon="1.75085">
        <ele>156.6</ele>
        <time>2021-03-27T14:50:40Z</time>
      </trkpt>
      <trkpt lat="44.17922" lon="1.75079">
        <ele>156.8</ele>
        <time>2021-03-27T14:50:42Z</time>
      </trkpt>
      <trkpt lat="44.17924" lon="1.75071">
        <ele>157.3</ele>
        <time>2021-03-27T14:50:44Z</time>
      </trkpt>
      <trkpt lat="44.17925" lon="1.75062">
        <ele>158.4</ele>
        <time>2021-03-27T14:50:46Z</time>
      </trkpt>
      <trkpt lat="44.17927" lon="1.75054">
        <ele>158.9</ele>
        <time>2021-03-27T14:50:48Z</time>
      </trkpt>
      <trkpt lat="44.17928" lon="1.75046">
        <ele>159.3</ele>
        <time>2021-03-27T14:50:50Z</time>
      </trkpt>
      <trkpt lat="44.17929" lon="1.75038">
        <ele>160.3</ele>
        <time>2021-03-27T14:50:52Z</time>
      </trkpt>
      <trkpt lat="44.1793" lon="1.75031">
        <ele>160.4</ele>
        <time>2021-03-27T14:50:54Z</time>
      </trkpt>
      <trkpt lat="44.1793" lon="1.75023">
        <ele>160.7</ele>
        <time>2021-03-27T14:50:56Z</time>
      </trkpt>
      <trkpt lat="44.17929" lon="1.75015">
        <ele>161</ele>
        <time>2021-03-27T14:50:58Z</time>
      </trkpt>
      <trkpt lat="44.17929" lon="1.75007">
        <ele>161.3</ele>
        <time>2021-03-27T14:51:00Z</time>
      </trkpt>
      <trkpt lat="44.17929" lon="1.75">
        <ele>161.5</ele>
        <time>2021-03-27T14:51:02Z</time>
      </trkpt>
      <trkpt lat="44.17929" lon="1.74993">
        <ele>161.5</ele>
        <time>2021-03-27T14:51:04Z</time>
      </trkpt>
      <trkpt lat="44.17928" lon="1.74986">
        <ele>161.1</ele>
        <time>2021-03-27T14:51:06Z</time>
      </trkpt>
      <trkpt lat="44.17928" lon="1.74979">
        <ele>161.6</ele>
        <time>2021-03-27T14:51:08Z</time>
      </trkpt>
      <trkpt lat="44.17929" lon="1.74972">
        <ele>161.5</ele>
        <time>2021-03-27T14:51:10Z</time>
      </trkpt>
      <trkpt lat="44.1793" lon="1.74966">
        <ele>161.4</ele>
        <time>2021-03-27T14:51:12Z</time>
      </trkpt>
      <trkpt lat="44.1793" lon="1.74959">
        <ele>161.3</ele>
        <time>2021-03-27T14:51:14Z</time>
      </trkpt>
      <trkpt lat="44.17932" lon="1.7495">
        <ele>161.6</ele>
        <time>2021-03-27T14:51:17Z</time>
      </trkpt>
      <trkpt lat="44.17934" lon="1.74942">
        <ele>161.4</ele>
        <time>2021-03-27T14:51:20Z</time>
      </trkpt>
      <trkpt lat="44.17934" lon="1.74935">
        <ele>161.3</ele>
        <time>2021-03-27T14:51:22Z</time>
      </trkpt>
      <trkpt lat="44.17934" lon="1.74927">
        <ele>161.7</ele>
        <time>2021-03-27T14:51:24Z</time>
      </trkpt>
      <trkpt lat="44.17934" lon="1.7492">
        <ele>161.5</ele>
        <time>2021-03-27T14:51:26Z</time>
      </trkpt>
      <trkpt lat="44.17935" lon="1.74912">
        <ele>161.4</ele>
        <time>2021-03-27T14:51:28Z</time>
      </trkpt>
      <trkpt lat="44.17938" lon="1.74906">
        <ele>161.7</ele>
        <time>2021-03-27T14:51:30Z</time>
      </trkpt>
      <trkpt lat="44.17941" lon="1.74899">
        <ele>161.9</ele>
        <time>2021-03-27T14:51:32Z</time>
      </trkpt>
      <trkpt lat="44.17944" lon="1.74891">
        <ele>161.9</ele>
        <time>2021-03-27T14:51:34Z</time>
      </trkpt>
      <trkpt lat="44.17948" lon="1.74885">
        <ele>162</ele>
        <time>2021-03-27T14:51:36Z</time>
      </trkpt>
      <trkpt lat="44.17952" lon="1.7488">
        <ele>162</ele>
        <time>2021-03-27T14:51:38Z</time>
      </trkpt>
      <trkpt lat="44.17956" lon="1.74876">
        <ele>162</ele>
        <time>2021-03-27T14:51:40Z</time>
      </trkpt>
      <trkpt lat="44.1796" lon="1.74872">
        <ele>162.6</ele>
        <time>2021-03-27T14:51:42Z</time>
      </trkpt>
      <trkpt lat="44.17964" lon="1.74868">
        <ele>162.6</ele>
        <time>2021-03-27T14:51:44Z</time>
      </trkpt>
      <trkpt lat="44.17968" lon="1.74865">
        <ele>162.9</ele>
        <time>2021-03-27T14:51:46Z</time>
      </trkpt>
      <trkpt lat="44.17973" lon="1.74863">
        <ele>163.2</ele>
        <time>2021-03-27T14:51:48Z</time>
      </trkpt>
      <trkpt lat="44.17979" lon="1.74861">
        <ele>163.7</ele>
        <time>2021-03-27T14:51:51Z</time>
      </trkpt>
      <trkpt lat="44.17984" lon="1.74858">
        <ele>164.1</ele>
        <time>2021-03-27T14:51:53Z</time>
      </trkpt>
      <trkpt lat="44.17989" lon="1.74855">
        <ele>164.4</ele>
        <time>2021-03-27T14:51:55Z</time>
      </trkpt>
      <trkpt lat="44.17994" lon="1.74851">
        <ele>164.8</ele>
        <time>2021-03-27T14:51:57Z</time>
      </trkpt>
      <trkpt lat="44.18001" lon="1.74846">
        <ele>165.5</ele>
        <time>2021-03-27T14:51:59Z</time>
      </trkpt>
      <trkpt lat="44.18008" lon="1.74841">
        <ele>165.5</ele>
        <time>2021-03-27T14:52:01Z</time>
      </trkpt>
      <trkpt lat="44.18015" lon="1.74836">
        <ele>166.5</ele>
        <time>2021-03-27T14:52:03Z</time>
      </trkpt>
      <trkpt lat="44.18021" lon="1.74836">
        <ele>167.7</ele>
        <time>2021-03-27T14:52:05Z</time>
      </trkpt>
      <trkpt lat="44.18026" lon="1.74839">
        <ele>168.2</ele>
        <time>2021-03-27T14:52:08Z</time>
      </trkpt>
      <trkpt lat="44.1803" lon="1.74839">
        <ele>168.5</ele>
        <time>2021-03-27T14:52:11Z</time>
      </trkpt>
      <trkpt lat="44.18032" lon="1.74839">
        <ele>168.6</ele>
        <time>2021-03-27T14:52:12Z</time>
      </trkpt>
      <trkpt lat="44.18037" lon="1.74835">
        <ele>168.9</ele>
        <time>2021-03-27T14:52:15Z</time>
      </trkpt>
      <trkpt lat="44.18043" lon="1.74833">
        <ele>169.1</ele>
        <time>2021-03-27T14:52:17Z</time>
      </trkpt>
      <trkpt lat="44.18048" lon="1.74831">
        <ele>169.2</ele>
        <time>2021-03-27T14:52:19Z</time>
      </trkpt>
      <trkpt lat="44.18052" lon="1.74829">
        <ele>169.4</ele>
        <time>2021-03-27T14:52:21Z</time>
      </trkpt>
      <trkpt lat="44.18057" lon="1.74826">
        <ele>169.6</ele>
        <time>2021-03-27T14:52:23Z</time>
      </trkpt>
      <trkpt lat="44.18063" lon="1.74823">
        <ele>169.8</ele>
        <time>2021-03-27T14:52:25Z</time>
      </trkpt>
      <trkpt lat="44.18069" lon="1.7482">
        <ele>170</ele>
        <time>2021-03-27T14:52:27Z</time>
      </trkpt>
      <trkpt lat="44.18073" lon="1.74818">
        <ele>170.2</ele>
        <time>2021-03-27T14:52:29Z</time>
      </trkpt>
      <trkpt lat="44.18078" lon="1.74813">
        <ele>170.4</ele>
        <time>2021-03-27T14:52:32Z</time>
      </trkpt>
      <trkpt lat="44.18083" lon="1.74806">
        <ele>170.7</ele>
        <time>2021-03-27T14:52:35Z</time>
      </trkpt>
      <trkpt lat="44.18088" lon="1.748">
        <ele>170.9</ele>
        <time>2021-03-27T14:52:37Z</time>
      </trkpt>
      <trkpt lat="44.18093" lon="1.74796">
        <ele>171.2</ele>
        <time>2021-03-27T14:52:39Z</time>
      </trkpt>
      <trkpt lat="44.18097" lon="1.7479">
        <ele>171.4</ele>
        <time>2021-03-27T14:52:41Z</time>
      </trkpt>
      <trkpt lat="44.18102" lon="1.74783">
        <ele>171.7</ele>
        <time>2021-03-27T14:52:43Z</time>
      </trkpt>
      <trkpt lat="44.18108" lon="1.74774">
        <ele>172</ele>
        <time>2021-03-27T14:52:45Z</time>
      </trkpt>
      <trkpt lat="44.18112" lon="1.74769">
        <ele>172.1</ele>
        <time>2021-03-27T14:52:46Z</time>
      </trkpt>
      <trkpt lat="44.18115" lon="1.74764">
        <ele>172.3</ele>
        <time>2021-03-27T14:52:47Z</time>
      </trkpt>
      <trkpt lat="44.18119" lon="1.7476">
        <ele>172.5</ele>
        <time>2021-03-27T14:52:48Z</time>
      </trkpt>
      <trkpt lat="44.18124" lon="1.74752">
        <ele>172.8</ele>
        <time>2021-03-27T14:52:50Z</time>
      </trkpt>
      <trkpt lat="44.1813" lon="1.74745">
        <ele>173.2</ele>
        <time>2021-03-27T14:52:52Z</time>
      </trkpt>
      <trkpt lat="44.18135" lon="1.74738">
        <ele>173.8</ele>
        <time>2021-03-27T14:52:54Z</time>
      </trkpt>
      <trkpt lat="44.18141" lon="1.74731">
        <ele>174.4</ele>
        <time>2021-03-27T14:52:56Z</time>
      </trkpt>
      <trkpt lat="44.18146" lon="1.74723">
        <ele>175.1</ele>
        <time>2021-03-27T14:52:58Z</time>
      </trkpt>
      <trkpt lat="44.1815" lon="1.74717">
        <ele>175.7</ele>
        <time>2021-03-27T14:53:00Z</time>
      </trkpt>
      <trkpt lat="44.18155" lon="1.74711">
        <ele>176.2</ele>
        <time>2021-03-27T14:53:02Z</time>
      </trkpt>
      <trkpt lat="44.18159" lon="1.74704">
        <ele>176.8</ele>
        <time>2021-03-27T14:53:04Z</time>
      </trkpt>
      <trkpt lat="44.18164" lon="1.74698">
        <ele>177.5</ele>
        <time>2021-03-27T14:53:06Z</time>
      </trkpt>
      <trkpt lat="44.1817" lon="1.7469">
        <ele>178.3</ele>
        <time>2021-03-27T14:53:08Z</time>
      </trkpt>
      <trkpt lat="44.18173" lon="1.74683">
        <ele>178.9</ele>
        <time>2021-03-27T14:53:10Z</time>
      </trkpt>
      <trkpt lat="44.18177" lon="1.74676">
        <ele>179.6</ele>
        <time>2021-03-27T14:53:13Z</time>
      </trkpt>
      <trkpt lat="44.1818" lon="1.74669">
        <ele>180.3</ele>
        <time>2021-03-27T14:53:16Z</time>
      </trkpt>
      <trkpt lat="44.18184" lon="1.74661">
        <ele>181.1</ele>
        <time>2021-03-27T14:53:19Z</time>
      </trkpt>
      <trkpt lat="44.18188" lon="1.74654">
        <ele>181.9</ele>
        <time>2021-03-27T14:53:22Z</time>
      </trkpt>
      <trkpt lat="44.1819" lon="1.74647">
        <ele>182.7</ele>
        <time>2021-03-27T14:53:25Z</time>
      </trkpt>
      <trkpt lat="44.18193" lon="1.7464">
        <ele>183.5</ele>
        <time>2021-03-27T14:53:28Z</time>
      </trkpt>
      <trkpt lat="44.18196" lon="1.74632">
        <ele>184.5</ele>
        <time>2021-03-27T14:53:31Z</time>
      </trkpt>
      <trkpt lat="44.18199" lon="1.74625">
        <ele>185.5</ele>
        <time>2021-03-27T14:53:34Z</time>
      </trkpt>
      <trkpt lat="44.18201" lon="1.74618">
        <ele>186.5</ele>
        <time>2021-03-27T14:53:37Z</time>
      </trkpt>
      <trkpt lat="44.18202" lon="1.74611">
        <ele>187.4</ele>
        <time>2021-03-27T14:53:40Z</time>
      </trkpt>
      <trkpt lat="44.18203" lon="1.7461">
        <ele>187.6</ele>
        <time>2021-03-27T14:53:41Z</time>
      </trkpt>
      <trkpt lat="44.18203" lon="1.74608">
        <ele>187.8</ele>
        <time>2021-03-27T14:53:42Z</time>
      </trkpt>
      <trkpt lat="44.18205" lon="1.74602">
        <ele>188.6</ele>
        <time>2021-03-27T14:53:45Z</time>
      </trkpt>
      <trkpt lat="44.18206" lon="1.746">
        <ele>188.9</ele>
        <time>2021-03-27T14:53:46Z</time>
      </trkpt>
      <trkpt lat="44.18207" lon="1.74597">
        <ele>189.3</ele>
        <time>2021-03-27T14:53:48Z</time>
      </trkpt>
      <trkpt lat="44.18207" lon="1.74596">
        <ele>189.4</ele>
        <time>2021-03-27T14:53:49Z</time>
      </trkpt>
      <trkpt lat="44.18208" lon="1.74593">
        <ele>189.8</ele>
        <time>2021-03-27T14:53:51Z</time>
      </trkpt>
      <trkpt lat="44.18209" lon="1.7459">
        <ele>190.2</ele>
        <time>2021-03-27T14:53:53Z</time>
      </trkpt>
      <trkpt lat="44.18214" lon="1.74587">
        <ele>191</ele>
        <time>2021-03-27T14:53:57Z</time>
      </trkpt>
      <trkpt lat="44.18215" lon="1.74588">
        <ele>191.2</ele>
        <time>2021-03-27T14:53:58Z</time>
      </trkpt>
      <trkpt lat="44.18215" lon="1.74589">
        <ele>191.4</ele>
        <time>2021-03-27T14:53:59Z</time>
      </trkpt>
      <trkpt lat="44.18216" lon="1.74595">
        <ele>192</ele>
        <time>2021-03-27T14:54:02Z</time>
      </trkpt>
      <trkpt lat="44.18215" lon="1.74598">
        <ele>192.4</ele>
        <time>2021-03-27T14:54:04Z</time>
      </trkpt>
      <trkpt lat="44.18215" lon="1.74601">
        <ele>192.9</ele>
        <time>2021-03-27T14:54:06Z</time>
      </trkpt>
      <trkpt lat="44.18214" lon="1.74607">
        <ele>193.5</ele>
        <time>2021-03-27T14:54:09Z</time>
      </trkpt>
      <trkpt lat="44.18214" lon="1.74614">
        <ele>194.5</ele>
        <time>2021-03-27T14:54:13Z</time>
      </trkpt>
      <trkpt lat="44.18213" lon="1.74616">
        <ele>194.7</ele>
        <time>2021-03-27T14:54:14Z</time>
      </trkpt>
      <trkpt lat="44.18213" lon="1.74618">
        <ele>194.9</ele>
        <time>2021-03-27T14:54:15Z</time>
      </trkpt>
      <trkpt lat="44.18213" lon="1.74625">
        <ele>195.8</ele>
        <time>2021-03-27T14:54:19Z</time>
      </trkpt>
      <trkpt lat="44.18213" lon="1.74627">
        <ele>196</ele>
        <time>2021-03-27T14:54:20Z</time>
      </trkpt>
      <trkpt lat="44.18212" lon="1.74633">
        <ele>196.9</ele>
        <time>2021-03-27T14:54:24Z</time>
      </trkpt>
      <trkpt lat="44.18212" lon="1.7464">
        <ele>197.7</ele>
        <time>2021-03-27T14:54:28Z</time>
      </trkpt>
      <trkpt lat="44.18212" lon="1.74646">
        <ele>198.5</ele>
        <time>2021-03-27T14:54:32Z</time>
      </trkpt>
      <trkpt lat="44.18211" lon="1.74654">
        <ele>199.5</ele>
        <time>2021-03-27T14:54:37Z</time>
      </trkpt>
      <trkpt lat="44.18211" lon="1.74656">
        <ele>199.7</ele>
        <time>2021-03-27T14:54:38Z</time>
      </trkpt>
      <trkpt lat="44.18211" lon="1.74657">
        <ele>199.9</ele>
        <time>2021-03-27T14:54:39Z</time>
      </trkpt>
      <trkpt lat="44.18211" lon="1.74665">
        <ele>200.8</ele>
        <time>2021-03-27T14:54:44Z</time>
      </trkpt>
      <trkpt lat="44.1821" lon="1.74672">
        <ele>201.6</ele>
        <time>2021-03-27T14:54:49Z</time>
      </trkpt>
      <trkpt lat="44.1821" lon="1.74679">
        <ele>202.4</ele>
        <time>2021-03-27T14:54:54Z</time>
      </trkpt>
      <trkpt lat="44.1821" lon="1.7468">
        <ele>202.6</ele>
        <time>2021-03-27T14:54:55Z</time>
      </trkpt>
      <trkpt lat="44.1821" lon="1.74682">
        <ele>202.7</ele>
        <time>2021-03-27T14:54:56Z</time>
      </trkpt>
      <trkpt lat="44.18209" lon="1.7469">
        <ele>203.5</ele>
        <time>2021-03-27T14:55:01Z</time>
      </trkpt>
      <trkpt lat="44.18207" lon="1.74697">
        <ele>204.2</ele>
        <time>2021-03-27T14:55:06Z</time>
      </trkpt>
      <trkpt lat="44.18205" lon="1.74704">
        <ele>204.9</ele>
        <time>2021-03-27T14:55:10Z</time>
      </trkpt>
      <trkpt lat="44.18202" lon="1.74711">
        <ele>205.6</ele>
        <time>2021-03-27T14:55:14Z</time>
      </trkpt>
      <trkpt lat="44.182" lon="1.74718">
        <ele>206.3</ele>
        <time>2021-03-27T14:55:18Z</time>
      </trkpt>
      <trkpt lat="44.182" lon="1.74719">
        <ele>206.5</ele>
        <time>2021-03-27T14:55:19Z</time>
      </trkpt>
      <trkpt lat="44.18199" lon="1.74721">
        <ele>206.6</ele>
        <time>2021-03-27T14:55:20Z</time>
      </trkpt>
      <trkpt lat="44.18196" lon="1.74728">
        <ele>207.4</ele>
        <time>2021-03-27T14:55:24Z</time>
      </trkpt>
      <trkpt lat="44.18193" lon="1.74735">
        <ele>208.2</ele>
        <time>2021-03-27T14:55:28Z</time>
      </trkpt>
      <trkpt lat="44.18192" lon="1.7474">
        <ele>208.8</ele>
        <time>2021-03-27T14:55:31Z</time>
      </trkpt>
      <trkpt lat="44.18191" lon="1.74743">
        <ele>209.1</ele>
        <time>2021-03-27T14:55:33Z</time>
      </trkpt>
      <trkpt lat="44.18191" lon="1.74745">
        <ele>209.3</ele>
        <time>2021-03-27T14:55:34Z</time>
      </trkpt>
      <trkpt lat="44.1819" lon="1.74746">
        <ele>209.6</ele>
        <time>2021-03-27T14:55:35Z</time>
      </trkpt>
      <trkpt lat="44.1819" lon="1.74748">
        <ele>209.7</ele>
        <time>2021-03-27T14:55:36Z</time>
      </trkpt>
      <trkpt lat="44.18188" lon="1.7475">
        <ele>210.1</ele>
        <time>2021-03-27T14:55:38Z</time>
      </trkpt>
      <trkpt lat="44.18188" lon="1.74752">
        <ele>210.3</ele>
        <time>2021-03-27T14:55:39Z</time>
      </trkpt>
      <trkpt lat="44.18187" lon="1.74755">
        <ele>210.7</ele>
        <time>2021-03-27T14:55:41Z</time>
      </trkpt>
      <trkpt lat="44.18186" lon="1.74756">
        <ele>210.9</ele>
        <time>2021-03-27T14:55:42Z</time>
      </trkpt>
      <trkpt lat="44.18184" lon="1.74762">
        <ele>211.7</ele>
        <time>2021-03-27T14:55:46Z</time>
      </trkpt>
      <trkpt lat="44.18183" lon="1.74765">
        <ele>212.2</ele>
        <time>2021-03-27T14:55:48Z</time>
      </trkpt>
      <trkpt lat="44.18182" lon="1.74767">
        <ele>212.4</ele>
        <time>2021-03-27T14:55:49Z</time>
      </trkpt>
      <trkpt lat="44.18182" lon="1.74768">
        <ele>212.6</ele>
        <time>2021-03-27T14:55:50Z</time>
      </trkpt>
      <trkpt lat="44.18181" lon="1.74769">
        <ele>212.8</ele>
        <time>2021-03-27T14:55:51Z</time>
      </trkpt>
      <trkpt lat="44.18178" lon="1.74776">
        <ele>213.7</ele>
        <time>2021-03-27T14:55:56Z</time>
      </trkpt>
      <trkpt lat="44.18177" lon="1.74782">
        <ele>214.6</ele>
        <time>2021-03-27T14:56:01Z</time>
      </trkpt>
      <trkpt lat="44.18174" lon="1.74788">
        <ele>215.5</ele>
        <time>2021-03-27T14:56:22Z</time>
      </trkpt>
      <trkpt lat="44.18171" lon="1.74795">
        <ele>216.5</ele>
        <time>2021-03-27T14:56:27Z</time>
      </trkpt>
      <trkpt lat="44.1817" lon="1.74796">
        <ele>216.8</ele>
        <time>2021-03-27T14:56:28Z</time>
      </trkpt>
      <trkpt lat="44.1817" lon="1.74797">
        <ele>216.9</ele>
        <time>2021-03-27T14:56:29Z</time>
      </trkpt>
      <trkpt lat="44.18167" lon="1.74804">
        <ele>218.2</ele>
        <time>2021-03-27T14:56:34Z</time>
      </trkpt>
      <trkpt lat="44.18166" lon="1.74807">
        <ele>218.6</ele>
        <time>2021-03-27T14:56:36Z</time>
      </trkpt>
      <trkpt lat="44.18166" lon="1.74808">
        <ele>218.8</ele>
        <time>2021-03-27T14:56:37Z</time>
      </trkpt>
      <trkpt lat="44.18165" lon="1.7481">
        <ele>219</ele>
        <time>2021-03-27T14:56:38Z</time>
      </trkpt>
      <trkpt lat="44.18162" lon="1.74815">
        <ele>219.8</ele>
        <time>2021-03-27T14:56:42Z</time>
      </trkpt>
      <trkpt lat="44.18158" lon="1.74821">
        <ele>220.6</ele>
        <time>2021-03-27T14:56:48Z</time>
      </trkpt>
      <trkpt lat="44.18155" lon="1.74827">
        <ele>221.3</ele>
        <time>2021-03-27T14:56:52Z</time>
      </trkpt>
      <trkpt lat="44.18152" lon="1.74833">
        <ele>222</ele>
        <time>2021-03-27T14:56:56Z</time>
      </trkpt>
      <trkpt lat="44.18149" lon="1.7484">
        <ele>222.7</ele>
        <time>2021-03-27T14:57:00Z</time>
      </trkpt>
      <trkpt lat="44.18147" lon="1.74842">
        <ele>223</ele>
        <time>2021-03-27T14:57:02Z</time>
      </trkpt>
      <trkpt lat="44.18145" lon="1.74845">
        <ele>223.3</ele>
        <time>2021-03-27T14:57:04Z</time>
      </trkpt>
      <trkpt lat="44.18142" lon="1.74851">
        <ele>223.8</ele>
        <time>2021-03-27T14:57:08Z</time>
      </trkpt>
      <trkpt lat="44.18138" lon="1.74857">
        <ele>224.3</ele>
        <time>2021-03-27T14:57:12Z</time>
      </trkpt>
      <trkpt lat="44.18135" lon="1.74863">
        <ele>224.8</ele>
        <time>2021-03-27T14:57:15Z</time>
      </trkpt>
      <trkpt lat="44.18133" lon="1.74869">
        <ele>225.2</ele>
        <time>2021-03-27T14:57:18Z</time>
      </trkpt>
      <trkpt lat="44.18132" lon="1.74875">
        <ele>225.6</ele>
        <time>2021-03-27T14:57:21Z</time>
      </trkpt>
      <trkpt lat="44.18131" lon="1.74879">
        <ele>225.8</ele>
        <time>2021-03-27T14:57:24Z</time>
      </trkpt>
      <trkpt lat="44.18131" lon="1.74883">
        <ele>226</ele>
        <time>2021-03-27T14:57:27Z</time>
      </trkpt>
      <trkpt lat="44.18132" lon="1.7489">
        <ele>226.5</ele>
        <time>2021-03-27T14:57:30Z</time>
      </trkpt>
      <trkpt lat="44.18134" lon="1.74899">
        <ele>227</ele>
        <time>2021-03-27T14:57:33Z</time>
      </trkpt>
      <trkpt lat="44.18137" lon="1.74907">
        <ele>227.4</ele>
        <time>2021-03-27T14:57:36Z</time>
      </trkpt>
      <trkpt lat="44.1814" lon="1.74914">
        <ele>227.8</ele>
        <time>2021-03-27T14:57:39Z</time>
      </trkpt>
      <trkpt lat="44.18143" lon="1.74922">
        <ele>228.1</ele>
        <time>2021-03-27T14:57:42Z</time>
      </trkpt>
      <trkpt lat="44.18145" lon="1.74929">
        <ele>228.5</ele>
        <time>2021-03-27T14:57:45Z</time>
      </trkpt>
      <trkpt lat="44.18147" lon="1.74936">
        <ele>228.8</ele>
        <time>2021-03-27T14:57:48Z</time>
      </trkpt>
      <trkpt lat="44.18148" lon="1.74943">
        <ele>229.2</ele>
        <time>2021-03-27T14:57:51Z</time>
      </trkpt>
      <trkpt lat="44.18149" lon="1.74951">
        <ele>229.7</ele>
        <time>2021-03-27T14:57:54Z</time>
      </trkpt>
      <trkpt lat="44.18149" lon="1.74958">
        <ele>230.2</ele>
        <time>2021-03-27T14:57:57Z</time>
      </trkpt>
      <trkpt lat="44.18151" lon="1.74965">
        <ele>230.7</ele>
        <time>2021-03-27T14:58:00Z</time>
      </trkpt>
      <trkpt lat="44.1815" lon="1.74971">
        <ele>231.3</ele>
        <time>2021-03-27T14:58:03Z</time>
      </trkpt>
      <trkpt lat="44.18151" lon="1.74979">
        <ele>232</ele>
        <time>2021-03-27T14:58:07Z</time>
      </trkpt>
      <trkpt lat="44.18152" lon="1.74985">
        <ele>232.6</ele>
        <time>2021-03-27T14:58:10Z</time>
      </trkpt>
      <trkpt lat="44.18153" lon="1.74994">
        <ele>233.3</ele>
        <time>2021-03-27T14:58:14Z</time>
      </trkpt>
      <trkpt lat="44.18154" lon="1.75001">
        <ele>234</ele>
        <time>2021-03-27T14:58:17Z</time>
      </trkpt>
      <trkpt lat="44.18157" lon="1.75008">
        <ele>234.7</ele>
        <time>2021-03-27T14:58:21Z</time>
      </trkpt>
      <trkpt lat="44.1816" lon="1.75014">
        <ele>235.4</ele>
        <time>2021-03-27T14:58:25Z</time>
      </trkpt>
      <trkpt lat="44.18163" lon="1.7502">
        <ele>236.2</ele>
        <time>2021-03-27T14:58:29Z</time>
      </trkpt>
      <trkpt lat="44.18166" lon="1.75026">
        <ele>237</ele>
        <time>2021-03-27T14:58:33Z</time>
      </trkpt>
      <trkpt lat="44.18167" lon="1.75028">
        <ele>237.2</ele>
        <time>2021-03-27T14:58:34Z</time>
      </trkpt>
      <trkpt lat="44.18168" lon="1.75029">
        <ele>237.4</ele>
        <time>2021-03-27T14:58:35Z</time>
      </trkpt>
      <trkpt lat="44.18169" lon="1.7503">
        <ele>237.6</ele>
        <time>2021-03-27T14:58:36Z</time>
      </trkpt>
      <trkpt lat="44.18175" lon="1.75032">
        <ele>238.5</ele>
        <time>2021-03-27T14:58:41Z</time>
      </trkpt>
      <trkpt lat="44.18178" lon="1.75033">
        <ele>239.1</ele>
        <time>2021-03-27T14:58:44Z</time>
      </trkpt>
      <trkpt lat="44.18179" lon="1.75033">
        <ele>239.3</ele>
        <time>2021-03-27T14:58:45Z</time>
      </trkpt>
      <trkpt lat="44.18185" lon="1.75034">
        <ele>240.2</ele>
        <time>2021-03-27T14:58:50Z</time>
      </trkpt>
      <trkpt lat="44.1819" lon="1.75036">
        <ele>241.1</ele>
        <time>2021-03-27T14:58:55Z</time>
      </trkpt>
      <trkpt lat="44.18194" lon="1.75038">
        <ele>241.9</ele>
        <time>2021-03-27T14:58:59Z</time>
      </trkpt>
      <trkpt lat="44.182" lon="1.75039">
        <ele>242.8</ele>
        <time>2021-03-27T14:59:04Z</time>
      </trkpt>
      <trkpt lat="44.18205" lon="1.75041">
        <ele>243.7</ele>
        <time>2021-03-27T14:59:09Z</time>
      </trkpt>
      <trkpt lat="44.18207" lon="1.75042">
        <ele>244.1</ele>
        <time>2021-03-27T14:59:11Z</time>
      </trkpt>
      <trkpt lat="44.18208" lon="1.75043">
        <ele>244.3</ele>
        <time>2021-03-27T14:59:12Z</time>
      </trkpt>
      <trkpt lat="44.18212" lon="1.75046">
        <ele>245.2</ele>
        <time>2021-03-27T14:59:18Z</time>
      </trkpt>
      <trkpt lat="44.18215" lon="1.75047">
        <ele>245.6</ele>
        <time>2021-03-27T14:59:20Z</time>
      </trkpt>
      <trkpt lat="44.18217" lon="1.75049">
        <ele>246</ele>
        <time>2021-03-27T14:59:22Z</time>
      </trkpt>
      <trkpt lat="44.18221" lon="1.75054">
        <ele>247</ele>
        <time>2021-03-27T14:59:27Z</time>
      </trkpt>
      <trkpt lat="44.18225" lon="1.75058">
        <ele>247.9</ele>
        <time>2021-03-27T14:59:41Z</time>
      </trkpt>
      <trkpt lat="44.18226" lon="1.75058">
        <ele>248.1</ele>
        <time>2021-03-27T14:59:42Z</time>
      </trkpt>
      <trkpt lat="44.18227" lon="1.75058">
        <ele>248.3</ele>
        <time>2021-03-27T14:59:43Z</time>
      </trkpt>
      <trkpt lat="44.18232" lon="1.75059">
        <ele>249</ele>
        <time>2021-03-27T14:59:48Z</time>
      </trkpt>
      <trkpt lat="44.18237" lon="1.75061">
        <ele>249.9</ele>
        <time>2021-03-27T14:59:53Z</time>
      </trkpt>
      <trkpt lat="44.18242" lon="1.75061">
        <ele>250.7</ele>
        <time>2021-03-27T15:00:00Z</time>
      </trkpt>
      <trkpt lat="44.18244" lon="1.7506">
        <ele>251.1</ele>
        <time>2021-03-27T15:00:02Z</time>
      </trkpt>
      <trkpt lat="44.18248" lon="1.75055">
        <ele>252</ele>
        <time>2021-03-27T15:00:07Z</time>
      </trkpt>
      <trkpt lat="44.18251" lon="1.75049">
        <ele>252.9</ele>
        <time>2021-03-27T15:00:13Z</time>
      </trkpt>
      <trkpt lat="44.18253" lon="1.75046">
        <ele>253.4</ele>
        <time>2021-03-27T15:00:16Z</time>
      </trkpt>
      <trkpt lat="44.18255" lon="1.75043">
        <ele>253.8</ele>
        <time>2021-03-27T15:00:18Z</time>
      </trkpt>
      <trkpt lat="44.18258" lon="1.75038">
        <ele>254.5</ele>
        <time>2021-03-27T15:00:23Z</time>
      </trkpt>
      <trkpt lat="44.18262" lon="1.75034">
        <ele>255.2</ele>
        <time>2021-03-27T15:00:28Z</time>
      </trkpt>
      <trkpt lat="44.18265" lon="1.75029">
        <ele>255.9</ele>
        <time>2021-03-27T15:00:33Z</time>
      </trkpt>
      <trkpt lat="44.18269" lon="1.75024">
        <ele>256.8</ele>
        <time>2021-03-27T15:00:39Z</time>
      </trkpt>
      <trkpt lat="44.18272" lon="1.75019">
        <ele>257.6</ele>
        <time>2021-03-27T15:00:44Z</time>
      </trkpt>
      <trkpt lat="44.18276" lon="1.75015">
        <ele>258.4</ele>
        <time>2021-03-27T15:00:49Z</time>
      </trkpt>
      <trkpt lat="44.1828" lon="1.75011">
        <ele>259.2</ele>
        <time>2021-03-27T15:00:54Z</time>
      </trkpt>
      <trkpt lat="44.18283" lon="1.75005">
        <ele>260.1</ele>
        <time>2021-03-27T15:00:59Z</time>
      </trkpt>
      <trkpt lat="44.18287" lon="1.75">
        <ele>261</ele>
        <time>2021-03-27T15:01:04Z</time>
      </trkpt>
      <trkpt lat="44.18291" lon="1.74995">
        <ele>261.8</ele>
        <time>2021-03-27T15:01:09Z</time>
      </trkpt>
      <trkpt lat="44.18295" lon="1.74991">
        <ele>262.6</ele>
        <time>2021-03-27T15:01:14Z</time>
      </trkpt>
      <trkpt lat="44.18299" lon="1.74987">
        <ele>263.3</ele>
        <time>2021-03-27T15:01:19Z</time>
      </trkpt>
      <trkpt lat="44.18303" lon="1.74985">
        <ele>264.2</ele>
        <time>2021-03-27T15:01:25Z</time>
      </trkpt>
      <trkpt lat="44.18308" lon="1.74982">
        <ele>265.1</ele>
        <time>2021-03-27T15:01:31Z</time>
      </trkpt>
      <trkpt lat="44.18312" lon="1.7498">
        <ele>265.9</ele>
        <time>2021-03-27T15:01:37Z</time>
      </trkpt>
      <trkpt lat="44.18315" lon="1.74986">
        <ele>266.8</ele>
        <time>2021-03-27T15:01:47Z</time>
      </trkpt>
      <trkpt lat="44.18315" lon="1.74987">
        <ele>267</ele>
        <time>2021-03-27T15:01:48Z</time>
      </trkpt>
      <trkpt lat="44.18316" lon="1.74989">
        <ele>267.2</ele>
        <time>2021-03-27T15:01:49Z</time>
      </trkpt>
      <trkpt lat="44.1832" lon="1.74995">
        <ele>268.2</ele>
        <time>2021-03-27T15:01:53Z</time>
      </trkpt>
      <trkpt lat="44.1832" lon="1.74996">
        <ele>268.4</ele>
        <time>2021-03-27T15:01:54Z</time>
      </trkpt>
      <trkpt lat="44.18323" lon="1.75001">
        <ele>269.1</ele>
        <time>2021-03-27T15:01:59Z</time>
      </trkpt>
      <trkpt lat="44.18327" lon="1.75005">
        <ele>270</ele>
        <time>2021-03-27T15:02:04Z</time>
      </trkpt>
      <trkpt lat="44.1833" lon="1.75011">
        <ele>270.9</ele>
        <time>2021-03-27T15:02:09Z</time>
      </trkpt>
      <trkpt lat="44.18333" lon="1.75016">
        <ele>271.7</ele>
        <time>2021-03-27T15:02:14Z</time>
      </trkpt>
      <trkpt lat="44.18337" lon="1.75021">
        <ele>272.5</ele>
        <time>2021-03-27T15:02:20Z</time>
      </trkpt>
      <trkpt lat="44.18339" lon="1.75027">
        <ele>273.2</ele>
        <time>2021-03-27T15:02:25Z</time>
      </trkpt>
      <trkpt lat="44.18342" lon="1.75031">
        <ele>274</ele>
        <time>2021-03-27T15:02:30Z</time>
      </trkpt>
      <trkpt lat="44.18346" lon="1.75036">
        <ele>274.8</ele>
        <time>2021-03-27T15:02:35Z</time>
      </trkpt>
      <trkpt lat="44.18349" lon="1.7504">
        <ele>275.6</ele>
        <time>2021-03-27T15:02:42Z</time>
      </trkpt>
      <trkpt lat="44.18352" lon="1.75047">
        <ele>276.6</ele>
        <time>2021-03-27T15:02:49Z</time>
      </trkpt>
      <trkpt lat="44.18355" lon="1.75052">
        <ele>277.5</ele>
        <time>2021-03-27T15:02:56Z</time>
      </trkpt>
      <trkpt lat="44.18359" lon="1.75057">
        <ele>278.4</ele>
        <time>2021-03-27T15:03:03Z</time>
      </trkpt>
      <trkpt lat="44.18363" lon="1.7506">
        <ele>279.1</ele>
        <time>2021-03-27T15:03:09Z</time>
      </trkpt>
      <trkpt lat="44.18366" lon="1.75065">
        <ele>279.9</ele>
        <time>2021-03-27T15:03:16Z</time>
      </trkpt>
      <trkpt lat="44.1837" lon="1.75071">
        <ele>280.7</ele>
        <time>2021-03-27T15:03:23Z</time>
      </trkpt>
      <trkpt lat="44.18373" lon="1.75076">
        <ele>281.4</ele>
        <time>2021-03-27T15:03:30Z</time>
      </trkpt>
      <trkpt lat="44.18376" lon="1.7508">
        <ele>282.2</ele>
        <time>2021-03-27T15:03:37Z</time>
      </trkpt>
      <trkpt lat="44.1838" lon="1.75085">
        <ele>283</ele>
        <time>2021-03-27T15:03:44Z</time>
      </trkpt>
      <trkpt lat="44.18384" lon="1.75088">
        <ele>283.7</ele>
        <time>2021-03-27T15:03:51Z</time>
      </trkpt>
      <trkpt lat="44.18388" lon="1.75092">
        <ele>284.4</ele>
        <time>2021-03-27T15:03:58Z</time>
      </trkpt>
      <trkpt lat="44.18391" lon="1.75096">
        <ele>285.2</ele>
        <time>2021-03-27T15:04:05Z</time>
      </trkpt>
      <trkpt lat="44.18396" lon="1.75098">
        <ele>285.9</ele>
        <time>2021-03-27T15:04:12Z</time>
      </trkpt>
      <trkpt lat="44.18401" lon="1.75101">
        <ele>286.7</ele>
        <time>2021-03-27T15:04:20Z</time>
      </trkpt>
      <trkpt lat="44.18405" lon="1.75104">
        <ele>287.4</ele>
        <time>2021-03-27T15:04:26Z</time>
      </trkpt>
      <trkpt lat="44.18409" lon="1.75109">
        <ele>288.1</ele>
        <time>2021-03-27T15:04:31Z</time>
      </trkpt>
      <trkpt lat="44.18413" lon="1.75113">
        <ele>288.6</ele>
        <time>2021-03-27T15:04:36Z</time>
      </trkpt>
      <trkpt lat="44.18417" lon="1.75116">
        <ele>289.2</ele>
        <time>2021-03-27T15:04:41Z</time>
      </trkpt>
      <trkpt lat="44.18421" lon="1.7512">
        <ele>289.8</ele>
        <time>2021-03-27T15:04:46Z</time>
      </trkpt>
      <trkpt lat="44.18426" lon="1.75122">
        <ele>290.4</ele>
        <time>2021-03-27T15:04:51Z</time>
      </trkpt>
      <trkpt lat="44.18431" lon="1.75124">
        <ele>291</ele>
        <time>2021-03-27T15:04:58Z</time>
      </trkpt>
      <trkpt lat="44.18436" lon="1.75124">
        <ele>291.7</ele>
        <time>2021-03-27T15:05:04Z</time>
      </trkpt>
      <trkpt lat="44.18441" lon="1.75125">
        <ele>292.4</ele>
        <time>2021-03-27T15:05:10Z</time>
      </trkpt>
      <trkpt lat="44.18446" lon="1.75126">
        <ele>293</ele>
        <time>2021-03-27T15:05:16Z</time>
      </trkpt>
      <trkpt lat="44.18451" lon="1.75127">
        <ele>293.7</ele>
        <time>2021-03-27T15:05:22Z</time>
      </trkpt>
      <trkpt lat="44.18456" lon="1.75128">
        <ele>294.2</ele>
        <time>2021-03-27T15:05:27Z</time>
      </trkpt>
      <trkpt lat="44.1846" lon="1.75129">
        <ele>294.7</ele>
        <time>2021-03-27T15:05:32Z</time>
      </trkpt>
      <trkpt lat="44.18465" lon="1.7513">
        <ele>295.2</ele>
        <time>2021-03-27T15:05:37Z</time>
      </trkpt>
      <trkpt lat="44.1847" lon="1.75131">
        <ele>295.5</ele>
        <time>2021-03-27T15:05:42Z</time>
      </trkpt>
      <trkpt lat="44.18474" lon="1.75133">
        <ele>295.9</ele>
        <time>2021-03-27T15:05:46Z</time>
      </trkpt>
      <trkpt lat="44.18475" lon="1.75134">
        <ele>296</ele>
        <time>2021-03-27T15:05:47Z</time>
      </trkpt>
      <trkpt lat="44.18479" lon="1.75135">
        <ele>296.3</ele>
        <time>2021-03-27T15:05:50Z</time>
      </trkpt>
      <trkpt lat="44.18483" lon="1.75132">
        <ele>296.6</ele>
        <time>2021-03-27T15:05:53Z</time>
      </trkpt>
      <trkpt lat="44.18488" lon="1.75131">
        <ele>297</ele>
        <time>2021-03-27T15:05:56Z</time>
      </trkpt>
      <trkpt lat="44.18494" lon="1.75134">
        <ele>297.3</ele>
        <time>2021-03-27T15:05:59Z</time>
      </trkpt>
      <trkpt lat="44.18499" lon="1.75136">
        <ele>297.6</ele>
        <time>2021-03-27T15:06:02Z</time>
      </trkpt>
      <trkpt lat="44.18506" lon="1.75137">
        <ele>297.9</ele>
        <time>2021-03-27T15:06:05Z</time>
      </trkpt>
      <trkpt lat="44.18512" lon="1.75137">
        <ele>298</ele>
        <time>2021-03-27T15:06:08Z</time>
      </trkpt>
      <trkpt lat="44.18517" lon="1.75137">
        <ele>298.1</ele>
        <time>2021-03-27T15:06:10Z</time>
      </trkpt>
      <trkpt lat="44.18522" lon="1.75137">
        <ele>298.1</ele>
        <time>2021-03-27T15:06:12Z</time>
      </trkpt>
      <trkpt lat="44.18527" lon="1.75138">
        <ele>298.1</ele>
        <time>2021-03-27T15:06:14Z</time>
      </trkpt>
      <trkpt lat="44.18531" lon="1.75139">
        <ele>298.1</ele>
        <time>2021-03-27T15:06:16Z</time>
      </trkpt>
      <trkpt lat="44.18536" lon="1.75139">
        <ele>298</ele>
        <time>2021-03-27T15:06:18Z</time>
      </trkpt>
      <trkpt lat="44.18541" lon="1.75141">
        <ele>298</ele>
        <time>2021-03-27T15:06:20Z</time>
      </trkpt>
      <trkpt lat="44.18546" lon="1.75143">
        <ele>297.9</ele>
        <time>2021-03-27T15:06:22Z</time>
      </trkpt>
      <trkpt lat="44.18552" lon="1.75145">
        <ele>297.9</ele>
        <time>2021-03-27T15:06:24Z</time>
      </trkpt>
      <trkpt lat="44.18557" lon="1.75147">
        <ele>297.9</ele>
        <time>2021-03-27T15:06:26Z</time>
      </trkpt>
      <trkpt lat="44.18563" lon="1.7515">
        <ele>297.9</ele>
        <time>2021-03-27T15:06:28Z</time>
      </trkpt>
      <trkpt lat="44.18568" lon="1.75153">
        <ele>297.9</ele>
        <time>2021-03-27T15:06:30Z</time>
      </trkpt>
      <trkpt lat="44.18573" lon="1.75157">
        <ele>297.9</ele>
        <time>2021-03-27T15:06:33Z</time>
      </trkpt>
      <trkpt lat="44.18575" lon="1.75159">
        <ele>297.9</ele>
        <time>2021-03-27T15:06:35Z</time>
      </trkpt>
      <trkpt lat="44.1858" lon="1.75156">
        <ele>297.9</ele>
        <time>2021-03-27T15:10:20Z</time>
      </trkpt>
      <trkpt lat="44.18581" lon="1.75157">
        <ele>297.9</ele>
        <time>2021-03-27T15:10:21Z</time>
      </trkpt>
      <trkpt lat="44.18587" lon="1.75158">
        <ele>297.8</ele>
        <time>2021-03-27T15:10:24Z</time>
      </trkpt>
      <trkpt lat="44.18592" lon="1.75158">
        <ele>297.8</ele>
        <time>2021-03-27T15:10:26Z</time>
      </trkpt>
      <trkpt lat="44.18598" lon="1.75158">
        <ele>297.7</ele>
        <time>2021-03-27T15:10:28Z</time>
      </trkpt>
      <trkpt lat="44.18603" lon="1.75159">
        <ele>297.7</ele>
        <time>2021-03-27T15:10:30Z</time>
      </trkpt>
      <trkpt lat="44.18609" lon="1.75159">
        <ele>297.6</ele>
        <time>2021-03-27T15:10:32Z</time>
      </trkpt>
      <trkpt lat="44.18616" lon="1.75158">
        <ele>297.5</ele>
        <time>2021-03-27T15:10:34Z</time>
      </trkpt>
      <trkpt lat="44.18623" lon="1.75158">
        <ele>297.5</ele>
        <time>2021-03-27T15:10:36Z</time>
      </trkpt>
      <trkpt lat="44.1863" lon="1.75156">
        <ele>297.4</ele>
        <time>2021-03-27T15:10:38Z</time>
      </trkpt>
      <trkpt lat="44.18639" lon="1.75154">
        <ele>297.3</ele>
        <time>2021-03-27T15:10:40Z</time>
      </trkpt>
      <trkpt lat="44.18647" lon="1.75152">
        <ele>297.2</ele>
        <time>2021-03-27T15:10:42Z</time>
      </trkpt>
      <trkpt lat="44.18655" lon="1.75151">
        <ele>297.1</ele>
        <time>2021-03-27T15:10:44Z</time>
      </trkpt>
      <trkpt lat="44.18663" lon="1.75149">
        <ele>296.9</ele>
        <time>2021-03-27T15:10:46Z</time>
      </trkpt>
      <trkpt lat="44.18671" lon="1.75148">
        <ele>296.7</ele>
        <time>2021-03-27T15:10:48Z</time>
      </trkpt>
      <trkpt lat="44.18679" lon="1.75146">
        <ele>296.6</ele>
        <time>2021-03-27T15:10:50Z</time>
      </trkpt>
      <trkpt lat="44.18688" lon="1.75144">
        <ele>296.4</ele>
        <time>2021-03-27T15:10:52Z</time>
      </trkpt>
      <trkpt lat="44.18696" lon="1.75143">
        <ele>296.3</ele>
        <time>2021-03-27T15:10:54Z</time>
      </trkpt>
      <trkpt lat="44.18705" lon="1.75141">
        <ele>296.1</ele>
        <time>2021-03-27T15:10:56Z</time>
      </trkpt>
      <trkpt lat="44.1871" lon="1.7514">
        <ele>296</ele>
        <time>2021-03-27T15:10:57Z</time>
      </trkpt>
      <trkpt lat="44.18719" lon="1.75139">
        <ele>295.9</ele>
        <time>2021-03-27T15:10:59Z</time>
      </trkpt>
      <trkpt lat="44.18723" lon="1.75139">
        <ele>295.9</ele>
        <time>2021-03-27T15:11:00Z</time>
      </trkpt>
      <trkpt lat="44.18728" lon="1.75139">
        <ele>295.9</ele>
        <time>2021-03-27T15:11:01Z</time>
      </trkpt>
      <trkpt lat="44.18732" lon="1.75139">
        <ele>295.9</ele>
        <time>2021-03-27T15:11:02Z</time>
      </trkpt>
      <trkpt lat="44.18741" lon="1.7514">
        <ele>295.9</ele>
        <time>2021-03-27T15:11:04Z</time>
      </trkpt>
      <trkpt lat="44.18749" lon="1.75141">
        <ele>295.9</ele>
        <time>2021-03-27T15:11:06Z</time>
      </trkpt>
      <trkpt lat="44.18756" lon="1.75141">
        <ele>295.9</ele>
        <time>2021-03-27T15:11:08Z</time>
      </trkpt>
      <trkpt lat="44.18763" lon="1.75142">
        <ele>295.9</ele>
        <time>2021-03-27T15:11:10Z</time>
      </trkpt>
      <trkpt lat="44.1877" lon="1.75143">
        <ele>295.9</ele>
        <time>2021-03-27T15:11:12Z</time>
      </trkpt>
      <trkpt lat="44.18778" lon="1.75145">
        <ele>295.9</ele>
        <time>2021-03-27T15:11:14Z</time>
      </trkpt>
      <trkpt lat="44.18786" lon="1.75146">
        <ele>295.9</ele>
        <time>2021-03-27T15:11:16Z</time>
      </trkpt>
      <trkpt lat="44.18795" lon="1.75146">
        <ele>295.9</ele>
        <time>2021-03-27T15:11:18Z</time>
      </trkpt>
      <trkpt lat="44.18803" lon="1.75147">
        <ele>295.9</ele>
        <time>2021-03-27T15:11:20Z</time>
      </trkpt>
      <trkpt lat="44.18812" lon="1.75147">
        <ele>295.9</ele>
        <time>2021-03-27T15:11:22Z</time>
      </trkpt>
      <trkpt lat="44.18819" lon="1.75146">
        <ele>295.9</ele>
        <time>2021-03-27T15:11:24Z</time>
      </trkpt>
      <trkpt lat="44.18827" lon="1.75146">
        <ele>295.9</ele>
        <time>2021-03-27T15:11:26Z</time>
      </trkpt>
      <trkpt lat="44.18834" lon="1.75145">
        <ele>295.8</ele>
        <time>2021-03-27T15:11:28Z</time>
      </trkpt>
      <trkpt lat="44.18841" lon="1.75145">
        <ele>295.8</ele>
        <time>2021-03-27T15:11:30Z</time>
      </trkpt>
      <trkpt lat="44.18848" lon="1.75145">
        <ele>295.7</ele>
        <time>2021-03-27T15:11:32Z</time>
      </trkpt>
      <trkpt lat="44.18855" lon="1.75144">
        <ele>295.6</ele>
        <time>2021-03-27T15:11:34Z</time>
      </trkpt>
      <trkpt lat="44.18862" lon="1.75144">
        <ele>295.5</ele>
        <time>2021-03-27T15:11:36Z</time>
      </trkpt>
      <trkpt lat="44.18869" lon="1.75144">
        <ele>295.4</ele>
        <time>2021-03-27T15:11:38Z</time>
      </trkpt>
      <trkpt lat="44.18878" lon="1.75143">
        <ele>295.2</ele>
        <time>2021-03-27T15:11:40Z</time>
      </trkpt>
      <trkpt lat="44.18886" lon="1.75143">
        <ele>295.1</ele>
        <time>2021-03-27T15:11:42Z</time>
      </trkpt>
      <trkpt lat="44.18895" lon="1.75143">
        <ele>294.9</ele>
        <time>2021-03-27T15:11:44Z</time>
      </trkpt>
      <trkpt lat="44.18903" lon="1.75142">
        <ele>294.8</ele>
        <time>2021-03-27T15:11:46Z</time>
      </trkpt>
      <trkpt lat="44.18911" lon="1.75141">
        <ele>294.8</ele>
        <time>2021-03-27T15:11:48Z</time>
      </trkpt>
      <trkpt lat="44.18919" lon="1.75142">
        <ele>294.8</ele>
        <time>2021-03-27T15:11:50Z</time>
      </trkpt>
      <trkpt lat="44.18927" lon="1.75143">
        <ele>294.8</ele>
        <time>2021-03-27T15:11:52Z</time>
      </trkpt>
      <trkpt lat="44.18934" lon="1.75143">
        <ele>294.8</ele>
        <time>2021-03-27T15:11:54Z</time>
      </trkpt>
      <trkpt lat="44.18942" lon="1.75144">
        <ele>294.8</ele>
        <time>2021-03-27T15:11:56Z</time>
      </trkpt>
      <trkpt lat="44.1895" lon="1.75146">
        <ele>294.9</ele>
        <time>2021-03-27T15:11:58Z</time>
      </trkpt>
      <trkpt lat="44.18958" lon="1.75147">
        <ele>295</ele>
        <time>2021-03-27T15:12:00Z</time>
      </trkpt>
      <trkpt lat="44.18967" lon="1.7515">
        <ele>295.1</ele>
        <time>2021-03-27T15:12:02Z</time>
      </trkpt>
      <trkpt lat="44.18974" lon="1.75153">
        <ele>295.3</ele>
        <time>2021-03-27T15:12:04Z</time>
      </trkpt>
      <trkpt lat="44.18981" lon="1.75155">
        <ele>295.6</ele>
        <time>2021-03-27T15:12:06Z</time>
      </trkpt>
      <trkpt lat="44.18988" lon="1.75158">
        <ele>295.9</ele>
        <time>2021-03-27T15:12:08Z</time>
      </trkpt>
      <trkpt lat="44.18994" lon="1.7516">
        <ele>296.2</ele>
        <time>2021-03-27T15:12:10Z</time>
      </trkpt>
      <trkpt lat="44.19" lon="1.75162">
        <ele>296.5</ele>
        <time>2021-03-27T15:12:12Z</time>
      </trkpt>
      <trkpt lat="44.19006" lon="1.75164">
        <ele>296.8</ele>
        <time>2021-03-27T15:12:14Z</time>
      </trkpt>
      <trkpt lat="44.19011" lon="1.75167">
        <ele>297.2</ele>
        <time>2021-03-27T15:12:16Z</time>
      </trkpt>
      <trkpt lat="44.19017" lon="1.7517">
        <ele>297.5</ele>
        <time>2021-03-27T15:12:18Z</time>
      </trkpt>
      <trkpt lat="44.19022" lon="1.75172">
        <ele>297.8</ele>
        <time>2021-03-27T15:12:20Z</time>
      </trkpt>
      <trkpt lat="44.19028" lon="1.75175">
        <ele>298.2</ele>
        <time>2021-03-27T15:12:22Z</time>
      </trkpt>
      <trkpt lat="44.19034" lon="1.75178">
        <ele>298.5</ele>
        <time>2021-03-27T15:12:24Z</time>
      </trkpt>
      <trkpt lat="44.1904" lon="1.7518">
        <ele>298.8</ele>
        <time>2021-03-27T15:12:26Z</time>
      </trkpt>
      <trkpt lat="44.19045" lon="1.75183">
        <ele>299.1</ele>
        <time>2021-03-27T15:12:28Z</time>
      </trkpt>
      <trkpt lat="44.1905" lon="1.75186">
        <ele>299.4</ele>
        <time>2021-03-27T15:12:30Z</time>
      </trkpt>
      <trkpt lat="44.19056" lon="1.75188">
        <ele>299.8</ele>
        <time>2021-03-27T15:12:32Z</time>
      </trkpt>
      <trkpt lat="44.19061" lon="1.75191">
        <ele>300.1</ele>
        <time>2021-03-27T15:12:34Z</time>
      </trkpt>
      <trkpt lat="44.19066" lon="1.75194">
        <ele>300.4</ele>
        <time>2021-03-27T15:12:36Z</time>
      </trkpt>
      <trkpt lat="44.19072" lon="1.75196">
        <ele>300.8</ele>
        <time>2021-03-27T15:12:38Z</time>
      </trkpt>
      <trkpt lat="44.19077" lon="1.75198">
        <ele>301.1</ele>
        <time>2021-03-27T15:12:40Z</time>
      </trkpt>
      <trkpt lat="44.19082" lon="1.752">
        <ele>301.5</ele>
        <time>2021-03-27T15:12:42Z</time>
      </trkpt>
      <trkpt lat="44.19087" lon="1.75201">
        <ele>301.9</ele>
        <time>2021-03-27T15:12:44Z</time>
      </trkpt>
      <trkpt lat="44.19093" lon="1.75203">
        <ele>302.3</ele>
        <time>2021-03-27T15:12:46Z</time>
      </trkpt>
      <trkpt lat="44.19098" lon="1.75204">
        <ele>302.7</ele>
        <time>2021-03-27T15:12:48Z</time>
      </trkpt>
      <trkpt lat="44.19104" lon="1.75205">
        <ele>303.1</ele>
        <time>2021-03-27T15:12:50Z</time>
      </trkpt>
      <trkpt lat="44.19109" lon="1.75206">
        <ele>303.5</ele>
        <time>2021-03-27T15:12:52Z</time>
      </trkpt>
      <trkpt lat="44.19114" lon="1.75208">
        <ele>303.9</ele>
        <time>2021-03-27T15:12:54Z</time>
      </trkpt>
      <trkpt lat="44.19119" lon="1.7521">
        <ele>304.2</ele>
        <time>2021-03-27T15:12:56Z</time>
      </trkpt>
      <trkpt lat="44.19124" lon="1.75212">
        <ele>304.6</ele>
        <time>2021-03-27T15:12:58Z</time>
      </trkpt>
      <trkpt lat="44.19129" lon="1.75215">
        <ele>304.9</ele>
        <time>2021-03-27T15:13:00Z</time>
      </trkpt>
      <trkpt lat="44.19134" lon="1.75217">
        <ele>305.3</ele>
        <time>2021-03-27T15:13:02Z</time>
      </trkpt>
      <trkpt lat="44.19138" lon="1.7522">
        <ele>305.6</ele>
        <time>2021-03-27T15:13:04Z</time>
      </trkpt>
      <trkpt lat="44.19142" lon="1.75222">
        <ele>305.9</ele>
        <time>2021-03-27T15:13:06Z</time>
      </trkpt>
      <trkpt lat="44.19147" lon="1.75224">
        <ele>306.2</ele>
        <time>2021-03-27T15:13:08Z</time>
      </trkpt>
      <trkpt lat="44.19151" lon="1.75227">
        <ele>306.6</ele>
        <time>2021-03-27T15:13:10Z</time>
      </trkpt>
      <trkpt lat="44.19156" lon="1.7523">
        <ele>306.9</ele>
        <time>2021-03-27T15:13:12Z</time>
      </trkpt>
      <trkpt lat="44.1916" lon="1.75232">
        <ele>307.2</ele>
        <time>2021-03-27T15:13:14Z</time>
      </trkpt>
      <trkpt lat="44.19165" lon="1.75235">
        <ele>307.5</ele>
        <time>2021-03-27T15:13:16Z</time>
      </trkpt>
      <trkpt lat="44.19169" lon="1.75238">
        <ele>307.8</ele>
        <time>2021-03-27T15:13:18Z</time>
      </trkpt>
      <trkpt lat="44.19174" lon="1.75241">
        <ele>308.1</ele>
        <time>2021-03-27T15:13:20Z</time>
      </trkpt>
      <trkpt lat="44.19179" lon="1.75244">
        <ele>308.3</ele>
        <time>2021-03-27T15:13:22Z</time>
      </trkpt>
      <trkpt lat="44.19183" lon="1.75246">
        <ele>308.6</ele>
        <time>2021-03-27T15:13:24Z</time>
      </trkpt>
      <trkpt lat="44.19188" lon="1.75249">
        <ele>308.8</ele>
        <time>2021-03-27T15:13:26Z</time>
      </trkpt>
      <trkpt lat="44.19193" lon="1.75251">
        <ele>309</ele>
        <time>2021-03-27T15:13:28Z</time>
      </trkpt>
      <trkpt lat="44.19198" lon="1.75253">
        <ele>309.2</ele>
        <time>2021-03-27T15:13:30Z</time>
      </trkpt>
      <trkpt lat="44.19203" lon="1.75255">
        <ele>309.4</ele>
        <time>2021-03-27T15:13:32Z</time>
      </trkpt>
      <trkpt lat="44.19208" lon="1.75257">
        <ele>309.5</ele>
        <time>2021-03-27T15:13:34Z</time>
      </trkpt>
      <trkpt lat="44.19213" lon="1.7526">
        <ele>309.7</ele>
        <time>2021-03-27T15:13:36Z</time>
      </trkpt>
      <trkpt lat="44.19218" lon="1.75262">
        <ele>309.8</ele>
        <time>2021-03-27T15:13:38Z</time>
      </trkpt>
      <trkpt lat="44.19224" lon="1.75265">
        <ele>309.9</ele>
        <time>2021-03-27T15:13:40Z</time>
      </trkpt>
      <trkpt lat="44.19229" lon="1.75267">
        <ele>310</ele>
        <time>2021-03-27T15:13:42Z</time>
      </trkpt>
      <trkpt lat="44.19235" lon="1.7527">
        <ele>310.1</ele>
        <time>2021-03-27T15:13:44Z</time>
      </trkpt>
      <trkpt lat="44.1924" lon="1.75272">
        <ele>310.1</ele>
        <time>2021-03-27T15:13:46Z</time>
      </trkpt>
      <trkpt lat="44.19246" lon="1.75275">
        <ele>310.2</ele>
        <time>2021-03-27T15:13:48Z</time>
      </trkpt>
      <trkpt lat="44.19252" lon="1.75277">
        <ele>310.2</ele>
        <time>2021-03-27T15:13:50Z</time>
      </trkpt>
      <trkpt lat="44.19259" lon="1.75279">
        <ele>310.2</ele>
        <time>2021-03-27T15:13:52Z</time>
      </trkpt>
      <trkpt lat="44.19265" lon="1.75281">
        <ele>310.2</ele>
        <time>2021-03-27T15:13:54Z</time>
      </trkpt>
      <trkpt lat="44.19271" lon="1.75283">
        <ele>310.2</ele>
        <time>2021-03-27T15:13:56Z</time>
      </trkpt>
      <trkpt lat="44.19277" lon="1.75285">
        <ele>310.2</ele>
        <time>2021-03-27T15:13:58Z</time>
      </trkpt>
      <trkpt lat="44.19283" lon="1.75286">
        <ele>310.1</ele>
        <time>2021-03-27T15:14:00Z</time>
      </trkpt>
      <trkpt lat="44.1929" lon="1.75288">
        <ele>310.1</ele>
        <time>2021-03-27T15:14:02Z</time>
      </trkpt>
      <trkpt lat="44.19296" lon="1.75289">
        <ele>309.9</ele>
        <time>2021-03-27T15:14:04Z</time>
      </trkpt>
      <trkpt lat="44.19303" lon="1.75291">
        <ele>309.8</ele>
        <time>2021-03-27T15:14:06Z</time>
      </trkpt>
      <trkpt lat="44.19311" lon="1.75292">
        <ele>309.6</ele>
        <time>2021-03-27T15:14:08Z</time>
      </trkpt>
      <trkpt lat="44.19319" lon="1.75293">
        <ele>309.4</ele>
        <time>2021-03-27T15:14:10Z</time>
      </trkpt>
      <trkpt lat="44.19327" lon="1.75294">
        <ele>309.2</ele>
        <time>2021-03-27T15:14:12Z</time>
      </trkpt>
      <trkpt lat="44.19335" lon="1.75294">
        <ele>309</ele>
        <time>2021-03-27T15:14:14Z</time>
      </trkpt>
      <trkpt lat="44.19344" lon="1.75293">
        <ele>308.8</ele>
        <time>2021-03-27T15:14:16Z</time>
      </trkpt>
      <trkpt lat="44.19352" lon="1.75291">
        <ele>308.6</ele>
        <time>2021-03-27T15:14:18Z</time>
      </trkpt>
      <trkpt lat="44.19361" lon="1.75289">
        <ele>308.4</ele>
        <time>2021-03-27T15:14:20Z</time>
      </trkpt>
      <trkpt lat="44.19369" lon="1.75287">
        <ele>308.2</ele>
        <time>2021-03-27T15:14:22Z</time>
      </trkpt>
      <trkpt lat="44.19378" lon="1.75284">
        <ele>307.9</ele>
        <time>2021-03-27T15:14:24Z</time>
      </trkpt>
      <trkpt lat="44.19382" lon="1.75283">
        <ele>307.7</ele>
        <time>2021-03-27T15:14:25Z</time>
      </trkpt>
      <trkpt lat="44.19387" lon="1.75281">
        <ele>307.6</ele>
        <time>2021-03-27T15:14:26Z</time>
      </trkpt>
      <trkpt lat="44.19392" lon="1.7528">
        <ele>307.4</ele>
        <time>2021-03-27T15:14:27Z</time>
      </trkpt>
      <trkpt lat="44.19397" lon="1.75278">
        <ele>307.2</ele>
        <time>2021-03-27T15:14:28Z</time>
      </trkpt>
      <trkpt lat="44.19402" lon="1.75276">
        <ele>307.1</ele>
        <time>2021-03-27T15:14:29Z</time>
      </trkpt>
      <trkpt lat="44.19406" lon="1.75275">
        <ele>307</ele>
        <time>2021-03-27T15:14:30Z</time>
      </trkpt>
      <trkpt lat="44.19411" lon="1.75274">
        <ele>306.9</ele>
        <time>2021-03-27T15:14:31Z</time>
      </trkpt>
      <trkpt lat="44.19416" lon="1.75272">
        <ele>306.8</ele>
        <time>2021-03-27T15:14:32Z</time>
      </trkpt>
      <trkpt lat="44.19421" lon="1.75271">
        <ele>306.7</ele>
        <time>2021-03-27T15:14:33Z</time>
      </trkpt>
      <trkpt lat="44.19426" lon="1.75269">
        <ele>306.6</ele>
        <time>2021-03-27T15:14:34Z</time>
      </trkpt>
      <trkpt lat="44.19431" lon="1.75267">
        <ele>306.5</ele>
        <time>2021-03-27T15:14:35Z</time>
      </trkpt>
      <trkpt lat="44.19436" lon="1.75266">
        <ele>306.3</ele>
        <time>2021-03-27T15:14:36Z</time>
      </trkpt>
      <trkpt lat="44.19441" lon="1.75265">
        <ele>306.2</ele>
        <time>2021-03-27T15:14:37Z</time>
      </trkpt>
      <trkpt lat="44.19446" lon="1.75263">
        <ele>306</ele>
        <time>2021-03-27T15:14:38Z</time>
      </trkpt>
      <trkpt lat="44.19451" lon="1.75262">
        <ele>305.9</ele>
        <time>2021-03-27T15:14:39Z</time>
      </trkpt>
      <trkpt lat="44.19456" lon="1.7526">
        <ele>305.7</ele>
        <time>2021-03-27T15:14:40Z</time>
      </trkpt>
      <trkpt lat="44.19461" lon="1.75259">
        <ele>305.5</ele>
        <time>2021-03-27T15:14:41Z</time>
      </trkpt>
      <trkpt lat="44.19466" lon="1.75257">
        <ele>305.4</ele>
        <time>2021-03-27T15:14:42Z</time>
      </trkpt>
      <trkpt lat="44.19471" lon="1.75255">
        <ele>305.2</ele>
        <time>2021-03-27T15:14:43Z</time>
      </trkpt>
      <trkpt lat="44.19476" lon="1.75253">
        <ele>305.1</ele>
        <time>2021-03-27T15:14:44Z</time>
      </trkpt>
      <trkpt lat="44.19481" lon="1.75252">
        <ele>305</ele>
        <time>2021-03-27T15:14:45Z</time>
      </trkpt>
      <trkpt lat="44.19486" lon="1.75251">
        <ele>304.8</ele>
        <time>2021-03-27T15:14:46Z</time>
      </trkpt>
      <trkpt lat="44.19491" lon="1.7525">
        <ele>304.7</ele>
        <time>2021-03-27T15:14:47Z</time>
      </trkpt>
      <trkpt lat="44.19496" lon="1.75249">
        <ele>304.6</ele>
        <time>2021-03-27T15:14:48Z</time>
      </trkpt>
      <trkpt lat="44.19501" lon="1.75249">
        <ele>304.5</ele>
        <time>2021-03-27T15:14:49Z</time>
      </trkpt>
      <trkpt lat="44.19505" lon="1.75249">
        <ele>304.4</ele>
        <time>2021-03-27T15:14:50Z</time>
      </trkpt>
      <trkpt lat="44.1951" lon="1.7525">
        <ele>304.2</ele>
        <time>2021-03-27T15:14:51Z</time>
      </trkpt>
      <trkpt lat="44.19515" lon="1.75251">
        <ele>304.2</ele>
        <time>2021-03-27T15:14:52Z</time>
      </trkpt>
      <trkpt lat="44.1952" lon="1.75252">
        <ele>304.1</ele>
        <time>2021-03-27T15:14:53Z</time>
      </trkpt>
      <trkpt lat="44.19525" lon="1.75252">
        <ele>304</ele>
        <time>2021-03-27T15:14:54Z</time>
      </trkpt>
      <trkpt lat="44.19529" lon="1.75253">
        <ele>304</ele>
        <time>2021-03-27T15:14:55Z</time>
      </trkpt>
      <trkpt lat="44.19534" lon="1.75254">
        <ele>303.9</ele>
        <time>2021-03-27T15:14:56Z</time>
      </trkpt>
      <trkpt lat="44.19542" lon="1.75255">
        <ele>303.9</ele>
        <time>2021-03-27T15:14:58Z</time>
      </trkpt>
      <trkpt lat="44.1955" lon="1.75257">
        <ele>303.8</ele>
        <time>2021-03-27T15:15:00Z</time>
      </trkpt>
      <trkpt lat="44.19558" lon="1.75258">
        <ele>303.8</ele>
        <time>2021-03-27T15:15:02Z</time>
      </trkpt>
      <trkpt lat="44.19565" lon="1.75259">
        <ele>303.8</ele>
        <time>2021-03-27T15:15:04Z</time>
      </trkpt>
      <trkpt lat="44.19572" lon="1.7526">
        <ele>303.8</ele>
        <time>2021-03-27T15:15:06Z</time>
      </trkpt>
      <trkpt lat="44.1958" lon="1.75261">
        <ele>303.8</ele>
        <time>2021-03-27T15:15:08Z</time>
      </trkpt>
      <trkpt lat="44.19588" lon="1.75261">
        <ele>303.8</ele>
        <time>2021-03-27T15:15:10Z</time>
      </trkpt>
      <trkpt lat="44.19595" lon="1.75262">
        <ele>303.8</ele>
        <time>2021-03-27T15:15:12Z</time>
      </trkpt>
      <trkpt lat="44.19601" lon="1.75262">
        <ele>303.8</ele>
        <time>2021-03-27T15:15:14Z</time>
      </trkpt>
      <trkpt lat="44.19606" lon="1.75263">
        <ele>303.9</ele>
        <time>2021-03-27T15:15:16Z</time>
      </trkpt>
      <trkpt lat="44.19611" lon="1.75266">
        <ele>303.9</ele>
        <time>2021-03-27T15:15:18Z</time>
      </trkpt>
      <trkpt lat="44.19614" lon="1.75271">
        <ele>304</ele>
        <time>2021-03-27T15:15:20Z</time>
      </trkpt>
      <trkpt lat="44.19616" lon="1.75278">
        <ele>303.5</ele>
        <time>2021-03-27T15:15:22Z</time>
      </trkpt>
      <trkpt lat="44.19617" lon="1.75286">
        <ele>303.5</ele>
        <time>2021-03-27T15:15:24Z</time>
      </trkpt>
      <trkpt lat="44.19616" lon="1.75295">
        <ele>303.5</ele>
        <time>2021-03-27T15:15:26Z</time>
      </trkpt>
      <trkpt lat="44.19616" lon="1.75304">
        <ele>303.5</ele>
        <time>2021-03-27T15:15:28Z</time>
      </trkpt>
      <trkpt lat="44.19616" lon="1.75313">
        <ele>303.6</ele>
        <time>2021-03-27T15:15:30Z</time>
      </trkpt>
      <trkpt lat="44.19616" lon="1.75322">
        <ele>303.5</ele>
        <time>2021-03-27T15:15:32Z</time>
      </trkpt>
      <trkpt lat="44.19616" lon="1.75331">
        <ele>303.4</ele>
        <time>2021-03-27T15:15:34Z</time>
      </trkpt>
      <trkpt lat="44.19616" lon="1.75339">
        <ele>303.3</ele>
        <time>2021-03-27T15:15:36Z</time>
      </trkpt>
      <trkpt lat="44.19616" lon="1.75349">
        <ele>303.2</ele>
        <time>2021-03-27T15:15:38Z</time>
      </trkpt>
      <trkpt lat="44.19616" lon="1.75359">
        <ele>303</ele>
        <time>2021-03-27T15:15:40Z</time>
      </trkpt>
      <trkpt lat="44.19615" lon="1.7537">
        <ele>302.8</ele>
        <time>2021-03-27T15:15:42Z</time>
      </trkpt>
      <trkpt lat="44.19613" lon="1.75381">
        <ele>302.5</ele>
        <time>2021-03-27T15:15:44Z</time>
      </trkpt>
      <trkpt lat="44.19612" lon="1.75393">
        <ele>302.1</ele>
        <time>2021-03-27T15:15:46Z</time>
      </trkpt>
      <trkpt lat="44.1961" lon="1.75399">
        <ele>301.9</ele>
        <time>2021-03-27T15:15:47Z</time>
      </trkpt>
      <trkpt lat="44.19609" lon="1.75406">
        <ele>301.7</ele>
        <time>2021-03-27T15:15:48Z</time>
      </trkpt>
      <trkpt lat="44.19608" lon="1.75413">
        <ele>301.4</ele>
        <time>2021-03-27T15:15:49Z</time>
      </trkpt>
      <trkpt lat="44.19607" lon="1.75421">
        <ele>301</ele>
        <time>2021-03-27T15:15:50Z</time>
      </trkpt>
      <trkpt lat="44.19606" lon="1.75429">
        <ele>300.7</ele>
        <time>2021-03-27T15:15:51Z</time>
      </trkpt>
      <trkpt lat="44.19604" lon="1.75437">
        <ele>300.3</ele>
        <time>2021-03-27T15:15:52Z</time>
      </trkpt>
      <trkpt lat="44.19603" lon="1.75445">
        <ele>299.9</ele>
        <time>2021-03-27T15:15:53Z</time>
      </trkpt>
      <trkpt lat="44.19602" lon="1.75453">
        <ele>299.4</ele>
        <time>2021-03-27T15:15:54Z</time>
      </trkpt>
      <trkpt lat="44.19601" lon="1.75461">
        <ele>299</ele>
        <time>2021-03-27T15:15:55Z</time>
      </trkpt>
      <trkpt lat="44.196" lon="1.75469">
        <ele>298.5</ele>
        <time>2021-03-27T15:15:56Z</time>
      </trkpt>
      <trkpt lat="44.19599" lon="1.75476">
        <ele>298.1</ele>
        <time>2021-03-27T15:15:57Z</time>
      </trkpt>
      <trkpt lat="44.196" lon="1.75484">
        <ele>297.6</ele>
        <time>2021-03-27T15:15:58Z</time>
      </trkpt>
      <trkpt lat="44.19601" lon="1.75491">
        <ele>297.2</ele>
        <time>2021-03-27T15:15:59Z</time>
      </trkpt>
      <trkpt lat="44.19604" lon="1.755">
        <ele>296.7</ele>
        <time>2021-03-27T15:16:00Z</time>
      </trkpt>
      <trkpt lat="44.19606" lon="1.75508">
        <ele>296.1</ele>
        <time>2021-03-27T15:16:01Z</time>
      </trkpt>
      <trkpt lat="44.19608" lon="1.75518">
        <ele>295.5</ele>
        <time>2021-03-27T15:16:02Z</time>
      </trkpt>
      <trkpt lat="44.19609" lon="1.75528">
        <ele>294.9</ele>
        <time>2021-03-27T15:16:03Z</time>
      </trkpt>
      <trkpt lat="44.19608" lon="1.75539">
        <ele>294.3</ele>
        <time>2021-03-27T15:16:04Z</time>
      </trkpt>
      <trkpt lat="44.19607" lon="1.7555">
        <ele>293.7</ele>
        <time>2021-03-27T15:16:05Z</time>
      </trkpt>
      <trkpt lat="44.19607" lon="1.75562">
        <ele>293.2</ele>
        <time>2021-03-27T15:16:06Z</time>
      </trkpt>
      <trkpt lat="44.19609" lon="1.75573">
        <ele>292.7</ele>
        <time>2021-03-27T15:16:07Z</time>
      </trkpt>
      <trkpt lat="44.19612" lon="1.75584">
        <ele>292.2</ele>
        <time>2021-03-27T15:16:08Z</time>
      </trkpt>
      <trkpt lat="44.19616" lon="1.75596">
        <ele>291.7</ele>
        <time>2021-03-27T15:16:09Z</time>
      </trkpt>
      <trkpt lat="44.1962" lon="1.75607">
        <ele>291.3</ele>
        <time>2021-03-27T15:16:10Z</time>
      </trkpt>
      <trkpt lat="44.19624" lon="1.75618">
        <ele>290.8</ele>
        <time>2021-03-27T15:16:11Z</time>
      </trkpt>
      <trkpt lat="44.19628" lon="1.75629">
        <ele>290.4</ele>
        <time>2021-03-27T15:16:12Z</time>
      </trkpt>
      <trkpt lat="44.19631" lon="1.7564">
        <ele>290.1</ele>
        <time>2021-03-27T15:16:13Z</time>
      </trkpt>
      <trkpt lat="44.19634" lon="1.75651">
        <ele>289.8</ele>
        <time>2021-03-27T15:16:14Z</time>
      </trkpt>
      <trkpt lat="44.19636" lon="1.75663">
        <ele>289.5</ele>
        <time>2021-03-27T15:16:15Z</time>
      </trkpt>
      <trkpt lat="44.19638" lon="1.75675">
        <ele>289.2</ele>
        <time>2021-03-27T15:16:16Z</time>
      </trkpt>
      <trkpt lat="44.1964" lon="1.75686">
        <ele>288.9</ele>
        <time>2021-03-27T15:16:17Z</time>
      </trkpt>
      <trkpt lat="44.19642" lon="1.75698">
        <ele>288.7</ele>
        <time>2021-03-27T15:16:18Z</time>
      </trkpt>
      <trkpt lat="44.19644" lon="1.7571">
        <ele>288.5</ele>
        <time>2021-03-27T15:16:19Z</time>
      </trkpt>
      <trkpt lat="44.19646" lon="1.75722">
        <ele>288.3</ele>
        <time>2021-03-27T15:16:20Z</time>
      </trkpt>
      <trkpt lat="44.19648" lon="1.75734">
        <ele>288.1</ele>
        <time>2021-03-27T15:16:21Z</time>
      </trkpt>
      <trkpt lat="44.1965" lon="1.75746">
        <ele>287.9</ele>
        <time>2021-03-27T15:16:22Z</time>
      </trkpt>
      <trkpt lat="44.19652" lon="1.75758">
        <ele>287.7</ele>
        <time>2021-03-27T15:16:23Z</time>
      </trkpt>
      <trkpt lat="44.19652" lon="1.75769">
        <ele>287.6</ele>
        <time>2021-03-27T15:16:24Z</time>
      </trkpt>
      <trkpt lat="44.19652" lon="1.75781">
        <ele>287.6</ele>
        <time>2021-03-27T15:16:25Z</time>
      </trkpt>
      <trkpt lat="44.19653" lon="1.75792">
        <ele>287.5</ele>
        <time>2021-03-27T15:16:26Z</time>
      </trkpt>
      <trkpt lat="44.19653" lon="1.75802">
        <ele>287.5</ele>
        <time>2021-03-27T15:16:27Z</time>
      </trkpt>
      <trkpt lat="44.19653" lon="1.75813">
        <ele>287.5</ele>
        <time>2021-03-27T15:16:28Z</time>
      </trkpt>
      <trkpt lat="44.19652" lon="1.75823">
        <ele>287.6</ele>
        <time>2021-03-27T15:16:29Z</time>
      </trkpt>
      <trkpt lat="44.19652" lon="1.75833">
        <ele>287.6</ele>
        <time>2021-03-27T15:16:30Z</time>
      </trkpt>
      <trkpt lat="44.19651" lon="1.75842">
        <ele>287.7</ele>
        <time>2021-03-27T15:16:31Z</time>
      </trkpt>
      <trkpt lat="44.1965" lon="1.75851">
        <ele>287.8</ele>
        <time>2021-03-27T15:16:32Z</time>
      </trkpt>
      <trkpt lat="44.1965" lon="1.75859">
        <ele>287.8</ele>
        <time>2021-03-27T15:16:33Z</time>
      </trkpt>
      <trkpt lat="44.19651" lon="1.75867">
        <ele>287.9</ele>
        <time>2021-03-27T15:16:34Z</time>
      </trkpt>
      <trkpt lat="44.19653" lon="1.75874">
        <ele>288.1</ele>
        <time>2021-03-27T15:16:35Z</time>
      </trkpt>
      <trkpt lat="44.19657" lon="1.75879">
        <ele>288.2</ele>
        <time>2021-03-27T15:16:36Z</time>
      </trkpt>
      <trkpt lat="44.1966" lon="1.75884">
        <ele>288.3</ele>
        <time>2021-03-27T15:16:37Z</time>
      </trkpt>
      <trkpt lat="44.19668" lon="1.75889">
        <ele>288.6</ele>
        <time>2021-03-27T15:16:39Z</time>
      </trkpt>
      <trkpt lat="44.19674" lon="1.75894">
        <ele>288.9</ele>
        <time>2021-03-27T15:16:41Z</time>
      </trkpt>
      <trkpt lat="44.19681" lon="1.75899">
        <ele>289.3</ele>
        <time>2021-03-27T15:16:43Z</time>
      </trkpt>
      <trkpt lat="44.19688" lon="1.75903">
        <ele>289.6</ele>
        <time>2021-03-27T15:16:45Z</time>
      </trkpt>
      <trkpt lat="44.19696" lon="1.75906">
        <ele>290.1</ele>
        <time>2021-03-27T15:16:47Z</time>
      </trkpt>
      <trkpt lat="44.19703" lon="1.75907">
        <ele>290.5</ele>
        <time>2021-03-27T15:16:49Z</time>
      </trkpt>
      <trkpt lat="44.19709" lon="1.75908">
        <ele>290.9</ele>
        <time>2021-03-27T15:16:51Z</time>
      </trkpt>
      <trkpt lat="44.19715" lon="1.75909">
        <ele>291.3</ele>
        <time>2021-03-27T15:16:53Z</time>
      </trkpt>
      <trkpt lat="44.19721" lon="1.75909">
        <ele>291.6</ele>
        <time>2021-03-27T15:16:55Z</time>
      </trkpt>
      <trkpt lat="44.19728" lon="1.7591">
        <ele>292</ele>
        <time>2021-03-27T15:16:57Z</time>
      </trkpt>
      <trkpt lat="44.19735" lon="1.7591">
        <ele>292.3</ele>
        <time>2021-03-27T15:16:59Z</time>
      </trkpt>
      <trkpt lat="44.19742" lon="1.7591">
        <ele>292.5</ele>
        <time>2021-03-27T15:17:01Z</time>
      </trkpt>
      <trkpt lat="44.19749" lon="1.75911">
        <ele>292.8</ele>
        <time>2021-03-27T15:17:03Z</time>
      </trkpt>
      <trkpt lat="44.19756" lon="1.75913">
        <ele>293.1</ele>
        <time>2021-03-27T15:17:05Z</time>
      </trkpt>
      <trkpt lat="44.19763" lon="1.75913">
        <ele>293.4</ele>
        <time>2021-03-27T15:17:07Z</time>
      </trkpt>
      <trkpt lat="44.1977" lon="1.75914">
        <ele>293.6</ele>
        <time>2021-03-27T15:17:09Z</time>
      </trkpt>
      <trkpt lat="44.19776" lon="1.75914">
        <ele>293.7</ele>
        <time>2021-03-27T15:17:11Z</time>
      </trkpt>
      <trkpt lat="44.19783" lon="1.75913">
        <ele>293.9</ele>
        <time>2021-03-27T15:17:13Z</time>
      </trkpt>
      <trkpt lat="44.1979" lon="1.75912">
        <ele>294.1</ele>
        <time>2021-03-27T15:17:15Z</time>
      </trkpt>
      <trkpt lat="44.19797" lon="1.75911">
        <ele>294.3</ele>
        <time>2021-03-27T15:17:17Z</time>
      </trkpt>
      <trkpt lat="44.19803" lon="1.75909">
        <ele>294.4</ele>
        <time>2021-03-27T15:17:19Z</time>
      </trkpt>
      <trkpt lat="44.1981" lon="1.75908">
        <ele>294.4</ele>
        <time>2021-03-27T15:17:21Z</time>
      </trkpt>
      <trkpt lat="44.19817" lon="1.75907">
        <ele>294.5</ele>
        <time>2021-03-27T15:17:23Z</time>
      </trkpt>
      <trkpt lat="44.19824" lon="1.75905">
        <ele>294.5</ele>
        <time>2021-03-27T15:17:25Z</time>
      </trkpt>
      <trkpt lat="44.19831" lon="1.75903">
        <ele>294.6</ele>
        <time>2021-03-27T15:17:27Z</time>
      </trkpt>
      <trkpt lat="44.19838" lon="1.75902">
        <ele>294.7</ele>
        <time>2021-03-27T15:17:29Z</time>
      </trkpt>
      <trkpt lat="44.19845" lon="1.75901">
        <ele>294.8</ele>
        <time>2021-03-27T15:17:31Z</time>
      </trkpt>
      <trkpt lat="44.19853" lon="1.759">
        <ele>294.8</ele>
        <time>2021-03-27T15:17:33Z</time>
      </trkpt>
      <trkpt lat="44.1986" lon="1.75897">
        <ele>294.7</ele>
        <time>2021-03-27T15:17:35Z</time>
      </trkpt>
      <trkpt lat="44.19868" lon="1.75896">
        <ele>294.6</ele>
        <time>2021-03-27T15:17:37Z</time>
      </trkpt>
      <trkpt lat="44.19876" lon="1.75896">
        <ele>294.4</ele>
        <time>2021-03-27T15:17:39Z</time>
      </trkpt>
      <trkpt lat="44.19885" lon="1.75896">
        <ele>294.2</ele>
        <time>2021-03-27T15:17:41Z</time>
      </trkpt>
      <trkpt lat="44.19889" lon="1.75896">
        <ele>294.1</ele>
        <time>2021-03-27T15:17:42Z</time>
      </trkpt>
      <trkpt lat="44.19898" lon="1.75896">
        <ele>294</ele>
        <time>2021-03-27T15:17:44Z</time>
      </trkpt>
      <trkpt lat="44.19906" lon="1.75897">
        <ele>293.9</ele>
        <time>2021-03-27T15:17:46Z</time>
      </trkpt>
      <trkpt lat="44.19915" lon="1.75898">
        <ele>293.7</ele>
        <time>2021-03-27T15:17:48Z</time>
      </trkpt>
      <trkpt lat="44.1992" lon="1.75899">
        <ele>293.6</ele>
        <time>2021-03-27T15:17:49Z</time>
      </trkpt>
      <trkpt lat="44.19924" lon="1.75899">
        <ele>293.5</ele>
        <time>2021-03-27T15:17:50Z</time>
      </trkpt>
      <trkpt lat="44.19929" lon="1.759">
        <ele>293.3</ele>
        <time>2021-03-27T15:17:51Z</time>
      </trkpt>
      <trkpt lat="44.19934" lon="1.759">
        <ele>293.2</ele>
        <time>2021-03-27T15:17:52Z</time>
      </trkpt>
      <trkpt lat="44.19939" lon="1.75901">
        <ele>293.1</ele>
        <time>2021-03-27T15:17:53Z</time>
      </trkpt>
      <trkpt lat="44.19944" lon="1.75901">
        <ele>293</ele>
        <time>2021-03-27T15:17:54Z</time>
      </trkpt>
      <trkpt lat="44.19949" lon="1.75902">
        <ele>292.9</ele>
        <time>2021-03-27T15:17:55Z</time>
      </trkpt>
      <trkpt lat="44.19954" lon="1.75902">
        <ele>292.7</ele>
        <time>2021-03-27T15:17:56Z</time>
      </trkpt>
      <trkpt lat="44.19959" lon="1.75903">
        <ele>292.6</ele>
        <time>2021-03-27T15:17:57Z</time>
      </trkpt>
      <trkpt lat="44.19964" lon="1.75904">
        <ele>292.4</ele>
        <time>2021-03-27T15:17:58Z</time>
      </trkpt>
      <trkpt lat="44.19969" lon="1.75905">
        <ele>292.2</ele>
        <time>2021-03-27T15:17:59Z</time>
      </trkpt>
      <trkpt lat="44.19974" lon="1.75906">
        <ele>292</ele>
        <time>2021-03-27T15:18:00Z</time>
      </trkpt>
      <trkpt lat="44.1998" lon="1.75907">
        <ele>291.8</ele>
        <time>2021-03-27T15:18:01Z</time>
      </trkpt>
      <trkpt lat="44.19985" lon="1.75907">
        <ele>291.6</ele>
        <time>2021-03-27T15:18:02Z</time>
      </trkpt>
      <trkpt lat="44.1999" lon="1.75908">
        <ele>291.5</ele>
        <time>2021-03-27T15:18:03Z</time>
      </trkpt>
      <trkpt lat="44.19995" lon="1.75909">
        <ele>291.3</ele>
        <time>2021-03-27T15:18:04Z</time>
      </trkpt>
      <trkpt lat="44.20001" lon="1.75909">
        <ele>291.3</ele>
        <time>2021-03-27T15:18:05Z</time>
      </trkpt>
      <trkpt lat="44.20006" lon="1.75909">
        <ele>291.2</ele>
        <time>2021-03-27T15:18:06Z</time>
      </trkpt>
      <trkpt lat="44.20011" lon="1.75909">
        <ele>291.2</ele>
        <time>2021-03-27T15:18:07Z</time>
      </trkpt>
      <trkpt lat="44.20016" lon="1.75908">
        <ele>291.3</ele>
        <time>2021-03-27T15:18:08Z</time>
      </trkpt>
      <trkpt lat="44.2002" lon="1.75908">
        <ele>291.3</ele>
        <time>2021-03-27T15:18:09Z</time>
      </trkpt>
      <trkpt lat="44.20025" lon="1.75906">
        <ele>291.3</ele>
        <time>2021-03-27T15:18:10Z</time>
      </trkpt>
      <trkpt lat="44.20029" lon="1.75905">
        <ele>291.3</ele>
        <time>2021-03-27T15:18:11Z</time>
      </trkpt>
      <trkpt lat="44.20034" lon="1.75903">
        <ele>291.3</ele>
        <time>2021-03-27T15:18:12Z</time>
      </trkpt>
      <trkpt lat="44.20038" lon="1.75902">
        <ele>291.3</ele>
        <time>2021-03-27T15:18:13Z</time>
      </trkpt>
      <trkpt lat="44.20043" lon="1.759">
        <ele>291.4</ele>
        <time>2021-03-27T15:18:14Z</time>
      </trkpt>
      <trkpt lat="44.20051" lon="1.75895">
        <ele>291.6</ele>
        <time>2021-03-27T15:18:16Z</time>
      </trkpt>
      <trkpt lat="44.20055" lon="1.75892">
        <ele>291.6</ele>
        <time>2021-03-27T15:18:17Z</time>
      </trkpt>
      <trkpt lat="44.20064" lon="1.75889">
        <ele>291.7</ele>
        <time>2021-03-27T15:18:19Z</time>
      </trkpt>
      <trkpt lat="44.20072" lon="1.75886">
        <ele>291.6</ele>
        <time>2021-03-27T15:18:21Z</time>
      </trkpt>
      <trkpt lat="44.20081" lon="1.75887">
        <ele>291.4</ele>
        <time>2021-03-27T15:18:23Z</time>
      </trkpt>
      <trkpt lat="44.20085" lon="1.75889">
        <ele>291.2</ele>
        <time>2021-03-27T15:18:24Z</time>
      </trkpt>
      <trkpt lat="44.2009" lon="1.75892">
        <ele>291.1</ele>
        <time>2021-03-27T15:18:25Z</time>
      </trkpt>
      <trkpt lat="44.20094" lon="1.75895">
        <ele>291</ele>
        <time>2021-03-27T15:18:26Z</time>
      </trkpt>
      <trkpt lat="44.20098" lon="1.75899">
        <ele>291</ele>
        <time>2021-03-27T15:18:27Z</time>
      </trkpt>
      <trkpt lat="44.20103" lon="1.75903">
        <ele>291.1</ele>
        <time>2021-03-27T15:18:28Z</time>
      </trkpt>
      <trkpt lat="44.20107" lon="1.75907">
        <ele>291.1</ele>
        <time>2021-03-27T15:18:29Z</time>
      </trkpt>
      <trkpt lat="44.20112" lon="1.75911">
        <ele>291.2</ele>
        <time>2021-03-27T15:18:30Z</time>
      </trkpt>
      <trkpt lat="44.20117" lon="1.75915">
        <ele>291.3</ele>
        <time>2021-03-27T15:18:31Z</time>
      </trkpt>
      <trkpt lat="44.20121" lon="1.75919">
        <ele>291.3</ele>
        <time>2021-03-27T15:18:32Z</time>
      </trkpt>
      <trkpt lat="44.20125" lon="1.75923">
        <ele>291.4</ele>
        <time>2021-03-27T15:18:33Z</time>
      </trkpt>
      <trkpt lat="44.2013" lon="1.75927">
        <ele>291.4</ele>
        <time>2021-03-27T15:18:34Z</time>
      </trkpt>
      <trkpt lat="44.20134" lon="1.75931">
        <ele>291.5</ele>
        <time>2021-03-27T15:18:35Z</time>
      </trkpt>
      <trkpt lat="44.20138" lon="1.75934">
        <ele>291.7</ele>
        <time>2021-03-27T15:18:36Z</time>
      </trkpt>
      <trkpt lat="44.20143" lon="1.75938">
        <ele>291.9</ele>
        <time>2021-03-27T15:18:37Z</time>
      </trkpt>
      <trkpt lat="44.20147" lon="1.75942">
        <ele>292.1</ele>
        <time>2021-03-27T15:18:38Z</time>
      </trkpt>
      <trkpt lat="44.20151" lon="1.75945">
        <ele>292.4</ele>
        <time>2021-03-27T15:18:39Z</time>
      </trkpt>
      <trkpt lat="44.20155" lon="1.75949">
        <ele>292.6</ele>
        <time>2021-03-27T15:18:40Z</time>
      </trkpt>
      <trkpt lat="44.20162" lon="1.75955">
        <ele>293.1</ele>
        <time>2021-03-27T15:18:42Z</time>
      </trkpt>
      <trkpt lat="44.20168" lon="1.75961">
        <ele>293.7</ele>
        <time>2021-03-27T15:18:44Z</time>
      </trkpt>
      <trkpt lat="44.20173" lon="1.75968">
        <ele>294.1</ele>
        <time>2021-03-27T15:18:46Z</time>
      </trkpt>
      <trkpt lat="44.20178" lon="1.75974">
        <ele>294.6</ele>
        <time>2021-03-27T15:18:48Z</time>
      </trkpt>
      <trkpt lat="44.20182" lon="1.75981">
        <ele>295</ele>
        <time>2021-03-27T15:18:50Z</time>
      </trkpt>
      <trkpt lat="44.20186" lon="1.75989">
        <ele>295.4</ele>
        <time>2021-03-27T15:18:52Z</time>
      </trkpt>
      <trkpt lat="44.2019" lon="1.75996">
        <ele>295.8</ele>
        <time>2021-03-27T15:18:54Z</time>
      </trkpt>
      <trkpt lat="44.20193" lon="1.76004">
        <ele>296.2</ele>
        <time>2021-03-27T15:18:56Z</time>
      </trkpt>
      <trkpt lat="44.20197" lon="1.76011">
        <ele>296.6</ele>
        <time>2021-03-27T15:18:58Z</time>
      </trkpt>
      <trkpt lat="44.20202" lon="1.76017">
        <ele>297</ele>
        <time>2021-03-27T15:19:00Z</time>
      </trkpt>
      <trkpt lat="44.20207" lon="1.76021">
        <ele>297.5</ele>
        <time>2021-03-27T15:19:02Z</time>
      </trkpt>
      <trkpt lat="44.20212" lon="1.76024">
        <ele>298</ele>
        <time>2021-03-27T15:19:04Z</time>
      </trkpt>
      <trkpt lat="44.20217" lon="1.76027">
        <ele>298.4</ele>
        <time>2021-03-27T15:19:06Z</time>
      </trkpt>
      <trkpt lat="44.20223" lon="1.76029">
        <ele>298.9</ele>
        <time>2021-03-27T15:19:08Z</time>
      </trkpt>
      <trkpt lat="44.20229" lon="1.76031">
        <ele>299.3</ele>
        <time>2021-03-27T15:19:10Z</time>
      </trkpt>
      <trkpt lat="44.20235" lon="1.76033">
        <ele>299.7</ele>
        <time>2021-03-27T15:19:12Z</time>
      </trkpt>
      <trkpt lat="44.20241" lon="1.76034">
        <ele>300.1</ele>
        <time>2021-03-27T15:19:14Z</time>
      </trkpt>
      <trkpt lat="44.20247" lon="1.76035">
        <ele>300.5</ele>
        <time>2021-03-27T15:19:16Z</time>
      </trkpt>
      <trkpt lat="44.20253" lon="1.76035">
        <ele>300.9</ele>
        <time>2021-03-27T15:19:18Z</time>
      </trkpt>
      <trkpt lat="44.20259" lon="1.76035">
        <ele>301.2</ele>
        <time>2021-03-27T15:19:20Z</time>
      </trkpt>
      <trkpt lat="44.20265" lon="1.76034">
        <ele>301.5</ele>
        <time>2021-03-27T15:19:22Z</time>
      </trkpt>
      <trkpt lat="44.20271" lon="1.76033">
        <ele>301.8</ele>
        <time>2021-03-27T15:19:24Z</time>
      </trkpt>
      <trkpt lat="44.20277" lon="1.76031">
        <ele>302.2</ele>
        <time>2021-03-27T15:19:26Z</time>
      </trkpt>
      <trkpt lat="44.20283" lon="1.76029">
        <ele>302.5</ele>
        <time>2021-03-27T15:19:28Z</time>
      </trkpt>
      <trkpt lat="44.20289" lon="1.76027">
        <ele>302.7</ele>
        <time>2021-03-27T15:19:30Z</time>
      </trkpt>
      <trkpt lat="44.20295" lon="1.76026">
        <ele>302.9</ele>
        <time>2021-03-27T15:19:32Z</time>
      </trkpt>
      <trkpt lat="44.20301" lon="1.76024">
        <ele>303.1</ele>
        <time>2021-03-27T15:19:34Z</time>
      </trkpt>
      <trkpt lat="44.20306" lon="1.76022">
        <ele>303.3</ele>
        <time>2021-03-27T15:19:36Z</time>
      </trkpt>
      <trkpt lat="44.20312" lon="1.76021">
        <ele>303.4</ele>
        <time>2021-03-27T15:19:38Z</time>
      </trkpt>
      <trkpt lat="44.20318" lon="1.7602">
        <ele>303.6</ele>
        <time>2021-03-27T15:19:40Z</time>
      </trkpt>
      <trkpt lat="44.20325" lon="1.7602">
        <ele>303.7</ele>
        <time>2021-03-27T15:19:42Z</time>
      </trkpt>
      <trkpt lat="44.20331" lon="1.76019">
        <ele>303.7</ele>
        <time>2021-03-27T15:19:44Z</time>
      </trkpt>
      <trkpt lat="44.20338" lon="1.76017">
        <ele>303.8</ele>
        <time>2021-03-27T15:19:46Z</time>
      </trkpt>
      <trkpt lat="44.20345" lon="1.76017">
        <ele>303.9</ele>
        <time>2021-03-27T15:19:48Z</time>
      </trkpt>
      <trkpt lat="44.20351" lon="1.76017">
        <ele>303.9</ele>
        <time>2021-03-27T15:19:50Z</time>
      </trkpt>
      <trkpt lat="44.20357" lon="1.76017">
        <ele>303.8</ele>
        <time>2021-03-27T15:19:52Z</time>
      </trkpt>
      <trkpt lat="44.20364" lon="1.76017">
        <ele>303.7</ele>
        <time>2021-03-27T15:19:54Z</time>
      </trkpt>
      <trkpt lat="44.2037" lon="1.76019">
        <ele>303.5</ele>
        <time>2021-03-27T15:19:56Z</time>
      </trkpt>
      <trkpt lat="44.20377" lon="1.7602">
        <ele>303.3</ele>
        <time>2021-03-27T15:19:58Z</time>
      </trkpt>
      <trkpt lat="44.20385" lon="1.76022">
        <ele>302.8</ele>
        <time>2021-03-27T15:20:00Z</time>
      </trkpt>
      <trkpt lat="44.20394" lon="1.76024">
        <ele>302.1</ele>
        <time>2021-03-27T15:20:02Z</time>
      </trkpt>
      <trkpt lat="44.20398" lon="1.76026">
        <ele>301.7</ele>
        <time>2021-03-27T15:20:03Z</time>
      </trkpt>
      <trkpt lat="44.20404" lon="1.76029">
        <ele>301.2</ele>
        <time>2021-03-27T15:20:04Z</time>
      </trkpt>
      <trkpt lat="44.20409" lon="1.76031">
        <ele>300.5</ele>
        <time>2021-03-27T15:20:05Z</time>
      </trkpt>
      <trkpt lat="44.20415" lon="1.76034">
        <ele>299.8</ele>
        <time>2021-03-27T15:20:06Z</time>
      </trkpt>
      <trkpt lat="44.20421" lon="1.76037">
        <ele>299.1</ele>
        <time>2021-03-27T15:20:07Z</time>
      </trkpt>
      <trkpt lat="44.20428" lon="1.76041">
        <ele>298.3</ele>
        <time>2021-03-27T15:20:08Z</time>
      </trkpt>
      <trkpt lat="44.20435" lon="1.76045">
        <ele>297.5</ele>
        <time>2021-03-27T15:20:09Z</time>
      </trkpt>
      <trkpt lat="44.20443" lon="1.7605">
        <ele>296.7</ele>
        <time>2021-03-27T15:20:10Z</time>
      </trkpt>
      <trkpt lat="44.20451" lon="1.76054">
        <ele>296</ele>
        <time>2021-03-27T15:20:11Z</time>
      </trkpt>
      <trkpt lat="44.2046" lon="1.76059">
        <ele>295.3</ele>
        <time>2021-03-27T15:20:12Z</time>
      </trkpt>
      <trkpt lat="44.20468" lon="1.76065">
        <ele>294.9</ele>
        <time>2021-03-27T15:20:13Z</time>
      </trkpt>
      <trkpt lat="44.20476" lon="1.76072">
        <ele>294.5</ele>
        <time>2021-03-27T15:20:14Z</time>
      </trkpt>
      <trkpt lat="44.20484" lon="1.76079">
        <ele>294.3</ele>
        <time>2021-03-27T15:20:15Z</time>
      </trkpt>
      <trkpt lat="44.20491" lon="1.76086">
        <ele>294.3</ele>
        <time>2021-03-27T15:20:16Z</time>
      </trkpt>
      <trkpt lat="44.20498" lon="1.76094">
        <ele>294.4</ele>
        <time>2021-03-27T15:20:17Z</time>
      </trkpt>
      <trkpt lat="44.20505" lon="1.76101">
        <ele>294.4</ele>
        <time>2021-03-27T15:20:18Z</time>
      </trkpt>
      <trkpt lat="44.20511" lon="1.76108">
        <ele>294.4</ele>
        <time>2021-03-27T15:20:19Z</time>
      </trkpt>
      <trkpt lat="44.20518" lon="1.76115">
        <ele>294.6</ele>
        <time>2021-03-27T15:20:20Z</time>
      </trkpt>
      <trkpt lat="44.20524" lon="1.76121">
        <ele>294.7</ele>
        <time>2021-03-27T15:20:21Z</time>
      </trkpt>
      <trkpt lat="44.2053" lon="1.76127">
        <ele>294.8</ele>
        <time>2021-03-27T15:20:22Z</time>
      </trkpt>
      <trkpt lat="44.20535" lon="1.76132">
        <ele>294.9</ele>
        <time>2021-03-27T15:20:23Z</time>
      </trkpt>
      <trkpt lat="44.20541" lon="1.76137">
        <ele>294.8</ele>
        <time>2021-03-27T15:20:24Z</time>
      </trkpt>
      <trkpt lat="44.20546" lon="1.76142">
        <ele>294.7</ele>
        <time>2021-03-27T15:20:25Z</time>
      </trkpt>
      <trkpt lat="44.2055" lon="1.76145">
        <ele>294.6</ele>
        <time>2021-03-27T15:20:26Z</time>
      </trkpt>
      <trkpt lat="44.20555" lon="1.76149">
        <ele>294.5</ele>
        <time>2021-03-27T15:20:27Z</time>
      </trkpt>
      <trkpt lat="44.2056" lon="1.76151">
        <ele>294.4</ele>
        <time>2021-03-27T15:20:28Z</time>
      </trkpt>
      <trkpt lat="44.20565" lon="1.76154">
        <ele>294.2</ele>
        <time>2021-03-27T15:20:29Z</time>
      </trkpt>
      <trkpt lat="44.2057" lon="1.76157">
        <ele>294.1</ele>
        <time>2021-03-27T15:20:30Z</time>
      </trkpt>
      <trkpt lat="44.20576" lon="1.76159">
        <ele>293.9</ele>
        <time>2021-03-27T15:20:31Z</time>
      </trkpt>
      <trkpt lat="44.20582" lon="1.76161">
        <ele>293.7</ele>
        <time>2021-03-27T15:20:32Z</time>
      </trkpt>
      <trkpt lat="44.20588" lon="1.76163">
        <ele>293.6</ele>
        <time>2021-03-27T15:20:33Z</time>
      </trkpt>
      <trkpt lat="44.20594" lon="1.76164">
        <ele>293.4</ele>
        <time>2021-03-27T15:20:34Z</time>
      </trkpt>
      <trkpt lat="44.206" lon="1.76166">
        <ele>293.2</ele>
        <time>2021-03-27T15:20:35Z</time>
      </trkpt>
      <trkpt lat="44.20606" lon="1.76168">
        <ele>292.9</ele>
        <time>2021-03-27T15:20:36Z</time>
      </trkpt>
      <trkpt lat="44.20612" lon="1.7617">
        <ele>292.6</ele>
        <time>2021-03-27T15:20:37Z</time>
      </trkpt>
      <trkpt lat="44.20618" lon="1.76173">
        <ele>292.2</ele>
        <time>2021-03-27T15:20:38Z</time>
      </trkpt>
      <trkpt lat="44.20625" lon="1.76175">
        <ele>291.8</ele>
        <time>2021-03-27T15:20:39Z</time>
      </trkpt>
      <trkpt lat="44.20631" lon="1.76177">
        <ele>291.5</ele>
        <time>2021-03-27T15:20:40Z</time>
      </trkpt>
      <trkpt lat="44.20638" lon="1.76179">
        <ele>291.1</ele>
        <time>2021-03-27T15:20:41Z</time>
      </trkpt>
      <trkpt lat="44.20645" lon="1.76181">
        <ele>290.8</ele>
        <time>2021-03-27T15:20:42Z</time>
      </trkpt>
      <trkpt lat="44.20652" lon="1.76183">
        <ele>290.4</ele>
        <time>2021-03-27T15:20:43Z</time>
      </trkpt>
      <trkpt lat="44.2066" lon="1.76185">
        <ele>290.1</ele>
        <time>2021-03-27T15:20:44Z</time>
      </trkpt>
      <trkpt lat="44.20667" lon="1.76187">
        <ele>289.8</ele>
        <time>2021-03-27T15:20:45Z</time>
      </trkpt>
      <trkpt lat="44.20675" lon="1.76189">
        <ele>289.4</ele>
        <time>2021-03-27T15:20:46Z</time>
      </trkpt>
      <trkpt lat="44.20682" lon="1.76191">
        <ele>289.1</ele>
        <time>2021-03-27T15:20:47Z</time>
      </trkpt>
      <trkpt lat="44.2069" lon="1.76193">
        <ele>288.7</ele>
        <time>2021-03-27T15:20:48Z</time>
      </trkpt>
      <trkpt lat="44.20697" lon="1.76195">
        <ele>288.5</ele>
        <time>2021-03-27T15:20:49Z</time>
      </trkpt>
      <trkpt lat="44.20705" lon="1.76197">
        <ele>288.2</ele>
        <time>2021-03-27T15:20:50Z</time>
      </trkpt>
      <trkpt lat="44.20712" lon="1.76198">
        <ele>287.9</ele>
        <time>2021-03-27T15:20:51Z</time>
      </trkpt>
      <trkpt lat="44.20719" lon="1.76199">
        <ele>287.7</ele>
        <time>2021-03-27T15:20:52Z</time>
      </trkpt>
      <trkpt lat="44.20726" lon="1.76201">
        <ele>287.4</ele>
        <time>2021-03-27T15:20:53Z</time>
      </trkpt>
      <trkpt lat="44.20733" lon="1.76203">
        <ele>287.1</ele>
        <time>2021-03-27T15:20:54Z</time>
      </trkpt>
      <trkpt lat="44.2074" lon="1.76205">
        <ele>286.8</ele>
        <time>2021-03-27T15:20:55Z</time>
      </trkpt>
      <trkpt lat="44.20748" lon="1.76206">
        <ele>286.5</ele>
        <time>2021-03-27T15:20:56Z</time>
      </trkpt>
      <trkpt lat="44.20755" lon="1.76207">
        <ele>286.2</ele>
        <time>2021-03-27T15:20:57Z</time>
      </trkpt>
      <trkpt lat="44.20762" lon="1.76208">
        <ele>286</ele>
        <time>2021-03-27T15:20:58Z</time>
      </trkpt>
      <trkpt lat="44.20768" lon="1.76209">
        <ele>285.8</ele>
        <time>2021-03-27T15:20:59Z</time>
      </trkpt>
      <trkpt lat="44.20772" lon="1.7621">
        <ele>285.5</ele>
        <time>2021-03-27T15:21:00Z</time>
      </trkpt>
      <trkpt lat="44.20781" lon="1.76212">
        <ele>284.6</ele>
        <time>2021-03-27T15:21:02Z</time>
      </trkpt>
      <trkpt lat="44.20786" lon="1.76213">
        <ele>283.7</ele>
        <time>2021-03-27T15:21:04Z</time>
      </trkpt>
      <trkpt lat="44.20789" lon="1.76214">
        <ele>283.6</ele>
        <time>2021-03-27T15:21:06Z</time>
      </trkpt>
      <trkpt lat="44.20788" lon="1.76218">
        <ele>283.2</ele>
        <time>2021-03-27T15:21:19Z</time>
      </trkpt>
      <trkpt lat="44.20786" lon="1.76226">
        <ele>282.5</ele>
        <time>2021-03-27T15:21:21Z</time>
      </trkpt>
      <trkpt lat="44.20785" lon="1.76233">
        <ele>281.9</ele>
        <time>2021-03-27T15:21:23Z</time>
      </trkpt>
      <trkpt lat="44.20781" lon="1.76244">
        <ele>281.3</ele>
        <time>2021-03-27T15:21:25Z</time>
      </trkpt>
      <trkpt lat="44.20778" lon="1.7625">
        <ele>280.7</ele>
        <time>2021-03-27T15:21:26Z</time>
      </trkpt>
      <trkpt lat="44.20774" lon="1.76256">
        <ele>280.4</ele>
        <time>2021-03-27T15:21:27Z</time>
      </trkpt>
      <trkpt lat="44.20769" lon="1.76264">
        <ele>279.7</ele>
        <time>2021-03-27T15:21:28Z</time>
      </trkpt>
      <trkpt lat="44.20762" lon="1.76273">
        <ele>278.9</ele>
        <time>2021-03-27T15:21:29Z</time>
      </trkpt>
      <trkpt lat="44.20756" lon="1.76282">
        <ele>278.1</ele>
        <time>2021-03-27T15:21:30Z</time>
      </trkpt>
      <trkpt lat="44.20749" lon="1.76289">
        <ele>277.1</ele>
        <time>2021-03-27T15:21:31Z</time>
      </trkpt>
      <trkpt lat="44.20742" lon="1.76292">
        <ele>276.7</ele>
        <time>2021-03-27T15:21:32Z</time>
      </trkpt>
      <trkpt lat="44.20734" lon="1.76296">
        <ele>275.9</ele>
        <time>2021-03-27T15:21:33Z</time>
      </trkpt>
      <trkpt lat="44.20727" lon="1.76302">
        <ele>275</ele>
        <time>2021-03-27T15:21:34Z</time>
      </trkpt>
      <trkpt lat="44.2072" lon="1.7631">
        <ele>274</ele>
        <time>2021-03-27T15:21:35Z</time>
      </trkpt>
      <trkpt lat="44.20712" lon="1.76318">
        <ele>272.8</ele>
        <time>2021-03-27T15:21:36Z</time>
      </trkpt>
      <trkpt lat="44.20705" lon="1.76325">
        <ele>271.6</ele>
        <time>2021-03-27T15:21:37Z</time>
      </trkpt>
      <trkpt lat="44.20699" lon="1.76332">
        <ele>270.3</ele>
        <time>2021-03-27T15:21:38Z</time>
      </trkpt>
      <trkpt lat="44.20691" lon="1.76339">
        <ele>269.2</ele>
        <time>2021-03-27T15:21:39Z</time>
      </trkpt>
      <trkpt lat="44.20683" lon="1.76344">
        <ele>267.2</ele>
        <time>2021-03-27T15:21:40Z</time>
      </trkpt>
      <trkpt lat="44.20673" lon="1.76347">
        <ele>265.8</ele>
        <time>2021-03-27T15:21:41Z</time>
      </trkpt>
      <trkpt lat="44.20664" lon="1.76351">
        <ele>263.6</ele>
        <time>2021-03-27T15:21:42Z</time>
      </trkpt>
      <trkpt lat="44.20655" lon="1.76354">
        <ele>261.6</ele>
        <time>2021-03-27T15:21:43Z</time>
      </trkpt>
      <trkpt lat="44.20646" lon="1.76357">
        <ele>259.8</ele>
        <time>2021-03-27T15:21:44Z</time>
      </trkpt>
      <trkpt lat="44.20636" lon="1.76361">
        <ele>258.7</ele>
        <time>2021-03-27T15:21:45Z</time>
      </trkpt>
      <trkpt lat="44.20627" lon="1.76363">
        <ele>257</ele>
        <time>2021-03-27T15:21:46Z</time>
      </trkpt>
      <trkpt lat="44.20617" lon="1.76366">
        <ele>255.1</ele>
        <time>2021-03-27T15:21:47Z</time>
      </trkpt>
      <trkpt lat="44.20607" lon="1.76369">
        <ele>253.4</ele>
        <time>2021-03-27T15:21:48Z</time>
      </trkpt>
      <trkpt lat="44.20596" lon="1.76372">
        <ele>252.7</ele>
        <time>2021-03-27T15:21:49Z</time>
      </trkpt>
      <trkpt lat="44.20585" lon="1.76376">
        <ele>251.1</ele>
        <time>2021-03-27T15:21:50Z</time>
      </trkpt>
      <trkpt lat="44.20574" lon="1.7638">
        <ele>249.3</ele>
        <time>2021-03-27T15:21:51Z</time>
      </trkpt>
      <trkpt lat="44.20565" lon="1.76382">
        <ele>247.7</ele>
        <time>2021-03-27T15:21:52Z</time>
      </trkpt>
      <trkpt lat="44.20557" lon="1.76386">
        <ele>247.2</ele>
        <time>2021-03-27T15:21:53Z</time>
      </trkpt>
      <trkpt lat="44.2055" lon="1.76393">
        <ele>244.9</ele>
        <time>2021-03-27T15:21:54Z</time>
      </trkpt>
      <trkpt lat="44.20542" lon="1.76398">
        <ele>243.2</ele>
        <time>2021-03-27T15:21:55Z</time>
      </trkpt>
      <trkpt lat="44.20537" lon="1.76402">
        <ele>241.8</ele>
        <time>2021-03-27T15:21:56Z</time>
      </trkpt>
      <trkpt lat="44.20534" lon="1.76405">
        <ele>240.8</ele>
        <time>2021-03-27T15:21:58Z</time>
      </trkpt>
      <trkpt lat="44.20537" lon="1.76408">
        <ele>240.7</ele>
        <time>2021-03-27T15:22:00Z</time>
      </trkpt>
      <trkpt lat="44.2054" lon="1.76412">
        <ele>240.1</ele>
        <time>2021-03-27T15:22:02Z</time>
      </trkpt>
      <trkpt lat="44.20547" lon="1.76419">
        <ele>239.3</ele>
        <time>2021-03-27T15:22:05Z</time>
      </trkpt>
      <trkpt lat="44.20552" lon="1.76423">
        <ele>238.9</ele>
        <time>2021-03-27T15:22:06Z</time>
      </trkpt>
      <trkpt lat="44.20557" lon="1.76425">
        <ele>239.1</ele>
        <time>2021-03-27T15:22:08Z</time>
      </trkpt>
      <trkpt lat="44.20561" lon="1.76428">
        <ele>239.5</ele>
        <time>2021-03-27T15:22:10Z</time>
      </trkpt>
      <trkpt lat="44.20564" lon="1.76433">
        <ele>239.5</ele>
        <time>2021-03-27T15:22:14Z</time>
      </trkpt>
      <trkpt lat="44.20562" lon="1.76436">
        <ele>239.1</ele>
        <time>2021-03-27T15:22:27Z</time>
      </trkpt>
      <trkpt lat="44.20558" lon="1.76443">
        <ele>237.4</ele>
        <time>2021-03-27T15:22:29Z</time>
      </trkpt>
      <trkpt lat="44.20554" lon="1.76449">
        <ele>236.4</ele>
        <time>2021-03-27T15:22:30Z</time>
      </trkpt>
      <trkpt lat="44.20551" lon="1.76454">
        <ele>235.4</ele>
        <time>2021-03-27T15:22:31Z</time>
      </trkpt>
      <trkpt lat="44.20547" lon="1.76459">
        <ele>234.4</ele>
        <time>2021-03-27T15:22:32Z</time>
      </trkpt>
      <trkpt lat="44.20543" lon="1.76462">
        <ele>232.9</ele>
        <time>2021-03-27T15:22:33Z</time>
      </trkpt>
      <trkpt lat="44.20536" lon="1.76468">
        <ele>231.4</ele>
        <time>2021-03-27T15:22:35Z</time>
      </trkpt>
      <trkpt lat="44.20532" lon="1.76472">
        <ele>230.5</ele>
        <time>2021-03-27T15:22:37Z</time>
      </trkpt>
      <trkpt lat="44.2053" lon="1.76473">
        <ele>229.5</ele>
        <time>2021-03-27T15:22:39Z</time>
      </trkpt>
      <trkpt lat="44.20526" lon="1.76478">
        <ele>228.6</ele>
        <time>2021-03-27T15:22:42Z</time>
      </trkpt>
      <trkpt lat="44.20521" lon="1.76483">
        <ele>227</ele>
        <time>2021-03-27T15:22:44Z</time>
      </trkpt>
      <trkpt lat="44.20514" lon="1.76488">
        <ele>225.5</ele>
        <time>2021-03-27T15:22:46Z</time>
      </trkpt>
      <trkpt lat="44.20509" lon="1.76493">
        <ele>224</ele>
        <time>2021-03-27T15:22:49Z</time>
      </trkpt>
      <trkpt lat="44.20509" lon="1.76493">
        <ele>223.9</ele>
        <time>2021-03-27T15:22:50Z</time>
      </trkpt>
      <trkpt lat="44.20504" lon="1.76496">
        <ele>223</ele>
        <time>2021-03-27T15:23:05Z</time>
      </trkpt>
      <trkpt lat="44.20501" lon="1.76499">
        <ele>222</ele>
        <time>2021-03-27T15:23:08Z</time>
      </trkpt>
      <trkpt lat="44.20497" lon="1.76502">
        <ele>220.2</ele>
        <time>2021-03-27T15:23:11Z</time>
      </trkpt>
      <trkpt lat="44.20497" lon="1.76503">
        <ele>220.1</ele>
        <time>2021-03-27T15:23:12Z</time>
      </trkpt>
      <trkpt lat="44.20495" lon="1.76504">
        <ele>220</ele>
        <time>2021-03-27T15:23:20Z</time>
      </trkpt>
      <trkpt lat="44.2049" lon="1.76507">
        <ele>218.4</ele>
        <time>2021-03-27T15:23:23Z</time>
      </trkpt>
      <trkpt lat="44.20486" lon="1.76503">
        <ele>217.9</ele>
        <time>2021-03-27T15:23:25Z</time>
      </trkpt>
      <trkpt lat="44.20482" lon="1.76497">
        <ele>217.4</ele>
        <time>2021-03-27T15:23:27Z</time>
      </trkpt>
      <trkpt lat="44.20476" lon="1.76494">
        <ele>216.1</ele>
        <time>2021-03-27T15:23:29Z</time>
      </trkpt>
      <trkpt lat="44.20471" lon="1.76496">
        <ele>215.4</ele>
        <time>2021-03-27T15:23:31Z</time>
      </trkpt>
      <trkpt lat="44.20463" lon="1.76504">
        <ele>212.9</ele>
        <time>2021-03-27T15:23:33Z</time>
      </trkpt>
      <trkpt lat="44.20458" lon="1.7651">
        <ele>211.9</ele>
        <time>2021-03-27T15:23:34Z</time>
      </trkpt>
      <trkpt lat="44.20453" lon="1.76515">
        <ele>210.5</ele>
        <time>2021-03-27T15:23:35Z</time>
      </trkpt>
      <trkpt lat="44.20448" lon="1.76519">
        <ele>209</ele>
        <time>2021-03-27T15:23:36Z</time>
      </trkpt>
      <trkpt lat="44.20443" lon="1.76519">
        <ele>208.3</ele>
        <time>2021-03-27T15:23:37Z</time>
      </trkpt>
      <trkpt lat="44.20436" lon="1.76515">
        <ele>207.3</ele>
        <time>2021-03-27T15:23:39Z</time>
      </trkpt>
      <trkpt lat="44.20429" lon="1.76514">
        <ele>206.7</ele>
        <time>2021-03-27T15:23:41Z</time>
      </trkpt>
      <trkpt lat="44.20422" lon="1.76514">
        <ele>206</ele>
        <time>2021-03-27T15:23:43Z</time>
      </trkpt>
      <trkpt lat="44.20413" lon="1.76515">
        <ele>205</ele>
        <time>2021-03-27T15:23:45Z</time>
      </trkpt>
      <trkpt lat="44.20406" lon="1.76514">
        <ele>204.4</ele>
        <time>2021-03-27T15:23:47Z</time>
      </trkpt>
      <trkpt lat="44.20401" lon="1.76512">
        <ele>203.9</ele>
        <time>2021-03-27T15:23:49Z</time>
      </trkpt>
      <trkpt lat="44.20395" lon="1.76513">
        <ele>203.5</ele>
        <time>2021-03-27T15:23:51Z</time>
      </trkpt>
      <trkpt lat="44.20388" lon="1.76514">
        <ele>203</ele>
        <time>2021-03-27T15:23:53Z</time>
      </trkpt>
      <trkpt lat="44.20382" lon="1.76518">
        <ele>201.7</ele>
        <time>2021-03-27T15:23:55Z</time>
      </trkpt>
      <trkpt lat="44.20379" lon="1.76523">
        <ele>200.7</ele>
        <time>2021-03-27T15:23:57Z</time>
      </trkpt>
      <trkpt lat="44.20379" lon="1.76523">
        <ele>200.6</ele>
        <time>2021-03-27T15:23:58Z</time>
      </trkpt>
      <trkpt lat="44.20382" lon="1.76525">
        <ele>200.1</ele>
        <time>2021-03-27T15:24:52Z</time>
      </trkpt>
      <trkpt lat="44.20384" lon="1.76531">
        <ele>199.6</ele>
        <time>2021-03-27T15:24:54Z</time>
      </trkpt>
      <trkpt lat="44.20387" lon="1.76541">
        <ele>198.6</ele>
        <time>2021-03-27T15:24:56Z</time>
      </trkpt>
      <trkpt lat="44.20389" lon="1.76553">
        <ele>197</ele>
        <time>2021-03-27T15:24:58Z</time>
      </trkpt>
      <trkpt lat="44.2039" lon="1.76563">
        <ele>196</ele>
        <time>2021-03-27T15:25:00Z</time>
      </trkpt>
      <trkpt lat="44.20391" lon="1.76575">
        <ele>195.3</ele>
        <time>2021-03-27T15:25:02Z</time>
      </trkpt>
      <trkpt lat="44.2039" lon="1.76586">
        <ele>194.5</ele>
        <time>2021-03-27T15:25:04Z</time>
      </trkpt>
      <trkpt lat="44.2039" lon="1.76594">
        <ele>193.9</ele>
        <time>2021-03-27T15:25:05Z</time>
      </trkpt>
      <trkpt lat="44.20392" lon="1.76602">
        <ele>193.5</ele>
        <time>2021-03-27T15:25:06Z</time>
      </trkpt>
      <trkpt lat="44.20394" lon="1.7661">
        <ele>194.2</ele>
        <time>2021-03-27T15:25:07Z</time>
      </trkpt>
      <trkpt lat="44.20397" lon="1.76616">
        <ele>194.7</ele>
        <time>2021-03-27T15:25:08Z</time>
      </trkpt>
      <trkpt lat="44.204" lon="1.76627">
        <ele>195.4</ele>
        <time>2021-03-27T15:25:10Z</time>
      </trkpt>
      <trkpt lat="44.20402" lon="1.76635">
        <ele>195.8</ele>
        <time>2021-03-27T15:25:12Z</time>
      </trkpt>
      <trkpt lat="44.20403" lon="1.76642">
        <ele>196.2</ele>
        <time>2021-03-27T15:25:14Z</time>
      </trkpt>
      <trkpt lat="44.20404" lon="1.76648">
        <ele>196.5</ele>
        <time>2021-03-27T15:25:16Z</time>
      </trkpt>
      <trkpt lat="44.20405" lon="1.76656">
        <ele>196.9</ele>
        <time>2021-03-27T15:25:19Z</time>
      </trkpt>
      <trkpt lat="44.20405" lon="1.76663">
        <ele>197.2</ele>
        <time>2021-03-27T15:25:22Z</time>
      </trkpt>
      <trkpt lat="44.20406" lon="1.7667">
        <ele>197.5</ele>
        <time>2021-03-27T15:25:25Z</time>
      </trkpt>
      <trkpt lat="44.20407" lon="1.76678">
        <ele>198</ele>
        <time>2021-03-27T15:25:28Z</time>
      </trkpt>
      <trkpt lat="44.20408" lon="1.76685">
        <ele>198.3</ele>
        <time>2021-03-27T15:25:30Z</time>
      </trkpt>
      <trkpt lat="44.20408" lon="1.76692">
        <ele>198.7</ele>
        <time>2021-03-27T15:25:32Z</time>
      </trkpt>
      <trkpt lat="44.20409" lon="1.767">
        <ele>199.2</ele>
        <time>2021-03-27T15:25:34Z</time>
      </trkpt>
      <trkpt lat="44.20409" lon="1.76708">
        <ele>199.7</ele>
        <time>2021-03-27T15:25:36Z</time>
      </trkpt>
      <trkpt lat="44.2041" lon="1.76717">
        <ele>200.2</ele>
        <time>2021-03-27T15:25:38Z</time>
      </trkpt>
      <trkpt lat="44.20411" lon="1.76726">
        <ele>200.8</ele>
        <time>2021-03-27T15:25:40Z</time>
      </trkpt>
      <trkpt lat="44.2041" lon="1.76735">
        <ele>201.3</ele>
        <time>2021-03-27T15:25:42Z</time>
      </trkpt>
      <trkpt lat="44.20411" lon="1.76743">
        <ele>201.9</ele>
        <time>2021-03-27T15:25:44Z</time>
      </trkpt>
      <trkpt lat="44.20412" lon="1.76752">
        <ele>202.5</ele>
        <time>2021-03-27T15:25:46Z</time>
      </trkpt>
      <trkpt lat="44.20412" lon="1.7676">
        <ele>203.2</ele>
        <time>2021-03-27T15:25:48Z</time>
      </trkpt>
      <trkpt lat="44.20413" lon="1.76768">
        <ele>203.9</ele>
        <time>2021-03-27T15:25:50Z</time>
      </trkpt>
      <trkpt lat="44.20413" lon="1.76776">
        <ele>204.6</ele>
        <time>2021-03-27T15:25:52Z</time>
      </trkpt>
      <trkpt lat="44.20414" lon="1.76784">
        <ele>205.4</ele>
        <time>2021-03-27T15:25:54Z</time>
      </trkpt>
      <trkpt lat="44.20415" lon="1.76793">
        <ele>206.2</ele>
        <time>2021-03-27T15:25:56Z</time>
      </trkpt>
      <trkpt lat="44.20416" lon="1.76801">
        <ele>207</ele>
        <time>2021-03-27T15:25:58Z</time>
      </trkpt>
      <trkpt lat="44.20417" lon="1.7681">
        <ele>208</ele>
        <time>2021-03-27T15:26:00Z</time>
      </trkpt>
      <trkpt lat="44.20418" lon="1.76818">
        <ele>208.8</ele>
        <time>2021-03-27T15:26:02Z</time>
      </trkpt>
      <trkpt lat="44.20419" lon="1.76827">
        <ele>209.7</ele>
        <time>2021-03-27T15:26:04Z</time>
      </trkpt>
      <trkpt lat="44.20419" lon="1.76836">
        <ele>210.7</ele>
        <time>2021-03-27T15:26:06Z</time>
      </trkpt>
      <trkpt lat="44.20421" lon="1.76844">
        <ele>211.5</ele>
        <time>2021-03-27T15:26:08Z</time>
      </trkpt>
      <trkpt lat="44.20424" lon="1.76852">
        <ele>212.5</ele>
        <time>2021-03-27T15:26:10Z</time>
      </trkpt>
      <trkpt lat="44.20427" lon="1.7686">
        <ele>213.4</ele>
        <time>2021-03-27T15:26:12Z</time>
      </trkpt>
      <trkpt lat="44.20431" lon="1.76867">
        <ele>214.5</ele>
        <time>2021-03-27T15:26:14Z</time>
      </trkpt>
      <trkpt lat="44.20436" lon="1.76873">
        <ele>215.3</ele>
        <time>2021-03-27T15:26:16Z</time>
      </trkpt>
      <trkpt lat="44.2044" lon="1.76877">
        <ele>215.8</ele>
        <time>2021-03-27T15:26:18Z</time>
      </trkpt>
      <trkpt lat="44.20443" lon="1.76883">
        <ele>216.1</ele>
        <time>2021-03-27T15:26:20Z</time>
      </trkpt>
      <trkpt lat="44.20447" lon="1.7689">
        <ele>216.3</ele>
        <time>2021-03-27T15:26:22Z</time>
      </trkpt>
      <trkpt lat="44.20449" lon="1.769">
        <ele>216.3</ele>
        <time>2021-03-27T15:26:24Z</time>
      </trkpt>
      <trkpt lat="44.20452" lon="1.76909">
        <ele>216.2</ele>
        <time>2021-03-27T15:26:26Z</time>
      </trkpt>
      <trkpt lat="44.20454" lon="1.76918">
        <ele>216.3</ele>
        <time>2021-03-27T15:26:28Z</time>
      </trkpt>
      <trkpt lat="44.20457" lon="1.76926">
        <ele>216.3</ele>
        <time>2021-03-27T15:26:30Z</time>
      </trkpt>
      <trkpt lat="44.20461" lon="1.76934">
        <ele>216.3</ele>
        <time>2021-03-27T15:26:32Z</time>
      </trkpt>
      <trkpt lat="44.20463" lon="1.76944">
        <ele>216.3</ele>
        <time>2021-03-27T15:26:34Z</time>
      </trkpt>
      <trkpt lat="44.20465" lon="1.76955">
        <ele>216</ele>
        <time>2021-03-27T15:26:36Z</time>
      </trkpt>
      <trkpt lat="44.20466" lon="1.76962">
        <ele>215.9</ele>
        <time>2021-03-27T15:26:37Z</time>
      </trkpt>
      <trkpt lat="44.20467" lon="1.76968">
        <ele>215.7</ele>
        <time>2021-03-27T15:26:38Z</time>
      </trkpt>
      <trkpt lat="44.20469" lon="1.76974">
        <ele>215.5</ele>
        <time>2021-03-27T15:26:39Z</time>
      </trkpt>
      <trkpt lat="44.20472" lon="1.76984">
        <ele>215.5</ele>
        <time>2021-03-27T15:26:41Z</time>
      </trkpt>
      <trkpt lat="44.20475" lon="1.76993">
        <ele>215.7</ele>
        <time>2021-03-27T15:26:43Z</time>
      </trkpt>
      <trkpt lat="44.20477" lon="1.77002">
        <ele>216</ele>
        <time>2021-03-27T15:26:45Z</time>
      </trkpt>
      <trkpt lat="44.20479" lon="1.77012">
        <ele>216.4</ele>
        <time>2021-03-27T15:26:47Z</time>
      </trkpt>
      <trkpt lat="44.2048" lon="1.7702">
        <ele>216.9</ele>
        <time>2021-03-27T15:26:49Z</time>
      </trkpt>
      <trkpt lat="44.20483" lon="1.77027">
        <ele>217.4</ele>
        <time>2021-03-27T15:26:51Z</time>
      </trkpt>
      <trkpt lat="44.20485" lon="1.77032">
        <ele>218</ele>
        <time>2021-03-27T15:26:54Z</time>
      </trkpt>
      <trkpt lat="44.2049" lon="1.77035">
        <ele>218.9</ele>
        <time>2021-03-27T15:27:22Z</time>
      </trkpt>
      <trkpt lat="44.20495" lon="1.77038">
        <ele>219.7</ele>
        <time>2021-03-27T15:27:27Z</time>
      </trkpt>
      <trkpt lat="44.20499" lon="1.77041">
        <ele>220.7</ele>
        <time>2021-03-27T15:29:10Z</time>
      </trkpt>
      <trkpt lat="44.20504" lon="1.77042">
        <ele>222</ele>
        <time>2021-03-27T15:29:16Z</time>
      </trkpt>
      <trkpt lat="44.20505" lon="1.77043">
        <ele>222.3</ele>
        <time>2021-03-27T15:29:17Z</time>
      </trkpt>
      <trkpt lat="44.2051" lon="1.77045">
        <ele>223.6</ele>
        <time>2021-03-27T15:29:24Z</time>
      </trkpt>
      <trkpt lat="44.20514" lon="1.77047">
        <ele>224.8</ele>
        <time>2021-03-27T15:29:32Z</time>
      </trkpt>
      <trkpt lat="44.20518" lon="1.77045">
        <ele>226</ele>
        <time>2021-03-27T15:29:44Z</time>
      </trkpt>
      <trkpt lat="44.20522" lon="1.77049">
        <ele>227.3</ele>
        <time>2021-03-27T15:30:00Z</time>
      </trkpt>
      <trkpt lat="44.20526" lon="1.77053">
        <ele>228.5</ele>
        <time>2021-03-27T15:30:12Z</time>
      </trkpt>
      <trkpt lat="44.20528" lon="1.77058">
        <ele>229.6</ele>
        <time>2021-03-27T15:30:15Z</time>
      </trkpt>
      <trkpt lat="44.2053" lon="1.77061">
        <ele>230.5</ele>
        <time>2021-03-27T15:30:18Z</time>
      </trkpt>
      <trkpt lat="44.20532" lon="1.77064">
        <ele>231.2</ele>
        <time>2021-03-27T15:30:20Z</time>
      </trkpt>
      <trkpt lat="44.20533" lon="1.77066">
        <ele>231.7</ele>
        <time>2021-03-27T15:30:22Z</time>
      </trkpt>
      <trkpt lat="44.20535" lon="1.77071">
        <ele>232.5</ele>
        <time>2021-03-27T15:30:25Z</time>
      </trkpt>
      <trkpt lat="44.20537" lon="1.77077">
        <ele>233.7</ele>
        <time>2021-03-27T15:30:37Z</time>
      </trkpt>
      <trkpt lat="44.2054" lon="1.77082">
        <ele>234.7</ele>
        <time>2021-03-27T15:30:45Z</time>
      </trkpt>
      <trkpt lat="44.20544" lon="1.77087">
        <ele>236</ele>
        <time>2021-03-27T15:31:00Z</time>
      </trkpt>
      <trkpt lat="44.20547" lon="1.77093">
        <ele>237.5</ele>
        <time>2021-03-27T15:31:18Z</time>
      </trkpt>
      <trkpt lat="44.2055" lon="1.77096">
        <ele>238.5</ele>
        <time>2021-03-27T15:31:21Z</time>
      </trkpt>
      <trkpt lat="44.20555" lon="1.77099">
        <ele>239.9</ele>
        <time>2021-03-27T15:31:29Z</time>
      </trkpt>
      <trkpt lat="44.20559" lon="1.77103">
        <ele>241.1</ele>
        <time>2021-03-27T15:31:40Z</time>
      </trkpt>
      <trkpt lat="44.20562" lon="1.77107">
        <ele>242.3</ele>
        <time>2021-03-27T15:31:53Z</time>
      </trkpt>
      <trkpt lat="44.20566" lon="1.77111">
        <ele>243.6</ele>
        <time>2021-03-27T15:32:01Z</time>
      </trkpt>
      <trkpt lat="44.20569" lon="1.77117">
        <ele>245</ele>
        <time>2021-03-27T15:32:10Z</time>
      </trkpt>
      <trkpt lat="44.20571" lon="1.77122">
        <ele>246.4</ele>
        <time>2021-03-27T15:32:17Z</time>
      </trkpt>
      <trkpt lat="44.20574" lon="1.77129">
        <ele>247.9</ele>
        <time>2021-03-27T15:32:25Z</time>
      </trkpt>
      <trkpt lat="44.20578" lon="1.77134">
        <ele>249.3</ele>
        <time>2021-03-27T15:32:32Z</time>
      </trkpt>
      <trkpt lat="44.20581" lon="1.77138">
        <ele>250.6</ele>
        <time>2021-03-27T15:32:39Z</time>
      </trkpt>
      <trkpt lat="44.20585" lon="1.77142">
        <ele>252</ele>
        <time>2021-03-27T15:32:52Z</time>
      </trkpt>
      <trkpt lat="44.20587" lon="1.77148">
        <ele>253.4</ele>
        <time>2021-03-27T15:33:02Z</time>
      </trkpt>
      <trkpt lat="44.20589" lon="1.77153">
        <ele>254.7</ele>
        <time>2021-03-27T15:33:06Z</time>
      </trkpt>
      <trkpt lat="44.2059" lon="1.77155">
        <ele>255</ele>
        <time>2021-03-27T15:33:07Z</time>
      </trkpt>
      <trkpt lat="44.20592" lon="1.77161">
        <ele>256.5</ele>
        <time>2021-03-27T15:33:13Z</time>
      </trkpt>
      <trkpt lat="44.20594" lon="1.77167">
        <ele>257.8</ele>
        <time>2021-03-27T15:33:23Z</time>
      </trkpt>
      <trkpt lat="44.20597" lon="1.77172">
        <ele>259</ele>
        <time>2021-03-27T15:33:35Z</time>
      </trkpt>
      <trkpt lat="44.20599" lon="1.77178">
        <ele>260.2</ele>
        <time>2021-03-27T15:33:41Z</time>
      </trkpt>
      <trkpt lat="44.20602" lon="1.77184">
        <ele>261.4</ele>
        <time>2021-03-27T15:33:48Z</time>
      </trkpt>
      <trkpt lat="44.20604" lon="1.77189">
        <ele>262.5</ele>
        <time>2021-03-27T15:33:53Z</time>
      </trkpt>
      <trkpt lat="44.20607" lon="1.77195">
        <ele>263.7</ele>
        <time>2021-03-27T15:34:01Z</time>
      </trkpt>
      <trkpt lat="44.2061" lon="1.77202">
        <ele>264.7</ele>
        <time>2021-03-27T15:34:07Z</time>
      </trkpt>
      <trkpt lat="44.20613" lon="1.77208">
        <ele>265.5</ele>
        <time>2021-03-27T15:34:16Z</time>
      </trkpt>
      <trkpt lat="44.20613" lon="1.7721">
        <ele>265.7</ele>
        <time>2021-03-27T15:34:17Z</time>
      </trkpt>
      <trkpt lat="44.20616" lon="1.77214">
        <ele>266.3</ele>
        <time>2021-03-27T15:34:20Z</time>
      </trkpt>
      <trkpt lat="44.2062" lon="1.77219">
        <ele>266.8</ele>
        <time>2021-03-27T15:34:23Z</time>
      </trkpt>
      <trkpt lat="44.20623" lon="1.77225">
        <ele>267.4</ele>
        <time>2021-03-27T15:34:26Z</time>
      </trkpt>
      <trkpt lat="44.20627" lon="1.77232">
        <ele>267.9</ele>
        <time>2021-03-27T15:34:29Z</time>
      </trkpt>
      <trkpt lat="44.20629" lon="1.77233">
        <ele>268.2</ele>
        <time>2021-03-27T15:34:31Z</time>
      </trkpt>
      <trkpt lat="44.20631" lon="1.77235">
        <ele>268.3</ele>
        <time>2021-03-27T15:34:32Z</time>
      </trkpt>
      <trkpt lat="44.20635" lon="1.7724">
        <ele>268.9</ele>
        <time>2021-03-27T15:34:35Z</time>
      </trkpt>
      <trkpt lat="44.20638" lon="1.77242">
        <ele>269.5</ele>
        <time>2021-03-27T15:34:38Z</time>
      </trkpt>
      <trkpt lat="44.20643" lon="1.77243">
        <ele>270.2</ele>
        <time>2021-03-27T15:34:46Z</time>
      </trkpt>
      <trkpt lat="44.20648" lon="1.77245">
        <ele>271.3</ele>
        <time>2021-03-27T15:34:56Z</time>
      </trkpt>
      <trkpt lat="44.20652" lon="1.77248">
        <ele>272.5</ele>
        <time>2021-03-27T15:35:21Z</time>
      </trkpt>
      <trkpt lat="44.20657" lon="1.77249">
        <ele>273.9</ele>
        <time>2021-03-27T15:35:27Z</time>
      </trkpt>
      <trkpt lat="44.2066" lon="1.77254">
        <ele>275.2</ele>
        <time>2021-03-27T15:35:33Z</time>
      </trkpt>
      <trkpt lat="44.20665" lon="1.77251">
        <ele>276.5</ele>
        <time>2021-03-27T15:36:21Z</time>
      </trkpt>
      <trkpt lat="44.20669" lon="1.77252">
        <ele>277.6</ele>
        <time>2021-03-27T15:36:27Z</time>
      </trkpt>
      <trkpt lat="44.20673" lon="1.77257">
        <ele>278.8</ele>
        <time>2021-03-27T15:36:34Z</time>
      </trkpt>
      <trkpt lat="44.20675" lon="1.7726">
        <ele>279.3</ele>
        <time>2021-03-27T15:36:36Z</time>
      </trkpt>
      <trkpt lat="44.20678" lon="1.77262">
        <ele>279.8</ele>
        <time>2021-03-27T15:36:40Z</time>
      </trkpt>
      <trkpt lat="44.20679" lon="1.77262">
        <ele>280</ele>
        <time>2021-03-27T15:36:41Z</time>
      </trkpt>
      <trkpt lat="44.20681" lon="1.77264">
        <ele>280.4</ele>
        <time>2021-03-27T15:36:43Z</time>
      </trkpt>
      <trkpt lat="44.20686" lon="1.77267">
        <ele>281.5</ele>
        <time>2021-03-27T15:36:47Z</time>
      </trkpt>
      <trkpt lat="44.2069" lon="1.77272">
        <ele>282.6</ele>
        <time>2021-03-27T15:36:51Z</time>
      </trkpt>
      <trkpt lat="44.20695" lon="1.77276">
        <ele>283.7</ele>
        <time>2021-03-27T15:36:55Z</time>
      </trkpt>
      <trkpt lat="44.20699" lon="1.77281">
        <ele>284.7</ele>
        <time>2021-03-27T15:36:58Z</time>
      </trkpt>
      <trkpt lat="44.20702" lon="1.77285">
        <ele>285.6</ele>
        <time>2021-03-27T15:37:01Z</time>
      </trkpt>
      <trkpt lat="44.20705" lon="1.77287">
        <ele>286.4</ele>
        <time>2021-03-27T15:37:04Z</time>
      </trkpt>
      <trkpt lat="44.20707" lon="1.77288">
        <ele>286.7</ele>
        <time>2021-03-27T15:37:05Z</time>
      </trkpt>
      <trkpt lat="44.20707" lon="1.77287">
        <ele>286.8</ele>
        <time>2021-03-27T15:37:06Z</time>
      </trkpt>
      <trkpt lat="44.20711" lon="1.7729">
        <ele>287.7</ele>
        <time>2021-03-27T15:37:12Z</time>
      </trkpt>
      <trkpt lat="44.20716" lon="1.77291">
        <ele>288.7</ele>
        <time>2021-03-27T15:37:18Z</time>
      </trkpt>
      <trkpt lat="44.2072" lon="1.77296">
        <ele>289.8</ele>
        <time>2021-03-27T15:37:24Z</time>
      </trkpt>
      <trkpt lat="44.20725" lon="1.77298">
        <ele>290.8</ele>
        <time>2021-03-27T15:37:29Z</time>
      </trkpt>
      <trkpt lat="44.20726" lon="1.77299">
        <ele>291.1</ele>
        <time>2021-03-27T15:37:30Z</time>
      </trkpt>
      <trkpt lat="44.20731" lon="1.773">
        <ele>292.2</ele>
        <time>2021-03-27T15:37:37Z</time>
      </trkpt>
      <trkpt lat="44.20736" lon="1.773">
        <ele>293.4</ele>
        <time>2021-03-27T15:37:52Z</time>
      </trkpt>
      <trkpt lat="44.2074" lon="1.77302">
        <ele>294.4</ele>
        <time>2021-03-27T15:37:58Z</time>
      </trkpt>
      <trkpt lat="44.20745" lon="1.77301">
        <ele>295.5</ele>
        <time>2021-03-27T15:38:04Z</time>
      </trkpt>
      <trkpt lat="44.20749" lon="1.77301">
        <ele>296.5</ele>
        <time>2021-03-27T15:38:12Z</time>
      </trkpt>
      <trkpt lat="44.20754" lon="1.77301">
        <ele>297.7</ele>
        <time>2021-03-27T15:38:21Z</time>
      </trkpt>
      <trkpt lat="44.20759" lon="1.77302">
        <ele>298.8</ele>
        <time>2021-03-27T15:38:29Z</time>
      </trkpt>
      <trkpt lat="44.20764" lon="1.77303">
        <ele>299.8</ele>
        <time>2021-03-27T15:38:37Z</time>
      </trkpt>
      <trkpt lat="44.20767" lon="1.77307">
        <ele>301.1</ele>
        <time>2021-03-27T15:38:43Z</time>
      </trkpt>
      <trkpt lat="44.20771" lon="1.77311">
        <ele>301.9</ele>
        <time>2021-03-27T15:38:49Z</time>
      </trkpt>
      <trkpt lat="44.20774" lon="1.77316">
        <ele>302.7</ele>
        <time>2021-03-27T15:39:01Z</time>
      </trkpt>
      <trkpt lat="44.20778" lon="1.77321">
        <ele>303.5</ele>
        <time>2021-03-27T15:39:09Z</time>
      </trkpt>
      <trkpt lat="44.20782" lon="1.77326">
        <ele>304.2</ele>
        <time>2021-03-27T15:39:14Z</time>
      </trkpt>
      <trkpt lat="44.20786" lon="1.77328">
        <ele>304.7</ele>
        <time>2021-03-27T15:39:21Z</time>
      </trkpt>
      <trkpt lat="44.2079" lon="1.77332">
        <ele>305.2</ele>
        <time>2021-03-27T15:39:24Z</time>
      </trkpt>
      <trkpt lat="44.20796" lon="1.77337">
        <ele>305.8</ele>
        <time>2021-03-27T15:39:27Z</time>
      </trkpt>
      <trkpt lat="44.20801" lon="1.77342">
        <ele>306.2</ele>
        <time>2021-03-27T15:39:29Z</time>
      </trkpt>
      <trkpt lat="44.20805" lon="1.77345">
        <ele>306.5</ele>
        <time>2021-03-27T15:39:31Z</time>
      </trkpt>
      <trkpt lat="44.2081" lon="1.77347">
        <ele>306.8</ele>
        <time>2021-03-27T15:39:34Z</time>
      </trkpt>
      <trkpt lat="44.20815" lon="1.7735">
        <ele>307</ele>
        <time>2021-03-27T15:39:37Z</time>
      </trkpt>
      <trkpt lat="44.2082" lon="1.77352">
        <ele>307.3</ele>
        <time>2021-03-27T15:39:40Z</time>
      </trkpt>
      <trkpt lat="44.20825" lon="1.77349">
        <ele>307.6</ele>
        <time>2021-03-27T15:39:43Z</time>
      </trkpt>
      <trkpt lat="44.20829" lon="1.77345">
        <ele>307.8</ele>
        <time>2021-03-27T15:39:46Z</time>
      </trkpt>
      <trkpt lat="44.20831" lon="1.77339">
        <ele>308.1</ele>
        <time>2021-03-27T15:39:49Z</time>
      </trkpt>
      <trkpt lat="44.20836" lon="1.77336">
        <ele>308.4</ele>
        <time>2021-03-27T15:39:52Z</time>
      </trkpt>
      <trkpt lat="44.20841" lon="1.77338">
        <ele>308.7</ele>
        <time>2021-03-27T15:39:55Z</time>
      </trkpt>
      <trkpt lat="44.20846" lon="1.77339">
        <ele>309</ele>
        <time>2021-03-27T15:39:58Z</time>
      </trkpt>
      <trkpt lat="44.20848" lon="1.7734">
        <ele>309.1</ele>
        <time>2021-03-27T15:40:00Z</time>
      </trkpt>
      <trkpt lat="44.20849" lon="1.7734">
        <ele>309.2</ele>
        <time>2021-03-27T15:40:01Z</time>
      </trkpt>
      <trkpt lat="44.20853" lon="1.77341">
        <ele>309.3</ele>
        <time>2021-03-27T15:40:04Z</time>
      </trkpt>
      <trkpt lat="44.20855" lon="1.77341">
        <ele>309.4</ele>
        <time>2021-03-27T15:40:05Z</time>
      </trkpt>
      <trkpt lat="44.2086" lon="1.77342">
        <ele>309.5</ele>
        <time>2021-03-27T15:40:08Z</time>
      </trkpt>
      <trkpt lat="44.20865" lon="1.77344">
        <ele>309.6</ele>
        <time>2021-03-27T15:40:10Z</time>
      </trkpt>
      <trkpt lat="44.2087" lon="1.77347">
        <ele>309.7</ele>
        <time>2021-03-27T15:40:13Z</time>
      </trkpt>
      <trkpt lat="44.20876" lon="1.7735">
        <ele>309.7</ele>
        <time>2021-03-27T15:40:16Z</time>
      </trkpt>
      <trkpt lat="44.20881" lon="1.77353">
        <ele>309.8</ele>
        <time>2021-03-27T15:40:19Z</time>
      </trkpt>
      <trkpt lat="44.20887" lon="1.77356">
        <ele>309.8</ele>
        <time>2021-03-27T15:40:21Z</time>
      </trkpt>
      <trkpt lat="44.20892" lon="1.77358">
        <ele>309.7</ele>
        <time>2021-03-27T15:40:23Z</time>
      </trkpt>
      <trkpt lat="44.20897" lon="1.77355">
        <ele>309.7</ele>
        <time>2021-03-27T15:40:25Z</time>
      </trkpt>
      <trkpt lat="44.20901" lon="1.7735">
        <ele>309.6</ele>
        <time>2021-03-27T15:40:27Z</time>
      </trkpt>
      <trkpt lat="44.20902" lon="1.77344">
        <ele>309.6</ele>
        <time>2021-03-27T15:40:29Z</time>
      </trkpt>
      <trkpt lat="44.20903" lon="1.77337">
        <ele>309.5</ele>
        <time>2021-03-27T15:40:31Z</time>
      </trkpt>
      <trkpt lat="44.20904" lon="1.77328">
        <ele>309.6</ele>
        <time>2021-03-27T15:40:34Z</time>
      </trkpt>
      <trkpt lat="44.20905" lon="1.77321">
        <ele>309.7</ele>
        <time>2021-03-27T15:40:36Z</time>
      </trkpt>
      <trkpt lat="44.20906" lon="1.77312">
        <ele>309.9</ele>
        <time>2021-03-27T15:40:39Z</time>
      </trkpt>
      <trkpt lat="44.20909" lon="1.77304">
        <ele>310.1</ele>
        <time>2021-03-27T15:40:42Z</time>
      </trkpt>
      <trkpt lat="44.20911" lon="1.77297">
        <ele>310.3</ele>
        <time>2021-03-27T15:40:44Z</time>
      </trkpt>
      <trkpt lat="44.20912" lon="1.77289">
        <ele>310.6</ele>
        <time>2021-03-27T15:40:46Z</time>
      </trkpt>
      <trkpt lat="44.20914" lon="1.77282">
        <ele>310.8</ele>
        <time>2021-03-27T15:40:48Z</time>
      </trkpt>
      <trkpt lat="44.20914" lon="1.77275">
        <ele>311</ele>
        <time>2021-03-27T15:40:50Z</time>
      </trkpt>
      <trkpt lat="44.20915" lon="1.77268">
        <ele>311.2</ele>
        <time>2021-03-27T15:40:52Z</time>
      </trkpt>
      <trkpt lat="44.20915" lon="1.77262">
        <ele>311.4</ele>
        <time>2021-03-27T15:40:54Z</time>
      </trkpt>
      <trkpt lat="44.20916" lon="1.77254">
        <ele>311.6</ele>
        <time>2021-03-27T15:40:56Z</time>
      </trkpt>
      <trkpt lat="44.20919" lon="1.77248">
        <ele>311.8</ele>
        <time>2021-03-27T15:40:58Z</time>
      </trkpt>
      <trkpt lat="44.20922" lon="1.77243">
        <ele>311.9</ele>
        <time>2021-03-27T15:41:00Z</time>
      </trkpt>
      <trkpt lat="44.20925" lon="1.77236">
        <ele>311.9</ele>
        <time>2021-03-27T15:41:02Z</time>
      </trkpt>
      <trkpt lat="44.20927" lon="1.77228">
        <ele>311.9</ele>
        <time>2021-03-27T15:41:04Z</time>
      </trkpt>
      <trkpt lat="44.2093" lon="1.77222">
        <ele>311.9</ele>
        <time>2021-03-27T15:41:06Z</time>
      </trkpt>
      <trkpt lat="44.20933" lon="1.77215">
        <ele>311.9</ele>
        <time>2021-03-27T15:41:08Z</time>
      </trkpt>
      <trkpt lat="44.20936" lon="1.77209">
        <ele>312</ele>
        <time>2021-03-27T15:41:10Z</time>
      </trkpt>
      <trkpt lat="44.2094" lon="1.77203">
        <ele>312</ele>
        <time>2021-03-27T15:41:12Z</time>
      </trkpt>
      <trkpt lat="44.20943" lon="1.77197">
        <ele>312.1</ele>
        <time>2021-03-27T15:41:14Z</time>
      </trkpt>
      <trkpt lat="44.20946" lon="1.7719">
        <ele>312.2</ele>
        <time>2021-03-27T15:41:16Z</time>
      </trkpt>
      <trkpt lat="44.20951" lon="1.77186">
        <ele>312.4</ele>
        <time>2021-03-27T15:41:19Z</time>
      </trkpt>
      <trkpt lat="44.20957" lon="1.77184">
        <ele>312.5</ele>
        <time>2021-03-27T15:41:22Z</time>
      </trkpt>
      <trkpt lat="44.20961" lon="1.77183">
        <ele>312.6</ele>
        <time>2021-03-27T15:41:25Z</time>
      </trkpt>
      <trkpt lat="44.20964" lon="1.77179">
        <ele>313</ele>
        <time>2021-03-27T15:42:02Z</time>
      </trkpt>
      <trkpt lat="44.20969" lon="1.77182">
        <ele>313</ele>
        <time>2021-03-27T15:44:38Z</time>
      </trkpt>
      <trkpt lat="44.20975" lon="1.77186">
        <ele>313</ele>
        <time>2021-03-27T15:44:41Z</time>
      </trkpt>
      <trkpt lat="44.20981" lon="1.7719">
        <ele>313</ele>
        <time>2021-03-27T15:44:43Z</time>
      </trkpt>
      <trkpt lat="44.20988" lon="1.77195">
        <ele>313.1</ele>
        <time>2021-03-27T15:44:45Z</time>
      </trkpt>
      <trkpt lat="44.20995" lon="1.77199">
        <ele>313.1</ele>
        <time>2021-03-27T15:44:47Z</time>
      </trkpt>
      <trkpt lat="44.21003" lon="1.77204">
        <ele>313.1</ele>
        <time>2021-03-27T15:44:49Z</time>
      </trkpt>
      <trkpt lat="44.21011" lon="1.77208">
        <ele>313</ele>
        <time>2021-03-27T15:44:51Z</time>
      </trkpt>
      <trkpt lat="44.21016" lon="1.77209">
        <ele>313</ele>
        <time>2021-03-27T15:44:52Z</time>
      </trkpt>
      <trkpt lat="44.21021" lon="1.77211">
        <ele>313</ele>
        <time>2021-03-27T15:44:53Z</time>
      </trkpt>
      <trkpt lat="44.21025" lon="1.77212">
        <ele>313</ele>
        <time>2021-03-27T15:44:54Z</time>
      </trkpt>
      <trkpt lat="44.21034" lon="1.77215">
        <ele>313</ele>
        <time>2021-03-27T15:44:56Z</time>
      </trkpt>
      <trkpt lat="44.21042" lon="1.77218">
        <ele>313</ele>
        <time>2021-03-27T15:44:58Z</time>
      </trkpt>
      <trkpt lat="44.21051" lon="1.7722">
        <ele>312.9</ele>
        <time>2021-03-27T15:45:00Z</time>
      </trkpt>
      <trkpt lat="44.2106" lon="1.77222">
        <ele>312.8</ele>
        <time>2021-03-27T15:45:02Z</time>
      </trkpt>
      <trkpt lat="44.21068" lon="1.77224">
        <ele>312.7</ele>
        <time>2021-03-27T15:45:04Z</time>
      </trkpt>
      <trkpt lat="44.21077" lon="1.77226">
        <ele>312.6</ele>
        <time>2021-03-27T15:45:06Z</time>
      </trkpt>
      <trkpt lat="44.21081" lon="1.77227">
        <ele>312.5</ele>
        <time>2021-03-27T15:45:07Z</time>
      </trkpt>
      <trkpt lat="44.21086" lon="1.77228">
        <ele>312.5</ele>
        <time>2021-03-27T15:45:08Z</time>
      </trkpt>
      <trkpt lat="44.21095" lon="1.77231">
        <ele>312.3</ele>
        <time>2021-03-27T15:45:10Z</time>
      </trkpt>
      <trkpt lat="44.211" lon="1.77232">
        <ele>312.2</ele>
        <time>2021-03-27T15:45:11Z</time>
      </trkpt>
      <trkpt lat="44.21105" lon="1.77234">
        <ele>312.1</ele>
        <time>2021-03-27T15:45:12Z</time>
      </trkpt>
      <trkpt lat="44.2111" lon="1.77235">
        <ele>312</ele>
        <time>2021-03-27T15:45:13Z</time>
      </trkpt>
      <trkpt lat="44.21115" lon="1.77237">
        <ele>312</ele>
        <time>2021-03-27T15:45:14Z</time>
      </trkpt>
      <trkpt lat="44.2112" lon="1.77239">
        <ele>311.8</ele>
        <time>2021-03-27T15:45:15Z</time>
      </trkpt>
      <trkpt lat="44.21125" lon="1.77241">
        <ele>311.7</ele>
        <time>2021-03-27T15:45:16Z</time>
      </trkpt>
      <trkpt lat="44.2113" lon="1.77243">
        <ele>311.5</ele>
        <time>2021-03-27T15:45:17Z</time>
      </trkpt>
      <trkpt lat="44.21136" lon="1.77244">
        <ele>311.3</ele>
        <time>2021-03-27T15:45:18Z</time>
      </trkpt>
      <trkpt lat="44.21141" lon="1.77245">
        <ele>311</ele>
        <time>2021-03-27T15:45:19Z</time>
      </trkpt>
      <trkpt lat="44.21147" lon="1.77247">
        <ele>310.7</ele>
        <time>2021-03-27T15:45:20Z</time>
      </trkpt>
      <trkpt lat="44.21152" lon="1.77247">
        <ele>310.3</ele>
        <time>2021-03-27T15:45:21Z</time>
      </trkpt>
      <trkpt lat="44.21159" lon="1.77248">
        <ele>309.9</ele>
        <time>2021-03-27T15:45:22Z</time>
      </trkpt>
      <trkpt lat="44.21165" lon="1.77249">
        <ele>309.6</ele>
        <time>2021-03-27T15:45:23Z</time>
      </trkpt>
      <trkpt lat="44.21171" lon="1.7725">
        <ele>309.3</ele>
        <time>2021-03-27T15:45:24Z</time>
      </trkpt>
      <trkpt lat="44.21177" lon="1.7725">
        <ele>309</ele>
        <time>2021-03-27T15:45:25Z</time>
      </trkpt>
      <trkpt lat="44.21184" lon="1.77251">
        <ele>308.6</ele>
        <time>2021-03-27T15:45:26Z</time>
      </trkpt>
      <trkpt lat="44.2119" lon="1.77252">
        <ele>308.3</ele>
        <time>2021-03-27T15:45:27Z</time>
      </trkpt>
      <trkpt lat="44.21197" lon="1.77254">
        <ele>308</ele>
        <time>2021-03-27T15:45:28Z</time>
      </trkpt>
      <trkpt lat="44.21204" lon="1.77255">
        <ele>307.6</ele>
        <time>2021-03-27T15:45:29Z</time>
      </trkpt>
      <trkpt lat="44.21211" lon="1.77256">
        <ele>307.3</ele>
        <time>2021-03-27T15:45:30Z</time>
      </trkpt>
      <trkpt lat="44.21218" lon="1.77258">
        <ele>306.9</ele>
        <time>2021-03-27T15:45:31Z</time>
      </trkpt>
      <trkpt lat="44.21225" lon="1.77259">
        <ele>306.6</ele>
        <time>2021-03-27T15:45:32Z</time>
      </trkpt>
      <trkpt lat="44.21232" lon="1.77261">
        <ele>306.3</ele>
        <time>2021-03-27T15:45:33Z</time>
      </trkpt>
      <trkpt lat="44.21238" lon="1.77263">
        <ele>306.1</ele>
        <time>2021-03-27T15:45:34Z</time>
      </trkpt>
      <trkpt lat="44.21245" lon="1.77265">
        <ele>305.9</ele>
        <time>2021-03-27T15:45:35Z</time>
      </trkpt>
      <trkpt lat="44.21252" lon="1.77267">
        <ele>305.8</ele>
        <time>2021-03-27T15:45:36Z</time>
      </trkpt>
      <trkpt lat="44.21258" lon="1.77269">
        <ele>305.6</ele>
        <time>2021-03-27T15:45:37Z</time>
      </trkpt>
      <trkpt lat="44.21264" lon="1.77271">
        <ele>305.5</ele>
        <time>2021-03-27T15:45:38Z</time>
      </trkpt>
      <trkpt lat="44.2127" lon="1.77272">
        <ele>305.3</ele>
        <time>2021-03-27T15:45:39Z</time>
      </trkpt>
      <trkpt lat="44.21275" lon="1.77273">
        <ele>305.2</ele>
        <time>2021-03-27T15:45:40Z</time>
      </trkpt>
      <trkpt lat="44.21281" lon="1.77274">
        <ele>305.1</ele>
        <time>2021-03-27T15:45:41Z</time>
      </trkpt>
      <trkpt lat="44.21288" lon="1.77275">
        <ele>304.9</ele>
        <time>2021-03-27T15:45:42Z</time>
      </trkpt>
      <trkpt lat="44.21294" lon="1.77275">
        <ele>304.9</ele>
        <time>2021-03-27T15:45:43Z</time>
      </trkpt>
      <trkpt lat="44.213" lon="1.77276">
        <ele>304.8</ele>
        <time>2021-03-27T15:45:44Z</time>
      </trkpt>
      <trkpt lat="44.21306" lon="1.77277">
        <ele>304.8</ele>
        <time>2021-03-27T15:45:45Z</time>
      </trkpt>
      <trkpt lat="44.21312" lon="1.77278">
        <ele>304.8</ele>
        <time>2021-03-27T15:45:46Z</time>
      </trkpt>
      <trkpt lat="44.21318" lon="1.77279">
        <ele>304.8</ele>
        <time>2021-03-27T15:45:47Z</time>
      </trkpt>
      <trkpt lat="44.21324" lon="1.7728">
        <ele>304.9</ele>
        <time>2021-03-27T15:45:48Z</time>
      </trkpt>
      <trkpt lat="44.21329" lon="1.77281">
        <ele>305</ele>
        <time>2021-03-27T15:45:49Z</time>
      </trkpt>
      <trkpt lat="44.21335" lon="1.77282">
        <ele>305.3</ele>
        <time>2021-03-27T15:45:50Z</time>
      </trkpt>
      <trkpt lat="44.2134" lon="1.77283">
        <ele>305.5</ele>
        <time>2021-03-27T15:45:51Z</time>
      </trkpt>
      <trkpt lat="44.21346" lon="1.77284">
        <ele>305.8</ele>
        <time>2021-03-27T15:45:52Z</time>
      </trkpt>
      <trkpt lat="44.21351" lon="1.77284">
        <ele>306</ele>
        <time>2021-03-27T15:45:53Z</time>
      </trkpt>
      <trkpt lat="44.21356" lon="1.77285">
        <ele>306.2</ele>
        <time>2021-03-27T15:45:54Z</time>
      </trkpt>
      <trkpt lat="44.21361" lon="1.77286">
        <ele>306.4</ele>
        <time>2021-03-27T15:45:55Z</time>
      </trkpt>
      <trkpt lat="44.21366" lon="1.77286">
        <ele>306.6</ele>
        <time>2021-03-27T15:45:56Z</time>
      </trkpt>
      <trkpt lat="44.21371" lon="1.77287">
        <ele>306.8</ele>
        <time>2021-03-27T15:45:57Z</time>
      </trkpt>
      <trkpt lat="44.21376" lon="1.77287">
        <ele>307</ele>
        <time>2021-03-27T15:45:58Z</time>
      </trkpt>
      <trkpt lat="44.21381" lon="1.77287">
        <ele>307.2</ele>
        <time>2021-03-27T15:45:59Z</time>
      </trkpt>
      <trkpt lat="44.21385" lon="1.77287">
        <ele>307.5</ele>
        <time>2021-03-27T15:46:00Z</time>
      </trkpt>
      <trkpt lat="44.21393" lon="1.77287">
        <ele>307.9</ele>
        <time>2021-03-27T15:46:02Z</time>
      </trkpt>
      <trkpt lat="44.21401" lon="1.77287">
        <ele>308.3</ele>
        <time>2021-03-27T15:46:04Z</time>
      </trkpt>
      <trkpt lat="44.21406" lon="1.77287">
        <ele>308.6</ele>
        <time>2021-03-27T15:46:05Z</time>
      </trkpt>
      <trkpt lat="44.2141" lon="1.77287">
        <ele>308.9</ele>
        <time>2021-03-27T15:46:06Z</time>
      </trkpt>
      <trkpt lat="44.21419" lon="1.77288">
        <ele>309.3</ele>
        <time>2021-03-27T15:46:08Z</time>
      </trkpt>
      <trkpt lat="44.21427" lon="1.77288">
        <ele>309.8</ele>
        <time>2021-03-27T15:46:10Z</time>
      </trkpt>
      <trkpt lat="44.21435" lon="1.77289">
        <ele>310.3</ele>
        <time>2021-03-27T15:46:12Z</time>
      </trkpt>
      <trkpt lat="44.21442" lon="1.77291">
        <ele>310.8</ele>
        <time>2021-03-27T15:46:14Z</time>
      </trkpt>
      <trkpt lat="44.21449" lon="1.77293">
        <ele>311.2</ele>
        <time>2021-03-27T15:46:16Z</time>
      </trkpt>
      <trkpt lat="44.21456" lon="1.77294">
        <ele>311.6</ele>
        <time>2021-03-27T15:46:18Z</time>
      </trkpt>
      <trkpt lat="44.21462" lon="1.77296">
        <ele>311.9</ele>
        <time>2021-03-27T15:46:20Z</time>
      </trkpt>
      <trkpt lat="44.21469" lon="1.77297">
        <ele>312.2</ele>
        <time>2021-03-27T15:46:22Z</time>
      </trkpt>
      <trkpt lat="44.21476" lon="1.77299">
        <ele>312.5</ele>
        <time>2021-03-27T15:46:24Z</time>
      </trkpt>
      <trkpt lat="44.21483" lon="1.773">
        <ele>312.8</ele>
        <time>2021-03-27T15:46:26Z</time>
      </trkpt>
      <trkpt lat="44.2149" lon="1.77302">
        <ele>313</ele>
        <time>2021-03-27T15:46:28Z</time>
      </trkpt>
      <trkpt lat="44.21498" lon="1.77303">
        <ele>313.3</ele>
        <time>2021-03-27T15:46:30Z</time>
      </trkpt>
      <trkpt lat="44.21506" lon="1.77305">
        <ele>313.6</ele>
        <time>2021-03-27T15:46:32Z</time>
      </trkpt>
      <trkpt lat="44.21514" lon="1.77305">
        <ele>313.9</ele>
        <time>2021-03-27T15:46:34Z</time>
      </trkpt>
      <trkpt lat="44.21522" lon="1.77304">
        <ele>314.1</ele>
        <time>2021-03-27T15:46:36Z</time>
      </trkpt>
      <trkpt lat="44.2153" lon="1.77303">
        <ele>314.4</ele>
        <time>2021-03-27T15:46:38Z</time>
      </trkpt>
      <trkpt lat="44.21538" lon="1.77301">
        <ele>314.6</ele>
        <time>2021-03-27T15:46:40Z</time>
      </trkpt>
      <trkpt lat="44.21545" lon="1.77299">
        <ele>314.9</ele>
        <time>2021-03-27T15:46:42Z</time>
      </trkpt>
      <trkpt lat="44.21552" lon="1.77296">
        <ele>314.9</ele>
        <time>2021-03-27T15:46:44Z</time>
      </trkpt>
      <trkpt lat="44.2156" lon="1.77293">
        <ele>315</ele>
        <time>2021-03-27T15:46:46Z</time>
      </trkpt>
      <trkpt lat="44.21568" lon="1.77289">
        <ele>315</ele>
        <time>2021-03-27T15:46:48Z</time>
      </trkpt>
      <trkpt lat="44.21575" lon="1.77286">
        <ele>315</ele>
        <time>2021-03-27T15:46:50Z</time>
      </trkpt>
      <trkpt lat="44.21582" lon="1.77281">
        <ele>315</ele>
        <time>2021-03-27T15:46:52Z</time>
      </trkpt>
      <trkpt lat="44.2159" lon="1.77276">
        <ele>314.9</ele>
        <time>2021-03-27T15:46:54Z</time>
      </trkpt>
      <trkpt lat="44.21597" lon="1.7727">
        <ele>314.9</ele>
        <time>2021-03-27T15:46:56Z</time>
      </trkpt>
      <trkpt lat="44.21604" lon="1.77264">
        <ele>314.8</ele>
        <time>2021-03-27T15:46:58Z</time>
      </trkpt>
      <trkpt lat="44.21609" lon="1.77256">
        <ele>314.8</ele>
        <time>2021-03-27T15:47:00Z</time>
      </trkpt>
      <trkpt lat="44.21614" lon="1.77249">
        <ele>314.9</ele>
        <time>2021-03-27T15:47:02Z</time>
      </trkpt>
      <trkpt lat="44.21619" lon="1.7724">
        <ele>315</ele>
        <time>2021-03-27T15:47:04Z</time>
      </trkpt>
      <trkpt lat="44.21624" lon="1.77232">
        <ele>315.1</ele>
        <time>2021-03-27T15:47:06Z</time>
      </trkpt>
      <trkpt lat="44.2163" lon="1.77223">
        <ele>315.2</ele>
        <time>2021-03-27T15:47:08Z</time>
      </trkpt>
      <trkpt lat="44.21636" lon="1.77214">
        <ele>315.3</ele>
        <time>2021-03-27T15:47:10Z</time>
      </trkpt>
      <trkpt lat="44.21641" lon="1.77204">
        <ele>315.3</ele>
        <time>2021-03-27T15:47:12Z</time>
      </trkpt>
      <trkpt lat="44.21647" lon="1.77195">
        <ele>315.4</ele>
        <time>2021-03-27T15:47:14Z</time>
      </trkpt>
      <trkpt lat="44.2165" lon="1.77191">
        <ele>315.5</ele>
        <time>2021-03-27T15:47:15Z</time>
      </trkpt>
      <trkpt lat="44.21657" lon="1.77182">
        <ele>315.5</ele>
        <time>2021-03-27T15:47:17Z</time>
      </trkpt>
      <trkpt lat="44.21663" lon="1.77173">
        <ele>315.6</ele>
        <time>2021-03-27T15:47:19Z</time>
      </trkpt>
      <trkpt lat="44.21666" lon="1.77169">
        <ele>315.6</ele>
        <time>2021-03-27T15:47:20Z</time>
      </trkpt>
      <trkpt lat="44.21669" lon="1.77164">
        <ele>315.6</ele>
        <time>2021-03-27T15:47:21Z</time>
      </trkpt>
      <trkpt lat="44.21673" lon="1.7716">
        <ele>315.5</ele>
        <time>2021-03-27T15:47:22Z</time>
      </trkpt>
      <trkpt lat="44.21677" lon="1.77156">
        <ele>315.5</ele>
        <time>2021-03-27T15:47:23Z</time>
      </trkpt>
      <trkpt lat="44.2168" lon="1.77152">
        <ele>315.5</ele>
        <time>2021-03-27T15:47:24Z</time>
      </trkpt>
      <trkpt lat="44.21684" lon="1.77147">
        <ele>315.4</ele>
        <time>2021-03-27T15:47:25Z</time>
      </trkpt>
      <trkpt lat="44.21687" lon="1.77142">
        <ele>315.4</ele>
        <time>2021-03-27T15:47:26Z</time>
      </trkpt>
      <trkpt lat="44.21691" lon="1.77138">
        <ele>315.3</ele>
        <time>2021-03-27T15:47:27Z</time>
      </trkpt>
      <trkpt lat="44.21695" lon="1.77134">
        <ele>315.3</ele>
        <time>2021-03-27T15:47:28Z</time>
      </trkpt>
      <trkpt lat="44.21699" lon="1.7713">
        <ele>315.3</ele>
        <time>2021-03-27T15:47:29Z</time>
      </trkpt>
      <trkpt lat="44.21703" lon="1.77125">
        <ele>315.3</ele>
        <time>2021-03-27T15:47:30Z</time>
      </trkpt>
      <trkpt lat="44.21707" lon="1.7712">
        <ele>315.2</ele>
        <time>2021-03-27T15:47:31Z</time>
      </trkpt>
      <trkpt lat="44.2171" lon="1.77116">
        <ele>315.2</ele>
        <time>2021-03-27T15:47:32Z</time>
      </trkpt>
      <trkpt lat="44.21714" lon="1.77111">
        <ele>315.2</ele>
        <time>2021-03-27T15:47:33Z</time>
      </trkpt>
      <trkpt lat="44.21717" lon="1.77106">
        <ele>315.3</ele>
        <time>2021-03-27T15:47:34Z</time>
      </trkpt>
      <trkpt lat="44.21722" lon="1.77096">
        <ele>315.4</ele>
        <time>2021-03-27T15:47:36Z</time>
      </trkpt>
      <trkpt lat="44.21726" lon="1.77087">
        <ele>315.5</ele>
        <time>2021-03-27T15:47:38Z</time>
      </trkpt>
      <trkpt lat="44.2173" lon="1.77078">
        <ele>315.5</ele>
        <time>2021-03-27T15:47:40Z</time>
      </trkpt>
      <trkpt lat="44.21734" lon="1.77069">
        <ele>315.5</ele>
        <time>2021-03-27T15:47:42Z</time>
      </trkpt>
      <trkpt lat="44.21739" lon="1.7706">
        <ele>315.4</ele>
        <time>2021-03-27T15:47:44Z</time>
      </trkpt>
      <trkpt lat="44.21743" lon="1.77049">
        <ele>315.3</ele>
        <time>2021-03-27T15:47:46Z</time>
      </trkpt>
      <trkpt lat="44.21746" lon="1.77038">
        <ele>315.2</ele>
        <time>2021-03-27T15:47:48Z</time>
      </trkpt>
      <trkpt lat="44.2175" lon="1.77028">
        <ele>315.2</ele>
        <time>2021-03-27T15:47:50Z</time>
      </trkpt>
      <trkpt lat="44.21756" lon="1.77018">
        <ele>315.1</ele>
        <time>2021-03-27T15:47:52Z</time>
      </trkpt>
      <trkpt lat="44.21759" lon="1.77013">
        <ele>315</ele>
        <time>2021-03-27T15:47:53Z</time>
      </trkpt>
      <trkpt lat="44.21765" lon="1.77003">
        <ele>314.9</ele>
        <time>2021-03-27T15:47:55Z</time>
      </trkpt>
      <trkpt lat="44.21768" lon="1.76998">
        <ele>314.9</ele>
        <time>2021-03-27T15:47:56Z</time>
      </trkpt>
      <trkpt lat="44.21771" lon="1.76994">
        <ele>314.8</ele>
        <time>2021-03-27T15:47:57Z</time>
      </trkpt>
      <trkpt lat="44.21775" lon="1.76989">
        <ele>314.7</ele>
        <time>2021-03-27T15:47:58Z</time>
      </trkpt>
      <trkpt lat="44.21778" lon="1.76984">
        <ele>314.6</ele>
        <time>2021-03-27T15:47:59Z</time>
      </trkpt>
      <trkpt lat="44.21782" lon="1.76979">
        <ele>314.5</ele>
        <time>2021-03-27T15:48:00Z</time>
      </trkpt>
      <trkpt lat="44.21786" lon="1.76974">
        <ele>314.4</ele>
        <time>2021-03-27T15:48:01Z</time>
      </trkpt>
      <trkpt lat="44.21789" lon="1.76969">
        <ele>314.4</ele>
        <time>2021-03-27T15:48:02Z</time>
      </trkpt>
      <trkpt lat="44.21793" lon="1.76964">
        <ele>314.3</ele>
        <time>2021-03-27T15:48:03Z</time>
      </trkpt>
      <trkpt lat="44.21797" lon="1.7696">
        <ele>314.3</ele>
        <time>2021-03-27T15:48:04Z</time>
      </trkpt>
      <trkpt lat="44.21801" lon="1.76955">
        <ele>314.3</ele>
        <time>2021-03-27T15:48:05Z</time>
      </trkpt>
      <trkpt lat="44.21805" lon="1.76951">
        <ele>314.3</ele>
        <time>2021-03-27T15:48:06Z</time>
      </trkpt>
      <trkpt lat="44.2181" lon="1.76947">
        <ele>314.2</ele>
        <time>2021-03-27T15:48:07Z</time>
      </trkpt>
      <trkpt lat="44.21813" lon="1.76943">
        <ele>314.2</ele>
        <time>2021-03-27T15:48:08Z</time>
      </trkpt>
      <trkpt lat="44.2182" lon="1.76935">
        <ele>314.2</ele>
        <time>2021-03-27T15:48:10Z</time>
      </trkpt>
      <trkpt lat="44.21826" lon="1.76929">
        <ele>314.3</ele>
        <time>2021-03-27T15:48:12Z</time>
      </trkpt>
      <trkpt lat="44.2183" lon="1.76922">
        <ele>314.4</ele>
        <time>2021-03-27T15:48:14Z</time>
      </trkpt>
      <trkpt lat="44.21833" lon="1.76916">
        <ele>314.5</ele>
        <time>2021-03-27T15:48:16Z</time>
      </trkpt>
      <trkpt lat="44.21837" lon="1.76911">
        <ele>314.7</ele>
        <time>2021-03-27T15:48:18Z</time>
      </trkpt>
      <trkpt lat="44.21843" lon="1.76909">
        <ele>314.4</ele>
        <time>2021-03-27T15:48:21Z</time>
      </trkpt>
      <trkpt lat="44.21847" lon="1.76916">
        <ele>313.9</ele>
        <time>2021-03-27T15:48:23Z</time>
      </trkpt>
      <trkpt lat="44.2185" lon="1.76926">
        <ele>313.2</ele>
        <time>2021-03-27T15:48:25Z</time>
      </trkpt>
      <trkpt lat="44.21853" lon="1.76932">
        <ele>312.9</ele>
        <time>2021-03-27T15:48:26Z</time>
      </trkpt>
      <trkpt lat="44.21856" lon="1.76939">
        <ele>312.4</ele>
        <time>2021-03-27T15:48:27Z</time>
      </trkpt>
      <trkpt lat="44.21859" lon="1.76945">
        <ele>312.1</ele>
        <time>2021-03-27T15:48:28Z</time>
      </trkpt>
      <trkpt lat="44.21861" lon="1.76952">
        <ele>311.7</ele>
        <time>2021-03-27T15:48:29Z</time>
      </trkpt>
      <trkpt lat="44.21864" lon="1.7696">
        <ele>311.4</ele>
        <time>2021-03-27T15:48:30Z</time>
      </trkpt>
      <trkpt lat="44.21867" lon="1.76968">
        <ele>311</ele>
        <time>2021-03-27T15:48:31Z</time>
      </trkpt>
      <trkpt lat="44.21871" lon="1.76976">
        <ele>310.6</ele>
        <time>2021-03-27T15:48:32Z</time>
      </trkpt>
      <trkpt lat="44.21874" lon="1.76984">
        <ele>310.2</ele>
        <time>2021-03-27T15:48:33Z</time>
      </trkpt>
      <trkpt lat="44.21878" lon="1.76993">
        <ele>309.8</ele>
        <time>2021-03-27T15:48:34Z</time>
      </trkpt>
      <trkpt lat="44.21882" lon="1.77002">
        <ele>309.4</ele>
        <time>2021-03-27T15:48:35Z</time>
      </trkpt>
      <trkpt lat="44.21885" lon="1.7701">
        <ele>308.9</ele>
        <time>2021-03-27T15:48:36Z</time>
      </trkpt>
      <trkpt lat="44.2189" lon="1.77019">
        <ele>308.4</ele>
        <time>2021-03-27T15:48:37Z</time>
      </trkpt>
      <trkpt lat="44.21894" lon="1.77027">
        <ele>307.9</ele>
        <time>2021-03-27T15:48:38Z</time>
      </trkpt>
      <trkpt lat="44.219" lon="1.77036">
        <ele>307.4</ele>
        <time>2021-03-27T15:48:39Z</time>
      </trkpt>
      <trkpt lat="44.21905" lon="1.77044">
        <ele>307</ele>
        <time>2021-03-27T15:48:40Z</time>
      </trkpt>
      <trkpt lat="44.21911" lon="1.77052">
        <ele>306.6</ele>
        <time>2021-03-27T15:48:41Z</time>
      </trkpt>
      <trkpt lat="44.21917" lon="1.7706">
        <ele>306.1</ele>
        <time>2021-03-27T15:48:42Z</time>
      </trkpt>
      <trkpt lat="44.21922" lon="1.77069">
        <ele>305.7</ele>
        <time>2021-03-27T15:48:43Z</time>
      </trkpt>
      <trkpt lat="44.21928" lon="1.77078">
        <ele>305.4</ele>
        <time>2021-03-27T15:48:44Z</time>
      </trkpt>
      <trkpt lat="44.21933" lon="1.77087">
        <ele>305.1</ele>
        <time>2021-03-27T15:48:45Z</time>
      </trkpt>
      <trkpt lat="44.21938" lon="1.77096">
        <ele>304.8</ele>
        <time>2021-03-27T15:48:46Z</time>
      </trkpt>
      <trkpt lat="44.21943" lon="1.77105">
        <ele>304.6</ele>
        <time>2021-03-27T15:48:47Z</time>
      </trkpt>
      <trkpt lat="44.21949" lon="1.77113">
        <ele>304.5</ele>
        <time>2021-03-27T15:48:48Z</time>
      </trkpt>
      <trkpt lat="44.21954" lon="1.77121">
        <ele>304.4</ele>
        <time>2021-03-27T15:48:49Z</time>
      </trkpt>
      <trkpt lat="44.2196" lon="1.77128">
        <ele>304.5</ele>
        <time>2021-03-27T15:48:50Z</time>
      </trkpt>
      <trkpt lat="44.21965" lon="1.77133">
        <ele>304.5</ele>
        <time>2021-03-27T15:48:51Z</time>
      </trkpt>
      <trkpt lat="44.21972" lon="1.77137">
        <ele>304.7</ele>
        <time>2021-03-27T15:48:52Z</time>
      </trkpt>
      <trkpt lat="44.21978" lon="1.7714">
        <ele>304.8</ele>
        <time>2021-03-27T15:48:53Z</time>
      </trkpt>
      <trkpt lat="44.21984" lon="1.77142">
        <ele>304.9</ele>
        <time>2021-03-27T15:48:54Z</time>
      </trkpt>
      <trkpt lat="44.2199" lon="1.77143">
        <ele>305.1</ele>
        <time>2021-03-27T15:48:55Z</time>
      </trkpt>
      <trkpt lat="44.21995" lon="1.77144">
        <ele>305.3</ele>
        <time>2021-03-27T15:48:56Z</time>
      </trkpt>
      <trkpt lat="44.21999" lon="1.77147">
        <ele>305.4</ele>
        <time>2021-03-27T15:48:57Z</time>
      </trkpt>
      <trkpt lat="44.22006" lon="1.77153">
        <ele>305.7</ele>
        <time>2021-03-27T15:48:59Z</time>
      </trkpt>
      <trkpt lat="44.22012" lon="1.7716">
        <ele>305.9</ele>
        <time>2021-03-27T15:49:01Z</time>
      </trkpt>
      <trkpt lat="44.22018" lon="1.77168">
        <ele>306.1</ele>
        <time>2021-03-27T15:49:03Z</time>
      </trkpt>
      <trkpt lat="44.22023" lon="1.77176">
        <ele>306.2</ele>
        <time>2021-03-27T15:49:05Z</time>
      </trkpt>
      <trkpt lat="44.22028" lon="1.77183">
        <ele>306.3</ele>
        <time>2021-03-27T15:49:07Z</time>
      </trkpt>
      <trkpt lat="44.2203" lon="1.7719">
        <ele>306.1</ele>
        <time>2021-03-27T15:49:09Z</time>
      </trkpt>
      <trkpt lat="44.22028" lon="1.77198">
        <ele>305.8</ele>
        <time>2021-03-27T15:49:11Z</time>
      </trkpt>
      <trkpt lat="44.22023" lon="1.77207">
        <ele>305.4</ele>
        <time>2021-03-27T15:49:13Z</time>
      </trkpt>
      <trkpt lat="44.22018" lon="1.77217">
        <ele>305</ele>
        <time>2021-03-27T15:49:15Z</time>
      </trkpt>
      <trkpt lat="44.22014" lon="1.77223">
        <ele>304.7</ele>
        <time>2021-03-27T15:49:16Z</time>
      </trkpt>
      <trkpt lat="44.2201" lon="1.77228">
        <ele>304.4</ele>
        <time>2021-03-27T15:49:17Z</time>
      </trkpt>
      <trkpt lat="44.22007" lon="1.77234">
        <ele>304</ele>
        <time>2021-03-27T15:49:18Z</time>
      </trkpt>
      <trkpt lat="44.22004" lon="1.77241">
        <ele>303.7</ele>
        <time>2021-03-27T15:49:19Z</time>
      </trkpt>
      <trkpt lat="44.22002" lon="1.77248">
        <ele>303.4</ele>
        <time>2021-03-27T15:49:20Z</time>
      </trkpt>
      <trkpt lat="44.22002" lon="1.77255">
        <ele>303.2</ele>
        <time>2021-03-27T15:49:21Z</time>
      </trkpt>
      <trkpt lat="44.22008" lon="1.77258">
        <ele>302.8</ele>
        <time>2021-03-27T15:49:23Z</time>
      </trkpt>
      <trkpt lat="44.22016" lon="1.77256">
        <ele>302.4</ele>
        <time>2021-03-27T15:49:25Z</time>
      </trkpt>
      <trkpt lat="44.22025" lon="1.77253">
        <ele>302.1</ele>
        <time>2021-03-27T15:49:27Z</time>
      </trkpt>
      <trkpt lat="44.2203" lon="1.77252">
        <ele>301.9</ele>
        <time>2021-03-27T15:49:28Z</time>
      </trkpt>
      <trkpt lat="44.22036" lon="1.77252">
        <ele>301.7</ele>
        <time>2021-03-27T15:49:29Z</time>
      </trkpt>
      <trkpt lat="44.22043" lon="1.77254">
        <ele>301.5</ele>
        <time>2021-03-27T15:49:30Z</time>
      </trkpt>
      <trkpt lat="44.22049" lon="1.77256">
        <ele>301.4</ele>
        <time>2021-03-27T15:49:31Z</time>
      </trkpt>
      <trkpt lat="44.22056" lon="1.77259">
        <ele>301.2</ele>
        <time>2021-03-27T15:49:32Z</time>
      </trkpt>
      <trkpt lat="44.22062" lon="1.77263">
        <ele>301.1</ele>
        <time>2021-03-27T15:49:33Z</time>
      </trkpt>
      <trkpt lat="44.22069" lon="1.77267">
        <ele>300.9</ele>
        <time>2021-03-27T15:49:34Z</time>
      </trkpt>
      <trkpt lat="44.22075" lon="1.7727">
        <ele>300.6</ele>
        <time>2021-03-27T15:49:35Z</time>
      </trkpt>
      <trkpt lat="44.22081" lon="1.7727">
        <ele>300.1</ele>
        <time>2021-03-27T15:49:36Z</time>
      </trkpt>
      <trkpt lat="44.22087" lon="1.77269">
        <ele>299.7</ele>
        <time>2021-03-27T15:49:37Z</time>
      </trkpt>
      <trkpt lat="44.22093" lon="1.77267">
        <ele>299.4</ele>
        <time>2021-03-27T15:49:38Z</time>
      </trkpt>
      <trkpt lat="44.22098" lon="1.77264">
        <ele>299.2</ele>
        <time>2021-03-27T15:49:39Z</time>
      </trkpt>
      <trkpt lat="44.22103" lon="1.77261">
        <ele>299.1</ele>
        <time>2021-03-27T15:49:40Z</time>
      </trkpt>
      <trkpt lat="44.22109" lon="1.77257">
        <ele>299</ele>
        <time>2021-03-27T15:49:41Z</time>
      </trkpt>
      <trkpt lat="44.22115" lon="1.77254">
        <ele>299.1</ele>
        <time>2021-03-27T15:49:42Z</time>
      </trkpt>
      <trkpt lat="44.22121" lon="1.7725">
        <ele>299.2</ele>
        <time>2021-03-27T15:49:43Z</time>
      </trkpt>
      <trkpt lat="44.22126" lon="1.77247">
        <ele>299.6</ele>
        <time>2021-03-27T15:49:44Z</time>
      </trkpt>
      <trkpt lat="44.22131" lon="1.77243">
        <ele>300.2</ele>
        <time>2021-03-27T15:49:45Z</time>
      </trkpt>
      <trkpt lat="44.22137" lon="1.77239">
        <ele>301.2</ele>
        <time>2021-03-27T15:49:47Z</time>
      </trkpt>
      <trkpt lat="44.22142" lon="1.77235">
        <ele>302</ele>
        <time>2021-03-27T15:49:49Z</time>
      </trkpt>
      <trkpt lat="44.22146" lon="1.77231">
        <ele>302.7</ele>
        <time>2021-03-27T15:49:51Z</time>
      </trkpt>
      <trkpt lat="44.22151" lon="1.77227">
        <ele>303.5</ele>
        <time>2021-03-27T15:49:54Z</time>
      </trkpt>
      <trkpt lat="44.22154" lon="1.77223">
        <ele>304.1</ele>
        <time>2021-03-27T15:49:56Z</time>
      </trkpt>
      <trkpt lat="44.22159" lon="1.77217">
        <ele>304.8</ele>
        <time>2021-03-27T15:49:59Z</time>
      </trkpt>
      <trkpt lat="44.22163" lon="1.77209">
        <ele>305.5</ele>
        <time>2021-03-27T15:50:02Z</time>
      </trkpt>
      <trkpt lat="44.22166" lon="1.77202">
        <ele>306.1</ele>
        <time>2021-03-27T15:50:04Z</time>
      </trkpt>
      <trkpt lat="44.2217" lon="1.77195">
        <ele>306.6</ele>
        <time>2021-03-27T15:50:06Z</time>
      </trkpt>
      <trkpt lat="44.22174" lon="1.77189">
        <ele>307</ele>
        <time>2021-03-27T15:50:08Z</time>
      </trkpt>
      <trkpt lat="44.22178" lon="1.77183">
        <ele>307.4</ele>
        <time>2021-03-27T15:50:10Z</time>
      </trkpt>
      <trkpt lat="44.22183" lon="1.77175">
        <ele>307.8</ele>
        <time>2021-03-27T15:50:12Z</time>
      </trkpt>
      <trkpt lat="44.22187" lon="1.7717">
        <ele>308.1</ele>
        <time>2021-03-27T15:50:14Z</time>
      </trkpt>
      <trkpt lat="44.22191" lon="1.77165">
        <ele>308.3</ele>
        <time>2021-03-27T15:50:16Z</time>
      </trkpt>
      <trkpt lat="44.22195" lon="1.7716">
        <ele>308.6</ele>
        <time>2021-03-27T15:50:18Z</time>
      </trkpt>
      <trkpt lat="44.22199" lon="1.77155">
        <ele>308.8</ele>
        <time>2021-03-27T15:50:20Z</time>
      </trkpt>
      <trkpt lat="44.22203" lon="1.77149">
        <ele>309.1</ele>
        <time>2021-03-27T15:50:22Z</time>
      </trkpt>
      <trkpt lat="44.22207" lon="1.77144">
        <ele>309.3</ele>
        <time>2021-03-27T15:50:24Z</time>
      </trkpt>
      <trkpt lat="44.22211" lon="1.77138">
        <ele>309.5</ele>
        <time>2021-03-27T15:50:26Z</time>
      </trkpt>
      <trkpt lat="44.22216" lon="1.77133">
        <ele>309.6</ele>
        <time>2021-03-27T15:50:28Z</time>
      </trkpt>
      <trkpt lat="44.2222" lon="1.77127">
        <ele>309.7</ele>
        <time>2021-03-27T15:50:30Z</time>
      </trkpt>
      <trkpt lat="44.22225" lon="1.77121">
        <ele>309.7</ele>
        <time>2021-03-27T15:50:32Z</time>
      </trkpt>
      <trkpt lat="44.2223" lon="1.77113">
        <ele>309.7</ele>
        <time>2021-03-27T15:50:34Z</time>
      </trkpt>
      <trkpt lat="44.22234" lon="1.77107">
        <ele>309.6</ele>
        <time>2021-03-27T15:50:36Z</time>
      </trkpt>
      <trkpt lat="44.22239" lon="1.77101">
        <ele>309.4</ele>
        <time>2021-03-27T15:50:38Z</time>
      </trkpt>
      <trkpt lat="44.22246" lon="1.77096">
        <ele>309.2</ele>
        <time>2021-03-27T15:50:40Z</time>
      </trkpt>
      <trkpt lat="44.22254" lon="1.77091">
        <ele>308.9</ele>
        <time>2021-03-27T15:50:42Z</time>
      </trkpt>
      <trkpt lat="44.22257" lon="1.77088">
        <ele>308.7</ele>
        <time>2021-03-27T15:50:43Z</time>
      </trkpt>
      <trkpt lat="44.22264" lon="1.77079">
        <ele>308.5</ele>
        <time>2021-03-27T15:50:45Z</time>
      </trkpt>
      <trkpt lat="44.22271" lon="1.77072">
        <ele>308.2</ele>
        <time>2021-03-27T15:50:47Z</time>
      </trkpt>
      <trkpt lat="44.22279" lon="1.77065">
        <ele>308</ele>
        <time>2021-03-27T15:50:49Z</time>
      </trkpt>
      <trkpt lat="44.22283" lon="1.77062">
        <ele>307.8</ele>
        <time>2021-03-27T15:50:50Z</time>
      </trkpt>
      <trkpt lat="44.22287" lon="1.77058">
        <ele>307.7</ele>
        <time>2021-03-27T15:50:51Z</time>
      </trkpt>
      <trkpt lat="44.22291" lon="1.77054">
        <ele>307.5</ele>
        <time>2021-03-27T15:50:52Z</time>
      </trkpt>
      <trkpt lat="44.22294" lon="1.7705">
        <ele>307.4</ele>
        <time>2021-03-27T15:50:53Z</time>
      </trkpt>
      <trkpt lat="44.22301" lon="1.77042">
        <ele>307</ele>
        <time>2021-03-27T15:50:55Z</time>
      </trkpt>
      <trkpt lat="44.22305" lon="1.77039">
        <ele>306.7</ele>
        <time>2021-03-27T15:50:56Z</time>
      </trkpt>
      <trkpt lat="44.22309" lon="1.77035">
        <ele>306.5</ele>
        <time>2021-03-27T15:50:57Z</time>
      </trkpt>
      <trkpt lat="44.22314" lon="1.77032">
        <ele>306.2</ele>
        <time>2021-03-27T15:50:58Z</time>
      </trkpt>
      <trkpt lat="44.22318" lon="1.77029">
        <ele>305.8</ele>
        <time>2021-03-27T15:50:59Z</time>
      </trkpt>
      <trkpt lat="44.22323" lon="1.77026">
        <ele>305.4</ele>
        <time>2021-03-27T15:51:00Z</time>
      </trkpt>
      <trkpt lat="44.22328" lon="1.77023">
        <ele>305</ele>
        <time>2021-03-27T15:51:01Z</time>
      </trkpt>
      <trkpt lat="44.22334" lon="1.7702">
        <ele>304.5</ele>
        <time>2021-03-27T15:51:02Z</time>
      </trkpt>
      <trkpt lat="44.2234" lon="1.77018">
        <ele>303.9</ele>
        <time>2021-03-27T15:51:03Z</time>
      </trkpt>
      <trkpt lat="44.22347" lon="1.77016">
        <ele>303.3</ele>
        <time>2021-03-27T15:51:04Z</time>
      </trkpt>
      <trkpt lat="44.22354" lon="1.77014">
        <ele>302.5</ele>
        <time>2021-03-27T15:51:05Z</time>
      </trkpt>
      <trkpt lat="44.22362" lon="1.77012">
        <ele>301.8</ele>
        <time>2021-03-27T15:51:06Z</time>
      </trkpt>
      <trkpt lat="44.22369" lon="1.77008">
        <ele>301</ele>
        <time>2021-03-27T15:51:07Z</time>
      </trkpt>
      <trkpt lat="44.22378" lon="1.77005">
        <ele>300.3</ele>
        <time>2021-03-27T15:51:08Z</time>
      </trkpt>
      <trkpt lat="44.22386" lon="1.77001">
        <ele>299.5</ele>
        <time>2021-03-27T15:51:09Z</time>
      </trkpt>
      <trkpt lat="44.22394" lon="1.76997">
        <ele>298.8</ele>
        <time>2021-03-27T15:51:10Z</time>
      </trkpt>
      <trkpt lat="44.22401" lon="1.76993">
        <ele>298</ele>
        <time>2021-03-27T15:51:11Z</time>
      </trkpt>
      <trkpt lat="44.22409" lon="1.76988">
        <ele>297.1</ele>
        <time>2021-03-27T15:51:12Z</time>
      </trkpt>
      <trkpt lat="44.22417" lon="1.76981">
        <ele>295.9</ele>
        <time>2021-03-27T15:51:13Z</time>
      </trkpt>
      <trkpt lat="44.22426" lon="1.76975">
        <ele>294.6</ele>
        <time>2021-03-27T15:51:14Z</time>
      </trkpt>
      <trkpt lat="44.22435" lon="1.76968">
        <ele>293.2</ele>
        <time>2021-03-27T15:51:15Z</time>
      </trkpt>
      <trkpt lat="44.22443" lon="1.7696">
        <ele>291.7</ele>
        <time>2021-03-27T15:51:16Z</time>
      </trkpt>
      <trkpt lat="44.22451" lon="1.76952">
        <ele>290.2</ele>
        <time>2021-03-27T15:51:17Z</time>
      </trkpt>
      <trkpt lat="44.22459" lon="1.76943">
        <ele>288.6</ele>
        <time>2021-03-27T15:51:18Z</time>
      </trkpt>
      <trkpt lat="44.22466" lon="1.76932">
        <ele>287.3</ele>
        <time>2021-03-27T15:51:19Z</time>
      </trkpt>
      <trkpt lat="44.22472" lon="1.7692">
        <ele>286.3</ele>
        <time>2021-03-27T15:51:20Z</time>
      </trkpt>
      <trkpt lat="44.22479" lon="1.76912">
        <ele>285.6</ele>
        <time>2021-03-27T15:51:21Z</time>
      </trkpt>
      <trkpt lat="44.22487" lon="1.76904">
        <ele>285</ele>
        <time>2021-03-27T15:51:22Z</time>
      </trkpt>
      <trkpt lat="44.22495" lon="1.76897">
        <ele>284.4</ele>
        <time>2021-03-27T15:51:23Z</time>
      </trkpt>
      <trkpt lat="44.22503" lon="1.76891">
        <ele>283.7</ele>
        <time>2021-03-27T15:51:24Z</time>
      </trkpt>
      <trkpt lat="44.2251" lon="1.76886">
        <ele>282.9</ele>
        <time>2021-03-27T15:51:25Z</time>
      </trkpt>
      <trkpt lat="44.22516" lon="1.76879">
        <ele>282</ele>
        <time>2021-03-27T15:51:26Z</time>
      </trkpt>
      <trkpt lat="44.22524" lon="1.76872">
        <ele>281</ele>
        <time>2021-03-27T15:51:27Z</time>
      </trkpt>
      <trkpt lat="44.22531" lon="1.76864">
        <ele>279.8</ele>
        <time>2021-03-27T15:51:28Z</time>
      </trkpt>
      <trkpt lat="44.22537" lon="1.76855">
        <ele>278.8</ele>
        <time>2021-03-27T15:51:29Z</time>
      </trkpt>
      <trkpt lat="44.22545" lon="1.76845">
        <ele>277.9</ele>
        <time>2021-03-27T15:51:30Z</time>
      </trkpt>
      <trkpt lat="44.22552" lon="1.76835">
        <ele>277.3</ele>
        <time>2021-03-27T15:51:31Z</time>
      </trkpt>
      <trkpt lat="44.22561" lon="1.76825">
        <ele>277.4</ele>
        <time>2021-03-27T15:51:32Z</time>
      </trkpt>
      <trkpt lat="44.22568" lon="1.76817">
        <ele>277.7</ele>
        <time>2021-03-27T15:51:33Z</time>
      </trkpt>
      <trkpt lat="44.22573" lon="1.76809">
        <ele>277.9</ele>
        <time>2021-03-27T15:51:34Z</time>
      </trkpt>
      <trkpt lat="44.22577" lon="1.76802">
        <ele>278.8</ele>
        <time>2021-03-27T15:51:35Z</time>
      </trkpt>
      <trkpt lat="44.2258" lon="1.76796">
        <ele>279.8</ele>
        <time>2021-03-27T15:51:36Z</time>
      </trkpt>
      <trkpt lat="44.22582" lon="1.7679">
        <ele>280.6</ele>
        <time>2021-03-27T15:51:37Z</time>
      </trkpt>
      <trkpt lat="44.22586" lon="1.76783">
        <ele>281.9</ele>
        <time>2021-03-27T15:51:39Z</time>
      </trkpt>
      <trkpt lat="44.22587" lon="1.76782">
        <ele>282</ele>
        <time>2021-03-27T15:51:41Z</time>
      </trkpt>
      <trkpt lat="44.22589" lon="1.76781">
        <ele>282.4</ele>
        <time>2021-03-27T15:51:44Z</time>
      </trkpt>
      <trkpt lat="44.22589" lon="1.76781">
        <ele>282.5</ele>
        <time>2021-03-27T15:51:45Z</time>
      </trkpt>
      <trkpt lat="44.22593" lon="1.76776">
        <ele>283.4</ele>
        <time>2021-03-27T15:52:22Z</time>
      </trkpt>
      <trkpt lat="44.22595" lon="1.7677">
        <ele>284.2</ele>
        <time>2021-03-27T15:53:01Z</time>
      </trkpt>
      <trkpt lat="44.22598" lon="1.76765">
        <ele>284.9</ele>
        <time>2021-03-27T15:53:06Z</time>
      </trkpt>
      <trkpt lat="44.22599" lon="1.76763">
        <ele>285.2</ele>
        <time>2021-03-27T15:53:07Z</time>
      </trkpt>
      <trkpt lat="44.22602" lon="1.76757">
        <ele>286</ele>
        <time>2021-03-27T15:53:10Z</time>
      </trkpt>
      <trkpt lat="44.22604" lon="1.76749">
        <ele>287</ele>
        <time>2021-03-27T15:53:13Z</time>
      </trkpt>
      <trkpt lat="44.22607" lon="1.76743">
        <ele>287.7</ele>
        <time>2021-03-27T15:53:15Z</time>
      </trkpt>
      <trkpt lat="44.2261" lon="1.76738">
        <ele>288.6</ele>
        <time>2021-03-27T15:53:17Z</time>
      </trkpt>
      <trkpt lat="44.22613" lon="1.76733">
        <ele>289.4</ele>
        <time>2021-03-27T15:53:19Z</time>
      </trkpt>
      <trkpt lat="44.22618" lon="1.76726">
        <ele>290.5</ele>
        <time>2021-03-27T15:53:22Z</time>
      </trkpt>
      <trkpt lat="44.22621" lon="1.76718">
        <ele>291.6</ele>
        <time>2021-03-27T15:53:25Z</time>
      </trkpt>
      <trkpt lat="44.22624" lon="1.7671">
        <ele>292.8</ele>
        <time>2021-03-27T15:53:28Z</time>
      </trkpt>
      <trkpt lat="44.22626" lon="1.76701">
        <ele>293.9</ele>
        <time>2021-03-27T15:53:31Z</time>
      </trkpt>
      <trkpt lat="44.22627" lon="1.76692">
        <ele>295</ele>
        <time>2021-03-27T15:53:34Z</time>
      </trkpt>
      <trkpt lat="44.22627" lon="1.76684">
        <ele>296</ele>
        <time>2021-03-27T15:53:37Z</time>
      </trkpt>
      <trkpt lat="44.22627" lon="1.76676">
        <ele>296.9</ele>
        <time>2021-03-27T15:53:40Z</time>
      </trkpt>
      <trkpt lat="44.22629" lon="1.7667">
        <ele>297.4</ele>
        <time>2021-03-27T15:53:42Z</time>
      </trkpt>
      <trkpt lat="44.22631" lon="1.76663">
        <ele>297.4</ele>
        <time>2021-03-27T15:53:44Z</time>
      </trkpt>
      <trkpt lat="44.22633" lon="1.76656">
        <ele>297.5</ele>
        <time>2021-03-27T15:53:46Z</time>
      </trkpt>
      <trkpt lat="44.22635" lon="1.76648">
        <ele>297.5</ele>
        <time>2021-03-27T15:53:48Z</time>
      </trkpt>
      <trkpt lat="44.22637" lon="1.76641">
        <ele>297.7</ele>
        <time>2021-03-27T15:53:50Z</time>
      </trkpt>
      <trkpt lat="44.22638" lon="1.76635">
        <ele>297.8</ele>
        <time>2021-03-27T15:53:52Z</time>
      </trkpt>
      <trkpt lat="44.2264" lon="1.76629">
        <ele>298</ele>
        <time>2021-03-27T15:53:54Z</time>
      </trkpt>
      <trkpt lat="44.22641" lon="1.76623">
        <ele>298.2</ele>
        <time>2021-03-27T15:53:56Z</time>
      </trkpt>
      <trkpt lat="44.22642" lon="1.76616">
        <ele>298.5</ele>
        <time>2021-03-27T15:53:58Z</time>
      </trkpt>
      <trkpt lat="44.22644" lon="1.76608">
        <ele>298.8</ele>
        <time>2021-03-27T15:54:01Z</time>
      </trkpt>
      <trkpt lat="44.22645" lon="1.76599">
        <ele>299.1</ele>
        <time>2021-03-27T15:54:04Z</time>
      </trkpt>
      <trkpt lat="44.22646" lon="1.76591">
        <ele>299.4</ele>
        <time>2021-03-27T15:54:07Z</time>
      </trkpt>
      <trkpt lat="44.22647" lon="1.76582">
        <ele>299.7</ele>
        <time>2021-03-27T15:54:10Z</time>
      </trkpt>
      <trkpt lat="44.22648" lon="1.76574">
        <ele>299.9</ele>
        <time>2021-03-27T15:54:13Z</time>
      </trkpt>
      <trkpt lat="44.2265" lon="1.76565">
        <ele>300.1</ele>
        <time>2021-03-27T15:54:16Z</time>
      </trkpt>
      <trkpt lat="44.22652" lon="1.76557">
        <ele>300.3</ele>
        <time>2021-03-27T15:54:19Z</time>
      </trkpt>
      <trkpt lat="44.22653" lon="1.76548">
        <ele>300.4</ele>
        <time>2021-03-27T15:54:22Z</time>
      </trkpt>
      <trkpt lat="44.22654" lon="1.76542">
        <ele>300.4</ele>
        <time>2021-03-27T15:54:24Z</time>
      </trkpt>
      <trkpt lat="44.22655" lon="1.76532">
        <ele>300.4</ele>
        <time>2021-03-27T15:54:27Z</time>
      </trkpt>
      <trkpt lat="44.22655" lon="1.76526">
        <ele>300.4</ele>
        <time>2021-03-27T15:54:29Z</time>
      </trkpt>
      <trkpt lat="44.22656" lon="1.76519">
        <ele>300.3</ele>
        <time>2021-03-27T15:54:31Z</time>
      </trkpt>
      <trkpt lat="44.22657" lon="1.76513">
        <ele>300.3</ele>
        <time>2021-03-27T15:54:33Z</time>
      </trkpt>
      <trkpt lat="44.22657" lon="1.76505">
        <ele>300.2</ele>
        <time>2021-03-27T15:54:35Z</time>
      </trkpt>
      <trkpt lat="44.22656" lon="1.76497">
        <ele>300</ele>
        <time>2021-03-27T15:54:37Z</time>
      </trkpt>
      <trkpt lat="44.22656" lon="1.76488">
        <ele>299.9</ele>
        <time>2021-03-27T15:54:39Z</time>
      </trkpt>
      <trkpt lat="44.22656" lon="1.7648">
        <ele>299.8</ele>
        <time>2021-03-27T15:54:41Z</time>
      </trkpt>
      <trkpt lat="44.22656" lon="1.76472">
        <ele>299.7</ele>
        <time>2021-03-27T15:54:43Z</time>
      </trkpt>
      <trkpt lat="44.22657" lon="1.76464">
        <ele>299.5</ele>
        <time>2021-03-27T15:54:45Z</time>
      </trkpt>
      <trkpt lat="44.22657" lon="1.76455">
        <ele>299.4</ele>
        <time>2021-03-27T15:54:47Z</time>
      </trkpt>
      <trkpt lat="44.22658" lon="1.76444">
        <ele>299.1</ele>
        <time>2021-03-27T15:54:49Z</time>
      </trkpt>
      <trkpt lat="44.22658" lon="1.76434">
        <ele>298.9</ele>
        <time>2021-03-27T15:54:51Z</time>
      </trkpt>
      <trkpt lat="44.22659" lon="1.76424">
        <ele>298.7</ele>
        <time>2021-03-27T15:54:53Z</time>
      </trkpt>
      <trkpt lat="44.22659" lon="1.76414">
        <ele>298.5</ele>
        <time>2021-03-27T15:54:55Z</time>
      </trkpt>
      <trkpt lat="44.22659" lon="1.76405">
        <ele>298.3</ele>
        <time>2021-03-27T15:54:57Z</time>
      </trkpt>
      <trkpt lat="44.2266" lon="1.76396">
        <ele>298.2</ele>
        <time>2021-03-27T15:54:59Z</time>
      </trkpt>
      <trkpt lat="44.22662" lon="1.76389">
        <ele>298</ele>
        <time>2021-03-27T15:55:01Z</time>
      </trkpt>
      <trkpt lat="44.22667" lon="1.76388">
        <ele>297.9</ele>
        <time>2021-03-27T15:55:03Z</time>
      </trkpt>
      <trkpt lat="44.22673" lon="1.76386">
        <ele>297.9</ele>
        <time>2021-03-27T15:55:05Z</time>
      </trkpt>
      <trkpt lat="44.2268" lon="1.76386">
        <ele>298</ele>
        <time>2021-03-27T15:55:07Z</time>
      </trkpt>
      <trkpt lat="44.22687" lon="1.76386">
        <ele>298.1</ele>
        <time>2021-03-27T15:55:09Z</time>
      </trkpt>
      <trkpt lat="44.22693" lon="1.76384">
        <ele>298.4</ele>
        <time>2021-03-27T15:55:11Z</time>
      </trkpt>
      <trkpt lat="44.22698" lon="1.76385">
        <ele>298.7</ele>
        <time>2021-03-27T15:55:13Z</time>
      </trkpt>
      <trkpt lat="44.22703" lon="1.76384">
        <ele>299</ele>
        <time>2021-03-27T15:55:15Z</time>
      </trkpt>
      <trkpt lat="44.22708" lon="1.76385">
        <ele>299.4</ele>
        <time>2021-03-27T15:55:17Z</time>
      </trkpt>
      <trkpt lat="44.22713" lon="1.76386">
        <ele>299.8</ele>
        <time>2021-03-27T15:55:19Z</time>
      </trkpt>
      <trkpt lat="44.22718" lon="1.76388">
        <ele>300.3</ele>
        <time>2021-03-27T15:55:21Z</time>
      </trkpt>
      <trkpt lat="44.22722" lon="1.76391">
        <ele>300.7</ele>
        <time>2021-03-27T15:55:23Z</time>
      </trkpt>
      <trkpt lat="44.22728" lon="1.76395">
        <ele>301.3</ele>
        <time>2021-03-27T15:55:26Z</time>
      </trkpt>
      <trkpt lat="44.22732" lon="1.76398">
        <ele>301.7</ele>
        <time>2021-03-27T15:55:28Z</time>
      </trkpt>
      <trkpt lat="44.22737" lon="1.764">
        <ele>302.2</ele>
        <time>2021-03-27T15:55:30Z</time>
      </trkpt>
      <trkpt lat="44.22742" lon="1.76403">
        <ele>302.6</ele>
        <time>2021-03-27T15:55:32Z</time>
      </trkpt>
      <trkpt lat="44.22746" lon="1.76405">
        <ele>303</ele>
        <time>2021-03-27T15:55:34Z</time>
      </trkpt>
      <trkpt lat="44.22751" lon="1.76408">
        <ele>303.3</ele>
        <time>2021-03-27T15:55:36Z</time>
      </trkpt>
      <trkpt lat="44.22755" lon="1.76412">
        <ele>303.6</ele>
        <time>2021-03-27T15:55:38Z</time>
      </trkpt>
      <trkpt lat="44.2276" lon="1.76414">
        <ele>303.8</ele>
        <time>2021-03-27T15:55:40Z</time>
      </trkpt>
      <trkpt lat="44.22765" lon="1.76416">
        <ele>304</ele>
        <time>2021-03-27T15:55:42Z</time>
      </trkpt>
      <trkpt lat="44.22771" lon="1.76418">
        <ele>304.2</ele>
        <time>2021-03-27T15:55:44Z</time>
      </trkpt>
      <trkpt lat="44.22776" lon="1.7642">
        <ele>304.4</ele>
        <time>2021-03-27T15:55:46Z</time>
      </trkpt>
      <trkpt lat="44.22781" lon="1.7642">
        <ele>304.6</ele>
        <time>2021-03-27T15:55:48Z</time>
      </trkpt>
      <trkpt lat="44.22787" lon="1.76421">
        <ele>304.8</ele>
        <time>2021-03-27T15:55:50Z</time>
      </trkpt>
      <trkpt lat="44.22792" lon="1.76421">
        <ele>305</ele>
        <time>2021-03-27T15:55:52Z</time>
      </trkpt>
      <trkpt lat="44.22797" lon="1.7642">
        <ele>305.1</ele>
        <time>2021-03-27T15:55:54Z</time>
      </trkpt>
      <trkpt lat="44.22803" lon="1.7642">
        <ele>305.3</ele>
        <time>2021-03-27T15:55:56Z</time>
      </trkpt>
      <trkpt lat="44.22808" lon="1.7642">
        <ele>305.5</ele>
        <time>2021-03-27T15:55:58Z</time>
      </trkpt>
      <trkpt lat="44.22814" lon="1.76418">
        <ele>305.6</ele>
        <time>2021-03-27T15:56:00Z</time>
      </trkpt>
      <trkpt lat="44.22819" lon="1.76416">
        <ele>305.7</ele>
        <time>2021-03-27T15:56:02Z</time>
      </trkpt>
      <trkpt lat="44.22825" lon="1.76414">
        <ele>305.8</ele>
        <time>2021-03-27T15:56:04Z</time>
      </trkpt>
      <trkpt lat="44.2283" lon="1.76412">
        <ele>305.9</ele>
        <time>2021-03-27T15:56:06Z</time>
      </trkpt>
      <trkpt lat="44.22835" lon="1.7641">
        <ele>306</ele>
        <time>2021-03-27T15:56:08Z</time>
      </trkpt>
      <trkpt lat="44.2284" lon="1.76407">
        <ele>306</ele>
        <time>2021-03-27T15:56:10Z</time>
      </trkpt>
      <trkpt lat="44.22845" lon="1.76404">
        <ele>306.1</ele>
        <time>2021-03-27T15:56:12Z</time>
      </trkpt>
      <trkpt lat="44.22851" lon="1.76401">
        <ele>306.1</ele>
        <time>2021-03-27T15:56:14Z</time>
      </trkpt>
      <trkpt lat="44.22857" lon="1.76398">
        <ele>306.1</ele>
        <time>2021-03-27T15:56:16Z</time>
      </trkpt>
      <trkpt lat="44.22863" lon="1.76396">
        <ele>306.1</ele>
        <time>2021-03-27T15:56:18Z</time>
      </trkpt>
      <trkpt lat="44.22869" lon="1.76393">
        <ele>306.1</ele>
        <time>2021-03-27T15:56:20Z</time>
      </trkpt>
      <trkpt lat="44.22875" lon="1.76392">
        <ele>306.2</ele>
        <time>2021-03-27T15:56:22Z</time>
      </trkpt>
      <trkpt lat="44.22882" lon="1.76392">
        <ele>306.2</ele>
        <time>2021-03-27T15:56:24Z</time>
      </trkpt>
      <trkpt lat="44.22889" lon="1.76392">
        <ele>306.2</ele>
        <time>2021-03-27T15:56:26Z</time>
      </trkpt>
      <trkpt lat="44.22896" lon="1.76392">
        <ele>306.2</ele>
        <time>2021-03-27T15:56:28Z</time>
      </trkpt>
      <trkpt lat="44.22903" lon="1.76393">
        <ele>306.2</ele>
        <time>2021-03-27T15:56:30Z</time>
      </trkpt>
      <trkpt lat="44.2291" lon="1.76393">
        <ele>306.2</ele>
        <time>2021-03-27T15:56:32Z</time>
      </trkpt>
      <trkpt lat="44.22917" lon="1.76392">
        <ele>306.2</ele>
        <time>2021-03-27T15:56:34Z</time>
      </trkpt>
      <trkpt lat="44.22922" lon="1.76392">
        <ele>306.2</ele>
        <time>2021-03-27T15:56:36Z</time>
      </trkpt>
      <trkpt lat="44.22929" lon="1.7639">
        <ele>306.2</ele>
        <time>2021-03-27T15:56:38Z</time>
      </trkpt>
      <trkpt lat="44.22936" lon="1.76388">
        <ele>306.3</ele>
        <time>2021-03-27T15:56:40Z</time>
      </trkpt>
      <trkpt lat="44.22943" lon="1.76386">
        <ele>306.4</ele>
        <time>2021-03-27T15:56:42Z</time>
      </trkpt>
      <trkpt lat="44.22949" lon="1.76383">
        <ele>306.6</ele>
        <time>2021-03-27T15:56:44Z</time>
      </trkpt>
      <trkpt lat="44.22956" lon="1.7638">
        <ele>306.8</ele>
        <time>2021-03-27T15:56:46Z</time>
      </trkpt>
      <trkpt lat="44.22962" lon="1.76377">
        <ele>307</ele>
        <time>2021-03-27T15:56:48Z</time>
      </trkpt>
      <trkpt lat="44.22968" lon="1.76374">
        <ele>307.2</ele>
        <time>2021-03-27T15:56:50Z</time>
      </trkpt>
      <trkpt lat="44.22974" lon="1.7637">
        <ele>307.5</ele>
        <time>2021-03-27T15:56:52Z</time>
      </trkpt>
      <trkpt lat="44.22981" lon="1.76367">
        <ele>307.7</ele>
        <time>2021-03-27T15:56:54Z</time>
      </trkpt>
      <trkpt lat="44.22989" lon="1.76365">
        <ele>307.8</ele>
        <time>2021-03-27T15:56:56Z</time>
      </trkpt>
      <trkpt lat="44.22996" lon="1.76364">
        <ele>307.9</ele>
        <time>2021-03-27T15:56:58Z</time>
      </trkpt>
      <trkpt lat="44.23002" lon="1.76364">
        <ele>308</ele>
        <time>2021-03-27T15:57:00Z</time>
      </trkpt>
      <trkpt lat="44.23009" lon="1.76364">
        <ele>308.2</ele>
        <time>2021-03-27T15:57:02Z</time>
      </trkpt>
      <trkpt lat="44.23015" lon="1.76364">
        <ele>308.3</ele>
        <time>2021-03-27T15:57:04Z</time>
      </trkpt>
      <trkpt lat="44.23022" lon="1.76365">
        <ele>308.5</ele>
        <time>2021-03-27T15:57:06Z</time>
      </trkpt>
      <trkpt lat="44.23029" lon="1.76365">
        <ele>308.7</ele>
        <time>2021-03-27T15:57:08Z</time>
      </trkpt>
      <trkpt lat="44.23036" lon="1.76365">
        <ele>308.8</ele>
        <time>2021-03-27T15:57:10Z</time>
      </trkpt>
      <trkpt lat="44.23043" lon="1.76366">
        <ele>309</ele>
        <time>2021-03-27T15:57:12Z</time>
      </trkpt>
      <trkpt lat="44.2305" lon="1.76366">
        <ele>309.2</ele>
        <time>2021-03-27T15:57:14Z</time>
      </trkpt>
      <trkpt lat="44.23056" lon="1.76366">
        <ele>309.3</ele>
        <time>2021-03-27T15:57:16Z</time>
      </trkpt>
      <trkpt lat="44.23063" lon="1.76367">
        <ele>309.4</ele>
        <time>2021-03-27T15:57:18Z</time>
      </trkpt>
      <trkpt lat="44.2307" lon="1.76366">
        <ele>309.5</ele>
        <time>2021-03-27T15:57:20Z</time>
      </trkpt>
      <trkpt lat="44.23078" lon="1.76366">
        <ele>309.5</ele>
        <time>2021-03-27T15:57:22Z</time>
      </trkpt>
      <trkpt lat="44.23085" lon="1.76365">
        <ele>309.7</ele>
        <time>2021-03-27T15:57:24Z</time>
      </trkpt>
      <trkpt lat="44.23093" lon="1.76364">
        <ele>309.8</ele>
        <time>2021-03-27T15:57:26Z</time>
      </trkpt>
      <trkpt lat="44.231" lon="1.76363">
        <ele>309.9</ele>
        <time>2021-03-27T15:57:28Z</time>
      </trkpt>
      <trkpt lat="44.23107" lon="1.76362">
        <ele>309.9</ele>
        <time>2021-03-27T15:57:30Z</time>
      </trkpt>
      <trkpt lat="44.23114" lon="1.76361">
        <ele>309.9</ele>
        <time>2021-03-27T15:57:32Z</time>
      </trkpt>
      <trkpt lat="44.2312" lon="1.76359">
        <ele>309.9</ele>
        <time>2021-03-27T15:57:34Z</time>
      </trkpt>
      <trkpt lat="44.23126" lon="1.76358">
        <ele>309.9</ele>
        <time>2021-03-27T15:57:36Z</time>
      </trkpt>
      <trkpt lat="44.23133" lon="1.76358">
        <ele>309.9</ele>
        <time>2021-03-27T15:57:38Z</time>
      </trkpt>
      <trkpt lat="44.23138" lon="1.76362">
        <ele>309.9</ele>
        <time>2021-03-27T15:57:40Z</time>
      </trkpt>
      <trkpt lat="44.23141" lon="1.76369">
        <ele>309.9</ele>
        <time>2021-03-27T15:57:42Z</time>
      </trkpt>
      <trkpt lat="44.23144" lon="1.76378">
        <ele>310</ele>
        <time>2021-03-27T15:57:44Z</time>
      </trkpt>
      <trkpt lat="44.23147" lon="1.76388">
        <ele>310</ele>
        <time>2021-03-27T15:57:46Z</time>
      </trkpt>
      <trkpt lat="44.2315" lon="1.76398">
        <ele>310.1</ele>
        <time>2021-03-27T15:57:48Z</time>
      </trkpt>
      <trkpt lat="44.23154" lon="1.76409">
        <ele>310.1</ele>
        <time>2021-03-27T15:57:50Z</time>
      </trkpt>
      <trkpt lat="44.23157" lon="1.7642">
        <ele>310.1</ele>
        <time>2021-03-27T15:57:52Z</time>
      </trkpt>
      <trkpt lat="44.23159" lon="1.7643">
        <ele>310</ele>
        <time>2021-03-27T15:57:54Z</time>
      </trkpt>
      <trkpt lat="44.23162" lon="1.7644">
        <ele>309.9</ele>
        <time>2021-03-27T15:57:56Z</time>
      </trkpt>
      <trkpt lat="44.23164" lon="1.7645">
        <ele>309.9</ele>
        <time>2021-03-27T15:57:58Z</time>
      </trkpt>
      <trkpt lat="44.23166" lon="1.7646">
        <ele>309.8</ele>
        <time>2021-03-27T15:58:00Z</time>
      </trkpt>
      <trkpt lat="44.23168" lon="1.76471">
        <ele>309.7</ele>
        <time>2021-03-27T15:58:02Z</time>
      </trkpt>
      <trkpt lat="44.2317" lon="1.76482">
        <ele>309.5</ele>
        <time>2021-03-27T15:58:04Z</time>
      </trkpt>
      <trkpt lat="44.23172" lon="1.76494">
        <ele>309.4</ele>
        <time>2021-03-27T15:58:06Z</time>
      </trkpt>
      <trkpt lat="44.23174" lon="1.76506">
        <ele>309.3</ele>
        <time>2021-03-27T15:58:08Z</time>
      </trkpt>
      <trkpt lat="44.23176" lon="1.76518">
        <ele>309.1</ele>
        <time>2021-03-27T15:58:10Z</time>
      </trkpt>
      <trkpt lat="44.23177" lon="1.7653">
        <ele>309</ele>
        <time>2021-03-27T15:58:12Z</time>
      </trkpt>
      <trkpt lat="44.23178" lon="1.76541">
        <ele>308.8</ele>
        <time>2021-03-27T15:58:14Z</time>
      </trkpt>
      <trkpt lat="44.23179" lon="1.76553">
        <ele>308.5</ele>
        <time>2021-03-27T15:58:16Z</time>
      </trkpt>
      <trkpt lat="44.23179" lon="1.76566">
        <ele>308.2</ele>
        <time>2021-03-27T15:58:18Z</time>
      </trkpt>
      <trkpt lat="44.2318" lon="1.76578">
        <ele>307.9</ele>
        <time>2021-03-27T15:58:20Z</time>
      </trkpt>
      <trkpt lat="44.23181" lon="1.76584">
        <ele>307.7</ele>
        <time>2021-03-27T15:58:21Z</time>
      </trkpt>
      <trkpt lat="44.23182" lon="1.76596">
        <ele>307.4</ele>
        <time>2021-03-27T15:58:23Z</time>
      </trkpt>
      <trkpt lat="44.23182" lon="1.76602">
        <ele>307.2</ele>
        <time>2021-03-27T15:58:24Z</time>
      </trkpt>
      <trkpt lat="44.23181" lon="1.76609">
        <ele>307</ele>
        <time>2021-03-27T15:58:25Z</time>
      </trkpt>
      <trkpt lat="44.23179" lon="1.76615">
        <ele>306.8</ele>
        <time>2021-03-27T15:58:26Z</time>
      </trkpt>
      <trkpt lat="44.23176" lon="1.7662">
        <ele>306.7</ele>
        <time>2021-03-27T15:58:27Z</time>
      </trkpt>
      <trkpt lat="44.23173" lon="1.76625">
        <ele>306.6</ele>
        <time>2021-03-27T15:58:28Z</time>
      </trkpt>
      <trkpt lat="44.2317" lon="1.76631">
        <ele>306.5</ele>
        <time>2021-03-27T15:58:29Z</time>
      </trkpt>
      <trkpt lat="44.23168" lon="1.76637">
        <ele>306.4</ele>
        <time>2021-03-27T15:58:30Z</time>
      </trkpt>
      <trkpt lat="44.23167" lon="1.76647">
        <ele>306.2</ele>
        <time>2021-03-27T15:58:32Z</time>
      </trkpt>
      <trkpt lat="44.23168" lon="1.76652">
        <ele>306.2</ele>
        <time>2021-03-27T15:58:35Z</time>
      </trkpt>
      <trkpt lat="44.23169" lon="1.76652">
        <ele>306.2</ele>
        <time>2021-03-27T15:58:50Z</time>
      </trkpt>
      <trkpt lat="44.23169" lon="1.76652">
        <ele>306.2</ele>
        <time>2021-03-27T15:58:50Z</time>
      </trkpt>
    </trkseg>
  </trk>
</gpx>